GFSCGP_sfc_wetblb_000.txt.gz
Wetbulb
50.91 44.80 41.21 43.88 46.08 45.93 45.93 43.55 42.01 44.26 48.19 44.02 44.24 44.91 45.98 47.38 47.36 47.70 47.04 47.64 48.23 49.20 51.24 52.47 53.00 53.46 53.08 53.19 54.64 57.37 58.49 60.41 60.92 60.82 60.89 61.50 61.71 61.52 62.22 63.14 63.30 63.14 62.68 61.94
47.03 41.52 46.15 48.11 48.83 47.29 45.39 42.46 42.12 45.18 47.81 44.09 44.32 44.32 45.59 45.86 45.34 45.94 47.09 47.54 48.83 49.55 50.35 51.51 52.47 53.03 53.15 53.32 53.64 54.26 56.33 58.62 59.91 60.72 61.38 61.74 62.02 62.54 63.24 63.65 63.81 63.96 63.50 63.09
42.74 44.75 48.93 49.42 46.63 45.54 43.83 41.91 42.18 42.44 45.41 46.45 43.47 42.10 43.18 45.81 48.00 48.08 48.81 49.49 49.89 49.81 50.05 50.85 51.35 52.00 52.57 52.94 52.97 54.58 55.01 55.90 59.08 59.95 60.59 60.59 61.04 60.88 60.44 61.59 61.99 62.68 63.10 63.28
44.16 47.81 47.92 46.39 45.53 45.97 41.05 46.09 45.77 44.77 41.45 37.14 43.39 33.97 40.39 44.29 45.96 46.98 46.73 47.85 48.53 49.07 50.09 51.21 51.78 51.41 51.72 52.96 54.00 54.51 54.52 54.85 56.57 58.27 58.96 58.83 58.40 58.34 59.89 60.47 61.26 61.92 62.76 63.06
41.68 44.29 45.02 44.57 46.13 46.88 44.11 47.21 43.97 43.39 39.84 38.62 40.18 36.01 39.03 44.53 43.77 45.45 46.23 47.72 48.82 49.17 49.52 50.44 51.57 52.75 52.96 53.08 52.64 52.96 54.19 54.71 55.25 54.92 54.95 55.84 58.11 59.10 59.98 60.47 60.05 60.08 60.98 63.13
44.30 47.63 47.11 46.57 47.47 47.07 47.49 43.63 43.06 41.47 38.77 33.31 36.26 36.38 36.62 41.50 43.90 45.58 47.20 48.19 49.41 49.71 49.49 50.66 52.18 52.78 51.90 52.21 52.20 51.97 52.10 52.30 52.93 54.48 56.02 55.62 54.39 54.77 55.88 56.74 57.23 57.96 58.93 59.87
42.33 42.84 43.82 46.23 42.89 44.38 43.35 38.92 34.04 31.90 31.87 32.81 37.77 35.48 38.46 43.78 46.90 47.40 47.51 48.07 49.00 49.51 48.88 49.41 49.89 50.43 50.91 50.86 51.28 52.08 51.77 51.38 51.95 52.01 51.99 52.18 53.35 55.58 56.66 57.16 57.46 57.85 58.14 58.65
38.12 35.75 42.52 45.50 43.28 41.73 41.11 39.60 35.27 30.49 31.78 33.33 37.90 34.13 40.25 45.16 47.03 47.57 49.14 49.27 49.80 48.95 48.55 49.15 49.82 49.91 49.93 50.86 51.25 51.51 51.92 51.80 52.00 51.71 51.53 51.51 51.55 51.67 52.89 54.14 54.77 56.21 57.51 58.78
40.56 38.67 43.92 45.00 44.58 42.70 41.19 38.57 40.43 37.87 37.71 33.41 37.63 40.85 43.49 45.16 44.61 45.15 46.95 48.85 47.90 48.24 47.95 48.54 49.38 49.49 49.54 50.03 50.72 50.99 51.03 51.40 51.74 51.54 51.46 51.26 51.36 50.96 50.81 51.29 51.45 52.29 53.00 55.04
44.88 37.50 43.48 43.39 43.95 42.36 39.04 41.65 35.79 37.32 29.44 27.41 34.94 35.44 37.41 40.62 42.14 44.63 46.20 46.51 47.73 48.79 48.42 48.65 49.01 49.50 49.74 49.69 50.55 50.71 51.01 51.01 51.50 51.44 51.10 51.67 51.56 51.79 51.59 51.26 50.82 51.01 51.32 51.78
46.07 43.42 39.68 41.93 40.73 39.84 38.85 37.97 38.24 37.34 36.03 30.47 29.33 34.19 41.68 42.78 44.17 43.86 45.80 48.02 47.58 47.44 47.89 48.37 48.70 49.47 49.82 49.90 49.99 50.06 50.17 50.39 50.42 50.85 50.84 50.66 51.17 51.82 51.74 51.44 51.86 52.03 52.23 51.88
45.88 43.79 38.03 39.52 42.18 44.21 41.04 40.11 40.50 34.33 32.99 34.47 31.37 32.74 44.58 44.06 45.66 46.89 47.28 48.62 47.20 47.89 48.29 48.71 48.74 49.00 48.92 49.30 49.60 49.12 49.39 49.31 49.96 50.36 50.48 50.49 50.79 50.79 50.33 50.47 51.11 51.97 51.73 52.55
46.75 42.60 36.65 36.12 39.47 42.02 40.43 41.98 41.35 40.68 39.23 35.09 30.64 33.25 44.31 44.34 45.61 47.19 46.66 47.00 46.70 47.93 47.79 48.31 48.07 48.25 47.95 48.44 49.37 49.17 49.24 49.39 50.31 50.46 50.04 49.91 49.74 49.56 49.31 49.89 50.93 51.50 51.32 51.24
47.47 42.22 38.70 34.16 36.72 40.65 38.57 40.93 41.82 39.70 34.21 34.71 36.45 38.14 42.60 44.02 44.81 45.78 44.59 46.98 46.56 47.34 47.33 46.50 45.76 45.68 46.35 46.98 48.23 48.62 49.03 49.54 49.65 49.44 48.66 48.16 48.44 48.22 48.23 48.64 49.01 49.32 49.67 49.48
45.90 39.22 39.94 40.62 41.25 40.22 40.00 39.99 40.46 38.92 40.06 35.14 38.92 39.45 43.17 44.17 45.25 46.75 46.14 46.40 46.52 46.33 46.43 45.40 44.97 44.78 45.37 46.70 47.78 47.56 47.64 47.10 46.39 46.27 46.20 46.82 47.43 47.11 46.86 46.60 46.87 47.56 47.89 48.30
43.69 37.37 37.60 35.39 39.63 38.11 36.84 38.94 39.12 39.86 40.53 40.23 40.69 40.01 46.23 46.96 44.41 44.93 43.89 46.08 46.28 45.63 45.06 45.29 45.23 44.68 45.48 45.80 46.10 45.95 45.15 44.62 44.94 43.80 44.15 45.70 45.26 45.08 44.83 44.89 45.25 45.92 46.14 46.48
40.45 37.37 34.71 30.69 36.92 36.47 33.33 37.98 38.87 39.43 40.69 39.76 36.39 41.44 44.76 43.46 45.44 45.42 45.39 44.95 45.78 44.54 43.79 43.94 44.38 45.31 44.80 44.00 44.44 41.69 41.52 42.37 42.58 42.29 42.87 42.51 41.71 41.39 41.97 42.83 42.80 42.78 42.48 42.91
39.30 37.78 36.24 31.38 33.59 25.49 38.64 43.12 43.08 40.94 42.31 42.55 42.85 43.57 44.34 44.21 45.01 45.26 45.72 43.87 44.92 43.67 43.75 44.19 43.49 42.90 42.72 42.81 41.88 39.79 39.54 39.15 39.13 39.13 39.02 39.29 39.32 39.00 39.45 39.65 39.53 39.82 40.57 40.66
39.61 37.28 33.05 30.32 31.13 36.10 39.68 42.37 40.76 38.18 38.92 43.53 42.21 43.50 43.52 44.03 41.97 41.70 45.33 44.33 43.35 43.19 43.24 42.82 41.85 40.97 40.17 39.17 37.91 37.23 36.69 36.57 36.67 36.39 35.80 36.85 37.26 36.77 37.13 36.97 36.88 37.46 38.29 38.89
40.90 38.61 34.33 28.81 26.89 28.10 37.96 42.10 44.47 42.40 33.05 43.54 44.04 43.65 43.71 41.57 35.43 38.02 42.78 44.59 43.69 44.17 43.86 40.64 39.41 39.04 37.31 36.26 35.85 34.40 33.75 32.97 32.74 33.45 33.99 34.86 35.36 35.11 34.62 34.93 35.07 36.00 36.93 37.24
34.57 34.08 31.47 31.98 29.92 34.98 42.65 42.80 43.97 32.25 35.16 43.50 44.36 44.30 43.98 40.06 40.42 42.01 43.68 43.25 42.59 40.83 39.62 39.83 39.09 35.83 33.99 34.09 32.97 31.09 30.41 29.50 31.65 32.83 33.04 33.11 33.54 33.33 33.88 33.94 34.39 34.38 34.36 35.70
35.06 32.69 32.29 33.51 29.83 26.92 43.94 42.57 37.24 41.64 43.91 44.29 44.66 43.16 41.26 41.81 43.81 43.20 42.20 40.74 40.00 39.16 38.46 37.20 34.55 33.25 32.79 32.87 30.65 28.69 28.20 31.15 32.32 32.09 31.96 31.90 32.07 32.64 33.30 31.93 32.46 32.70 32.66 32.43
32.44 38.03 35.52 37.08 35.96 43.61 43.69 42.69 45.03 44.74 44.18 43.70 43.57 43.93 44.05 43.40 42.74 41.82 40.31 39.24 38.99 37.13 34.50 33.68 32.14 31.12 31.26 31.72 30.01 27.96 29.28 30.61 30.91 30.43 30.02 30.54 31.11 31.22 31.51 30.72 30.60 30.39 31.43 31.36
38.87 42.47 38.05 38.36 39.66 41.24 44.11 46.25 42.64 42.80 41.71 42.98 42.62 42.93 42.49 41.35 41.22 40.47 39.48 38.55 37.53 34.52 32.03 31.59 30.41 29.25 28.49 29.69 29.84 29.01 29.31 30.21 29.80 28.65 28.82 29.45 29.19 30.23 30.17 30.84 30.96 30.08 29.61 30.35
39.41 40.65 38.66 38.56 41.92 43.24 44.09 43.67 42.02 40.65 40.08 39.93 40.26 40.79 40.48 39.81 38.17 37.74 37.42 36.59 33.27 32.31 30.60 29.90 28.42 27.98 27.46 27.66 27.70 28.45 29.58 29.64 28.52 28.36 28.35 28.37 29.09 28.58 28.69 29.57 29.24 29.53 31.14 32.63
40.64 38.96 36.41 36.27 41.08 41.14 41.54 42.99 40.29 39.82 39.86 39.57 37.97 35.67 37.50 38.04 37.72 37.46 35.43 33.09 31.44 29.61 29.01 27.93 27.40 26.50 26.40 26.75 27.22 28.44 29.42 28.83 27.59 27.21 27.52 27.59 27.98 27.82 28.11 27.67 28.10 33.25 34.53 35.75

GFSCGP_sfc_wetblb_003.txt.gz
Wetbulb
51.56 45.55 42.38 42.49 41.55 42.39 41.23 38.92 38.18 40.58 45.74 43.89 42.87 42.59 44.82 45.81 44.19 44.18 43.78 45.28 46.46 48.15 49.10 51.34 52.12 52.30 52.53 52.19 52.52 52.40 54.51 58.01 59.43 58.83 60.34 60.28 61.59 60.43 60.55 60.54 60.91 60.43 59.94 59.45
46.70 42.96 44.85 45.26 45.31 43.55 41.57 39.56 38.48 42.58 46.17 42.82 41.07 42.81 43.33 43.75 43.43 44.58 46.28 46.15 46.66 48.02 49.66 50.42 51.05 50.93 51.66 51.93 51.96 52.64 53.34 54.01 57.57 58.93 60.11 60.92 60.62 60.68 61.34 61.93 62.06 61.75 61.41 60.85
44.40 45.23 47.31 46.34 43.75 43.07 41.50 37.62 38.91 40.41 43.71 43.15 40.83 39.77 40.23 43.55 44.87 45.62 46.83 47.26 47.68 47.97 48.63 48.83 49.37 49.79 50.35 51.06 51.45 53.23 52.78 53.47 54.88 58.28 59.61 59.59 59.88 59.44 59.40 59.69 60.45 61.85 62.19 62.42
45.63 46.45 45.69 43.91 43.49 43.17 37.68 43.95 44.11 42.69 38.67 34.52 40.65 32.15 36.77 41.61 42.86 44.13 43.95 45.26 45.81 46.43 47.77 49.21 49.91 50.07 50.47 50.51 50.36 51.29 52.35 53.32 55.11 54.20 55.06 56.54 56.70 56.68 58.05 58.83 59.57 60.37 61.50 62.31
41.68 43.07 42.55 42.29 43.65 44.51 42.32 45.51 42.73 41.54 36.73 34.64 36.78 34.32 36.91 41.24 40.63 42.55 43.92 44.98 45.60 46.17 47.59 48.94 49.60 50.99 50.68 50.60 49.67 49.89 50.99 51.59 51.73 52.26 53.81 53.24 52.92 54.94 56.64 57.33 57.58 58.09 58.88 60.42
41.69 45.58 44.70 44.58 45.22 45.43 45.82 41.55 40.57 38.39 36.34 30.89 35.20 35.35 34.46 39.66 41.45 42.24 43.56 45.49 46.68 46.67 47.46 48.91 49.94 50.61 49.92 49.57 49.70 49.93 50.69 50.67 50.91 50.92 50.41 50.11 50.08 52.00 53.52 54.81 55.35 56.24 57.24 58.31
39.46 38.88 40.83 44.77 41.30 41.83 41.26 36.60 31.62 30.12 29.58 30.22 36.05 34.09 36.32 42.57 45.15 45.89 44.94 45.42 46.04 46.43 46.94 47.98 48.33 48.40 49.08 49.06 49.29 50.73 50.27 50.15 50.38 50.22 49.97 49.57 49.21 49.21 49.49 50.13 51.57 51.50 54.01 55.78
34.00 32.67 39.71 43.12 41.13 39.25 38.00 37.80 33.20 29.63 29.41 32.30 35.98 31.97 38.58 44.02 46.69 47.09 47.25 46.86 46.41 46.02 46.74 47.71 47.79 47.67 48.07 48.91 48.88 49.08 49.44 49.68 50.04 49.82 49.80 49.61 49.59 49.62 49.65 49.29 49.33 49.80 50.45 51.21
36.74 35.06 42.25 43.73 42.77 41.78 39.46 36.82 40.42 35.44 34.67 31.40 34.45 37.70 41.35 42.30 43.21 44.81 45.64 46.10 45.48 45.55 46.47 47.62 47.68 47.61 47.76 48.20 48.87 48.77 49.11 49.49 49.94 49.73 49.55 49.53 49.78 49.90 49.73 49.36 49.34 49.58 50.23 52.77
41.60 34.87 41.58 41.83 42.84 41.12 38.23 40.29 35.59 34.88 28.46 26.19 31.68 33.40 35.13 37.87 39.57 42.38 44.14 44.20 45.06 45.61 46.38 46.84 47.49 48.05 48.34 47.91 48.14 48.05 48.29 48.25 48.56 49.09 49.11 49.87 49.45 50.12 50.05 49.97 49.58 49.98 51.47 51.23
44.06 40.78 38.06 41.05 38.91 38.47 38.54 36.37 36.32 35.74 33.40 29.09 26.56 31.79 39.41 40.66 41.07 42.05 43.57 45.16 45.34 45.34 45.97 46.49 47.11 47.63 47.78 47.59 46.91 46.97 47.64 48.59 49.34 49.86 49.71 49.33 49.53 49.85 50.36 50.08 50.30 50.52 50.94 50.98
45.02 40.45 35.85 37.87 40.43 42.50 39.65 38.94 37.67 32.51 31.83 31.74 29.45 32.13 41.71 41.88 42.52 44.87 45.57 46.19 44.83 46.07 46.41 46.81 47.13 46.68 46.07 46.63 47.15 47.36 48.67 48.87 48.62 48.97 48.70 48.67 49.06 48.81 48.34 48.36 48.65 49.11 48.87 49.59
44.96 40.20 34.20 35.35 38.48 40.22 38.80 40.21 39.60 38.42 36.38 33.00 29.93 32.42 42.45 40.57 43.48 44.64 44.18 44.23 45.15 46.32 46.40 45.66 44.18 44.08 44.57 46.12 46.56 46.53 46.81 46.18 45.83 46.44 46.70 46.63 47.32 46.63 46.00 46.16 46.60 46.89 46.91 47.16
46.80 40.62 36.99 33.07 34.58 38.58 37.27 39.52 40.24 38.15 32.29 32.47 34.27 35.73 39.46 41.08 42.55 43.79 44.12 44.56 44.20 45.64 45.68 43.34 42.74 42.87 44.52 45.60 44.87 44.43 44.05 43.69 43.86 44.03 44.03 43.72 45.06 44.12 44.04 44.48 44.87 45.15 45.63 45.75
43.25 36.41 37.41 38.41 39.66 38.93 38.90 38.83 38.93 37.90 37.51 34.39 36.37 37.49 41.13 40.28 40.70 42.25 44.60 43.93 43.96 43.31 42.51 42.61 41.96 42.87 43.46 43.29 42.67 42.09 41.60 41.96 42.39 42.05 41.71 41.78 41.51 41.01 41.09 41.52 42.38 43.15 43.51 44.16
41.98 36.19 36.31 34.11 37.54 37.12 35.69 37.30 37.01 37.97 38.59 37.43 38.08 38.61 44.00 44.19 42.23 43.96 42.98 43.68 43.45 42.03 42.05 42.87 44.56 42.45 40.86 40.07 39.95 39.67 38.79 38.60 39.27 38.28 38.33 39.11 38.69 38.74 38.77 39.06 39.42 40.15 40.52 40.94
38.81 35.46 32.78 29.08 35.21 35.62 33.57 36.54 36.97 36.12 37.35 37.50 33.94 39.03 41.57 41.41 43.78 43.43 43.37 43.84 42.65 40.75 42.73 43.26 41.47 40.79 40.40 39.42 38.12 35.75 35.67 36.51 36.26 36.17 36.61 36.06 36.31 36.23 36.46 36.98 37.22 37.28 37.28 37.91
37.62 35.66 34.11 29.04 31.70 25.67 36.88 40.29 41.25 38.80 40.38 40.08 40.04 40.98 42.27 42.84 42.91 43.23 43.27 42.27 40.38 42.26 41.80 40.85 39.39 38.18 38.05 36.30 35.38 35.10 35.52 34.48 34.12 34.15 33.03 33.71 33.94 33.82 34.50 34.62 34.54 34.63 35.47 35.12
37.60 35.24 30.98 28.75 28.53 33.49 37.66 39.05 38.93 37.36 37.71 39.99 39.13 41.44 42.14 41.54 40.27 38.27 42.19 42.40 41.51 41.05 40.74 39.30 38.51 37.41 35.69 34.68 34.51 33.07 32.10 31.39 31.11 30.98 30.79 31.70 32.03 31.81 32.23 31.94 32.01 33.01 33.42 33.81
38.62 36.17 32.48 24.16 24.03 25.95 35.73 39.60 42.11 40.52 32.41 41.80 41.84 41.29 41.88 40.82 37.06 37.62 41.50 42.55 42.55 42.17 40.74 38.79 37.45 37.15 35.22 33.66 31.52 30.05 29.33 28.15 28.19 29.59 30.46 30.99 31.24 30.97 30.46 30.62 30.80 31.85 32.13 32.59
32.02 31.94 29.23 29.34 27.72 31.78 39.34 41.56 41.84 30.97 32.86 42.86 43.63 43.01 43.17 39.85 40.36 40.04 41.41 41.05 40.11 39.05 38.16 37.74 36.17 32.99 31.22 30.79 29.20 27.71 27.31 26.64 28.62 30.11 30.44 30.48 30.46 29.79 30.24 30.34 30.48 30.52 30.60 30.99
32.91 29.27 30.09 30.51 27.26 25.27 41.17 40.62 36.01 38.76 40.78 41.48 41.81 44.05 43.15 42.58 42.10 41.76 40.18 38.60 38.41 37.51 35.57 35.03 32.81 30.41 30.13 29.68 27.98 26.40 25.40 28.00 28.69 28.97 29.12 29.20 29.22 30.16 31.17 29.01 29.08 29.30 29.18 28.54
32.03 35.70 34.31 34.63 33.06 40.49 41.16 40.70 40.99 41.84 40.54 39.08 39.06 40.85 41.44 41.34 41.79 40.67 38.65 38.29 37.44 35.87 34.29 32.74 29.38 28.79 29.21 28.62 27.21 25.59 26.38 27.49 27.99 27.30 27.55 28.04 28.79 28.97 29.17 28.04 27.95 27.92 28.48 27.69
36.23 39.77 35.78 36.80 38.14 38.43 40.76 39.52 40.65 40.80 39.90 40.44 40.33 40.40 41.62 41.36 40.93 39.55 39.64 37.69 37.59 34.70 31.84 30.56 29.50 28.20 28.28 28.79 27.57 26.14 26.70 27.89 27.46 26.43 26.71 27.35 27.21 28.25 28.27 28.65 28.61 27.53 26.90 27.31
37.20 37.53 36.49 36.13 39.44 39.52 40.11 39.56 39.75 39.50 39.58 39.11 38.35 38.29 37.91 37.82 36.60 36.17 36.34 37.10 34.48 31.89 30.80 29.89 27.71 26.50 27.18 26.45 25.65 26.86 27.93 27.16 26.43 26.03 26.52 26.65 27.18 26.74 26.78 27.60 27.15 27.31 28.63 30.08
38.13 37.17 34.49 33.50 38.94 37.88 38.48 40.93 39.95 39.31 39.17 39.09 37.18 35.29 35.69 35.83 36.34 37.04 36.33 33.22 31.36 29.27 28.78 27.80 27.16 26.75 26.04 25.04 25.00 26.42 26.94 26.81 25.49 25.83 26.36 26.49 26.89 26.41 26.58 25.80 26.06 31.27 32.42 33.29

GFSCGP_sfc_wetblb_006.txt.gz
Wetbulb
53.03 47.61 43.71 44.79 44.61 42.09 40.30 37.17 36.26 39.52 43.85 42.85 41.70 41.28 44.50 44.00 42.72 42.03 42.59 43.70 45.10 46.83 47.57 49.51 49.92 50.46 51.29 51.30 51.40 51.42 52.74 53.57 58.13 59.28 58.85 58.65 60.25 59.80 59.30 59.41 59.33 58.78 58.37 57.88
48.26 45.09 47.79 47.99 45.07 42.12 40.01 37.38 36.30 40.90 44.25 42.34 40.13 40.99 43.45 41.47 42.10 43.16 44.64 44.32 45.75 46.30 48.04 48.88 49.41 48.94 49.23 49.07 50.34 50.96 51.52 52.36 54.76 57.88 59.13 59.81 59.57 59.82 60.48 60.94 60.80 60.57 59.96 59.62
45.40 47.50 49.67 46.50 42.28 42.19 39.31 36.96 37.14 39.28 42.36 41.96 39.84 38.92 38.28 41.72 42.97 44.01 44.48 45.50 46.32 46.92 47.57 47.81 48.08 48.38 48.29 47.89 47.72 49.94 50.89 52.51 53.14 56.82 58.51 58.54 59.24 58.95 58.86 59.25 59.92 60.92 61.35 61.51
45.88 46.22 46.49 45.10 41.79 40.96 36.34 42.22 42.74 40.92 37.18 33.87 38.77 31.47 34.53 38.93 41.55 42.34 41.93 44.12 45.05 46.43 47.29 47.77 48.30 48.18 48.10 47.89 48.18 49.31 50.06 50.46 51.56 52.73 53.00 53.36 54.24 54.08 56.04 57.06 58.16 58.42 59.39 60.33
44.29 44.23 43.94 42.52 41.98 42.65 40.60 44.48 41.02 39.80 35.15 33.06 34.38 32.94 35.60 39.56 39.59 41.89 42.32 43.10 44.33 45.31 46.71 47.40 47.85 48.91 48.36 48.32 48.07 48.74 49.72 50.42 49.70 49.23 49.62 49.59 49.18 51.78 53.23 53.31 52.57 53.41 55.22 56.58
42.45 46.16 44.16 43.04 44.37 44.28 44.97 40.59 38.82 36.28 34.36 29.49 34.06 34.80 33.97 37.04 40.74 41.11 41.68 43.04 44.76 45.47 46.29 47.14 47.84 48.90 48.34 48.02 48.49 48.74 49.36 49.20 49.38 49.31 48.68 48.04 47.53 47.72 48.46 48.41 49.47 50.21 51.97 54.03
40.91 40.06 40.89 44.26 39.97 40.70 40.05 35.63 30.24 29.14 28.57 29.10 33.69 32.61 36.79 40.70 42.32 45.35 43.62 43.33 43.96 45.22 46.04 46.51 46.32 47.10 47.51 47.36 47.62 49.07 48.76 48.48 48.53 48.40 48.46 48.24 47.92 47.76 47.40 47.29 47.53 48.03 49.31 49.70
34.26 34.09 39.02 41.81 40.82 38.41 37.15 36.66 31.25 27.84 27.14 31.00 34.35 31.28 37.14 40.24 43.07 45.18 45.62 44.80 44.58 45.10 45.80 46.35 46.26 46.69 46.98 47.59 47.52 47.37 47.67 47.72 48.17 48.22 48.28 48.32 48.65 48.68 48.59 48.08 47.94 48.21 48.39 49.01
35.05 33.70 39.84 41.39 40.99 41.80 37.29 35.12 38.45 34.18 31.58 30.44 33.39 36.61 38.53 41.67 42.02 43.60 43.67 43.97 43.56 44.61 45.48 46.22 46.25 46.74 47.11 46.64 45.82 46.43 47.10 47.42 47.80 47.97 48.17 48.23 48.19 48.37 48.18 48.03 48.24 48.45 48.81 50.55
38.82 32.19 38.51 39.69 41.15 39.25 38.52 40.42 34.06 33.30 28.21 26.18 30.14 31.38 34.79 36.98 39.78 42.22 42.60 42.85 43.35 43.94 45.10 45.86 46.29 46.61 46.06 45.70 45.70 46.52 47.25 47.29 47.53 47.70 47.49 47.97 47.83 47.83 47.57 47.26 46.82 47.06 47.69 48.04
41.24 37.16 35.38 38.27 36.96 36.97 36.94 34.76 34.69 34.71 32.78 28.60 26.25 31.22 37.95 38.76 40.64 42.60 43.19 43.85 44.03 43.67 44.55 45.09 45.76 45.35 45.37 45.45 46.05 46.46 46.59 45.89 45.54 46.23 46.24 45.75 46.64 46.40 45.74 45.21 45.36 45.28 45.37 45.62
42.98 37.82 32.93 35.57 39.23 40.54 38.44 38.04 36.07 31.54 30.26 29.86 28.48 31.80 40.13 38.47 40.80 42.17 43.44 44.72 43.54 44.45 44.88 44.94 44.06 44.78 45.03 44.88 45.05 44.40 43.99 43.01 43.10 44.13 43.95 43.72 44.82 43.76 42.78 42.44 42.86 43.54 43.04 43.73
44.22 38.30 32.47 33.72 37.33 39.12 37.75 38.69 37.62 36.63 34.85 31.82 29.40 32.35 40.80 41.23 40.18 41.96 42.79 43.08 43.88 44.43 44.36 42.64 42.64 43.81 44.23 43.73 43.38 42.44 41.67 41.09 41.72 42.14 41.77 41.37 41.57 39.94 39.04 39.57 40.48 41.01 41.07 41.46
45.85 38.27 36.29 34.47 35.46 38.16 36.49 39.14 38.70 36.52 31.27 31.67 32.19 33.73 37.22 39.47 41.28 42.62 43.64 44.92 42.91 44.51 43.04 41.31 41.70 43.08 42.69 42.15 41.15 39.80 39.47 39.58 40.00 40.21 39.33 39.37 37.64 37.13 37.46 38.00 38.15 38.37 39.04 38.97
41.89 36.19 36.41 36.70 37.96 37.70 38.00 38.19 38.68 36.60 35.09 33.51 33.76 35.61 37.58 40.04 40.78 42.32 42.28 41.97 43.04 41.93 41.26 40.99 42.17 41.12 40.40 39.32 38.23 37.40 37.18 37.32 37.97 37.02 36.94 36.24 36.25 36.02 35.94 35.84 35.89 36.42 36.70 36.75
41.44 36.14 36.36 33.70 36.95 36.53 34.92 36.42 36.51 36.93 37.82 37.48 36.91 37.65 41.53 42.32 40.32 41.27 39.49 41.55 41.70 40.64 40.62 43.18 42.30 39.18 37.89 36.64 35.88 36.04 35.35 35.64 35.82 34.50 34.38 34.26 33.51 33.38 33.23 33.45 33.77 34.04 34.05 34.19
38.83 36.00 33.42 29.59 34.86 35.43 32.50 34.99 34.81 33.93 35.00 35.99 32.62 37.02 40.27 40.40 42.12 41.16 40.95 41.57 40.88 39.47 42.41 41.79 39.58 38.80 37.84 35.56 35.18 33.92 33.79 34.01 32.80 32.98 31.78 31.78 31.83 31.41 31.54 32.05 32.10 31.82 31.66 32.53
36.55 34.12 32.74 29.35 31.13 25.85 34.09 38.36 39.68 37.20 37.88 37.92 38.49 39.81 40.21 40.85 39.95 39.65 40.45 41.70 39.19 41.81 40.86 39.45 37.93 36.62 35.60 34.31 33.67 32.81 32.51 30.77 30.09 30.07 29.81 30.66 30.68 30.22 30.55 30.39 30.12 30.03 30.67 30.46
37.18 34.00 30.48 28.76 28.00 32.88 35.83 38.06 37.93 36.83 35.89 39.49 39.51 39.78 40.77 40.94 38.74 38.37 40.89 40.43 40.19 39.84 39.07 37.78 36.78 35.97 33.91 32.74 31.37 30.22 28.84 28.04 28.49 28.69 28.73 29.63 29.69 29.26 29.36 28.74 28.73 29.35 29.42 29.46
36.29 35.27 32.62 25.14 24.91 26.41 33.87 38.81 40.70 38.73 30.66 39.95 40.55 40.07 40.55 40.18 35.27 37.38 39.88 40.88 40.42 39.26 38.11 36.86 36.25 35.97 32.66 30.15 28.83 27.61 26.75 26.32 26.64 27.77 28.50 28.97 29.14 28.77 28.04 28.07 28.06 29.23 29.10 29.43
30.18 30.20 28.73 29.17 26.79 30.54 37.19 40.03 40.50 30.59 30.53 39.51 40.41 40.01 39.89 38.75 39.37 39.50 40.57 38.88 38.21 37.73 38.09 36.98 34.51 32.89 30.63 28.25 27.29 26.26 25.68 25.14 26.71 27.89 28.18 28.30 28.33 27.78 28.02 28.31 28.46 28.23 27.98 28.44
30.97 27.90 28.03 28.66 25.94 24.22 39.02 39.14 35.31 37.38 39.15 39.03 39.32 39.02 38.71 39.42 40.02 39.44 39.03 38.06 38.02 36.88 34.99 34.29 30.69 31.59 30.71 30.07 27.08 25.15 23.98 26.16 26.61 26.93 27.29 27.36 27.19 28.13 29.26 26.91 27.10 27.30 27.06 26.42
31.60 34.84 32.74 32.47 31.40 38.55 38.82 39.44 40.02 40.99 39.68 38.37 38.67 39.00 39.68 40.17 39.70 39.98 38.73 38.71 38.64 36.00 33.58 32.71 31.51 30.65 30.27 27.79 25.69 24.13 25.05 25.76 26.15 25.39 25.55 26.17 26.95 26.83 27.04 25.74 26.08 25.93 26.41 25.61
34.20 37.10 35.21 35.75 36.60 37.43 38.72 38.65 39.17 39.96 39.98 40.43 39.69 39.09 39.09 38.48 39.59 38.72 37.68 36.66 36.31 34.18 31.62 31.36 30.21 28.88 26.80 26.57 26.10 25.11 25.33 25.89 25.21 24.22 24.78 25.52 25.25 26.61 26.50 26.88 26.87 25.77 24.86 25.20
35.73 36.24 35.32 34.85 37.63 37.76 37.79 38.81 39.13 39.14 39.25 38.38 38.07 38.29 38.62 37.57 36.20 35.04 35.73 36.23 34.49 31.82 31.07 30.09 28.50 25.98 25.07 24.69 24.37 24.88 25.62 25.10 23.81 23.83 24.20 25.15 25.75 25.29 25.47 26.30 25.77 25.57 26.80 28.31
36.49 35.93 34.08 32.94 37.47 37.30 37.05 38.35 39.33 38.21 37.98 38.70 37.68 36.31 34.99 34.75 34.90 35.32 35.05 32.34 30.16 29.85 29.40 26.61 25.13 24.15 23.85 23.55 23.51 24.32 25.27 24.73 23.70 24.14 24.90 25.02 25.52 25.07 25.50 24.78 24.73 29.92 31.14 32.18

GFSCGP_sfc_wetblb_009.txt.gz
Wetbulb
52.98 47.29 43.77 43.46 44.70 45.06 40.31 37.07 35.14 37.79 41.50 39.49 39.57 40.76 43.54 43.54 41.68 40.59 41.96 43.15 44.62 46.11 46.86 48.12 48.29 48.27 48.66 49.50 50.18 49.93 51.23 51.79 56.58 58.22 57.69 57.51 58.20 58.79 58.49 58.29 58.20 57.76 57.27 56.89
49.06 44.24 48.16 47.77 45.14 41.56 40.21 36.10 36.27 40.10 42.24 40.01 38.47 39.75 42.41 41.75 41.26 41.11 42.51 43.08 44.47 45.31 46.13 47.30 48.01 47.39 47.12 46.90 47.64 48.93 50.44 51.63 53.94 57.52 58.27 58.77 58.45 58.77 59.43 60.05 60.11 59.86 59.36 58.81
44.76 47.25 50.49 48.32 46.14 41.88 39.13 36.40 35.92 37.04 41.06 40.11 38.19 37.67 39.76 40.33 41.31 43.40 43.61 44.39 45.58 45.67 45.77 46.03 46.44 46.55 46.37 46.36 46.52 48.50 48.76 49.52 51.22 53.88 57.24 57.45 57.51 57.28 56.40 56.73 57.70 58.21 58.84 59.91
46.43 48.35 48.26 45.73 41.97 45.43 41.17 41.74 40.29 39.28 36.54 32.93 37.95 30.59 35.79 37.99 39.87 41.59 41.17 42.85 44.67 45.41 45.82 46.60 46.96 46.55 46.60 46.53 47.12 48.25 48.95 49.41 49.92 49.50 50.15 50.42 50.89 50.86 52.21 53.56 53.11 52.86 53.83 54.90
43.12 45.74 46.33 45.50 44.01 42.46 39.98 42.37 39.98 38.98 35.01 31.42 32.95 31.75 35.83 36.94 38.46 40.53 40.96 41.74 43.26 45.27 46.17 46.43 46.90 47.54 46.99 47.24 46.93 47.47 48.58 48.93 48.29 48.12 47.56 47.28 46.81 47.47 48.68 48.42 48.42 49.24 50.18 51.61
43.37 49.30 48.97 47.86 45.94 42.90 43.10 39.32 37.59 34.86 33.28 28.38 33.02 33.83 34.15 35.14 39.66 39.27 40.47 41.66 43.72 45.05 45.37 46.04 46.85 47.52 46.78 46.44 47.01 47.41 48.18 47.76 47.92 48.61 48.18 47.14 46.47 46.86 47.52 47.08 47.76 48.07 48.59 49.46
40.62 42.15 44.07 43.80 41.18 40.53 39.15 35.40 29.67 28.35 28.13 28.04 31.76 31.03 38.03 38.97 40.62 43.43 42.72 42.00 42.98 44.70 45.02 45.31 45.65 46.06 46.24 45.87 46.00 47.74 47.28 47.00 47.33 47.67 47.67 47.46 47.25 46.93 46.52 46.38 46.38 46.46 47.25 47.63
36.06 34.28 39.41 41.05 40.10 37.45 36.58 36.81 30.59 26.13 25.78 28.35 32.50 29.51 36.58 39.29 40.66 44.27 44.88 43.25 43.12 44.00 44.49 44.86 45.32 45.62 45.16 45.30 45.44 46.15 46.60 46.72 47.08 47.11 47.16 47.03 47.04 47.13 46.74 46.24 46.13 46.00 46.04 46.48
35.18 35.69 39.16 39.97 40.55 41.66 35.97 34.03 37.56 33.43 29.69 28.33 31.46 34.91 38.12 40.84 39.77 41.53 42.38 42.45 42.35 43.67 44.22 44.77 45.25 45.01 44.20 44.26 44.98 45.95 46.22 46.19 46.29 46.07 46.12 46.05 45.63 45.24 45.04 44.86 44.64 44.64 44.46 46.13
38.11 31.30 38.18 38.58 40.13 38.55 38.19 39.80 33.42 31.94 27.53 25.62 28.70 29.68 34.36 36.89 37.97 39.98 40.85 41.45 42.29 43.26 44.23 44.63 44.91 44.04 44.06 44.90 45.47 45.54 45.05 44.30 44.44 44.35 44.18 44.74 44.51 43.87 43.46 42.86 42.12 42.36 42.79 43.01
38.64 35.57 33.90 37.39 35.73 35.46 35.14 33.26 33.57 34.17 31.32 27.34 25.29 30.36 36.86 37.80 40.37 41.14 41.96 42.60 42.64 42.43 44.00 44.31 43.52 43.57 44.43 44.79 44.13 43.27 42.51 42.11 42.02 42.61 42.24 41.89 41.90 41.18 40.04 39.23 39.39 39.69 40.04 40.28
41.19 35.77 32.51 33.31 38.46 38.80 36.16 36.08 34.69 30.58 29.01 27.92 26.90 30.68 37.98 39.01 40.36 42.37 42.69 42.83 42.27 43.08 43.65 43.40 43.03 43.82 43.79 43.10 41.93 40.81 40.59 40.20 40.48 40.80 40.01 40.00 38.54 37.48 36.80 37.01 37.42 37.79 37.10 37.95
43.30 36.70 31.97 32.58 36.76 37.61 36.24 36.63 35.62 34.83 33.45 29.32 27.77 31.36 39.69 38.35 39.15 40.52 41.91 42.97 43.66 43.26 42.92 41.97 43.06 43.27 42.57 41.71 40.25 38.83 38.27 37.95 38.83 38.47 37.94 36.79 35.68 34.99 34.63 34.98 35.50 35.50 35.35 35.32
45.20 37.58 34.51 32.55 34.08 37.09 35.02 37.35 36.39 35.77 30.63 30.44 30.83 32.98 36.72 39.45 40.56 41.18 41.92 43.68 42.06 42.94 42.34 41.49 42.64 41.97 40.65 39.55 38.12 36.88 36.32 36.30 36.52 36.25 35.60 33.85 33.39 33.11 33.19 33.18 33.31 33.53 33.80 33.19
41.19 36.03 35.99 35.09 36.52 37.21 37.08 37.62 36.77 34.74 33.96 32.65 32.57 34.16 36.01 37.16 38.97 40.28 42.44 41.84 42.90 42.77 40.15 41.41 41.73 40.36 38.72 37.34 35.86 34.98 34.77 34.95 34.76 34.18 32.80 32.03 32.11 31.73 31.33 31.16 31.43 31.92 32.00 32.00
39.41 34.47 34.38 31.18 34.90 34.57 32.73 34.85 37.39 36.78 36.37 35.36 35.89 35.44 39.81 40.01 39.70 41.58 41.23 40.06 41.09 40.44 39.73 41.97 41.30 38.04 36.74 35.01 34.14 34.21 33.26 32.99 32.33 31.63 30.27 30.93 30.62 30.29 29.96 30.17 30.34 30.46 30.36 30.33
37.34 34.63 31.83 28.20 32.69 33.00 30.37 33.90 34.02 33.60 34.67 36.19 32.81 36.59 39.84 39.97 40.89 40.06 40.46 40.30 41.27 39.69 40.97 41.55 38.96 38.02 36.67 33.89 33.40 31.84 31.56 30.53 29.65 29.65 29.49 29.68 29.69 29.28 29.14 29.39 29.19 28.74 28.46 28.87
35.41 33.83 32.48 28.57 30.84 26.04 34.03 38.41 38.88 36.59 37.42 38.00 39.80 40.26 41.01 40.80 40.20 39.82 39.96 40.75 40.32 39.95 41.15 38.91 37.44 35.82 33.62 32.71 32.25 31.59 31.75 29.32 28.23 28.08 28.07 28.68 28.58 28.14 28.37 27.92 27.44 27.35 28.05 27.77
37.98 35.51 31.61 30.54 28.94 31.73 34.43 37.40 36.44 36.89 36.35 39.86 39.90 40.54 40.55 39.85 38.27 38.18 40.28 39.78 38.87 39.40 38.87 37.65 36.09 34.53 32.09 31.30 32.47 30.89 27.77 26.67 26.79 26.84 26.78 27.52 27.60 27.30 27.37 26.66 26.47 27.12 27.37 27.16
36.73 35.97 33.99 27.85 26.67 27.78 34.50 38.97 40.91 39.10 32.68 39.28 40.36 39.55 39.23 38.81 34.00 36.62 38.38 39.46 38.84 38.44 37.45 35.84 34.66 33.47 33.69 31.42 28.61 28.09 28.17 25.95 24.99 26.08 26.55 26.88 27.13 26.73 26.09 25.76 26.07 27.20 26.80 27.27
31.18 31.42 30.14 30.44 28.53 31.88 37.39 39.38 40.21 30.94 31.03 38.57 38.76 38.84 37.41 36.63 38.86 39.69 39.83 38.73 38.07 37.04 36.06 34.78 34.39 33.01 30.58 29.85 29.24 27.97 27.31 24.53 25.32 26.22 26.40 26.48 26.38 25.54 25.61 25.78 26.25 26.40 25.93 26.38
30.07 27.88 28.56 29.61 27.81 27.61 38.24 38.56 35.20 36.44 38.35 38.68 38.42 38.18 37.98 39.02 39.11 39.10 38.85 37.66 36.89 34.96 34.34 33.30 30.75 31.13 30.32 30.30 29.24 27.37 24.05 24.92 25.15 25.43 25.38 25.31 24.98 26.16 27.77 24.58 25.03 25.13 25.02 24.38
32.02 34.24 32.25 32.34 31.48 37.44 37.73 38.44 39.18 39.79 38.75 38.56 37.88 38.80 38.83 38.92 38.92 39.27 38.28 37.30 36.70 34.28 31.39 31.41 30.15 29.06 30.03 29.60 27.96 23.62 24.13 24.63 24.61 23.76 23.44 23.87 24.43 24.72 24.91 23.22 24.49 24.08 24.55 23.89
33.36 36.10 34.31 34.73 35.14 36.31 37.57 38.47 39.32 39.65 39.47 39.68 38.83 38.56 38.40 37.19 37.85 38.07 37.32 36.57 34.30 31.75 29.86 29.93 30.20 28.95 28.08 26.82 24.71 23.59 23.80 24.31 23.50 22.26 22.18 23.68 22.72 25.44 25.06 24.62 24.95 24.26 23.22 23.46
34.69 36.23 35.00 34.49 35.12 36.15 37.09 37.59 38.16 38.68 37.84 37.54 37.12 37.10 36.81 35.34 34.99 34.38 35.16 35.34 33.56 32.28 31.38 30.33 28.77 26.91 24.24 23.49 23.14 23.42 24.01 23.59 22.88 22.46 22.82 22.73 23.81 22.72 23.66 24.52 24.50 24.39 25.26 26.81
35.72 35.58 34.07 32.83 36.82 36.25 36.39 38.16 38.24 37.49 37.09 37.28 36.29 35.56 34.67 33.98 33.99 34.27 35.16 35.71 32.30 30.47 29.77 28.05 24.82 22.95 22.83 22.50 22.42 23.24 24.13 23.69 22.27 22.90 23.67 23.65 24.31 23.45 24.20 23.87 23.71 28.91 30.07 31.22

GFSCGP_sfc_wetblb_012.txt.gz
Wetbulb
51.19 46.84 42.99 43.88 46.44 42.56 40.36 36.67 36.71 37.70 40.41 37.65 37.88 37.96 41.93 43.27 41.88 40.39 39.91 42.16 42.62 45.08 45.63 47.06 46.84 46.70 47.22 47.23 47.64 48.22 50.96 52.14 56.42 57.04 56.52 56.47 56.75 57.54 57.84 58.49 58.57 57.72 56.98 56.57
48.92 43.39 47.05 46.46 45.35 43.20 39.61 38.76 35.27 40.05 40.66 38.18 38.41 38.54 41.62 41.65 41.64 40.24 41.30 42.40 43.30 43.96 45.37 46.23 46.42 45.90 45.90 45.85 46.83 48.31 48.67 49.72 52.63 56.65 57.11 57.51 57.42 57.84 58.43 57.88 56.76 56.97 58.36 58.45
44.75 46.73 49.07 46.82 42.66 42.80 38.90 38.55 36.71 38.15 39.52 39.06 36.83 36.33 37.71 39.33 40.03 41.15 42.23 43.24 43.98 44.53 44.87 45.01 45.37 45.21 45.39 45.63 45.88 47.67 47.64 48.64 49.26 50.31 53.53 53.27 53.89 52.86 51.96 52.22 51.25 51.81 52.54 51.75
46.03 49.42 47.75 45.69 43.93 43.94 39.60 41.81 40.87 38.38 35.51 31.77 36.60 29.88 34.83 37.09 38.34 40.10 40.31 42.55 43.58 44.48 44.83 45.65 46.12 45.87 45.82 45.75 46.56 47.29 48.03 48.26 48.64 47.97 48.52 47.77 47.23 47.00 48.02 48.61 48.02 49.06 49.62 49.82
43.91 45.91 46.49 44.83 45.65 45.82 42.07 44.01 41.70 40.24 34.15 29.88 32.18 30.75 34.02 34.72 36.91 39.24 39.83 41.12 42.77 43.87 44.82 45.34 46.10 46.60 46.15 46.38 45.82 46.16 47.69 48.00 47.88 48.05 47.28 47.47 46.52 46.37 46.76 46.91 46.64 46.88 47.62 48.39
44.40 48.30 48.41 47.79 47.16 45.73 44.83 41.02 39.02 34.79 32.61 27.73 32.16 32.93 31.69 34.29 36.65 37.54 39.46 40.64 43.11 44.03 44.55 45.30 45.76 45.90 45.13 45.30 45.86 46.27 47.52 47.07 47.47 47.85 47.31 46.55 45.52 45.40 45.47 45.22 45.08 45.71 46.16 46.69
41.10 43.71 45.69 45.87 42.44 42.58 41.83 38.01 31.41 28.04 27.69 27.51 30.50 29.30 34.04 37.43 39.04 41.42 41.84 41.02 42.33 43.76 43.86 44.41 44.41 44.38 44.42 44.57 45.51 47.00 46.68 45.99 46.46 46.59 46.19 45.70 45.16 44.40 43.85 43.74 43.79 43.09 43.53 43.83
35.87 34.85 40.66 41.33 43.28 39.92 39.22 35.67 29.86 25.98 24.97 27.27 30.75 28.45 34.84 37.56 39.85 41.01 43.67 42.77 42.64 43.30 43.34 44.13 44.18 43.73 43.57 44.59 45.14 45.51 45.38 44.95 45.11 45.21 44.83 44.10 43.71 43.90 43.11 42.43 42.36 41.95 41.99 42.41
36.33 35.20 39.68 41.68 42.72 44.38 35.28 34.71 36.40 31.67 27.63 27.57 30.66 33.53 38.78 39.44 39.32 39.02 40.77 41.75 41.80 42.70 43.29 43.84 43.56 42.98 43.32 44.20 44.54 44.31 43.82 43.46 43.32 43.03 43.19 42.01 41.21 40.49 39.94 39.87 39.42 39.49 39.65 41.22
37.32 30.91 38.87 39.14 41.53 39.82 37.86 39.56 32.72 31.44 26.89 25.17 27.97 28.47 33.03 36.48 37.99 38.48 38.95 40.12 41.11 42.31 43.14 43.37 43.06 42.81 43.75 44.16 43.16 42.27 42.10 41.55 41.48 41.10 40.96 40.03 38.64 37.82 37.34 36.97 36.20 36.42 36.96 37.22
37.25 34.02 34.01 38.60 35.24 35.01 34.81 33.38 32.60 33.77 30.72 26.76 24.72 29.66 35.44 36.59 37.42 39.61 39.62 40.48 41.05 42.18 43.14 43.01 42.39 43.25 43.69 42.55 41.25 40.22 40.01 39.90 39.26 39.23 38.48 36.69 35.97 35.36 34.76 34.35 34.39 34.33 34.46 34.72
38.84 34.20 30.30 33.41 37.42 37.77 35.75 35.05 34.35 30.63 27.57 26.63 26.22 30.09 37.16 37.08 38.09 40.31 40.88 41.62 41.38 42.41 43.26 42.46 42.19 43.01 42.16 40.49 39.26 38.16 38.10 37.81 37.51 37.86 36.20 34.53 33.83 33.10 32.17 32.17 32.62 33.07 32.14 33.24
41.12 34.71 30.63 34.12 36.12 36.75 35.04 34.74 34.16 33.39 31.53 26.85 26.90 30.46 38.88 36.76 38.65 40.23 40.95 41.72 42.68 42.16 41.89 41.27 42.13 42.09 41.10 39.29 37.84 36.46 35.83 35.33 35.60 35.37 33.16 31.87 31.24 30.53 29.87 30.28 31.41 31.84 31.58 31.47
45.51 36.70 33.40 31.90 32.95 36.41 33.68 34.86 34.00 34.49 29.31 29.03 29.49 32.71 36.73 37.52 38.29 39.57 40.74 41.45 41.49 41.56 41.53 41.45 41.76 40.90 39.54 37.85 35.89 34.41 34.05 33.83 33.85 32.77 31.12 30.16 29.74 29.36 29.35 29.72 30.11 30.40 30.53 29.67
41.23 35.17 34.51 34.03 36.82 37.09 36.88 36.95 34.77 33.71 34.29 32.73 34.01 33.53 36.36 37.66 38.56 39.53 40.06 40.51 40.99 41.44 40.21 42.11 41.51 38.94 37.09 35.25 33.89 33.03 32.73 31.82 31.99 30.32 29.73 29.38 29.68 29.42 29.06 28.99 28.98 29.09 29.06 29.34
39.66 34.58 33.42 30.35 33.84 33.43 32.97 35.94 35.20 34.52 34.15 32.75 34.06 34.17 38.09 37.89 39.49 40.49 39.28 40.75 40.70 41.46 39.83 41.65 40.52 37.72 35.43 33.32 32.60 32.32 30.98 29.93 30.07 29.41 29.96 29.37 28.96 28.70 28.38 28.25 28.31 28.13 28.05 28.00
36.72 34.29 32.49 28.29 31.91 31.71 29.35 32.92 35.04 34.89 35.17 36.40 33.52 36.44 38.29 39.16 40.80 40.46 40.90 40.46 40.50 40.37 39.10 40.87 38.57 37.20 34.72 32.57 32.17 30.16 28.91 29.10 29.08 29.92 27.91 28.09 28.12 27.71 27.60 27.69 27.19 26.88 26.55 26.54
36.11 33.87 32.47 27.48 29.26 22.89 32.02 35.99 35.89 35.03 35.19 35.80 37.71 38.73 39.88 40.54 39.76 39.31 39.19 39.56 40.32 38.90 40.17 39.22 37.22 34.61 32.47 31.69 30.54 29.37 29.83 30.01 28.65 26.94 26.59 27.17 27.05 26.49 26.64 25.92 25.26 25.04 25.89 25.50
36.87 34.67 30.43 29.11 27.03 30.52 34.35 35.81 35.98 36.14 35.38 39.39 39.11 40.07 39.79 39.15 37.97 37.81 40.04 39.27 37.80 38.37 38.88 37.38 35.61 33.34 30.85 30.12 30.80 30.72 28.87 26.23 26.10 27.94 26.66 25.98 25.93 25.43 25.36 24.62 24.25 24.93 25.14 25.40
36.16 36.48 33.61 28.48 26.88 26.58 32.85 37.90 40.18 39.80 33.11 40.33 40.84 39.66 39.43 38.20 33.63 36.61 39.07 38.76 38.14 38.20 36.89 34.80 33.07 31.98 30.65 28.41 27.45 26.28 25.65 27.66 27.56 27.26 25.20 25.35 25.44 24.74 24.03 23.68 24.08 24.85 24.87 25.81
31.11 30.84 29.68 30.26 28.89 31.60 37.22 39.44 39.98 31.78 32.60 40.06 39.69 39.19 38.95 37.12 38.24 39.16 38.97 37.46 36.98 35.62 34.59 33.48 32.27 29.64 27.78 28.28 29.33 26.16 25.36 26.51 25.94 25.04 25.04 24.97 24.76 23.79 23.83 23.73 23.92 24.73 24.49 24.64
30.14 28.15 28.35 29.33 27.49 27.34 37.48 38.45 35.04 36.69 37.62 39.00 38.76 38.74 37.96 38.15 38.93 39.04 38.37 37.16 35.49 33.81 33.04 31.82 28.98 29.34 30.18 29.80 26.39 25.03 26.42 24.46 24.00 24.03 23.88 23.69 23.39 24.69 26.39 22.87 23.39 23.17 23.13 22.80
31.38 33.62 31.28 32.25 32.10 37.38 37.30 37.89 38.89 39.69 38.58 37.89 38.36 38.55 39.17 38.59 37.63 38.25 37.63 36.38 35.28 33.39 31.17 30.23 29.06 28.20 26.62 26.52 27.49 23.84 23.20 23.32 23.16 22.41 22.22 22.36 23.10 23.33 23.48 21.64 22.99 22.93 23.39 22.85
32.07 35.19 34.11 34.28 35.51 36.36 37.94 38.73 39.46 39.66 39.31 39.27 38.60 38.41 37.81 36.83 36.84 36.01 36.65 35.78 34.36 31.27 29.29 28.87 28.70 28.20 28.09 27.44 24.29 22.58 22.72 23.00 22.32 20.79 21.01 21.97 21.45 23.87 23.23 23.90 23.85 22.31 22.39 21.86
34.22 35.40 34.14 33.65 34.67 36.39 36.91 37.71 38.77 38.63 38.59 38.53 37.76 36.62 36.29 35.19 33.96 33.17 34.45 34.36 32.46 30.64 29.65 29.67 28.66 27.33 26.28 22.58 22.16 22.34 23.03 22.49 21.90 21.42 21.99 21.88 22.84 21.07 22.53 23.63 22.63 22.89 24.01 25.64
34.74 34.63 33.66 32.87 36.56 36.24 35.99 38.17 38.12 38.12 37.01 36.36 35.92 33.96 33.56 33.20 33.76 33.40 33.96 34.11 30.81 29.32 29.59 27.97 26.74 24.34 22.10 21.58 21.37 22.17 22.86 22.51 20.87 21.47 22.93 22.92 23.43 22.19 23.43 22.64 22.52 28.09 29.36 30.44

GFSCGP_sfc_wetblb_015.txt.gz
Wetbulb
47.28 46.34 42.92 44.85 45.80 45.01 40.60 39.92 41.11 42.49 43.35 41.78 41.23 40.46 44.20 46.35 45.39 45.25 44.24 46.01 47.14 47.86 48.87 49.27 49.61 50.06 51.12 51.17 51.94 52.22 55.16 57.17 60.53 60.68 60.73 61.17 60.49 59.75 58.05 57.61 57.67 58.02 58.95 59.73
44.83 42.92 47.09 47.30 46.07 43.90 41.41 40.04 38.49 41.63 42.55 41.90 41.52 41.43 44.66 44.84 45.05 45.46 44.23 45.51 46.91 47.65 48.15 48.43 48.98 49.47 49.52 49.95 50.89 51.45 51.85 52.93 56.87 60.33 60.64 60.77 58.33 55.89 55.00 54.56 53.97 53.89 52.83 52.68
41.58 44.87 49.11 46.73 44.85 43.23 40.91 39.12 38.66 40.66 41.53 41.74 39.44 39.72 41.05 43.83 44.20 43.63 44.26 46.42 47.02 47.62 47.38 47.65 48.37 48.78 49.37 49.26 49.86 50.89 51.42 51.80 52.22 53.82 55.04 54.80 54.55 54.07 53.07 51.90 51.54 51.62 51.84 50.95
43.12 48.84 46.78 45.47 43.22 44.50 40.13 42.88 42.82 40.92 40.33 36.43 40.60 33.66 38.33 42.52 41.72 42.56 43.49 45.44 46.32 47.02 47.68 47.89 48.10 48.60 48.91 48.96 50.15 50.94 51.14 51.69 51.73 52.71 52.12 51.39 50.83 49.46 49.83 50.03 50.17 50.07 50.35 49.93
42.00 46.35 45.08 43.62 43.99 45.32 42.57 45.11 43.62 42.26 38.81 35.39 35.90 34.85 38.34 38.92 39.41 41.38 42.64 44.41 45.96 47.08 47.87 47.40 47.87 48.31 48.57 49.36 49.38 50.38 50.73 50.48 50.76 50.98 50.95 50.30 48.89 49.05 48.83 48.35 47.80 48.02 48.18 48.59
44.69 50.36 48.60 47.33 46.99 47.08 42.76 40.63 39.91 38.19 36.92 31.11 34.76 36.09 36.61 38.46 40.14 40.58 42.36 43.82 45.63 46.29 47.22 47.57 47.63 47.90 48.09 49.12 49.66 50.16 49.80 48.93 49.18 49.17 48.80 48.09 47.28 46.41 45.76 45.41 44.67 44.89 45.18 45.73
41.12 45.61 47.96 48.79 42.55 43.45 42.22 41.14 33.54 30.63 30.88 30.38 33.64 32.70 37.85 40.42 41.85 43.25 43.70 43.85 45.35 46.58 46.79 46.82 46.76 47.03 47.62 48.28 48.89 49.04 48.72 47.30 47.61 47.04 46.32 46.23 45.31 44.52 43.16 42.59 41.84 41.37 41.28 42.25
35.11 34.97 42.27 45.01 45.15 41.08 41.49 40.58 33.36 28.08 27.68 30.48 32.77 31.59 38.05 41.61 42.93 42.93 44.68 45.07 45.49 45.84 46.50 46.60 46.65 46.68 47.19 47.46 47.51 47.22 46.58 45.86 46.01 45.12 43.64 43.12 42.81 42.05 41.06 40.59 40.20 39.73 39.65 40.33
34.83 35.73 42.10 42.28 43.47 45.41 38.69 37.36 39.64 32.81 31.64 30.61 33.64 36.73 41.40 42.07 41.69 41.35 42.16 43.78 44.94 45.42 45.62 46.15 45.87 46.07 46.68 46.60 46.00 45.57 44.82 44.22 44.37 43.15 41.40 39.96 39.53 38.95 38.42 38.49 38.63 38.32 38.43 38.35
38.36 32.21 38.20 39.30 42.24 40.69 41.27 41.98 35.93 33.78 29.19 27.54 31.24 31.69 36.17 39.23 39.74 40.81 40.54 42.74 43.86 44.79 45.12 45.45 45.06 45.58 46.04 44.86 44.09 44.04 43.32 42.39 42.02 40.58 39.50 37.84 37.44 37.24 37.13 37.08 36.25 36.31 36.73 36.91
37.33 35.12 33.88 38.17 37.39 35.79 36.78 35.83 35.26 36.12 33.22 29.94 28.06 32.87 38.40 39.01 39.61 40.53 41.35 42.88 43.98 44.54 44.95 44.97 44.57 45.69 44.56 43.20 42.47 41.78 41.15 40.74 40.00 38.37 36.95 36.10 35.79 35.69 35.61 35.22 35.31 35.34 35.53 35.40
38.35 34.96 32.67 33.48 38.20 39.79 38.93 37.33 36.81 32.74 29.73 29.14 29.99 33.25 39.72 38.69 38.86 40.17 41.75 42.82 43.85 45.15 45.06 44.49 44.75 44.22 42.47 41.03 40.16 39.54 39.12 38.71 38.04 36.55 35.43 34.71 34.63 34.41 33.95 33.85 34.17 34.53 33.89 34.37
40.82 35.00 31.11 34.29 37.48 38.10 35.44 35.20 36.17 35.11 33.29 28.74 29.81 33.40 40.40 40.35 41.49 42.17 41.90 42.81 43.64 44.04 43.90 43.29 43.85 42.74 41.06 39.55 38.43 37.63 37.23 36.98 36.00 34.75 34.05 33.55 33.20 33.11 32.90 32.96 33.23 33.42 33.22 33.16
45.31 36.64 34.46 32.59 34.06 36.69 34.70 34.79 34.62 36.84 31.25 30.90 31.23 35.02 38.42 40.55 41.54 41.89 42.65 43.57 43.59 43.48 43.20 42.93 43.20 42.06 40.21 38.67 37.33 36.30 35.21 35.64 34.51 33.58 33.00 32.51 32.50 32.36 32.35 32.51 32.54 32.38 32.45 31.92
42.07 36.21 35.04 33.99 36.62 37.57 36.31 36.05 34.37 34.60 37.06 35.59 35.84 34.61 38.59 40.47 41.49 42.68 43.43 43.34 43.01 42.43 41.93 42.85 42.10 40.46 38.24 36.65 35.74 35.17 34.04 33.55 33.34 32.37 32.06 31.75 32.14 32.14 32.01 31.78 31.64 31.60 31.45 31.31
39.92 35.33 34.63 31.74 34.85 36.24 35.32 36.40 36.66 36.65 34.76 35.40 35.34 35.82 40.02 40.96 41.71 41.98 42.68 42.25 42.24 42.40 41.65 42.99 41.74 39.39 37.13 35.97 35.20 34.16 32.65 31.99 32.41 31.44 30.91 31.28 31.14 31.16 30.97 30.91 30.66 30.44 30.37 30.50
38.77 34.26 33.78 30.49 32.82 33.34 31.29 34.16 35.45 36.65 35.88 38.28 34.57 40.33 39.43 40.33 41.18 41.61 41.79 42.45 42.38 42.35 41.55 42.65 40.89 38.75 36.27 35.30 34.47 32.59 31.27 31.44 30.98 30.53 30.06 30.18 30.20 29.84 29.92 29.93 29.52 29.26 29.09 29.39
37.90 35.20 33.81 28.51 30.31 24.17 34.62 36.35 38.34 37.69 36.14 37.52 37.39 37.63 40.11 40.72 40.84 41.15 41.83 42.08 41.65 41.46 40.84 41.13 39.36 36.74 34.87 33.87 32.65 31.29 31.04 30.57 29.68 29.28 29.14 29.22 29.13 28.80 29.10 28.74 28.34 28.33 28.79 28.45
36.98 36.19 31.43 28.93 27.27 32.05 34.89 35.78 35.23 36.06 35.30 37.52 38.50 39.37 39.84 40.32 40.53 40.51 41.92 41.10 40.52 40.80 41.02 39.82 37.89 34.71 32.95 32.14 31.69 30.57 29.49 29.10 28.98 28.90 28.34 28.28 28.19 27.85 27.85 27.51 27.50 28.05 28.22 28.25
37.09 38.06 34.11 29.47 28.25 27.16 34.47 38.79 40.05 40.53 33.56 40.53 41.03 39.84 39.18 39.78 36.28 38.41 40.45 40.31 38.82 38.95 38.20 36.20 34.16 32.67 31.71 30.09 29.73 29.97 28.66 28.19 27.78 27.80 27.41 27.78 27.83 27.30 26.83 27.18 27.32 27.98 28.06 27.66
31.94 31.21 29.46 30.58 28.83 32.06 37.84 39.70 40.04 32.55 34.81 40.59 40.71 40.19 39.33 37.90 39.19 39.88 40.04 38.56 37.74 36.30 35.07 33.88 33.21 31.73 29.99 30.00 30.58 28.93 27.84 27.21 27.26 27.13 27.16 27.33 27.43 26.56 27.39 27.34 27.38 27.30 26.96 26.84
32.10 30.73 29.82 30.08 28.45 28.01 38.38 38.90 35.81 37.66 38.46 39.54 39.26 39.53 39.36 39.39 39.64 39.62 39.30 37.57 35.88 34.31 33.95 32.25 29.95 29.38 31.08 30.56 29.49 27.34 26.85 26.80 26.43 26.30 26.03 26.36 26.50 26.53 27.40 26.17 26.70 26.52 25.87 25.21
31.17 33.67 32.06 32.81 32.37 37.46 37.83 38.38 39.32 39.93 38.82 38.80 39.25 39.24 39.80 39.24 39.16 38.98 38.19 37.28 35.42 34.13 32.47 31.62 30.73 29.89 28.92 28.66 28.24 26.08 26.22 25.83 25.60 25.10 25.10 25.34 25.97 26.23 26.53 25.77 25.77 25.44 25.39 24.67
32.91 35.74 33.96 33.79 35.13 35.80 37.30 38.46 39.24 39.70 39.33 39.60 39.83 39.45 39.46 38.68 38.50 37.91 37.45 36.43 34.86 32.30 30.23 29.80 29.11 28.76 28.47 28.28 26.97 25.53 25.36 25.38 24.70 24.10 24.46 25.49 25.27 27.03 26.77 25.86 25.88 24.92 24.39 24.20
33.95 35.16 33.47 32.96 34.45 36.28 37.02 37.71 38.37 38.25 38.54 38.24 38.19 37.88 37.49 37.07 36.29 36.02 35.75 35.69 33.66 31.45 30.33 29.88 28.58 28.80 27.37 25.87 24.76 24.72 25.47 24.64 24.38 24.33 24.60 24.85 25.25 24.43 24.72 25.29 25.14 25.33 26.70 27.19
34.66 34.29 33.43 32.90 36.76 36.73 36.81 38.06 38.64 37.82 36.89 37.38 37.20 35.51 35.41 35.55 35.19 35.23 35.04 34.87 31.97 29.76 28.71 27.93 27.85 26.84 24.84 23.88 23.83 24.32 24.77 24.54 23.56 23.68 24.82 24.61 25.44 24.91 24.76 24.06 24.25 27.89 28.98 30.01

GFSCGP_sfc_wetblb_018.txt.gz
Wetbulb
47.38 41.12 40.31 44.75 47.74 47.77 47.17 45.58 44.65 47.91 50.66 47.15 48.08 49.21 50.07 52.77 53.39 51.99 52.18 52.19 52.86 53.06 53.46 54.42 55.20 56.45 57.02 57.98 59.09 61.21 62.84 63.93 64.60 64.62 64.23 63.04 60.18 59.69 58.39 57.83 57.04 56.55 56.61 56.25
42.28 38.51 45.61 48.68 48.84 47.21 47.27 44.77 44.48 48.30 47.88 46.54 48.25 48.28 51.32 52.78 52.28 52.18 52.54 51.76 52.58 52.19 52.90 53.41 54.28 55.20 55.49 56.06 56.88 57.72 59.61 62.67 63.86 64.47 63.20 60.05 58.15 57.05 56.65 56.30 55.49 55.12 54.37 54.09
38.69 41.36 46.87 47.36 46.89 45.32 45.62 43.70 44.62 45.13 46.19 48.87 46.56 46.70 49.43 49.33 48.99 48.96 50.01 52.91 52.99 52.53 52.00 52.74 53.71 54.55 55.37 55.39 55.73 56.06 56.90 58.01 58.61 58.75 58.23 57.78 57.61 57.01 55.52 54.51 53.91 53.35 53.31 52.25
40.52 45.41 45.17 46.03 44.99 46.65 42.97 47.70 47.16 45.63 45.00 41.53 46.31 40.38 47.04 49.14 48.57 47.96 49.52 51.26 51.91 52.29 52.83 53.00 53.32 53.88 54.51 54.86 56.10 56.22 56.35 56.42 57.02 57.76 56.93 55.95 54.54 52.44 52.70 52.73 52.76 52.30 51.77 50.21
38.04 42.92 44.26 43.83 45.76 48.54 44.75 48.86 47.35 46.69 44.33 41.37 44.57 41.27 45.92 45.64 46.18 46.99 48.99 50.81 51.50 52.37 52.51 52.31 52.79 53.06 53.89 54.96 55.14 55.32 55.07 54.66 54.89 55.02 54.91 53.82 52.45 52.13 51.86 51.25 50.46 49.98 49.60 48.57
42.42 47.71 47.56 48.09 49.29 49.08 48.90 46.94 44.39 42.91 40.80 38.04 43.63 41.82 44.19 45.32 45.99 46.65 48.92 50.58 51.12 51.73 52.24 52.53 52.69 53.20 53.34 54.53 54.58 54.25 53.22 52.67 53.18 52.84 52.35 51.63 50.49 49.42 48.79 47.89 47.04 46.78 46.39 46.19
37.75 38.56 48.44 50.10 45.36 45.77 47.34 44.43 36.28 34.46 35.13 36.68 40.24 39.27 45.15 47.04 47.05 48.21 48.42 50.18 51.17 51.97 51.79 51.36 51.55 52.18 52.73 52.98 53.13 52.84 51.93 50.45 50.86 50.33 49.54 48.99 48.11 47.15 45.78 45.05 44.28 43.52 43.29 43.28
33.57 34.83 44.61 49.21 46.92 41.29 43.10 44.77 39.58 32.33 34.47 37.63 38.25 38.19 44.18 46.50 47.70 48.15 50.69 51.48 51.53 51.51 52.18 51.86 52.18 52.38 52.27 52.08 51.91 51.47 50.42 49.19 48.74 47.69 46.69 46.17 45.85 44.84 43.76 42.93 42.42 41.79 41.30 41.30
34.10 35.10 44.19 46.34 46.55 46.65 41.98 41.02 44.55 38.19 38.37 38.15 40.84 43.31 46.45 46.69 46.78 46.52 47.92 50.29 50.41 51.19 51.53 51.55 51.81 52.24 51.81 51.19 50.47 49.96 49.23 48.07 46.84 45.66 44.92 43.61 42.99 42.24 41.53 41.21 41.21 40.34 40.22 39.63
40.58 34.48 41.28 41.16 46.52 44.30 44.87 46.80 38.26 39.63 33.50 32.32 38.14 39.33 43.31 44.89 45.43 45.75 46.62 48.83 50.50 51.24 51.20 51.10 51.04 51.46 51.18 49.98 49.28 48.78 48.27 46.10 44.92 44.01 42.92 41.88 40.86 40.37 40.05 40.04 39.24 39.26 39.21 39.21
43.85 41.57 36.71 38.76 41.76 41.72 41.41 39.34 40.07 41.41 40.07 37.08 35.82 39.79 46.07 45.41 46.16 45.72 47.72 49.63 50.67 50.47 50.74 50.60 50.62 50.93 49.55 48.74 48.05 46.69 46.22 44.88 43.16 42.19 41.31 40.50 39.37 38.87 39.01 38.62 38.44 38.38 38.42 38.17
45.02 42.94 38.34 39.31 41.80 45.94 46.43 43.14 44.54 38.42 36.06 39.05 39.03 40.94 45.83 46.23 45.73 45.74 48.07 49.09 50.96 51.09 51.12 50.62 50.39 49.28 47.75 47.07 46.20 45.23 44.81 43.65 42.04 40.71 39.60 38.62 38.36 38.49 38.16 37.71 37.71 37.73 37.25 37.67
45.21 41.54 36.17 36.98 40.95 41.77 41.14 44.94 46.26 45.16 41.31 38.60 37.54 40.46 45.60 47.38 47.67 46.97 48.19 49.18 50.23 50.41 50.00 49.63 49.48 48.20 47.24 45.94 44.81 43.89 43.58 41.97 40.29 39.08 38.50 38.09 37.70 37.60 37.23 37.09 37.06 36.95 36.65 36.61
46.68 42.84 40.32 36.66 39.69 43.07 40.04 42.81 44.04 44.02 39.40 40.08 39.89 43.01 44.44 46.35 47.30 47.56 48.30 49.49 49.82 49.51 49.08 48.99 48.80 48.15 46.84 45.28 43.79 42.55 41.66 40.61 38.54 37.66 37.39 36.83 36.60 36.59 36.61 36.62 36.32 36.04 36.06 35.69
45.27 40.31 42.10 41.83 42.21 43.25 42.02 41.43 41.49 41.51 43.47 40.22 43.31 41.99 45.68 47.96 48.21 49.30 49.56 49.18 48.93 48.66 48.25 48.19 48.38 47.66 46.03 43.86 42.65 41.38 39.81 38.62 37.45 36.73 36.42 35.67 35.81 36.08 36.08 35.80 35.68 35.62 35.38 35.19
46.11 40.82 40.45 38.35 40.07 41.97 39.98 42.31 43.34 43.73 44.49 44.21 44.04 43.56 48.14 48.41 48.52 47.38 49.23 48.81 48.31 48.26 47.79 48.14 48.21 47.48 45.02 43.00 41.40 39.99 38.16 36.58 36.72 35.79 34.95 34.92 34.97 34.78 34.88 35.05 34.70 34.73 34.69 34.74
44.60 42.61 39.79 37.44 38.40 39.00 36.76 41.38 41.51 42.36 44.16 44.05 40.74 46.02 46.54 44.90 45.78 47.21 47.93 48.02 47.97 48.32 48.00 47.50 47.55 46.11 43.35 42.35 41.27 39.35 37.36 36.21 35.46 34.64 34.03 33.81 33.90 33.72 34.00 34.15 33.90 33.79 33.72 34.16
43.38 41.57 40.25 37.59 37.27 30.64 42.41 42.32 45.66 43.82 44.94 45.59 45.61 45.40 46.65 47.25 47.66 47.16 48.38 47.99 47.45 47.22 47.08 47.49 46.63 44.19 42.32 40.94 39.47 37.36 36.19 35.25 34.18 33.83 33.51 33.36 33.15 32.92 33.40 33.35 33.35 33.54 33.68 33.28
43.25 39.92 38.29 34.82 35.11 39.07 39.12 39.71 40.66 41.30 42.50 45.02 44.93 44.48 45.78 45.58 46.22 44.41 45.56 46.08 46.00 46.39 46.90 46.66 45.88 42.81 40.11 39.13 37.96 36.56 34.74 33.09 33.41 32.98 32.61 32.62 32.65 32.20 32.44 32.44 32.58 32.96 32.66 32.52
39.92 43.50 39.95 36.35 32.03 31.91 39.61 42.33 44.49 45.25 38.57 44.47 45.38 44.74 44.08 44.96 42.44 43.98 44.58 44.30 44.02 44.49 44.55 43.04 40.81 39.66 39.42 37.46 36.57 35.26 32.53 31.99 32.59 32.21 31.97 32.48 32.48 32.00 31.79 32.15 32.10 32.53 32.40 31.54
36.34 38.37 38.15 36.46 34.46 38.20 41.61 43.38 44.70 36.75 39.79 44.47 45.70 45.32 44.70 44.08 45.00 44.11 43.20 42.16 42.93 42.38 40.91 39.91 39.13 38.62 37.58 35.97 34.23 32.07 31.24 32.12 32.17 32.05 32.05 32.21 32.41 31.92 32.01 32.09 32.24 31.85 31.28 30.83
37.54 37.08 36.08 36.42 34.40 32.96 43.44 42.46 40.67 43.52 45.07 45.66 45.79 45.66 44.17 43.63 43.41 43.50 42.60 40.78 39.85 38.77 38.18 38.76 37.84 36.52 35.77 34.61 33.06 30.70 31.45 32.15 31.95 31.55 31.37 31.62 31.97 31.70 31.48 31.44 31.53 31.22 30.55 29.52
37.56 41.59 38.66 39.39 39.26 41.34 42.39 42.72 43.80 46.84 44.65 44.01 44.12 44.48 44.28 43.13 42.98 43.02 42.03 40.93 39.78 38.88 37.78 38.01 37.43 35.03 33.05 32.08 32.73 31.89 31.74 31.54 31.08 31.00 31.00 31.21 31.45 31.54 31.83 30.83 30.03 29.55 29.62 28.54
38.35 40.43 39.81 38.37 39.37 40.08 41.47 42.66 44.27 45.52 44.03 44.62 44.79 44.35 44.64 43.25 43.15 42.49 42.33 41.32 40.01 38.78 37.37 36.76 35.74 33.16 31.55 32.47 31.32 31.50 31.24 30.99 30.28 30.15 30.59 31.01 30.65 30.53 30.93 30.55 30.10 28.96 28.38 27.84
40.94 40.76 39.33 37.33 39.15 40.82 41.80 43.64 43.36 42.93 43.55 43.04 43.43 43.46 43.54 43.20 41.97 42.14 41.54 41.15 40.22 38.07 36.63 36.17 35.73 34.68 32.71 31.23 30.60 30.80 30.65 30.27 29.79 30.08 30.39 30.28 30.13 30.14 29.72 29.66 29.22 28.51 29.30 29.04
41.09 41.06 40.67 41.65 43.70 44.25 43.48 43.68 44.00 43.05 42.77 43.27 42.09 40.69 40.87 42.12 41.21 40.90 40.63 40.75 39.09 36.91 35.77 34.68 34.00 32.44 30.46 30.14 30.00 30.13 30.20 29.83 29.06 28.88 29.53 29.40 29.12 29.40 28.63 28.09 28.19 30.32 30.19 30.43

GFSCGP_sfc_wetblb_021.txt.gz
Wetbulb
46.30 40.80 38.13 40.91 45.27 47.11 46.79 45.98 44.50 49.11 51.50 50.27 49.39 49.14 50.76 53.31 53.70 53.72 54.14 54.01 54.53 54.93 55.59 56.50 57.63 58.54 59.11 60.92 62.58 63.76 63.97 64.75 65.19 65.08 64.25 62.05 59.64 58.82 57.68 57.07 56.65 56.07 55.85 55.75
41.08 36.76 43.65 44.75 44.90 45.68 44.91 44.79 45.44 48.70 50.80 49.46 48.48 47.71 51.25 53.10 53.45 54.89 54.63 53.80 54.20 54.27 54.33 55.36 56.23 56.97 57.15 57.68 59.50 61.68 62.84 64.25 64.51 62.39 61.28 59.73 58.12 57.19 56.46 56.24 55.25 54.66 53.66 53.38
36.94 39.79 44.76 43.09 42.99 43.18 44.18 44.79 44.83 45.04 49.12 49.26 47.54 46.06 48.81 52.49 54.11 55.01 54.23 54.80 54.95 53.91 53.40 54.18 55.16 55.89 56.78 56.50 57.08 57.98 58.70 58.92 59.38 59.31 58.98 58.13 57.75 57.23 55.05 54.20 53.56 52.92 52.21 50.39
38.13 42.38 38.84 41.65 40.60 45.46 42.06 47.97 46.74 45.84 45.07 41.22 48.96 39.62 47.90 50.63 50.19 50.22 51.47 53.16 54.04 53.97 54.07 54.42 54.70 55.19 55.86 56.22 57.23 57.24 57.47 57.67 58.16 58.69 57.74 56.48 54.14 51.86 52.66 52.84 52.59 52.05 51.09 48.92
35.22 39.16 37.59 39.68 40.17 46.00 44.07 48.97 46.58 46.82 45.08 44.19 43.74 41.93 46.32 50.56 48.06 49.66 51.13 52.60 53.67 53.86 53.73 53.70 54.40 54.90 55.65 56.40 56.06 55.98 55.63 55.40 55.73 55.66 55.24 54.01 52.54 52.24 52.03 51.59 50.49 49.81 49.26 47.96
38.86 44.63 44.17 43.02 44.79 46.65 48.84 46.32 46.42 45.77 44.24 36.96 43.20 43.34 44.17 46.95 48.25 49.77 50.98 52.24 52.96 53.11 53.48 54.02 54.46 54.88 54.82 55.62 55.10 54.83 53.90 53.25 53.64 53.56 53.07 52.17 50.96 50.37 49.49 48.55 47.56 47.13 46.74 46.12
37.01 36.14 42.65 45.67 43.25 47.09 46.47 42.82 35.92 33.90 34.72 36.15 44.78 43.32 46.24 47.23 48.56 49.91 50.11 51.51 52.54 53.08 53.02 52.68 52.76 53.33 53.81 53.95 53.73 53.21 52.38 51.16 51.60 51.07 50.49 49.93 49.12 48.39 46.62 45.97 45.04 44.19 43.75 43.20
33.11 31.24 38.72 43.27 45.49 42.95 43.90 42.99 37.93 31.25 33.21 37.61 42.25 38.28 44.62 49.00 49.75 50.67 52.03 52.47 52.60 52.48 52.94 52.47 53.13 53.56 53.55 53.26 52.82 52.25 51.12 49.60 49.36 48.69 47.79 47.50 47.28 46.09 44.95 43.97 43.26 42.47 41.75 41.46
34.55 34.11 39.37 45.56 47.90 47.31 43.29 41.49 46.00 40.62 42.27 40.44 41.20 44.78 46.96 48.70 48.46 49.12 50.62 51.66 51.37 52.09 52.52 52.62 53.38 53.62 53.16 52.63 52.29 51.55 49.93 48.64 47.77 47.02 46.44 45.35 44.67 43.79 42.92 42.52 42.22 41.33 41.08 40.33
38.76 32.93 36.66 44.29 46.69 45.75 45.83 48.38 40.33 41.66 34.41 33.84 39.70 41.63 42.41 45.42 46.99 48.01 48.58 50.59 51.38 52.37 52.55 52.78 52.98 53.10 52.88 52.08 51.43 51.03 49.70 47.61 46.49 45.74 45.00 43.82 42.62 42.00 41.77 41.42 40.16 39.92 39.90 39.68
42.08 35.71 34.84 42.47 42.26 40.90 42.30 43.19 44.27 44.24 42.23 38.04 36.44 40.19 48.53 46.74 47.54 48.15 49.13 51.21 51.77 52.08 52.25 52.30 52.66 52.93 51.83 51.02 50.12 49.18 47.57 46.09 45.03 44.67 43.84 42.57 41.38 41.01 41.00 40.14 39.45 38.98 38.88 38.62
43.43 40.46 33.65 37.24 42.15 48.10 46.69 44.50 45.30 40.32 37.83 41.47 40.52 40.14 47.90 48.43 48.50 48.64 49.94 50.91 52.61 52.72 52.63 52.36 52.37 51.79 50.21 49.64 48.76 48.00 47.09 45.46 44.45 43.31 42.23 41.11 41.01 40.66 39.85 38.91 38.48 38.43 37.86 38.16
44.82 40.31 34.28 33.88 38.12 42.84 43.11 44.93 46.33 46.46 44.14 40.84 38.55 40.57 48.58 50.08 49.28 49.23 49.79 51.24 52.27 52.16 52.16 51.92 51.72 50.32 49.52 48.85 47.90 46.85 45.97 44.22 42.89 41.89 41.20 40.48 39.68 39.16 38.40 37.97 37.86 37.78 37.39 37.13
47.92 42.59 40.76 36.50 39.76 41.67 40.67 43.13 45.53 45.57 40.88 41.39 42.15 42.95 45.69 48.21 48.59 49.33 49.91 51.21 51.92 51.74 51.56 51.10 50.83 50.12 49.69 48.46 47.00 45.85 44.62 43.20 41.28 40.42 39.77 38.84 38.21 37.82 37.53 37.42 37.22 36.99 36.91 36.45
46.30 40.68 42.73 43.37 44.34 45.08 43.90 43.52 44.24 43.39 45.02 41.40 44.14 43.84 47.17 48.83 49.59 50.52 51.08 51.15 51.00 50.65 50.46 50.38 50.41 50.11 49.17 47.44 46.05 44.85 43.29 41.43 40.30 38.88 38.12 37.27 37.31 37.29 36.94 36.64 36.47 36.47 36.34 36.25
47.25 41.27 42.94 40.45 42.99 43.75 41.92 44.08 45.09 44.95 45.31 45.08 45.29 45.47 51.29 51.34 51.12 50.60 50.84 50.46 50.01 50.11 50.25 50.46 50.70 50.37 48.61 46.71 44.93 43.08 41.15 39.51 39.27 37.65 36.58 36.50 36.20 35.96 35.91 35.85 35.55 35.52 35.57 35.71
43.84 42.08 41.10 37.67 41.64 41.32 37.88 42.66 43.47 44.53 45.81 45.50 42.49 47.17 51.33 47.63 48.21 49.24 50.74 50.51 50.04 50.30 50.37 50.14 50.38 50.04 48.42 46.10 44.49 41.94 40.10 38.81 37.81 36.44 35.67 35.26 35.24 34.86 34.94 35.05 34.82 34.75 34.83 35.26
43.94 43.03 42.21 38.49 39.52 31.86 43.59 45.37 46.78 45.20 46.28 47.86 48.14 48.80 49.29 48.98 49.52 50.26 51.00 50.53 50.55 50.60 50.38 50.17 50.32 49.30 46.83 45.45 43.35 40.80 38.69 37.54 36.10 35.28 34.94 34.78 34.42 33.99 34.27 34.18 34.12 34.48 34.56 34.13
47.32 43.68 39.08 36.43 36.82 41.57 43.81 42.03 42.92 43.39 43.85 48.24 47.39 48.41 48.31 48.63 47.18 45.42 47.90 49.69 49.27 49.66 50.18 50.06 49.57 46.95 44.46 42.07 40.25 38.63 36.87 35.36 34.57 34.47 34.25 34.02 33.81 33.19 33.31 33.08 33.30 33.77 33.54 33.28
44.65 45.38 40.96 38.30 33.98 32.84 41.02 44.04 45.98 47.87 40.02 49.27 49.45 48.29 47.07 46.26 42.63 44.41 46.25 47.11 46.89 47.74 48.06 47.00 45.70 43.15 41.71 40.26 39.26 37.71 35.56 34.21 33.87 33.70 33.37 33.76 33.72 33.13 32.68 32.83 32.84 33.35 33.30 32.65
37.65 39.10 36.84 37.78 36.52 40.73 43.63 44.97 46.62 37.55 40.84 45.96 48.16 48.33 46.74 45.41 46.99 46.39 45.96 45.19 45.77 45.15 43.78 43.05 42.12 41.13 39.50 38.59 38.14 35.75 34.12 33.54 33.37 33.51 33.48 33.44 33.61 33.10 33.07 32.77 33.09 32.79 32.32 31.97
36.55 36.84 36.61 38.26 36.32 34.08 45.51 43.87 40.96 44.53 46.79 47.19 48.02 48.12 46.58 44.93 44.65 44.56 43.67 42.57 42.31 41.01 40.49 41.22 40.17 38.14 38.01 37.42 36.50 33.72 33.05 33.35 33.37 33.14 32.79 32.94 33.15 33.18 32.95 32.50 32.55 32.08 31.44 30.48
38.67 43.41 40.42 42.35 41.60 43.78 45.23 44.99 46.40 48.61 47.42 47.42 47.13 46.86 45.71 44.27 43.51 43.35 42.19 41.58 40.57 40.06 39.79 40.52 39.20 37.09 36.20 35.09 34.87 33.49 32.98 32.91 32.61 32.41 32.34 32.51 32.86 32.90 32.89 31.63 30.99 30.54 30.44 29.35
41.77 42.59 42.43 40.31 41.71 42.95 44.08 44.47 46.48 48.47 47.05 47.20 46.92 46.02 45.77 43.90 43.99 43.26 42.73 41.64 40.71 40.06 39.24 39.97 38.22 35.83 33.74 33.60 32.79 33.08 32.65 32.47 31.92 31.56 31.78 32.23 31.78 31.87 31.87 31.93 31.34 30.07 29.25 28.29
42.16 41.96 41.97 40.46 41.13 42.26 43.44 45.55 46.10 46.04 46.19 45.70 46.23 46.15 45.36 44.70 43.80 43.67 43.08 42.51 41.59 40.34 39.49 39.03 37.97 36.13 34.61 33.62 32.38 32.42 32.11 31.92 30.88 31.07 31.23 31.43 31.46 30.90 30.65 30.86 30.37 29.56 30.09 29.80
42.57 42.84 40.83 41.32 45.41 45.61 44.78 45.76 45.86 44.45 43.97 44.35 43.46 43.16 44.54 44.54 43.10 43.85 43.04 43.16 41.60 39.40 38.40 37.88 37.55 35.94 32.95 32.36 31.96 31.83 31.80 31.22 30.30 29.60 30.33 30.65 30.14 30.38 30.16 29.39 29.27 32.10 32.05 32.17

GFSCGP_sfc_wetblb_024.txt.gz
Wetbulb
44.46 38.81 36.26 39.24 41.30 41.92 42.14 41.55 41.63 45.33 49.93 47.32 46.42 46.56 48.66 50.93 50.98 49.46 49.99 49.70 49.34 50.70 52.10 53.00 53.53 54.74 56.47 58.80 59.28 59.88 60.14 60.84 61.06 60.68 59.51 56.51 53.99 52.45 51.88 51.82 51.71 50.83 50.37 50.68
38.90 35.29 40.31 42.69 42.46 41.60 41.32 40.92 41.45 46.36 49.16 47.74 46.29 46.48 49.17 49.26 49.92 50.52 50.31 50.06 49.30 49.90 50.42 51.57 52.61 52.44 53.89 55.92 57.96 58.68 59.87 59.11 58.32 57.52 56.10 55.08 53.06 52.03 51.56 51.07 50.07 48.96 47.44 47.28
34.66 38.01 42.62 41.09 40.22 39.03 39.36 39.73 41.17 40.23 46.63 48.22 44.41 42.11 44.42 48.35 49.90 50.54 51.26 52.20 50.57 50.21 49.60 50.01 50.08 51.34 51.60 52.38 53.40 54.73 55.27 55.34 55.42 54.90 54.67 53.62 52.69 51.30 49.33 48.78 47.84 47.43 45.93 44.92
36.93 41.22 39.58 39.24 38.01 39.89 35.52 42.90 44.46 42.76 43.00 37.64 43.96 32.79 42.13 46.22 47.55 49.64 49.08 48.86 49.58 50.13 50.40 50.48 50.75 50.91 50.95 51.26 52.40 53.25 53.90 54.03 54.35 54.02 52.90 50.68 48.42 46.66 47.38 47.03 46.98 46.23 45.06 43.05
34.79 37.05 37.03 36.32 37.66 40.74 38.02 44.50 42.96 43.62 41.67 41.28 42.50 38.39 40.63 46.06 44.93 47.75 46.01 47.07 49.51 49.89 50.22 50.02 50.65 51.76 52.00 51.82 50.73 50.61 50.82 50.99 50.97 50.73 50.10 48.49 46.88 46.43 46.11 45.61 44.30 43.60 43.30 42.13
37.64 42.55 40.11 38.86 41.24 41.26 42.04 41.90 41.96 43.56 41.69 35.10 39.22 39.01 38.33 42.69 45.14 45.26 46.27 47.45 49.53 49.42 49.75 50.29 51.21 51.97 51.04 50.77 50.11 49.25 48.87 48.78 48.86 48.22 47.46 46.06 44.48 44.05 43.18 41.91 41.16 41.07 40.95 40.63
35.05 35.79 39.53 41.33 37.31 40.34 40.32 38.13 31.87 32.92 33.81 32.78 41.16 37.71 40.72 42.46 45.90 47.39 46.59 47.51 48.99 49.27 49.49 49.44 49.15 49.55 49.70 49.16 49.07 48.65 47.62 46.54 46.38 45.55 44.82 44.16 42.88 41.51 39.71 39.40 38.64 37.97 37.95 37.57
29.16 26.61 37.05 39.74 37.75 38.16 38.84 35.36 33.67 28.18 29.42 31.33 40.25 35.02 39.10 44.98 46.45 48.15 48.55 48.84 49.11 48.72 49.10 48.89 49.02 49.16 49.15 49.09 47.72 46.91 45.74 44.53 44.11 43.13 42.12 41.53 41.39 40.22 39.09 38.18 37.58 36.78 36.37 36.14
32.12 30.87 40.07 40.91 42.06 42.88 37.64 33.07 41.44 37.66 36.62 34.14 35.05 38.13 40.86 44.93 44.17 45.32 46.99 48.28 47.69 48.27 48.75 48.67 49.24 49.33 48.78 47.70 47.27 46.03 44.61 43.55 42.88 41.97 40.45 39.01 38.58 38.00 37.34 36.81 36.58 36.17 35.94 37.72
34.24 30.33 38.08 40.70 43.67 45.04 42.70 44.39 37.90 36.85 29.96 30.09 33.72 35.47 36.02 40.54 41.78 44.02 45.99 46.52 47.52 48.47 48.70 48.89 49.45 48.99 48.33 47.73 46.87 45.51 44.17 42.35 41.59 40.62 39.40 38.27 37.06 36.99 36.60 36.00 34.95 35.14 34.96 35.44
37.13 33.50 35.80 38.04 37.84 36.86 40.88 40.76 40.93 39.85 38.87 32.85 29.24 33.74 42.20 42.20 44.07 43.55 44.89 47.77 47.99 48.19 48.66 49.10 49.11 48.74 47.29 46.50 45.64 43.58 42.06 41.29 40.37 39.70 38.33 36.85 36.46 36.53 35.97 34.97 34.42 34.13 34.41 33.93
38.01 35.78 32.66 35.49 41.88 45.12 44.93 42.40 41.32 34.84 34.87 36.69 34.14 32.85 44.30 43.30 44.35 45.48 45.32 48.57 48.68 48.99 48.91 49.01 48.67 47.36 45.72 44.99 44.02 42.50 41.56 40.34 39.43 38.57 37.38 36.63 36.45 35.77 34.44 33.95 33.88 34.34 32.97 33.64
41.01 37.06 32.06 33.63 39.99 44.02 41.74 44.00 42.72 42.57 40.82 35.55 32.21 32.81 45.05 43.92 43.57 45.25 45.12 47.53 48.79 48.81 48.24 48.00 47.86 46.32 45.01 44.10 43.20 42.21 40.56 39.03 38.33 37.90 36.63 35.76 34.91 34.00 33.19 33.01 33.68 33.70 33.14 32.52
45.96 38.83 34.82 34.15 37.36 41.29 39.97 41.55 42.15 40.70 35.48 35.73 35.85 36.11 41.16 42.90 43.53 44.51 45.30 47.22 48.33 48.65 48.52 47.65 47.08 45.50 44.64 43.75 42.37 41.05 39.18 38.07 37.21 36.71 35.57 34.24 33.45 32.98 32.81 32.98 33.06 33.02 32.69 32.16
43.84 38.51 39.81 40.92 42.20 42.68 41.42 41.61 41.89 40.38 40.64 35.63 38.33 38.72 41.62 43.70 43.81 44.68 45.42 47.21 47.67 47.61 47.54 47.19 46.51 45.14 43.72 42.43 41.18 39.87 38.07 36.98 36.39 35.35 34.56 33.41 33.60 33.30 33.13 32.79 32.94 32.98 32.45 32.37
43.43 38.42 40.56 38.71 42.40 42.50 40.74 42.65 42.87 42.72 42.55 42.05 42.27 40.43 46.66 44.43 46.09 45.15 44.98 46.37 47.21 47.51 47.66 47.13 47.26 45.13 42.87 41.15 39.76 39.11 36.61 35.75 35.63 34.16 33.46 34.01 33.35 32.93 32.67 32.31 32.06 31.29 31.03 30.79
41.65 39.99 38.70 34.38 39.90 38.93 34.44 39.69 42.34 43.59 43.95 43.75 39.79 44.14 46.18 43.76 45.60 45.36 45.30 46.26 46.49 46.68 47.06 47.22 46.42 45.21 43.50 41.09 39.34 36.41 35.05 35.15 33.91 33.38 33.22 33.40 32.92 32.32 31.90 31.38 30.61 29.90 29.38 29.50
39.96 39.56 40.44 36.09 34.99 26.67 39.11 41.40 44.22 42.50 43.43 44.92 44.43 44.91 45.18 44.54 44.49 44.59 46.26 45.97 45.96 46.85 47.13 46.73 46.30 44.10 42.07 40.24 38.45 35.66 34.84 33.82 33.36 32.84 33.74 33.55 32.26 30.97 30.36 29.51 28.86 28.43 28.75 28.07
44.77 42.04 37.65 33.87 32.59 38.03 38.89 39.18 39.30 39.91 40.36 44.57 43.62 45.44 43.85 43.71 42.26 41.01 44.12 45.45 45.05 45.38 45.99 45.77 44.64 42.01 39.48 37.21 35.54 34.42 32.90 32.27 32.33 32.60 31.97 31.46 30.62 29.32 29.10 28.03 27.33 27.77 27.47 27.05
44.11 44.44 37.70 31.16 28.91 28.60 36.66 40.72 43.28 42.90 34.76 42.78 44.95 44.19 42.84 42.66 36.73 38.14 42.65 44.13 44.30 44.83 44.42 42.47 40.79 39.41 37.80 35.22 34.79 33.03 31.76 31.15 31.13 31.05 30.55 30.13 30.01 28.94 27.66 27.19 27.02 27.57 27.33 28.09
38.45 38.78 36.28 34.80 32.47 35.99 40.78 40.85 43.16 33.31 35.89 42.48 43.92 44.41 43.18 39.58 40.55 42.45 43.34 42.51 42.49 41.61 40.27 39.73 38.65 36.78 34.30 34.98 34.59 31.49 30.44 29.75 30.22 30.69 30.45 30.03 29.29 28.14 27.80 27.41 27.18 26.76 26.27 26.79
36.75 35.84 35.78 36.61 33.94 30.81 42.18 40.40 37.22 41.34 42.13 43.06 43.80 43.82 41.48 41.35 41.89 41.50 41.21 40.35 39.47 38.51 38.43 38.29 35.35 34.37 34.24 34.16 32.27 30.24 28.53 29.38 30.00 29.84 29.51 28.69 27.90 29.38 30.27 26.58 26.11 26.05 25.32 24.33
37.14 40.16 38.50 39.28 39.17 42.26 42.88 42.39 42.67 45.04 43.42 43.34 42.48 42.84 42.75 41.25 40.25 40.18 39.02 38.30 38.09 37.80 37.46 36.66 34.75 33.11 31.82 31.76 30.52 28.78 28.02 29.63 29.33 27.99 27.16 27.20 28.03 28.16 27.79 25.81 25.10 24.58 24.60 23.40
40.59 41.60 37.79 38.69 38.48 40.18 41.94 41.45 42.10 44.05 43.52 43.63 43.38 43.08 42.49 40.55 40.58 39.60 38.88 37.75 36.93 36.44 35.87 35.41 33.35 30.74 29.31 29.30 29.47 28.76 29.25 29.14 27.97 26.22 26.08 26.78 26.19 27.53 26.31 26.79 26.02 24.00 23.11 23.48
39.17 39.45 38.61 36.83 38.56 40.16 40.68 42.00 43.20 43.23 43.62 43.20 43.21 42.87 42.09 41.56 40.11 39.62 38.49 37.74 36.88 36.43 36.13 35.17 32.96 30.55 29.04 28.64 28.39 28.29 28.75 27.87 25.49 25.31 25.31 25.78 26.30 25.27 24.81 25.27 24.30 23.41 24.34 26.47
39.66 39.12 37.28 37.68 42.30 41.28 40.26 42.77 43.64 42.38 41.91 42.16 41.83 40.72 41.25 41.03 40.13 40.12 39.10 38.53 37.05 35.00 34.96 34.27 33.01 29.62 28.31 28.43 27.94 27.99 28.04 26.77 25.48 24.13 24.87 24.69 24.45 24.05 24.21 23.25 24.86 30.37 31.48 32.11

GFSCGP_sfc_wetblb_027.txt.gz
Wetbulb
42.33 36.31 33.07 35.86 39.28 39.11 38.05 36.69 36.73 41.53 46.14 45.15 44.59 45.29 47.54 48.64 48.98 46.44 47.07 45.91 46.24 48.00 49.79 51.84 52.90 55.01 56.59 57.24 57.85 58.40 59.25 59.31 60.38 56.52 53.99 52.19 49.90 50.03 49.38 48.86 47.98 47.02 46.90 46.61
37.25 33.85 38.28 40.56 39.83 40.42 38.55 36.23 36.20 41.24 45.66 44.77 44.57 44.31 47.96 49.11 48.35 49.91 48.15 47.80 46.52 47.27 48.75 50.51 51.53 52.70 54.78 55.00 55.63 56.74 56.09 55.67 56.68 55.77 53.66 51.51 49.91 48.81 48.28 47.32 45.20 44.37 43.76 44.01
33.83 35.96 40.94 39.52 38.04 37.10 37.24 35.74 35.92 37.28 42.69 44.35 42.63 41.93 44.47 47.28 49.39 48.47 49.50 49.45 49.49 48.66 48.67 47.95 48.32 50.03 51.19 51.56 52.59 53.38 53.44 53.74 53.60 53.29 52.69 51.43 50.11 48.20 46.62 45.41 44.10 42.76 42.26 42.02
36.82 39.76 37.92 37.67 36.37 37.49 33.85 39.73 39.03 38.46 39.01 34.93 42.90 35.10 39.84 44.56 45.11 45.70 45.62 45.68 48.29 48.06 48.74 48.96 49.08 48.66 49.33 49.29 50.73 51.96 52.64 52.74 52.35 52.13 51.22 48.77 46.47 44.93 44.90 44.91 43.48 42.05 40.90 40.13
34.85 36.14 35.81 34.51 36.26 39.58 35.29 40.75 38.79 38.75 37.83 39.03 39.34 37.30 38.11 42.42 42.19 45.69 47.82 44.22 47.37 48.40 48.79 49.00 49.41 50.14 49.78 48.89 47.59 47.62 48.48 48.72 48.71 48.37 47.85 46.96 44.57 44.14 43.59 42.09 40.67 40.08 39.05 39.05
36.98 41.45 39.54 37.54 39.56 40.12 41.17 37.80 37.77 38.46 37.45 32.23 37.35 38.16 35.55 39.63 43.69 44.65 46.08 45.80 46.97 47.70 48.45 49.32 50.03 50.22 48.32 47.31 46.60 46.30 47.03 45.79 45.98 46.02 45.04 44.04 42.19 40.71 39.39 38.47 37.91 37.89 37.79 37.59
34.66 36.14 38.79 40.47 36.15 38.60 37.98 33.08 27.05 25.84 27.97 28.53 38.48 37.33 38.83 41.76 43.25 46.13 44.14 45.89 46.80 47.94 48.45 48.72 48.54 48.15 46.99 45.96 45.59 45.82 45.05 43.41 43.18 42.99 41.92 40.65 38.84 37.87 37.15 36.69 35.84 35.61 35.55 35.15
26.60 24.41 35.01 39.20 36.48 33.74 34.36 33.34 26.22 20.90 25.54 29.28 39.47 33.56 37.42 47.70 44.47 46.15 47.43 47.03 47.16 47.54 48.28 48.37 48.38 47.63 46.51 46.14 44.72 43.65 42.76 41.45 40.96 40.19 39.33 38.70 38.27 37.34 36.50 36.01 35.19 34.63 34.32 34.18
29.41 29.40 39.29 39.77 39.55 38.46 33.92 30.91 36.03 32.78 33.24 32.31 35.19 36.61 39.20 41.38 42.19 45.09 45.35 45.94 45.78 46.64 47.48 47.88 48.25 47.74 46.17 44.45 43.43 42.66 41.58 40.49 39.89 38.60 37.31 36.22 36.20 35.93 35.00 34.43 34.38 33.91 33.66 36.33
34.46 28.00 35.52 36.36 40.38 39.27 38.49 40.23 30.43 32.14 25.99 27.98 31.06 31.21 33.31 37.85 39.84 43.48 44.35 44.41 45.41 46.64 47.09 47.74 48.07 47.43 45.67 44.78 42.92 41.68 40.91 39.80 38.70 37.26 36.12 35.70 34.98 34.89 34.24 33.63 32.86 32.96 32.90 33.01
36.76 33.17 32.78 36.05 36.07 35.30 36.15 35.61 35.86 36.43 33.19 29.43 26.84 31.35 38.76 39.88 42.06 43.16 44.54 45.18 45.61 46.24 46.74 47.51 47.81 47.23 45.41 44.02 42.35 40.36 39.45 38.63 37.39 36.43 35.34 34.76 34.57 34.31 33.56 32.90 32.47 32.21 32.32 32.10
38.25 35.71 30.33 33.31 41.29 42.96 41.54 38.33 37.81 30.22 31.89 34.83 31.18 30.98 40.65 41.18 42.42 44.39 44.55 45.85 46.35 47.08 47.10 47.36 47.16 45.57 44.67 42.82 40.77 39.49 38.63 37.59 36.44 35.94 35.21 34.56 34.25 33.23 32.21 31.91 32.18 32.50 31.51 31.78
38.68 33.53 31.01 33.00 37.86 41.66 38.16 39.71 39.87 39.27 40.03 35.89 29.72 30.96 41.85 40.53 41.54 42.85 44.59 45.61 46.26 46.39 46.76 46.58 45.30 44.46 43.76 41.73 40.27 38.74 37.54 36.24 35.97 35.55 34.37 33.55 32.70 32.06 31.25 31.29 32.14 32.28 31.63 31.24
41.31 36.82 33.33 32.98 36.44 38.10 35.44 39.70 42.30 41.01 35.77 35.27 34.08 35.08 37.10 39.01 41.25 41.63 45.03 46.10 46.15 46.51 46.85 45.95 44.68 43.83 43.13 41.78 40.28 37.96 36.24 35.84 35.23 34.60 33.39 32.27 31.73 31.44 31.28 31.67 31.81 31.81 31.59 31.08
42.48 34.94 38.07 38.73 38.65 40.62 40.53 40.86 40.98 39.36 40.31 37.00 36.04 37.21 39.35 40.28 41.19 42.75 44.83 45.64 45.72 45.76 45.90 45.46 43.98 43.35 42.23 40.47 38.36 36.90 35.48 34.84 34.62 33.57 32.76 32.04 32.03 32.08 31.73 31.73 31.31 31.43 31.18 31.34
42.42 35.67 38.63 38.31 42.18 41.13 39.53 41.78 41.51 41.71 41.66 41.09 40.20 38.19 41.52 41.64 41.97 41.97 44.31 45.74 45.51 45.60 45.77 45.51 44.73 43.12 41.24 39.41 37.52 36.40 34.56 33.96 33.99 32.59 32.13 32.64 32.09 31.79 31.24 31.01 30.54 30.13 30.00 29.39
39.54 38.44 38.75 32.66 39.61 39.67 35.05 39.60 40.55 40.82 41.15 41.72 37.90 41.29 41.66 41.98 43.47 42.99 42.71 46.18 45.98 45.60 45.31 45.62 44.74 43.21 41.20 38.89 37.18 34.56 33.59 33.17 32.23 31.86 31.88 32.43 33.47 31.41 30.89 30.38 29.59 28.56 27.80 27.06
38.34 38.55 39.43 34.27 33.83 27.40 38.58 40.38 43.63 43.07 43.45 43.00 43.38 44.60 42.42 42.07 40.62 41.49 42.08 45.23 45.53 46.16 46.11 45.97 44.21 42.19 39.85 37.52 35.62 33.81 33.13 32.01 31.71 31.48 32.54 33.24 31.68 30.39 29.59 28.52 27.44 26.37 26.46 25.92
41.87 40.15 36.83 30.84 29.95 34.96 37.21 38.35 38.03 38.56 38.62 42.46 44.22 43.27 42.12 41.51 40.92 40.03 42.39 43.37 43.89 45.35 45.92 44.40 42.51 39.34 37.43 35.11 34.41 33.04 31.54 31.49 31.20 31.03 30.53 30.61 30.22 28.80 28.11 26.35 25.55 25.79 25.50 25.09
42.51 42.72 37.31 28.51 27.31 27.45 35.06 39.42 40.76 40.56 33.77 40.28 40.42 41.50 41.57 40.93 36.72 36.92 40.88 42.76 41.75 42.21 41.64 39.00 37.80 35.81 34.29 33.41 33.27 31.82 29.82 29.91 30.20 30.08 30.08 29.75 29.35 27.88 26.15 25.47 25.29 25.71 25.07 25.93
37.20 38.68 35.77 32.80 31.31 33.95 40.20 40.24 41.59 32.04 34.10 40.82 40.92 42.08 41.66 39.05 39.22 40.20 40.97 39.12 39.11 38.62 37.65 37.68 36.05 34.03 33.01 32.44 32.04 30.11 29.09 28.60 29.63 30.01 29.58 29.19 28.19 26.65 26.28 25.62 25.06 24.68 24.42 24.31
36.27 36.04 35.58 34.14 32.88 28.66 40.44 38.57 35.09 38.85 40.21 40.90 40.22 40.15 39.39 39.94 40.47 39.63 38.79 37.74 37.78 36.57 35.75 35.35 33.74 32.94 32.15 31.28 30.74 28.04 26.89 28.27 29.05 29.08 28.73 27.80 26.41 27.85 28.55 24.93 24.46 24.02 23.31 22.09
34.47 38.23 38.27 37.92 37.29 41.64 40.43 40.33 41.72 43.19 41.74 40.11 39.89 40.19 40.36 39.28 38.61 38.18 36.65 36.51 36.27 35.50 34.18 34.36 32.56 30.52 29.41 29.52 28.99 26.99 27.01 28.14 27.89 27.26 25.94 25.85 26.74 26.38 25.81 24.09 23.64 22.76 22.45 21.36
38.99 42.41 38.58 38.47 40.03 39.03 40.51 40.05 41.54 42.38 41.33 41.20 41.43 40.71 40.36 38.00 37.77 36.60 36.70 36.30 35.64 34.43 32.75 32.12 30.56 28.76 27.05 27.76 27.97 27.00 27.43 28.03 26.68 24.90 25.02 25.24 24.57 26.48 24.40 24.55 23.96 21.69 21.09 21.18
38.82 39.79 38.21 36.68 36.79 37.93 39.00 40.23 41.64 41.59 42.03 41.58 41.71 41.32 39.95 39.07 37.73 37.07 35.98 35.17 34.85 34.20 32.68 31.61 29.91 28.16 26.34 26.29 26.35 26.68 27.12 26.47 24.90 24.27 23.77 23.42 24.36 23.23 22.86 23.34 21.92 22.02 22.96 25.97
38.32 38.12 37.53 36.84 40.73 40.07 39.78 41.54 42.47 41.98 41.44 41.39 40.48 39.31 39.74 39.61 38.04 37.33 35.98 35.68 34.97 33.47 32.52 30.64 28.78 27.29 25.91 25.91 25.80 26.15 26.61 25.70 24.17 23.18 23.64 23.26 23.45 22.25 22.54 21.00 22.06 28.66 30.14 31.00

GFSCGP_sfc_wetblb_030.txt.gz
Wetbulb
41.16 35.82 32.24 34.75 37.53 37.92 36.91 33.98 33.53 36.87 42.62 41.58 41.78 42.82 45.37 48.43 47.19 45.38 46.73 46.31 45.62 46.51 48.58 49.72 52.03 54.06 55.83 55.92 56.95 57.65 58.40 56.61 54.99 53.61 51.37 48.92 46.83 48.28 47.49 46.78 45.47 44.86 44.08 43.34
37.23 34.14 38.72 38.56 37.86 38.14 37.53 35.02 34.25 37.53 41.19 41.82 40.77 40.94 44.84 47.48 48.33 48.39 49.34 46.92 45.39 46.07 47.53 49.79 52.02 53.20 55.47 55.44 56.25 56.57 56.86 55.63 54.22 52.71 50.34 48.90 46.93 45.95 45.94 43.66 42.29 41.88 41.62 41.76
33.54 35.21 39.77 38.20 36.64 35.16 34.96 34.60 34.30 33.89 38.36 39.95 38.57 37.71 41.47 46.29 48.67 49.06 50.15 50.27 46.39 47.88 47.75 48.28 50.12 51.63 52.11 52.70 53.19 53.32 53.02 52.44 51.98 51.13 49.95 48.45 47.64 45.92 43.77 41.89 40.40 39.84 40.09 40.30
36.25 39.34 37.53 36.46 35.10 36.44 31.84 38.25 37.95 36.01 35.01 28.87 39.66 31.40 38.17 42.59 45.22 46.98 48.78 45.91 46.26 48.00 48.30 47.69 49.01 49.20 50.05 49.89 50.84 51.49 51.64 51.21 51.01 50.83 48.98 47.41 45.47 43.59 42.91 41.83 39.56 38.58 38.66 38.55
33.79 35.23 35.26 33.86 34.79 38.86 34.13 39.42 36.87 37.66 34.68 33.79 33.35 32.18 36.57 42.86 42.13 44.79 47.25 46.61 46.79 47.91 48.53 48.12 49.42 49.36 48.92 48.92 48.47 48.90 49.72 49.73 49.07 48.32 47.39 46.31 43.62 42.90 41.45 39.81 37.77 36.93 36.76 37.37
37.20 41.38 38.67 37.30 39.06 39.40 40.66 37.60 37.17 36.15 34.97 28.58 31.62 32.07 32.92 38.77 41.73 43.89 47.22 44.58 45.54 47.33 47.67 47.85 48.38 48.34 46.10 45.73 45.80 46.53 47.42 46.00 46.32 46.27 44.36 43.32 41.57 39.28 38.34 36.78 36.15 35.99 35.80 35.79
34.93 35.59 38.52 40.59 35.90 38.92 36.99 33.00 26.12 24.59 24.66 22.73 32.61 31.99 33.83 40.33 43.92 45.52 46.34 44.59 45.65 47.04 47.04 47.41 47.08 46.12 45.26 44.66 44.37 44.91 44.93 42.32 42.81 42.27 41.07 39.51 38.11 37.14 36.00 35.34 34.78 34.46 34.16 33.75
21.81 20.89 34.58 38.51 35.85 33.28 33.97 32.67 26.85 17.40 16.82 23.02 36.02 30.90 35.05 43.68 46.43 47.72 45.34 45.91 46.16 46.61 47.64 47.66 46.96 45.76 44.72 44.31 42.83 42.71 42.19 40.20 40.25 39.52 37.60 36.67 36.51 36.00 35.34 34.78 34.14 33.55 33.22 32.93
25.23 25.92 37.93 37.87 38.59 37.81 32.03 30.32 34.94 28.69 30.32 27.65 30.74 34.30 40.49 43.47 41.31 42.26 43.10 44.51 45.06 46.43 47.17 46.78 46.20 45.51 44.43 42.79 41.79 41.31 40.29 38.73 38.37 37.46 36.52 35.06 35.01 34.78 33.90 33.31 33.13 32.59 32.59 35.01
32.30 25.17 35.66 37.51 39.33 38.88 35.73 36.89 27.89 29.94 16.11 20.76 29.37 30.69 32.64 37.67 38.41 40.49 41.92 43.30 44.98 46.38 46.60 46.37 46.05 44.90 43.55 42.22 40.35 39.65 39.54 38.02 36.45 35.50 35.11 34.49 33.74 33.37 32.81 32.47 31.72 31.80 31.67 31.77
35.55 33.05 31.51 35.67 32.44 32.40 33.15 31.11 32.57 30.74 29.39 25.22 27.39 31.40 40.59 41.44 41.51 40.95 42.43 44.16 44.95 45.72 46.28 46.40 45.82 44.69 42.81 41.11 39.96 38.56 37.85 36.43 35.12 34.78 33.89 33.33 32.95 32.68 32.21 31.65 31.28 31.26 31.08 30.83
37.15 35.00 28.84 30.71 37.51 38.17 35.80 33.20 33.22 26.94 24.58 30.29 29.71 29.54 40.59 40.07 42.94 44.25 43.41 44.53 45.50 46.43 46.58 46.43 45.53 43.46 41.57 40.06 38.77 37.69 36.65 35.63 34.67 34.27 33.63 32.92 32.56 31.85 31.07 30.97 31.12 31.30 30.42 30.60
38.16 33.48 27.45 31.35 33.73 38.81 33.53 36.48 35.79 36.05 35.67 29.07 27.53 29.56 41.03 38.54 40.51 43.57 42.57 43.99 45.06 45.41 45.80 45.68 44.16 42.80 40.84 39.29 37.69 36.96 35.92 34.74 34.34 34.18 32.94 32.10 31.50 30.94 30.26 30.46 30.96 31.15 30.36 29.90
40.99 35.10 31.65 29.56 34.08 37.74 35.06 35.19 37.34 35.03 30.16 29.41 31.65 34.44 38.27 37.45 39.16 41.26 42.42 44.27 44.43 45.26 45.59 44.70 43.58 42.36 40.55 39.01 37.64 36.05 34.48 34.66 33.86 33.24 32.06 31.17 30.81 30.44 30.26 30.62 30.67 30.82 30.47 29.55
39.11 33.38 33.41 34.08 35.28 37.15 37.99 37.50 38.03 34.92 35.35 30.97 33.18 35.32 40.04 39.63 39.67 42.06 43.45 44.20 43.94 44.22 44.51 44.14 42.93 41.72 39.34 37.94 36.28 35.17 34.27 33.77 33.41 32.34 31.78 30.99 30.87 30.80 30.68 30.45 30.23 30.02 30.10 29.77
41.41 33.27 34.49 34.64 40.61 38.39 37.64 39.03 39.03 38.70 37.56 34.68 40.58 40.10 42.71 40.40 40.36 41.01 42.37 43.79 43.79 44.35 44.63 44.08 43.10 41.13 39.15 37.30 35.76 34.91 33.37 33.05 33.14 31.84 31.25 31.50 31.00 31.71 31.05 29.92 29.34 28.88 28.48 28.15
38.62 36.49 34.52 34.03 38.77 38.28 34.57 35.43 40.46 37.82 41.94 42.95 39.37 41.36 41.59 40.60 41.38 41.46 42.33 44.57 44.53 44.72 44.59 43.63 42.98 41.87 39.81 36.86 35.64 33.52 32.81 32.59 31.55 31.22 31.00 31.09 32.63 32.02 29.85 29.16 28.42 27.71 26.52 26.38
38.01 36.54 38.61 34.64 33.69 27.20 37.48 39.57 43.76 42.58 43.39 43.90 42.90 41.28 41.25 41.51 39.72 40.67 40.92 44.55 44.56 45.24 45.05 44.24 43.31 40.96 38.54 36.37 34.53 32.82 32.40 31.41 30.84 30.40 31.01 32.70 31.95 29.48 28.63 27.49 26.62 25.66 25.50 24.84
43.39 37.31 37.10 31.56 28.49 33.80 37.10 37.57 37.52 39.83 39.40 42.27 42.82 40.84 40.26 40.53 40.39 39.67 41.20 42.81 43.78 44.69 45.41 44.22 42.32 38.14 35.70 34.02 33.55 32.12 30.79 30.41 30.50 30.29 31.16 30.65 29.35 28.00 26.94 26.04 25.10 24.76 24.46 23.72
40.93 40.37 38.55 29.06 25.87 26.70 34.02 37.67 39.60 38.91 33.15 39.01 40.32 40.05 39.98 39.76 37.88 38.33 38.82 41.25 41.38 41.69 41.17 38.76 36.92 35.47 33.84 32.72 32.63 31.46 29.76 29.20 29.25 30.23 29.18 28.52 28.11 27.18 25.77 24.75 24.48 24.61 23.55 24.08
37.41 35.67 33.86 30.84 29.90 32.97 39.24 38.65 39.79 31.40 32.95 39.37 39.75 40.74 40.95 39.73 38.72 38.90 37.58 36.60 37.40 36.76 35.31 35.53 35.24 33.47 31.69 31.55 31.52 29.38 28.66 28.44 28.71 28.67 28.27 28.06 26.78 25.83 25.44 24.47 23.65 23.22 23.00 23.17
35.41 33.31 34.26 35.32 28.93 26.85 40.08 38.57 34.90 37.86 39.24 39.55 39.17 39.06 38.57 39.17 38.42 37.01 36.64 35.77 35.27 33.86 33.78 33.86 32.16 30.77 30.20 30.98 30.74 27.63 26.44 27.11 27.87 27.90 27.20 26.12 25.52 27.13 26.90 23.52 23.10 22.64 21.72 20.61
34.84 37.09 36.47 35.55 35.41 39.76 39.48 39.32 41.01 41.59 40.44 38.89 38.50 39.74 39.83 38.29 37.11 36.66 35.09 34.12 33.35 33.16 32.54 32.89 31.42 29.29 28.07 28.09 28.67 26.40 25.60 26.95 26.56 25.76 24.92 24.81 24.99 24.75 23.91 22.37 21.92 20.75 20.91 19.94
36.68 40.43 37.75 38.25 40.34 38.55 38.75 40.07 41.54 41.26 39.91 39.47 39.80 39.90 39.68 36.73 36.79 35.22 34.56 33.11 32.13 31.66 30.57 30.90 29.78 27.83 25.77 26.52 26.87 26.09 26.19 26.59 25.54 24.02 23.23 23.37 23.10 24.75 22.74 23.61 22.69 20.18 20.04 19.87
38.55 39.49 37.10 36.56 36.79 37.44 38.57 39.26 40.37 40.21 40.54 39.83 39.55 39.47 38.26 37.17 35.93 35.35 33.86 32.76 31.70 30.55 30.14 30.05 28.46 26.54 24.74 25.17 25.22 25.52 25.83 25.36 23.87 23.06 23.33 22.78 23.68 21.74 21.65 21.99 20.50 20.82 22.00 24.81
38.08 38.74 38.52 37.75 41.09 40.03 39.25 40.81 41.64 40.83 40.12 40.05 38.81 37.64 37.72 37.69 35.94 35.25 33.91 33.45 31.81 30.11 29.37 28.27 26.52 25.48 24.22 24.56 24.37 24.80 25.32 24.35 23.16 23.21 23.42 22.98 22.84 20.81 21.76 20.28 20.05 27.03 29.22 30.13

GFSCGP_sfc_wetblb_033.txt.gz
Wetbulb
40.00 35.09 31.93 34.45 36.43 36.82 35.70 32.92 31.77 35.12 40.21 37.81 37.73 39.31 42.24 45.11 45.61 46.95 45.84 46.41 46.83 46.56 47.14 48.88 49.58 51.93 53.03 53.87 54.44 53.61 55.45 53.04 54.34 52.88 50.82 49.04 48.45 47.46 46.49 46.09 45.52 44.33 42.69 41.91
35.89 32.69 36.78 37.68 36.99 36.79 35.79 34.20 32.86 36.34 39.50 37.61 36.47 36.67 40.43 41.65 42.86 45.97 47.38 47.86 47.45 45.25 46.31 48.16 50.18 52.59 54.23 54.58 55.28 55.78 53.71 52.41 52.32 51.54 48.46 47.29 46.25 45.37 43.70 42.56 42.43 40.81 40.04 40.08
33.29 34.02 39.03 37.21 35.68 33.87 33.36 31.91 32.53 32.98 36.76 38.34 35.55 33.78 36.32 41.18 44.54 46.60 48.57 49.47 49.70 47.97 46.25 47.09 49.53 52.21 53.06 53.77 54.04 54.78 52.77 51.39 50.28 48.89 47.74 45.62 45.52 44.47 42.88 41.42 38.48 38.20 38.68 38.66
35.84 39.01 36.69 35.06 33.72 35.06 30.81 36.32 35.69 34.69 33.29 26.42 34.90 25.23 33.36 37.42 40.91 44.35 46.69 47.96 48.15 45.77 47.15 48.31 49.52 50.78 51.94 52.64 52.24 51.73 51.04 49.74 49.16 49.31 47.43 46.76 44.59 42.07 40.74 38.44 36.59 36.73 37.31 36.99
33.17 34.83 34.56 33.30 34.20 37.80 33.24 38.47 36.22 36.06 32.52 29.76 31.06 26.38 29.55 38.36 37.88 41.91 43.59 47.10 46.24 45.91 47.33 47.86 50.46 51.64 51.03 49.97 49.71 49.37 49.23 48.93 47.92 47.25 46.91 45.45 42.89 41.75 38.94 36.79 35.37 35.09 35.38 35.96
36.89 41.28 37.63 35.89 37.91 38.31 39.41 36.76 36.28 36.23 32.82 25.07 29.16 28.77 27.91 32.44 37.66 41.09 44.27 45.70 45.73 46.81 47.10 48.42 49.10 48.81 46.90 46.69 47.46 48.17 48.36 46.44 46.13 45.75 44.31 44.03 41.29 38.95 37.28 35.49 34.73 34.35 34.24 34.47
34.49 35.91 38.95 39.26 34.64 37.29 36.24 33.38 25.55 23.86 25.11 22.12 30.14 28.56 30.98 35.21 39.45 42.28 43.60 43.88 45.53 44.98 46.35 47.00 47.53 46.83 45.60 45.65 45.82 46.68 46.78 43.62 43.28 42.53 41.50 40.56 38.96 38.02 36.14 34.81 34.08 33.40 33.08 32.70
24.30 21.15 33.15 37.80 35.82 32.12 32.88 31.98 26.12 19.39 20.74 22.26 31.61 25.82 30.71 39.18 41.93 42.85 44.13 44.50 43.53 44.88 46.47 47.83 47.98 46.87 45.57 44.90 44.77 44.48 43.67 41.10 40.21 39.30 37.07 36.28 36.33 36.11 34.73 34.06 33.27 32.67 32.34 32.02
25.77 24.54 35.46 36.86 37.75 36.72 32.25 29.79 33.69 27.94 29.71 26.39 27.33 30.31 35.25 40.21 40.94 41.27 42.20 42.86 42.65 44.48 46.39 47.45 46.25 45.23 44.30 42.79 42.31 42.22 40.54 38.54 37.82 36.53 35.83 34.29 34.48 34.08 33.11 32.26 32.17 31.77 31.79 33.67
29.28 22.91 33.98 36.93 38.47 37.96 34.33 35.42 27.61 29.32 19.43 19.17 23.59 26.85 29.80 33.72 37.80 39.95 39.61 40.90 42.24 45.00 46.29 45.51 44.71 43.62 42.39 40.97 39.30 39.29 39.34 37.52 35.75 34.84 34.86 33.67 32.56 32.33 31.84 31.60 30.97 31.00 30.87 30.93
33.67 32.09 30.63 35.68 32.74 31.99 33.07 31.49 31.71 29.17 26.59 20.04 18.28 26.03 35.08 38.05 39.24 37.94 39.59 41.74 43.72 44.90 44.79 44.33 43.62 42.52 40.86 39.37 38.56 37.07 36.40 35.38 34.32 34.16 33.20 32.52 31.64 31.42 31.22 30.76 30.48 30.43 30.25 30.10
35.65 33.83 27.82 29.57 36.43 38.48 36.14 32.83 32.78 25.34 20.83 25.67 27.41 26.87 38.30 37.36 38.57 40.76 42.11 43.54 44.65 45.21 44.86 43.82 42.31 40.81 39.78 37.96 37.03 35.52 34.80 34.29 33.45 33.28 32.67 31.57 31.21 30.82 30.31 30.14 30.21 30.40 29.54 29.66
37.25 32.43 26.41 28.64 33.27 35.85 33.75 34.86 34.41 32.78 30.52 24.65 21.47 25.47 39.21 39.07 39.52 40.75 42.84 44.81 45.40 44.75 43.92 42.86 41.29 40.07 38.30 37.17 35.64 34.76 33.97 33.17 33.07 32.98 31.94 30.77 30.28 30.03 29.54 29.59 29.99 30.09 29.45 28.79
40.62 34.91 30.63 26.81 31.08 34.23 32.27 33.69 33.90 31.74 27.08 28.03 28.25 30.75 35.78 37.87 39.09 39.72 41.82 44.32 44.83 44.60 44.03 42.47 40.98 39.30 37.70 36.53 35.50 34.10 32.84 33.41 32.75 32.24 31.15 30.11 29.76 29.49 29.45 29.63 29.61 29.57 28.91 28.14
39.02 31.58 33.82 34.12 34.90 35.57 35.01 33.01 33.14 30.96 31.57 28.75 31.49 31.66 35.22 39.15 40.43 42.03 43.61 43.53 43.72 43.85 43.15 42.40 40.63 38.54 36.42 35.19 34.28 33.57 32.96 32.73 32.50 31.58 30.77 29.93 29.78 29.90 29.75 30.11 29.80 28.80 28.20 27.78
40.44 32.73 33.86 31.89 36.11 35.42 34.54 35.59 34.27 35.14 33.59 34.60 35.97 34.99 41.47 41.89 43.20 41.36 42.52 43.41 43.53 43.69 43.47 42.85 41.25 37.67 36.11 35.29 33.85 33.64 32.41 32.17 32.49 31.19 30.14 30.30 30.07 30.39 31.08 30.85 28.00 27.38 26.93 26.78
37.17 34.65 33.49 31.37 35.88 36.30 32.43 36.39 34.63 36.23 37.20 35.90 33.36 37.80 41.32 39.93 41.02 41.96 42.63 43.80 43.72 44.06 43.52 42.63 40.70 39.03 37.61 35.35 34.27 32.92 32.42 31.86 31.19 30.62 30.08 30.23 31.08 31.01 30.76 29.05 27.21 26.64 25.27 24.55
37.42 36.70 35.31 33.05 33.72 27.69 36.87 41.82 40.41 38.32 39.50 40.58 40.35 41.31 42.15 43.31 40.80 41.75 42.06 43.86 43.72 44.28 43.79 42.86 41.36 38.99 36.71 35.06 33.74 32.27 32.08 31.15 30.48 29.49 30.06 31.10 31.09 30.31 27.87 26.56 25.02 24.35 24.13 23.75
41.48 39.03 35.85 33.25 27.77 33.23 35.41 38.90 38.18 36.58 36.29 41.42 41.11 42.24 41.77 40.87 41.42 40.27 41.63 43.34 44.01 45.02 44.14 43.07 40.98 37.80 34.92 33.44 32.91 31.90 30.11 29.66 29.58 29.17 29.61 30.96 30.36 27.33 25.84 24.60 23.82 23.78 23.71 23.71
40.61 41.40 36.69 32.66 26.27 26.12 34.10 37.29 40.12 40.31 34.90 42.51 43.47 41.76 39.66 40.23 38.43 40.50 40.67 41.91 42.83 43.42 42.19 38.63 36.51 35.05 33.47 32.33 32.36 31.06 29.14 28.88 28.36 28.93 30.31 29.51 26.96 25.70 24.54 23.77 23.49 23.98 22.76 23.59
36.81 36.49 34.26 30.84 30.77 32.22 37.67 39.62 38.94 30.33 32.47 39.27 39.60 40.21 39.57 39.87 39.70 37.61 37.13 36.72 39.18 38.85 36.44 35.70 35.25 33.59 31.61 31.77 31.78 29.35 28.31 27.68 28.23 28.45 27.65 26.50 25.47 24.75 24.30 23.66 23.44 22.05 21.64 22.06
35.52 31.82 32.05 34.37 29.07 25.32 38.93 38.18 34.22 37.36 38.16 38.58 38.30 38.85 37.38 36.21 35.81 35.33 34.94 34.16 34.67 33.94 33.59 33.02 31.14 29.90 30.47 31.27 30.86 28.09 27.17 27.01 27.11 26.69 26.00 24.81 24.03 26.38 25.87 22.68 21.64 21.20 20.56 19.57
33.15 35.77 33.99 35.19 34.06 39.19 38.89 39.05 40.51 40.99 40.29 37.91 38.12 39.11 37.77 35.90 34.51 33.78 32.16 31.92 31.95 32.03 31.70 31.73 30.30 28.76 28.04 28.41 29.99 27.04 24.74 26.02 25.51 24.65 23.68 23.42 24.17 23.92 23.12 21.29 20.81 19.75 19.87 19.24
36.28 39.20 36.70 37.49 37.44 37.51 38.84 39.97 41.06 40.70 39.11 38.78 39.52 39.16 38.38 34.87 33.94 31.75 31.62 31.35 31.06 31.10 30.31 30.80 30.14 28.18 25.28 25.93 26.16 25.85 25.31 25.53 24.42 22.74 22.32 22.77 22.74 22.72 21.54 23.25 22.27 19.25 19.53 19.67
37.28 38.42 36.86 35.97 37.47 38.99 38.49 38.75 39.88 38.97 39.20 38.90 38.64 38.80 37.38 35.98 34.42 33.03 31.52 30.94 30.26 29.83 29.83 30.15 28.63 26.66 24.02 24.50 24.39 24.62 24.82 24.40 22.97 22.36 22.81 22.37 23.08 20.82 20.69 21.52 19.62 20.24 21.40 23.98
37.29 38.29 37.39 37.71 40.70 39.65 38.50 40.49 40.86 39.89 39.14 38.97 38.09 36.83 37.23 36.90 34.41 33.23 30.97 30.48 29.79 28.29 27.82 26.82 25.48 24.78 23.19 23.75 23.36 23.75 24.18 23.85 22.76 22.58 23.28 23.26 22.20 19.91 21.39 19.60 19.55 26.60 28.63 29.77

GFSCGP_sfc_wetblb_036.txt.gz
Wetbulb
39.47 34.59 32.74 34.91 35.10 35.22 33.54 30.90 31.16 34.30 38.80 36.27 35.78 36.61 39.26 42.14 42.80 42.59 44.92 45.95 45.98 46.80 49.54 48.04 48.65 49.33 49.71 50.88 52.37 53.80 54.69 54.36 54.78 52.94 51.25 50.43 47.42 46.12 46.40 46.00 45.40 44.59 43.40 41.65
35.53 32.24 35.97 36.69 35.79 35.56 34.29 33.29 32.64 35.24 37.79 36.71 35.45 35.23 38.96 40.59 41.56 42.74 43.64 45.61 46.43 47.33 45.94 47.20 47.83 49.96 51.75 52.24 52.74 53.81 52.39 52.19 53.58 53.73 48.87 47.24 48.87 45.23 43.66 42.87 41.58 41.99 41.37 39.42
32.19 33.14 38.31 36.90 34.95 33.12 32.45 31.61 31.64 31.05 34.44 36.45 34.35 31.98 34.35 38.88 41.16 42.39 43.59 45.03 47.38 48.00 47.74 45.87 47.03 50.24 51.94 52.48 53.15 53.45 51.42 50.43 49.40 47.75 46.43 43.97 43.94 43.00 41.64 40.84 40.36 39.32 38.40 37.74
34.54 38.27 36.39 34.28 32.83 33.97 30.23 35.15 34.55 33.00 30.44 25.45 32.75 24.34 30.67 34.48 36.61 38.30 40.98 43.57 46.06 46.92 46.62 46.48 46.98 49.88 51.70 52.26 52.88 51.89 50.44 48.50 47.59 48.07 46.99 45.84 44.73 42.08 41.81 39.88 38.87 37.49 36.25 36.12
32.71 34.06 33.87 33.23 33.68 35.73 31.99 36.94 34.43 34.37 31.19 29.24 29.75 25.87 27.17 33.04 33.73 37.06 39.41 41.73 45.02 47.07 47.62 46.15 47.63 50.95 51.61 51.65 50.88 49.24 47.97 47.33 46.23 46.60 46.74 44.70 41.51 40.00 39.34 37.70 35.88 33.98 34.05 34.65
36.57 40.55 37.73 35.24 37.18 37.25 37.92 35.38 34.91 34.86 33.45 25.81 28.40 27.16 28.20 31.05 33.42 36.35 39.79 41.49 45.37 46.48 45.49 46.84 48.36 50.76 49.78 49.06 48.46 48.03 47.49 45.45 45.19 45.43 45.49 44.22 40.50 38.57 36.54 34.56 33.72 33.08 33.12 33.18
34.79 35.94 39.09 39.76 35.14 36.41 34.64 32.18 23.52 21.24 23.09 20.83 29.17 26.89 29.68 33.23 35.31 37.11 38.63 41.07 43.13 44.73 43.93 45.57 47.65 49.08 47.57 47.78 47.62 47.51 46.82 44.05 45.97 45.21 44.05 42.44 39.63 37.62 35.78 34.11 33.39 32.46 32.01 31.36
27.01 21.02 34.27 38.72 35.36 30.72 31.57 31.03 21.76 13.55 18.06 20.93 29.44 24.21 29.17 36.81 40.22 41.26 41.87 41.59 43.03 42.53 43.57 46.35 48.30 49.27 48.37 47.83 47.38 47.18 45.37 42.11 43.08 41.45 38.37 37.61 37.51 36.57 34.90 33.84 32.82 31.86 31.25 30.84
27.19 24.13 33.75 35.97 37.14 36.36 32.53 28.93 33.27 26.38 25.71 22.93 27.58 28.63 34.28 37.04 37.28 38.78 39.33 39.90 38.91 41.72 43.93 46.07 48.16 48.48 47.11 46.70 45.79 45.03 42.63 40.00 38.92 37.45 36.77 34.95 34.76 34.24 32.76 31.43 31.53 31.18 30.90 32.25
29.33 19.84 31.28 35.07 37.02 37.28 34.99 36.69 28.23 28.35 19.54 17.35 21.74 23.09 26.30 32.72 34.61 37.47 39.05 39.68 40.68 42.07 44.07 46.02 46.71 45.27 45.05 43.92 42.08 41.53 40.83 38.51 36.29 35.31 35.25 33.75 32.34 32.17 31.38 31.20 30.14 30.03 30.05 30.17
32.51 29.26 27.75 34.81 32.92 31.22 33.04 30.85 32.44 30.54 27.94 17.17 15.74 22.78 31.97 35.02 36.42 39.01 38.62 38.04 39.93 42.78 44.92 45.05 43.97 42.07 40.63 40.24 39.90 37.84 36.86 36.02 34.49 33.83 32.86 32.24 31.14 30.66 30.40 30.15 29.56 29.46 29.47 29.61
35.68 32.83 26.70 28.19 35.98 37.99 35.77 32.58 32.29 26.52 21.45 24.68 21.76 24.29 37.21 37.07 38.98 40.87 40.13 40.21 41.37 43.78 43.60 42.23 40.63 39.68 39.40 37.61 37.34 36.08 35.44 34.57 33.46 32.77 32.06 31.02 30.67 30.10 29.63 29.12 29.11 29.53 28.75 29.00
35.83 31.58 23.12 23.62 33.19 35.28 32.89 34.32 34.06 33.18 32.06 24.57 18.94 23.91 36.93 38.02 38.93 40.53 41.35 41.88 42.41 42.34 40.96 39.78 39.48 38.83 37.07 35.89 35.02 34.43 34.04 32.81 32.51 32.30 31.28 30.27 29.48 29.22 28.47 28.58 29.03 29.15 28.64 28.24
39.62 34.25 28.84 25.42 29.64 34.09 30.92 33.03 33.45 31.95 27.35 25.91 25.47 28.09 33.69 36.68 38.48 38.90 40.45 43.19 43.50 42.24 41.27 40.48 38.62 36.95 35.89 35.21 33.92 32.84 32.28 32.76 31.99 31.48 30.64 29.50 28.73 28.48 28.37 28.53 28.60 28.65 28.28 27.95
38.39 32.06 33.62 33.89 34.60 34.64 33.81 33.82 33.05 30.82 31.01 25.95 29.14 29.95 34.71 37.30 39.53 37.11 41.44 43.83 44.63 42.15 40.64 39.61 37.35 35.71 34.84 33.25 32.46 32.44 32.00 31.87 31.94 30.97 30.27 28.98 28.76 28.86 28.60 28.53 28.52 28.20 28.08 27.12
39.65 33.15 34.76 31.91 35.68 35.60 32.84 34.99 35.00 33.77 33.58 31.62 31.69 31.01 39.29 41.37 37.72 38.72 39.79 42.57 44.10 42.41 41.78 39.81 38.06 35.20 34.03 33.05 32.36 32.26 31.57 31.27 31.86 30.71 29.35 29.45 29.12 29.01 28.68 28.34 28.50 27.93 26.69 25.82
37.57 34.68 32.91 29.67 35.41 34.99 32.71 34.22 35.45 34.73 35.23 34.09 29.32 34.70 39.22 39.17 41.40 41.23 40.92 43.52 44.31 43.61 42.28 40.19 37.54 36.20 35.15 33.51 33.09 31.84 31.41 31.19 30.70 29.91 29.44 29.46 29.63 28.91 28.29 29.07 28.44 26.42 24.72 23.75
37.04 36.06 34.64 30.91 34.51 27.24 36.43 41.20 39.62 36.25 37.16 37.37 36.93 38.30 41.15 41.91 42.60 42.52 43.67 43.43 43.76 44.03 42.61 40.48 38.19 36.20 34.49 33.53 32.80 31.51 31.62 30.83 29.99 29.10 29.28 29.75 29.13 27.99 28.47 27.94 25.58 24.18 23.25 22.73
39.27 37.76 35.06 32.56 31.15 33.13 35.00 38.48 37.40 34.46 35.25 39.67 39.01 40.31 41.15 42.31 40.07 39.75 41.91 43.75 44.26 44.20 43.13 40.91 39.11 35.99 33.81 32.73 32.39 31.46 30.14 29.43 29.32 28.54 28.48 28.66 28.63 28.63 27.52 25.09 23.28 22.78 22.49 21.87
38.79 39.71 36.64 33.51 29.84 26.25 33.25 36.23 41.58 41.36 35.24 42.26 41.63 41.01 40.77 39.24 35.66 38.46 40.63 42.83 43.22 43.57 42.17 38.70 35.97 34.59 32.85 31.95 32.17 30.92 29.11 28.76 28.04 28.05 28.24 28.31 28.89 27.39 24.39 23.06 22.80 22.32 21.60 23.40
36.30 36.92 33.92 33.77 31.33 32.86 38.18 38.97 40.59 30.32 32.53 39.76 42.67 42.68 42.98 39.57 39.82 38.25 40.06 40.25 41.43 40.20 37.13 35.79 35.15 33.60 31.61 31.82 32.00 29.37 28.47 27.65 27.70 28.13 27.74 27.85 27.06 23.98 23.22 22.38 21.75 21.05 20.89 21.44
34.06 33.51 32.56 33.10 30.87 25.70 39.60 38.14 34.19 36.45 37.34 38.86 38.64 39.21 41.78 36.87 36.18 36.76 36.26 35.55 35.73 34.71 34.89 33.51 31.19 30.10 30.85 31.80 31.06 28.43 26.95 26.33 26.81 26.27 26.77 25.38 23.59 25.91 24.38 21.52 20.62 20.11 19.67 19.16
31.95 35.47 33.28 34.30 33.35 38.82 39.05 39.70 40.81 40.88 39.66 37.33 37.09 37.14 36.87 34.90 33.89 33.69 32.77 32.92 32.35 31.86 31.45 31.52 30.14 28.46 27.94 29.27 31.25 28.34 23.98 26.00 24.97 24.88 23.18 22.94 23.29 22.71 22.76 20.54 19.75 19.23 19.31 18.94
34.82 38.03 36.02 36.21 36.89 38.23 38.45 39.40 39.85 40.07 38.96 38.67 38.36 37.21 36.35 32.82 32.34 30.83 31.17 30.92 30.59 30.72 30.00 30.23 29.79 28.30 25.94 26.27 26.82 26.14 25.20 25.13 24.04 21.92 21.79 22.21 22.94 21.24 20.58 23.20 21.92 19.19 19.21 19.22
36.85 37.88 36.49 36.71 38.41 37.79 39.01 38.64 38.34 38.37 38.88 38.31 37.91 36.85 34.49 33.35 32.08 31.47 30.40 30.04 29.83 29.91 30.49 30.57 28.55 26.11 24.02 25.36 24.67 24.70 24.34 24.03 22.70 21.78 22.27 22.33 22.13 20.14 20.06 21.23 19.22 19.45 20.80 22.95
37.10 38.02 36.32 35.95 41.35 39.45 38.39 39.32 39.09 38.18 37.32 37.25 36.47 35.12 35.06 34.65 32.41 31.73 30.21 30.36 29.55 28.04 28.05 26.70 25.72 24.72 23.61 24.06 23.02 22.86 23.56 23.45 22.24 22.02 23.06 23.44 21.17 19.15 21.06 19.09 18.90 26.21 28.32 29.55

GFSCGP_sfc_wetblb_039.txt.gz
Wetbulb
40.77 36.77 33.51 35.70 36.46 35.82 34.88 33.68 32.95 36.16 39.22 37.22 36.47 37.23 39.98 43.11 43.45 42.99 44.62 46.12 47.71 48.84 52.02 53.25 53.30 53.66 53.48 53.93 55.51 56.14 59.66 61.80 60.25 58.22 57.00 55.68 53.47 53.24 51.03 48.42 47.29 46.67 45.85 44.94
36.48 33.17 37.02 37.58 36.79 35.53 34.28 32.46 32.17 35.17 37.89 36.77 35.73 34.97 38.75 40.71 41.66 43.20 43.78 44.77 46.44 48.51 50.00 52.03 52.37 52.51 52.96 54.01 55.21 56.55 59.04 59.08 58.98 58.83 56.32 54.11 52.46 50.33 49.92 45.80 45.02 45.50 43.82 42.53
32.73 34.74 38.45 36.84 35.08 33.32 33.35 32.24 32.16 31.50 35.17 36.81 34.58 32.39 36.20 39.66 41.01 42.25 43.78 45.15 46.43 47.20 48.63 51.12 50.74 51.54 53.78 53.96 54.85 55.96 56.13 56.52 55.89 51.63 50.30 47.90 47.64 46.57 44.83 42.46 41.85 42.80 41.98 41.43
35.07 38.56 36.47 34.75 33.88 34.65 30.20 35.63 34.99 33.31 31.77 26.24 34.14 24.71 33.75 37.29 38.29 40.40 41.29 42.74 44.21 45.68 47.54 50.33 50.99 51.07 53.07 55.03 55.62 55.72 54.56 53.48 51.83 51.63 51.06 50.20 49.94 46.96 45.58 41.82 40.66 39.43 40.10 39.66
32.40 34.79 34.42 33.24 34.06 35.96 32.70 36.81 34.54 34.11 31.97 30.33 30.78 27.62 32.62 35.09 34.61 37.49 40.21 41.91 42.76 45.42 46.95 48.82 50.60 51.65 53.42 54.88 55.50 54.32 52.79 51.62 50.63 51.47 52.02 51.87 48.44 44.76 41.37 38.91 37.85 36.79 37.79 39.34
36.04 39.77 37.61 35.65 37.22 37.39 38.25 34.80 35.21 34.86 33.24 25.12 29.71 28.61 29.48 33.80 36.42 38.50 40.48 42.05 43.48 45.43 47.30 49.57 51.14 51.80 53.10 54.43 53.56 51.86 50.99 49.15 49.42 49.83 48.79 47.41 43.41 40.78 37.86 37.13 36.21 35.90 37.73 37.59
35.87 36.59 39.65 39.71 35.10 37.14 35.86 33.38 24.20 21.33 22.78 21.23 29.97 27.96 30.80 36.02 37.71 38.68 39.31 40.58 42.50 45.16 47.01 47.72 48.45 50.69 51.96 52.67 51.50 50.38 49.63 47.23 47.89 47.84 46.55 45.25 42.58 40.54 38.27 37.14 36.70 36.69 36.18 36.06
27.82 23.88 34.57 39.24 36.15 33.06 33.33 32.29 24.45 14.63 17.37 21.85 29.25 25.70 31.00 37.48 40.40 41.75 42.14 42.27 43.30 44.26 46.20 46.61 48.71 50.96 51.91 52.17 50.63 50.24 48.44 46.51 47.15 46.44 44.15 42.20 41.26 39.60 38.42 37.07 37.52 37.07 36.40 35.68
27.91 27.10 33.85 36.39 37.41 36.92 32.17 29.06 34.04 25.53 26.91 22.82 26.58 30.16 35.48 38.74 38.44 39.41 40.18 41.87 42.13 42.24 45.11 46.59 48.61 50.61 51.60 51.23 50.45 49.06 47.12 45.73 45.15 43.09 40.52 39.63 38.97 38.04 37.40 37.08 36.98 36.23 35.74 35.27
32.79 26.43 30.75 34.59 37.34 37.05 33.81 36.08 27.28 27.97 19.96 18.57 23.62 25.00 27.38 32.78 35.52 38.33 40.27 42.33 42.31 42.58 43.58 46.38 48.70 49.89 50.56 50.71 48.57 47.31 45.59 43.30 41.87 40.42 39.26 38.02 37.37 37.03 36.24 36.18 35.21 35.33 35.24 35.13
34.67 30.24 27.46 34.34 31.67 29.53 32.08 30.21 32.38 31.44 29.24 21.86 20.37 24.94 33.57 34.68 36.74 38.79 40.65 42.58 42.35 40.82 44.50 46.59 48.13 48.34 47.38 45.83 45.34 43.16 41.42 39.64 38.44 37.81 37.18 36.62 35.52 35.16 35.27 34.68 34.43 34.51 34.67 34.64
35.53 32.68 24.64 26.88 34.36 36.51 34.96 32.82 31.82 26.28 25.26 27.56 25.99 25.55 39.21 38.23 39.64 41.07 42.04 43.31 43.48 43.47 45.08 45.71 43.48 42.53 43.31 42.04 41.82 41.66 39.98 37.96 36.59 36.70 35.98 34.81 34.37 34.30 33.96 33.56 33.63 34.34 33.71 34.09
35.30 31.71 24.85 23.22 31.18 34.75 32.81 34.02 34.09 32.90 31.51 26.68 23.00 25.69 37.64 38.48 37.96 39.91 41.73 43.75 42.65 41.43 40.81 40.26 41.04 41.46 40.77 40.11 39.58 39.00 37.06 35.25 34.71 35.18 34.46 33.88 33.53 33.46 33.06 32.92 33.27 33.47 33.16 32.83
39.17 33.39 26.39 23.11 28.08 33.85 30.72 33.33 33.31 31.73 27.44 27.20 27.41 28.94 33.76 35.67 37.12 39.29 40.99 44.26 42.52 40.74 39.85 40.26 39.51 38.68 38.13 38.16 37.77 35.76 34.85 34.57 34.11 34.38 34.01 33.19 32.95 32.78 32.78 32.73 32.68 32.68 32.72 32.16
37.38 31.56 32.45 32.96 33.93 34.21 33.53 33.09 33.30 30.65 30.98 27.88 30.24 29.86 33.63 36.66 38.44 39.45 42.09 43.81 43.44 40.44 39.47 38.63 37.26 36.87 36.09 35.57 35.54 34.95 33.98 33.89 34.43 33.56 33.30 32.20 32.14 32.38 32.17 31.96 31.92 31.90 31.98 31.42
38.93 32.69 34.88 31.97 35.43 35.37 33.13 35.80 34.89 35.11 33.34 32.47 32.43 31.62 38.25 38.51 41.18 40.69 41.34 43.32 43.69 40.92 39.38 37.70 36.87 35.76 34.82 34.76 34.36 34.14 33.62 33.60 34.33 33.13 31.78 31.93 31.79 31.82 31.58 31.32 31.04 30.94 30.46 30.16
37.20 34.98 32.98 28.56 34.96 34.99 33.22 36.16 35.24 35.35 35.61 34.44 30.58 34.93 38.27 37.55 39.65 41.22 42.79 43.68 44.61 41.50 39.21 37.14 36.08 35.59 35.06 34.63 34.47 33.54 33.44 33.81 32.97 31.91 31.71 31.64 31.83 31.14 30.89 30.92 30.67 29.98 29.24 29.20
36.41 34.91 34.97 30.67 33.62 26.35 36.22 40.90 40.53 37.14 37.49 37.91 36.91 37.56 39.42 40.30 41.53 42.65 42.86 43.70 44.76 42.30 39.61 37.82 37.15 35.34 34.53 34.74 34.28 33.37 33.56 32.91 32.11 31.52 31.48 31.72 31.11 30.11 30.21 30.17 29.38 28.82 28.70 28.06
39.22 36.16 34.19 31.62 31.12 33.50 35.22 36.37 37.97 36.25 36.46 39.85 38.21 38.75 39.49 41.05 41.43 40.20 42.89 44.68 45.06 43.17 40.90 39.23 37.76 35.38 34.67 33.91 33.87 33.07 32.33 31.98 31.67 31.03 30.85 30.55 30.37 29.77 29.87 28.52 28.27 27.83 27.77 27.46
38.15 38.11 34.73 32.52 29.80 27.20 33.83 37.71 41.27 40.24 34.94 41.06 40.07 40.03 40.74 41.14 37.08 38.40 40.73 44.19 43.77 42.70 40.46 37.40 36.08 35.34 34.18 33.51 33.83 32.63 31.42 31.53 30.48 30.45 30.06 30.29 30.42 29.97 28.32 27.74 27.40 26.71 26.74 27.14
34.78 34.34 31.26 32.51 31.51 31.84 38.17 38.31 40.97 31.84 35.11 39.87 42.06 42.36 42.13 40.81 39.09 38.54 40.49 40.90 42.00 40.68 37.88 36.98 36.25 34.65 33.09 33.62 33.64 31.61 31.46 30.07 29.76 29.82 29.68 29.51 29.57 28.02 27.49 26.79 26.35 25.79 25.81 25.51
34.82 33.96 33.08 33.77 30.94 26.67 39.45 37.31 34.23 37.61 39.93 40.57 40.79 42.53 43.16 37.40 37.45 36.71 36.59 36.44 36.84 35.85 35.94 35.00 32.76 32.04 33.10 33.74 33.06 31.66 28.94 28.99 29.84 29.13 28.66 28.15 27.83 28.22 26.59 25.85 25.22 24.94 24.69 24.35
31.64 34.68 32.11 33.62 33.19 39.07 39.80 40.23 41.21 40.95 39.52 39.73 39.14 39.80 41.08 36.84 35.62 35.67 34.35 33.82 33.69 33.42 33.15 33.11 31.61 30.25 31.04 32.66 32.94 29.04 27.96 28.95 28.18 28.05 27.17 26.39 26.30 26.02 25.90 25.36 24.68 25.08 24.06 23.71
34.17 37.18 35.62 36.24 37.84 38.52 40.14 39.57 39.93 39.39 39.09 38.34 38.39 37.16 36.61 33.31 33.31 31.94 31.83 31.49 31.49 31.56 30.55 31.04 30.68 29.44 28.48 31.22 30.45 28.67 28.29 28.07 27.28 26.22 25.57 25.77 25.37 24.70 24.70 26.14 25.22 24.15 23.94 24.07
36.07 37.30 36.30 36.95 38.96 38.68 38.93 39.50 38.65 38.33 38.71 36.90 35.94 35.34 33.83 33.14 31.77 31.37 30.12 30.04 30.24 30.47 30.97 31.05 29.34 27.31 25.91 27.12 27.10 27.63 26.95 26.84 25.31 24.95 25.26 25.42 24.68 24.11 24.01 24.48 24.19 25.01 25.48 26.24
36.88 37.07 36.33 36.11 40.53 39.31 38.05 39.89 39.71 38.09 37.00 36.41 35.12 33.78 34.15 33.47 31.08 30.84 29.76 30.37 29.80 28.73 28.82 27.43 26.65 25.94 25.49 25.78 25.06 25.27 25.98 26.45 25.51 24.87 25.47 24.99 24.15 23.32 24.01 23.08 23.26 26.58 28.40 28.98

GFSCGP_sfc_wetblb_042.txt.gz
Wetbulb
44.37 39.29 36.79 40.07 41.78 41.40 38.68 37.41 36.41 39.81 42.61 40.58 40.03 40.57 42.73 45.28 46.00 46.41 47.75 49.09 50.23 51.93 55.10 56.61 58.09 59.39 59.98 59.91 60.13 60.85 61.47 63.35 65.26 65.79 66.26 67.01 64.88 63.29 61.66 60.70 57.45 56.44 54.15 51.17
39.90 34.99 41.02 41.76 41.53 39.47 38.64 36.58 36.63 39.56 41.12 39.68 39.34 38.76 42.82 44.42 44.90 46.16 46.68 47.38 48.05 49.21 51.25 53.90 55.85 57.88 58.99 59.21 59.82 60.79 61.69 63.89 65.10 65.51 65.11 65.15 61.37 57.62 54.44 53.50 51.10 52.32 49.19 46.84
37.18 38.07 40.74 39.75 38.40 36.57 37.24 35.94 36.38 35.77 39.10 40.31 38.62 37.65 42.00 43.85 45.23 46.24 46.82 47.64 48.37 48.70 49.23 50.71 52.74 55.74 58.51 58.71 59.61 60.10 61.65 63.85 64.53 64.53 63.98 59.27 54.71 51.29 47.48 47.63 47.73 47.16 47.05 46.79
38.77 41.87 38.30 37.58 36.35 38.02 33.76 39.26 37.61 36.12 34.48 31.12 37.97 30.66 39.23 42.57 43.63 45.00 46.36 46.93 47.67 48.78 49.89 50.48 51.55 53.05 56.83 58.66 60.36 60.29 61.47 62.82 63.34 61.51 58.27 56.45 57.35 53.17 49.56 47.78 45.37 43.76 44.25 46.29
36.06 37.27 37.20 34.96 36.42 39.21 35.03 39.15 37.39 36.61 33.79 32.07 33.88 28.93 36.76 41.32 39.76 42.39 44.97 46.66 48.05 49.21 49.73 50.39 51.49 52.30 55.02 58.69 59.83 60.04 60.63 61.28 60.20 59.43 60.02 59.73 57.80 54.50 48.37 45.15 42.17 41.01 42.14 43.42
39.01 42.18 39.97 39.49 40.39 40.12 40.24 37.56 37.10 36.46 33.91 26.62 33.22 31.74 34.35 38.56 40.25 42.24 44.72 45.95 47.34 48.18 49.38 50.37 51.83 53.17 54.09 57.81 59.53 59.78 59.06 58.80 58.73 59.51 59.52 60.32 56.32 49.30 44.78 42.45 39.35 39.57 40.97 41.71
36.97 37.62 40.91 41.29 36.87 39.28 37.34 34.49 28.52 26.07 24.94 25.71 34.30 32.58 34.87 40.82 42.28 43.09 43.64 45.16 47.36 48.64 49.17 50.20 51.60 52.75 53.88 55.84 58.44 58.37 57.87 56.68 57.42 57.95 58.78 56.69 51.90 48.48 46.15 41.16 39.32 40.04 40.79 39.85
31.36 30.36 37.36 40.92 37.84 35.18 34.96 33.67 28.62 21.40 24.12 28.43 33.62 28.42 35.76 42.37 43.60 44.74 45.39 45.84 47.72 48.87 50.11 49.59 51.82 53.47 54.28 55.61 57.72 57.37 56.80 55.32 55.93 55.95 55.22 54.09 49.74 45.21 41.15 40.12 38.95 39.08 40.61 42.65
31.78 29.91 37.55 40.05 40.40 39.42 34.22 30.79 36.91 29.85 31.30 26.49 30.61 35.38 40.26 42.30 42.30 43.34 44.00 45.70 46.96 48.11 49.58 50.05 51.06 53.38 54.81 55.99 57.24 56.84 56.03 54.52 54.61 54.05 52.48 49.16 44.50 41.08 40.70 38.68 39.51 40.08 40.25 40.86
35.63 30.37 34.78 36.81 39.93 39.83 36.95 38.50 28.58 30.49 21.31 22.04 29.67 31.78 32.98 38.13 39.47 41.83 42.55 44.71 46.23 48.39 49.82 49.52 50.11 52.77 55.11 56.69 57.18 56.83 55.46 53.46 52.59 50.71 49.43 45.63 41.09 39.59 38.84 39.78 39.60 41.24 40.89 40.41
37.23 33.41 32.25 34.70 33.18 32.94 33.16 31.86 33.20 32.58 30.88 24.66 23.72 30.61 40.15 38.39 39.89 41.07 43.31 44.68 46.34 47.92 49.08 48.65 50.03 53.32 55.06 56.31 55.74 54.28 52.96 50.71 48.96 47.71 44.72 42.37 38.91 38.95 39.25 40.54 41.45 40.80 40.31 39.97
38.61 33.54 28.42 30.95 38.14 39.75 38.33 34.96 33.57 27.92 27.02 29.07 28.41 29.08 41.40 40.65 42.36 43.44 43.45 44.14 46.74 48.09 48.33 49.33 50.99 52.92 53.71 53.14 52.60 51.19 49.41 48.15 46.44 43.39 42.20 38.83 39.06 39.16 40.22 40.46 40.02 40.00 39.28 39.46
38.17 31.99 28.02 31.09 34.71 36.34 33.56 35.42 35.25 34.31 32.64 28.29 25.94 30.26 40.91 42.01 42.72 43.53 42.79 44.45 46.37 46.99 46.96 46.78 48.35 49.46 50.72 50.37 49.65 48.03 45.65 42.06 42.06 40.77 38.47 37.88 39.63 40.07 39.52 39.18 38.98 39.06 38.66 38.17
40.52 35.05 31.94 29.07 32.93 35.97 32.19 34.05 35.01 32.14 28.82 30.13 30.87 32.57 38.10 39.58 40.37 42.26 42.88 43.62 46.76 46.88 44.96 45.87 47.16 48.02 48.57 46.37 44.15 41.67 38.87 38.08 37.68 37.77 37.73 38.85 39.91 39.15 38.46 38.38 38.24 38.05 38.03 37.42
37.90 32.61 33.55 34.36 35.39 35.88 35.03 33.99 34.26 31.96 31.94 28.77 33.28 34.25 37.91 40.21 40.03 41.27 42.94 44.76 45.82 44.93 43.24 44.12 44.96 45.57 43.31 39.88 38.32 37.16 36.63 36.70 37.11 36.51 37.44 38.62 38.70 38.19 37.53 37.12 37.35 37.22 37.20 36.48
38.89 33.12 34.99 32.32 36.54 36.36 34.16 36.93 37.26 37.30 36.88 34.41 34.25 33.84 41.60 43.14 43.05 42.59 43.98 43.83 43.93 44.91 41.89 42.32 42.28 40.60 38.18 36.82 35.75 35.60 35.27 35.52 36.37 36.03 35.89 37.29 36.90 36.87 36.48 36.53 36.34 36.20 35.38 35.15
36.79 33.65 32.88 29.80 36.01 35.89 34.76 37.47 37.42 37.60 36.74 36.58 32.58 37.36 41.88 41.15 41.95 41.54 42.96 44.34 45.19 43.89 41.35 40.95 39.12 38.03 36.75 36.27 35.89 34.89 35.40 36.48 35.82 36.87 36.75 36.49 36.46 35.75 35.69 35.87 35.48 34.78 34.21 34.69
37.20 35.62 35.39 31.41 33.94 29.13 38.14 42.49 40.98 38.95 39.18 39.00 39.46 40.61 41.88 41.82 42.30 44.13 44.65 44.87 46.59 44.28 42.14 40.48 37.60 37.15 36.82 37.04 36.73 36.47 36.83 37.96 37.69 36.68 36.27 36.29 35.70 34.73 34.99 34.94 34.14 33.40 33.91 33.56
40.28 37.12 33.34 30.64 30.65 35.38 38.25 39.89 38.76 37.64 37.62 42.98 41.25 42.54 43.24 43.65 44.06 42.24 44.55 47.80 46.47 44.50 42.99 39.98 38.77 38.20 38.40 38.02 38.30 38.64 38.19 37.80 37.01 35.75 35.15 34.83 34.77 34.08 34.31 33.37 32.51 33.05 33.24 33.28
38.72 38.46 34.50 32.60 28.22 28.10 38.57 41.44 42.65 42.75 36.57 41.57 42.82 43.06 42.90 44.27 41.38 40.32 43.55 45.42 43.80 44.00 43.06 40.68 40.20 40.12 39.31 38.83 39.25 37.97 36.90 36.57 34.63 34.52 34.24 34.67 34.84 34.22 33.42 31.95 32.80 32.64 33.10 32.42
34.44 34.72 31.04 30.54 30.31 35.74 42.90 41.80 44.23 34.57 36.81 41.35 42.59 44.42 44.37 43.43 41.45 42.33 44.95 44.68 43.95 41.92 40.82 40.77 40.29 39.33 38.42 38.79 38.26 36.25 35.77 34.24 34.33 33.90 33.26 32.93 33.05 31.83 32.16 33.04 32.92 32.23 32.17 31.75
34.78 33.14 31.47 32.56 32.01 30.16 43.80 43.60 39.49 41.69 43.37 42.79 42.53 44.04 43.75 41.94 40.62 39.86 40.68 40.10 40.15 38.35 37.90 37.04 34.98 35.19 36.05 37.20 36.25 34.36 31.80 31.78 31.91 31.61 30.91 30.59 31.06 31.78 32.70 32.47 31.82 31.32 31.39 31.07
35.47 40.02 38.74 38.42 38.02 44.72 44.42 44.71 45.89 44.18 43.35 42.92 41.79 42.80 43.32 39.93 39.35 39.25 38.02 37.67 37.00 36.35 36.88 38.02 37.08 36.12 37.05 36.57 34.26 30.26 30.09 30.64 30.52 30.41 30.01 31.00 32.00 31.95 32.19 32.06 31.21 31.77 30.86 30.00
41.35 42.98 40.49 40.35 44.39 44.34 45.22 44.59 43.50 41.71 41.94 40.94 40.25 41.53 43.40 40.53 37.51 35.00 34.82 35.06 35.91 36.31 35.76 36.27 35.75 35.15 33.90 32.91 31.45 30.15 30.18 30.88 30.91 30.77 31.25 31.68 31.40 30.97 31.31 31.17 31.17 30.88 30.17 29.40
42.68 41.78 41.61 41.62 44.64 46.11 44.69 43.31 42.60 40.78 39.88 38.85 38.60 38.90 39.10 38.57 37.97 37.22 35.15 34.39 34.34 34.66 35.37 35.96 34.52 33.61 31.37 30.64 29.83 30.35 30.86 32.13 31.88 31.86 31.62 31.33 31.07 30.84 30.41 30.16 30.72 30.65 30.90 29.64
42.66 43.01 41.41 41.90 44.79 44.42 42.69 42.03 41.81 40.66 38.39 37.87 37.41 36.27 37.27 37.68 35.77 35.33 34.05 34.34 33.77 32.87 33.30 32.71 32.31 31.62 30.73 29.86 29.25 30.19 32.59 32.99 31.87 30.71 30.68 30.71 30.46 30.42 29.94 29.59 29.86 27.99 28.27 28.40

GFSCGP_sfc_wetblb_045.txt.gz
Wetbulb
45.39 40.74 38.42 41.83 43.35 43.73 40.88 39.95 39.59 42.84 45.39 42.89 41.92 42.49 44.82 47.40 47.84 47.73 48.65 49.58 50.57 51.98 55.29 56.81 57.86 59.22 59.65 60.35 61.18 61.54 62.05 62.42 63.54 65.28 66.51 67.44 67.43 66.70 64.97 66.17 67.14 65.76 62.94 58.19
40.15 36.94 43.14 44.93 43.73 42.14 41.14 39.04 38.90 42.23 44.11 41.54 41.02 40.68 44.33 46.11 46.76 47.84 47.98 48.38 49.05 50.38 52.01 53.80 55.64 57.41 58.36 59.40 60.97 61.20 61.70 62.43 63.91 65.81 67.07 67.59 66.78 60.72 60.70 61.34 62.71 60.85 57.59 54.61
38.61 40.35 43.26 42.11 40.46 38.69 39.23 37.84 38.47 38.35 41.72 42.49 40.72 39.26 43.36 46.94 47.88 48.46 48.92 49.59 50.12 50.25 50.58 51.56 52.53 55.25 58.49 59.01 60.06 60.86 61.54 62.83 64.55 65.82 66.83 66.72 59.00 54.59 52.04 52.19 51.63 51.91 51.75 50.18
40.68 43.23 39.73 39.62 38.31 39.78 35.55 41.52 39.82 38.23 36.52 33.34 40.33 31.58 40.06 43.80 45.03 46.24 47.35 48.46 49.02 49.77 50.65 51.34 51.99 53.15 55.40 58.35 61.19 61.54 61.97 62.91 64.72 66.03 65.03 62.58 57.13 53.21 50.34 50.06 50.33 49.60 50.11 49.43
37.81 38.76 38.67 36.83 38.19 40.76 36.74 40.32 38.51 37.90 34.29 32.72 35.26 31.84 37.75 43.08 41.64 44.08 46.57 47.83 48.70 49.94 50.45 50.68 51.81 53.25 54.03 56.62 60.09 61.78 62.08 62.82 64.56 64.61 64.48 60.87 58.18 57.82 50.62 47.46 46.16 45.63 47.02 47.05
40.74 43.76 41.77 40.77 41.47 41.37 40.99 37.97 37.10 36.54 34.23 27.53 34.56 34.40 35.84 39.53 41.74 43.41 45.91 46.94 48.09 48.89 49.83 50.59 52.03 53.58 54.34 56.19 59.37 61.81 61.43 62.14 63.87 63.79 60.98 59.55 60.57 52.14 46.35 43.81 43.44 44.04 44.67 45.40
37.58 38.11 41.34 42.47 37.80 40.45 38.54 34.46 29.22 27.09 25.87 26.38 36.71 34.48 36.25 42.06 43.79 44.15 44.67 46.42 47.53 48.33 49.24 49.93 50.59 51.72 52.75 54.61 55.97 60.52 60.55 60.63 61.83 60.62 60.99 60.77 60.01 51.31 46.89 44.71 42.92 41.32 42.02 42.21
31.15 30.78 38.39 41.18 38.08 35.88 35.82 34.84 29.97 23.70 26.91 30.46 36.98 29.91 36.38 43.90 45.02 45.73 46.45 46.96 47.73 47.74 49.48 50.81 51.76 52.55 53.23 55.09 56.04 58.84 59.51 59.64 59.60 60.20 60.38 61.82 55.20 51.97 47.99 45.48 42.40 41.59 41.99 41.59
33.64 32.30 40.12 41.68 41.49 39.84 35.34 31.37 37.45 30.23 31.74 27.31 31.75 36.65 41.45 43.75 43.99 44.62 45.22 46.16 46.34 47.78 49.27 50.67 51.82 52.81 53.56 54.96 55.61 58.55 58.97 58.93 58.87 59.44 60.52 56.12 53.37 49.18 45.50 43.60 43.25 41.80 41.86 42.18
37.67 31.46 37.39 39.30 41.11 41.15 38.35 40.08 28.92 30.38 22.19 23.05 31.77 34.38 35.81 40.74 42.42 43.93 43.56 44.46 46.19 48.09 49.16 50.33 50.90 52.30 52.84 55.11 56.49 58.92 58.78 57.41 58.03 58.54 56.81 52.58 47.63 43.92 41.66 41.98 40.70 41.01 41.26 42.11
39.42 35.39 32.70 36.25 34.40 34.45 34.93 32.97 33.78 34.39 31.65 26.53 26.04 32.41 42.77 40.82 42.23 41.87 43.43 45.14 46.50 47.29 48.90 50.08 50.78 51.64 53.15 55.74 57.02 57.77 57.70 56.41 56.01 54.86 51.16 47.36 43.73 41.23 40.59 39.88 40.41 39.62 40.94 40.65
39.61 35.39 30.44 32.71 39.25 40.65 39.02 35.26 34.36 28.13 28.48 30.82 29.88 30.45 42.52 43.19 43.53 43.54 43.92 45.45 46.79 47.35 49.17 49.82 51.33 52.16 53.85 55.85 56.62 56.69 55.55 54.18 53.01 50.20 46.77 43.40 41.61 40.85 40.42 40.32 39.84 40.90 40.12 41.06
39.22 33.37 28.59 31.71 34.96 38.48 34.44 36.53 36.74 35.33 33.99 29.21 26.38 30.59 43.37 43.90 43.62 44.10 44.06 45.20 45.77 46.34 48.56 49.18 50.34 51.89 53.24 54.28 54.40 54.13 52.33 50.73 48.41 46.56 43.41 40.86 40.40 40.07 39.58 39.45 40.84 40.52 40.57 39.35
42.22 35.51 32.47 30.53 33.44 36.62 32.27 35.01 36.40 33.17 29.45 30.73 31.17 33.57 38.99 41.38 42.31 43.70 43.85 45.36 46.10 46.24 48.35 48.33 48.92 49.91 50.93 51.79 51.45 50.48 48.68 46.58 45.23 43.74 41.78 40.01 40.00 39.00 39.18 39.36 40.34 39.72 39.22 38.42
39.05 32.71 34.74 35.24 36.03 36.34 35.76 35.73 36.54 33.58 33.25 29.13 32.85 33.24 38.33 40.86 42.28 43.51 44.50 44.58 44.68 46.43 47.15 46.58 47.15 47.97 48.71 48.87 47.63 44.81 44.28 43.27 41.61 41.38 40.09 38.63 39.42 39.05 39.90 39.24 39.05 38.78 38.55 37.86
39.12 32.89 34.54 31.82 36.53 37.15 35.94 38.42 38.83 37.83 37.57 36.70 36.56 34.81 41.94 43.85 44.66 43.28 43.12 43.69 43.76 44.18 44.19 44.23 45.77 46.02 43.67 41.21 40.22 39.47 38.95 38.44 39.61 39.45 38.21 38.15 38.56 39.10 38.43 38.07 37.87 37.40 36.64 36.20
36.73 34.17 32.59 29.91 36.98 36.95 34.65 38.77 38.72 38.63 39.46 37.98 33.53 39.52 43.10 41.39 41.37 41.95 42.65 43.55 43.87 44.97 42.78 42.60 43.00 40.92 38.73 36.89 37.05 36.51 36.90 37.52 36.82 37.43 36.71 37.60 38.10 37.65 37.54 37.52 36.74 36.01 35.55 35.69
36.80 35.44 34.05 31.28 35.58 28.71 39.36 44.44 42.33 39.67 40.21 42.00 41.35 42.06 42.80 43.17 44.00 44.16 43.70 45.79 44.62 43.05 41.88 41.18 39.78 38.70 36.50 36.57 36.32 37.09 37.82 36.23 36.74 35.90 36.24 36.82 37.40 36.57 36.59 36.27 35.28 34.80 35.07 34.83
40.44 37.32 33.33 30.61 30.93 35.22 39.15 41.76 39.54 38.29 38.46 41.84 42.27 44.43 45.09 45.06 43.86 42.29 45.06 46.52 44.79 43.18 41.27 39.74 38.13 36.50 35.90 35.88 36.84 37.39 36.93 36.36 36.27 35.70 36.12 37.12 36.67 36.07 35.57 34.38 33.89 34.12 34.06 33.82
39.30 39.18 34.73 32.76 28.03 26.14 39.11 42.93 43.74 43.96 36.43 43.94 42.36 43.80 45.26 46.24 38.63 40.12 44.21 44.79 43.00 39.67 38.49 36.86 37.09 36.82 36.79 37.20 38.25 37.37 36.51 36.35 36.12 36.73 36.46 36.59 36.45 35.52 34.04 33.50 33.44 33.77 33.95 32.77
33.23 34.04 30.62 29.75 29.96 34.49 43.17 44.46 45.45 35.36 37.16 43.28 42.62 42.93 45.58 41.82 41.93 43.94 44.11 42.42 42.89 39.48 38.33 38.60 38.04 37.40 37.30 38.62 39.09 38.06 37.99 36.27 36.20 36.39 35.94 35.13 34.46 33.41 33.79 33.75 33.69 33.22 32.58 32.26
34.38 32.22 31.32 33.68 30.91 28.85 45.84 45.34 40.28 43.75 45.02 44.45 43.43 43.19 42.20 42.97 42.35 41.79 42.16 40.54 40.08 39.85 40.71 41.49 40.12 39.78 40.54 41.07 39.41 36.86 34.34 34.40 33.78 32.88 32.27 31.88 32.41 33.46 33.70 32.87 32.57 32.13 31.95 31.78
36.00 39.35 37.12 36.99 37.48 46.08 47.08 45.76 48.04 47.06 44.98 44.72 43.55 44.02 42.21 40.72 39.42 39.85 39.62 38.76 37.43 35.46 35.04 35.78 36.00 35.81 36.20 35.55 34.05 30.64 30.58 31.21 31.01 30.71 30.74 31.71 32.69 33.05 33.45 32.76 31.96 31.83 31.52 30.78
42.61 45.24 40.85 41.27 45.49 46.30 47.94 49.02 46.28 44.53 44.26 43.39 42.09 44.20 44.71 40.72 41.21 40.13 39.04 37.46 37.82 38.96 37.96 37.46 36.87 35.14 32.81 32.43 31.25 30.40 30.73 31.41 31.26 31.06 31.85 32.09 31.76 31.96 32.01 31.55 31.56 31.29 30.63 29.61
43.31 43.77 42.57 42.65 45.71 47.84 45.52 45.10 44.68 42.75 41.90 41.06 40.91 42.26 45.12 40.26 37.91 37.43 36.46 36.75 37.37 37.38 38.02 38.48 36.13 32.24 30.24 30.27 29.93 30.91 31.54 32.53 31.88 32.10 31.70 31.59 31.43 31.63 31.02 30.74 30.95 30.64 31.00 29.10
45.18 43.57 42.05 41.25 46.01 45.98 44.81 44.33 43.99 42.32 39.31 40.03 39.76 40.02 42.25 42.05 39.31 38.74 37.22 37.36 37.07 36.74 36.61 33.78 31.25 29.59 29.27 29.58 29.95 31.60 33.88 34.02 32.52 30.96 31.01 31.32 31.09 31.03 30.69 30.31 30.40 29.41 28.82 28.52

GFSCGP_sfc_wetblb_048.txt.gz
Wetbulb
46.54 40.88 36.79 39.48 41.34 41.48 40.23 37.77 36.36 39.76 43.53 40.42 39.15 39.52 41.89 44.35 44.64 44.62 45.74 46.82 48.14 49.51 51.64 52.32 52.91 53.48 53.60 54.51 55.78 58.08 57.90 58.09 58.93 57.89 63.69 65.51 65.20 65.09 66.40 66.24 65.58 64.90 61.97 55.68
39.59 34.90 41.56 43.63 42.99 40.90 39.34 36.84 36.10 39.77 42.61 39.52 37.83 37.71 41.45 43.45 43.75 44.66 45.00 45.55 46.50 47.51 48.13 49.75 51.29 52.35 53.31 54.08 54.50 55.23 57.03 58.21 59.20 59.88 61.57 64.29 60.94 59.01 58.66 62.29 63.87 61.32 56.13 53.14
36.72 39.24 43.50 41.38 40.06 37.85 37.30 35.21 35.66 35.62 39.24 39.56 37.05 35.13 38.45 43.08 44.51 45.24 46.22 46.89 46.98 46.73 47.24 48.19 48.45 49.99 51.41 53.09 53.77 55.43 56.39 56.64 59.20 60.24 62.03 57.11 56.14 53.31 51.71 52.30 50.72 51.79 50.35 49.57
38.83 42.95 39.85 38.62 38.09 38.65 33.70 39.73 39.02 37.25 33.82 28.09 36.25 25.62 34.50 39.22 40.69 42.75 42.69 43.92 45.47 46.91 47.78 48.14 48.12 47.62 49.60 52.06 54.40 54.79 56.43 56.71 58.22 60.78 61.73 58.54 58.09 54.99 50.86 50.02 49.77 49.38 48.45 49.73
36.41 38.35 37.41 36.30 37.91 40.38 35.74 40.11 37.35 36.59 31.90 29.64 31.05 25.95 31.46 38.28 37.68 39.44 41.14 43.06 44.11 44.82 45.63 46.30 47.12 48.63 49.07 49.30 52.01 55.41 55.59 57.30 57.96 61.74 62.48 58.46 54.93 50.89 49.73 48.17 47.49 47.23 48.76 49.39
39.91 43.61 40.92 39.41 41.11 40.95 40.68 37.23 36.33 34.68 31.48 25.20 29.67 29.12 28.91 34.11 37.09 38.23 40.89 41.60 43.50 43.56 43.82 44.99 46.62 48.13 47.80 48.87 49.52 52.61 54.96 55.95 58.44 61.24 60.78 57.10 52.92 48.61 45.74 44.40 44.55 44.58 45.55 44.87
36.42 37.38 40.83 42.14 37.98 40.38 38.67 34.00 23.03 23.15 22.87 20.35 34.11 30.25 31.99 38.88 40.54 41.29 41.16 39.54 41.94 41.55 42.09 43.81 45.04 45.94 46.94 47.27 49.08 50.05 55.17 55.16 59.01 59.59 58.23 56.67 50.62 47.37 44.82 43.51 43.27 42.78 42.65 42.72
29.88 28.04 36.97 40.66 37.72 34.64 35.18 33.92 24.72 18.16 19.53 24.26 32.76 25.78 30.94 40.43 41.87 41.83 42.53 42.30 42.49 42.33 42.66 43.10 45.24 47.12 47.85 48.38 48.78 49.07 54.65 55.53 58.28 57.95 56.19 55.47 48.67 46.09 44.45 44.17 43.86 42.85 42.27 42.88
30.85 32.24 40.58 40.84 40.96 39.50 34.83 30.77 34.38 27.88 27.35 19.81 26.31 30.49 36.40 40.05 39.63 40.39 40.69 41.77 41.53 42.62 43.42 43.29 46.40 47.04 47.78 47.92 49.27 49.70 54.26 55.32 56.81 56.63 56.57 50.99 48.16 45.19 43.75 42.66 43.14 42.45 42.40 42.34
37.09 30.54 37.08 39.73 41.36 40.57 36.23 37.93 27.33 26.10 12.74 15.66 24.71 27.36 30.35 35.08 37.42 39.86 39.20 39.43 41.22 42.32 42.90 44.68 46.53 47.35 48.08 48.22 50.20 50.43 54.87 54.75 55.28 55.96 53.02 49.95 46.83 44.78 42.41 42.79 42.07 41.61 41.33 41.20
38.63 33.90 31.88 36.34 33.30 32.33 33.77 32.75 32.02 30.30 26.14 17.63 19.06 25.67 36.00 36.05 38.54 38.09 39.29 40.91 41.53 41.29 42.97 44.65 46.09 47.41 48.14 47.97 49.98 51.83 54.16 54.29 54.97 54.31 48.32 42.53 40.20 40.68 41.20 41.18 40.79 40.52 40.80 40.30
39.16 35.07 29.63 30.89 37.15 38.97 37.91 33.22 32.14 22.51 19.99 25.24 22.28 26.12 40.78 39.06 38.21 39.40 39.77 41.77 42.27 43.32 43.32 45.49 45.93 46.88 47.70 48.74 50.64 52.76 54.57 54.87 50.34 45.58 41.62 38.96 38.80 38.91 39.26 39.21 39.37 40.21 39.66 39.94
38.59 32.95 25.42 29.56 32.82 37.12 31.86 34.75 34.67 33.28 30.97 25.14 23.84 25.98 40.18 40.54 41.40 42.97 42.94 42.47 42.22 43.12 43.18 45.37 45.19 46.78 48.73 50.92 52.82 52.83 52.92 47.10 43.79 41.27 38.87 37.86 38.47 39.16 38.99 39.26 39.86 40.10 39.88 38.51
41.52 35.20 27.36 23.36 30.64 34.61 28.19 32.61 33.84 32.66 28.11 27.91 28.60 30.10 35.70 38.83 40.72 42.30 42.69 43.91 42.76 43.72 44.51 44.84 44.41 45.84 49.15 49.64 49.99 48.75 45.09 43.39 40.26 38.45 38.35 38.58 39.12 39.04 39.03 39.12 38.93 38.36 37.91 36.61
37.71 29.93 32.09 33.59 34.87 34.59 33.16 33.00 33.75 32.35 31.86 28.55 30.89 32.69 36.99 40.08 40.41 41.13 42.74 43.55 43.33 43.48 44.98 44.33 44.26 45.85 47.73 48.00 46.38 44.02 42.31 39.99 38.64 38.25 38.66 38.24 38.63 38.61 38.40 37.72 37.46 36.46 37.03 35.16
38.87 30.41 33.55 27.80 34.14 34.37 32.01 34.58 35.07 35.84 36.15 36.22 37.00 36.50 41.63 43.19 41.83 41.92 42.20 43.09 43.02 43.13 43.04 43.00 44.20 45.81 43.18 41.97 41.41 41.01 39.01 38.25 38.53 38.74 38.82 38.38 37.55 37.41 36.93 36.49 35.87 35.00 33.34 33.05
36.57 33.52 31.54 28.27 34.14 34.35 31.16 35.52 36.66 37.98 40.03 39.00 35.08 38.89 42.23 41.16 42.58 41.65 42.15 43.18 43.68 43.61 43.08 43.68 43.04 39.46 38.15 38.27 38.29 38.00 37.32 38.94 39.02 37.74 37.51 37.17 36.72 36.17 35.85 35.39 34.66 32.98 32.74 31.95
35.85 34.30 33.67 27.05 30.89 24.97 35.47 42.31 41.70 38.56 40.51 41.76 41.16 42.52 43.79 43.50 42.53 42.76 44.29 44.34 42.39 43.27 43.28 42.15 38.99 37.08 36.53 36.92 36.90 37.02 37.23 37.43 36.98 36.86 36.27 36.30 35.89 34.96 34.58 33.91 32.82 31.96 32.73 31.16
39.65 37.23 33.53 28.62 28.43 32.30 36.82 39.85 37.67 36.93 38.49 42.03 40.60 42.86 44.41 44.30 44.07 41.35 42.91 42.11 41.64 40.32 39.67 37.81 36.77 35.95 35.66 35.72 36.67 36.74 36.38 36.00 35.49 35.00 35.01 35.24 35.14 34.10 33.57 32.34 31.65 30.69 29.75 31.61
39.19 38.95 34.44 30.46 26.02 23.80 35.01 40.21 42.39 42.70 35.14 43.25 42.53 42.36 42.95 41.28 39.72 39.40 41.15 38.24 37.20 36.71 36.27 35.04 35.53 36.13 36.21 36.61 36.97 35.90 35.11 34.95 34.25 34.42 34.81 35.26 34.43 33.20 31.13 29.60 30.17 32.02 31.66 30.86
33.78 34.53 31.63 30.42 28.56 30.96 38.97 42.10 43.67 34.82 35.79 42.65 42.98 42.80 41.11 38.67 41.54 42.20 39.64 37.96 37.74 37.29 36.58 37.32 37.11 36.83 37.58 38.65 38.25 36.06 35.70 34.42 35.21 35.45 34.43 32.98 31.99 31.11 31.64 32.00 31.60 30.84 29.30 28.51
31.25 30.38 30.13 31.07 28.70 25.21 41.96 41.36 38.22 41.26 43.47 44.49 43.35 42.92 41.44 41.01 40.50 39.87 38.88 37.55 37.21 37.15 37.36 37.67 36.62 37.11 39.05 39.36 37.43 33.91 32.36 32.79 31.91 31.12 31.08 31.60 32.26 33.01 32.20 30.02 28.62 27.83 27.49 26.52
33.53 35.25 32.91 33.65 32.93 40.51 42.65 42.49 44.05 44.00 42.13 42.32 41.65 42.76 42.10 40.19 39.53 38.18 36.36 35.20 34.59 34.73 35.85 36.84 34.57 32.66 34.03 34.44 32.67 28.73 28.31 30.83 30.94 30.86 30.66 31.09 31.26 30.30 29.57 27.86 27.06 26.55 26.90 25.62
38.48 40.97 37.13 37.50 40.77 41.36 42.75 44.03 42.70 41.43 40.35 41.16 39.85 42.68 43.16 40.60 40.21 37.67 37.89 37.03 35.82 35.39 34.96 34.98 33.31 31.52 30.22 30.97 30.97 30.52 30.86 31.48 31.31 30.37 29.54 28.84 28.40 27.73 27.44 27.44 27.42 26.19 25.11 23.94
39.55 41.10 38.90 38.37 41.09 41.90 42.83 41.96 41.50 40.53 39.78 39.79 39.15 41.32 43.43 40.68 38.45 37.04 36.86 36.97 37.62 36.33 35.77 33.80 31.52 29.48 28.58 29.71 29.92 31.02 31.82 32.22 30.45 28.85 27.35 27.38 27.69 26.93 25.95 25.79 24.47 23.58 24.35 24.77
40.54 39.36 37.53 37.72 42.17 41.90 39.48 40.61 41.57 39.91 38.17 39.43 39.14 39.59 40.11 39.20 37.70 37.33 35.95 36.42 36.22 34.06 31.54 30.49 29.64 28.97 29.02 29.93 30.59 31.78 32.64 31.59 29.25 27.47 26.94 26.36 25.50 25.24 24.74 23.83 23.41 29.98 29.26 29.22

GFSCGP_sfc_wetblb_051.txt.gz
Wetbulb
47.45 40.72 35.78 37.40 38.75 38.99 37.81 34.88 34.30 36.70 41.23 37.78 37.37 37.34 39.66 41.94 42.32 43.23 43.61 42.16 45.56 47.52 48.78 49.39 49.58 50.42 50.92 51.73 52.96 55.66 55.86 57.69 61.29 65.97 65.31 64.84 63.84 65.09 63.60 65.02 65.15 63.36 59.91 56.93
40.62 36.63 41.28 42.23 41.46 39.73 37.91 34.44 33.71 37.96 40.33 37.78 36.17 36.17 39.81 41.61 41.83 43.16 43.44 42.53 44.12 46.65 46.88 47.50 48.63 49.02 50.03 51.15 50.99 52.78 55.03 57.09 59.49 62.88 66.12 65.24 64.05 60.64 61.88 63.30 64.46 63.18 57.61 53.75
35.46 38.10 42.49 39.95 38.74 37.19 34.69 32.49 33.05 33.48 37.16 36.68 34.49 32.90 35.90 40.43 41.95 43.61 44.85 45.32 44.91 45.24 44.66 45.52 45.84 46.91 47.86 48.99 50.55 52.35 53.11 55.15 56.15 56.93 58.57 57.02 56.15 55.30 55.07 53.71 55.45 54.61 53.65 51.98
38.63 41.68 39.88 37.74 36.99 37.00 31.88 37.56 37.30 35.71 31.95 26.54 33.80 24.15 30.84 36.81 38.45 39.75 40.53 42.03 44.25 44.86 43.91 45.36 46.33 45.65 46.09 47.22 49.68 51.63 53.28 54.30 55.85 57.34 58.43 59.43 59.65 58.80 54.62 52.00 50.33 49.44 50.30 51.28
35.20 37.60 37.70 35.50 37.00 39.06 34.34 38.86 35.68 34.53 29.76 27.08 28.67 24.84 29.06 34.43 35.47 37.62 36.67 39.06 40.91 42.97 45.04 45.80 44.95 46.43 46.59 46.87 47.47 49.93 51.69 53.71 55.15 58.00 59.39 59.67 58.54 52.31 50.60 49.26 47.77 48.44 48.31 49.21
38.08 42.38 39.63 38.08 39.71 39.46 39.65 35.86 34.59 32.73 29.43 20.93 26.73 26.54 26.06 31.60 35.48 35.19 37.16 39.87 40.13 41.54 41.63 42.93 44.20 45.49 45.36 45.28 45.68 48.56 50.80 52.21 53.49 57.89 59.16 58.87 53.56 50.04 49.23 47.09 46.73 46.22 47.37 47.17
35.67 36.60 39.10 40.74 35.67 37.75 35.98 29.78 17.18 24.49 23.29 18.74 30.31 26.70 27.96 35.59 39.20 39.35 39.12 39.03 40.59 40.88 40.80 41.86 44.36 45.18 45.30 45.62 46.41 46.49 48.46 51.19 52.99 56.90 58.46 55.21 53.07 51.45 49.73 47.46 46.26 45.77 43.72 43.35
25.17 24.00 35.09 38.73 35.75 32.68 32.93 30.26 19.19 14.46 16.07 22.43 30.11 24.46 29.92 37.55 40.52 40.22 41.14 39.83 40.43 39.69 40.73 41.08 44.79 44.69 44.49 45.18 46.00 46.37 46.92 50.09 54.05 57.20 56.11 52.55 50.17 49.75 48.21 47.33 45.28 46.31 44.23 44.03
27.29 28.56 38.97 39.05 39.31 37.62 32.92 27.77 32.90 23.50 23.86 17.29 23.75 27.94 34.01 37.52 37.37 37.65 39.32 39.88 39.70 40.62 40.67 42.36 43.80 45.05 45.45 45.78 45.97 46.23 46.83 51.14 55.64 56.06 51.06 48.39 48.23 47.47 46.30 45.42 44.44 45.12 43.94 42.96
36.34 28.80 37.62 39.12 40.98 40.55 34.88 36.35 24.48 20.49 10.04 13.16 21.74 23.64 28.05 33.32 35.33 37.43 37.42 37.99 39.59 41.30 41.95 42.86 44.47 45.38 46.17 46.23 45.90 46.38 47.42 52.42 55.17 54.65 48.88 46.59 46.31 45.98 44.99 43.64 41.67 42.48 41.95 41.67
38.16 31.83 32.24 37.38 33.86 32.05 33.67 32.16 31.11 27.27 22.92 15.24 16.31 23.05 33.24 34.38 35.71 35.25 37.34 40.13 40.61 41.13 41.52 42.28 44.60 45.52 46.03 46.17 46.44 46.59 49.92 52.97 52.83 49.79 46.60 45.59 43.52 43.56 42.70 42.40 41.60 41.75 41.08 40.94
38.75 34.50 26.98 27.99 35.32 37.81 35.34 32.16 30.79 17.86 16.42 19.51 23.28 24.38 37.56 38.36 36.84 38.60 40.92 43.11 43.53 43.62 43.86 41.58 44.14 44.91 45.14 45.70 47.01 47.71 51.04 50.51 45.88 43.29 43.38 41.61 41.62 40.79 41.92 40.44 41.12 40.89 40.04 40.27
37.27 32.55 25.55 29.27 33.52 36.79 31.77 35.14 33.30 30.49 26.95 17.90 19.02 23.54 37.42 36.68 39.12 41.23 42.20 42.61 43.45 45.17 42.64 43.11 43.61 44.37 45.42 48.20 49.03 48.63 44.39 41.91 41.28 41.09 40.76 40.11 39.54 39.93 39.39 40.55 40.06 40.02 39.25 39.27
41.46 33.98 23.97 21.78 27.12 31.85 26.94 31.08 31.73 31.79 23.70 25.09 24.53 28.54 34.61 36.95 39.00 41.23 42.31 40.66 40.80 42.84 45.11 43.34 43.85 44.03 46.08 46.07 43.73 42.08 40.50 40.40 38.64 38.91 39.08 38.68 38.57 39.01 39.37 39.47 39.47 39.34 38.86 37.95
37.42 25.63 29.40 31.53 33.29 33.52 31.89 30.70 31.81 26.18 30.32 27.63 30.19 30.96 34.76 38.72 40.61 42.78 44.17 42.08 44.15 44.57 44.64 45.54 44.62 43.54 44.43 41.49 41.23 40.27 39.96 39.46 39.53 39.06 39.27 38.68 39.86 39.57 38.85 38.35 38.29 37.40 37.27 35.93
36.45 26.25 31.89 25.97 32.74 33.41 30.56 32.87 33.02 33.33 33.25 33.25 33.46 33.24 40.84 43.35 43.56 43.48 42.16 43.17 43.37 44.10 44.28 44.44 43.03 41.55 39.59 39.42 39.66 39.29 40.23 40.13 40.13 37.92 37.63 38.81 38.02 37.71 37.39 36.55 36.17 35.21 34.31 33.84
35.32 31.18 28.67 23.54 32.12 31.92 26.60 32.71 33.64 33.65 36.02 36.86 33.89 38.88 43.49 42.90 42.68 41.16 41.84 42.51 42.49 42.99 44.40 42.98 36.41 35.87 36.13 37.67 38.31 37.68 38.66 39.12 37.99 37.39 36.97 36.64 36.55 35.73 35.24 35.07 34.44 33.42 32.80 32.61
35.63 33.43 30.41 24.28 28.44 23.26 33.55 38.96 39.67 36.75 38.96 41.48 41.80 42.61 42.98 43.59 42.29 41.62 39.67 40.51 39.29 38.95 40.70 37.15 35.57 35.24 35.61 36.19 37.03 37.67 37.53 37.09 36.43 35.68 35.51 35.64 34.86 34.23 34.27 33.82 32.94 32.44 32.30 31.24
39.03 34.87 32.30 27.03 27.33 29.43 36.14 38.73 37.00 35.48 36.65 42.98 41.64 42.37 43.94 42.18 43.13 40.02 37.71 36.63 35.26 35.22 35.10 34.90 35.31 35.18 35.69 36.00 36.37 36.00 35.09 35.16 34.63 34.06 34.15 33.68 34.17 33.51 33.07 32.11 31.57 31.53 31.39 31.28
38.79 38.32 32.96 28.92 22.74 22.32 35.82 38.89 40.94 41.46 35.19 42.66 42.85 42.69 41.73 39.99 39.69 38.53 37.59 35.92 34.72 34.76 34.92 34.61 35.39 35.61 35.58 35.75 36.04 34.94 34.23 33.68 32.67 33.51 32.92 33.91 33.55 32.92 32.02 31.90 31.56 31.58 31.42 30.95
33.48 34.02 31.12 28.36 26.14 29.62 36.96 40.36 42.57 32.12 33.08 41.66 43.18 43.82 41.04 39.77 40.21 37.82 38.04 36.22 36.10 36.07 36.21 37.20 36.91 35.91 35.83 36.32 35.75 34.38 34.14 33.04 33.69 35.06 34.87 34.45 34.11 32.81 31.95 31.19 31.37 30.74 29.77 28.79
30.53 28.77 29.19 30.75 28.30 22.35 39.40 40.22 36.21 39.70 40.93 42.53 42.87 42.59 40.25 40.05 38.22 37.18 37.30 36.98 36.84 35.95 35.99 36.19 34.99 33.97 37.04 37.34 36.24 33.74 33.56 33.11 34.25 34.08 33.33 32.14 31.61 32.37 31.98 30.11 28.58 27.64 26.89 24.92
31.34 32.52 31.19 31.55 30.72 37.88 39.42 40.75 41.00 41.72 40.27 39.49 41.76 41.74 40.82 39.26 36.20 35.35 35.03 36.27 36.77 36.77 35.70 35.32 34.84 35.72 36.58 35.66 35.61 33.30 31.88 32.34 31.31 30.61 30.83 30.98 31.20 29.96 28.48 26.27 25.46 25.23 25.85 25.00
36.15 38.75 35.58 36.11 40.31 39.62 41.14 40.20 40.65 39.65 38.16 38.12 39.84 42.10 42.71 39.58 38.26 36.29 35.09 34.16 34.18 34.17 33.06 33.62 32.90 30.89 29.57 30.64 30.90 30.47 30.82 31.48 31.11 30.13 29.70 28.58 26.98 26.31 26.30 26.86 26.18 24.80 23.89 22.47
37.86 37.99 37.13 37.49 40.33 39.03 39.52 40.54 39.44 38.37 38.09 37.73 38.11 40.94 42.51 40.36 38.05 37.55 36.67 35.36 34.97 34.52 34.02 33.42 31.66 30.07 29.29 30.27 30.27 31.34 31.85 31.72 29.84 28.58 26.61 26.59 26.44 25.29 24.22 24.43 23.39 23.02 23.25 23.77
38.04 37.40 36.69 36.57 42.65 41.24 39.14 39.08 39.33 37.57 36.84 37.26 39.08 38.86 40.69 38.92 37.65 37.88 37.39 37.51 35.77 33.77 32.06 30.57 29.68 29.01 29.18 30.01 30.40 31.13 31.85 31.05 28.46 25.86 25.61 25.13 24.21 23.68 22.93 22.13 22.18 30.31 29.91 30.25

GFSCGP_sfc_wetblb_054.txt.gz
Wetbulb
47.21 41.45 38.14 38.01 41.24 37.59 37.60 36.19 32.82 35.97 40.29 36.01 35.80 35.91 38.89 41.73 40.73 41.78 42.53 42.08 43.29 45.09 48.33 47.70 48.07 48.88 49.20 50.02 50.19 52.02 55.67 62.48 65.29 65.07 64.79 64.47 64.61 64.23 64.40 63.37 62.31 61.88 60.25 58.01
41.78 37.78 41.72 42.67 40.91 39.05 37.72 34.30 33.04 36.68 39.13 36.07 34.60 34.40 38.42 40.82 41.20 42.40 43.74 44.25 43.76 43.97 44.36 46.36 47.80 47.76 47.94 48.64 48.73 49.94 52.89 57.74 63.48 65.69 65.78 65.21 64.72 63.84 63.67 63.26 62.44 62.06 59.58 57.40
37.72 40.21 42.71 39.92 37.90 37.26 34.58 32.00 32.35 32.90 36.09 34.70 33.29 32.86 34.95 38.34 40.13 42.31 44.08 44.49 44.65 44.57 44.92 45.10 44.98 45.94 46.35 47.07 48.28 49.48 50.66 53.61 60.55 65.09 63.42 58.51 58.10 57.03 57.19 59.03 60.60 60.93 57.90 55.82
38.96 41.70 40.56 38.66 36.25 36.19 31.74 36.37 36.41 34.48 31.22 25.62 33.13 23.43 30.38 34.88 36.10 37.96 37.83 39.26 42.69 44.02 43.68 44.81 44.81 44.51 45.07 45.53 47.16 48.91 50.85 51.93 53.90 59.38 62.15 61.30 61.06 59.78 59.01 59.49 53.68 53.63 54.37 54.36
35.45 37.29 36.85 35.29 36.55 37.86 33.55 37.84 35.19 33.58 28.97 25.91 26.94 25.18 28.94 33.86 34.89 35.57 35.57 37.26 39.12 42.24 42.87 43.09 43.31 45.14 45.38 45.22 44.82 46.22 48.52 51.05 52.75 57.45 61.32 60.95 61.10 59.00 51.85 52.29 51.83 50.29 51.60 52.83
37.09 41.42 39.18 37.71 39.04 39.23 38.83 34.88 32.93 31.33 26.88 16.13 25.08 26.12 26.31 30.81 34.19 35.07 37.60 39.35 40.10 38.73 41.11 42.48 43.44 44.44 44.57 44.43 44.96 45.12 47.10 48.56 51.06 53.47 58.07 60.65 57.52 51.48 50.51 48.99 49.71 48.79 48.68 51.00
35.72 35.69 38.59 40.23 35.17 37.74 35.18 28.05 15.39 14.51 13.95 17.20 28.38 25.35 27.84 34.18 37.64 37.34 38.55 38.64 39.54 39.56 39.44 40.61 42.60 43.71 44.16 43.99 44.88 45.70 45.81 46.91 49.10 51.22 55.27 58.14 57.09 54.11 52.62 50.22 49.68 48.06 46.61 46.31
27.81 25.89 34.77 37.91 35.49 32.66 31.61 28.74 18.77 12.28 17.31 20.68 28.45 23.61 29.52 35.76 37.73 38.39 38.66 38.21 39.33 39.85 39.64 39.81 42.76 43.19 43.85 44.33 44.98 45.31 45.37 45.49 46.87 49.71 55.24 56.69 56.03 54.63 52.59 51.28 49.13 48.64 47.16 44.57
26.69 26.43 37.84 38.02 38.60 36.74 32.46 25.38 31.45 21.91 20.30 15.44 22.34 26.31 31.72 35.48 35.64 36.63 37.85 39.12 38.69 39.89 40.45 41.06 41.78 44.00 44.50 44.92 45.23 45.44 45.92 46.13 46.31 50.79 53.76 51.10 52.01 50.55 49.12 46.97 47.99 45.33 44.54 44.28
32.70 24.91 37.01 38.58 40.58 39.66 33.47 35.09 24.29 17.76 8.35 11.62 20.00 21.78 24.99 30.67 33.29 35.92 36.74 37.64 39.99 43.11 43.37 41.81 43.06 44.67 45.01 45.17 45.25 45.60 46.03 45.59 46.68 52.35 49.21 49.15 49.05 48.77 46.72 46.66 45.70 44.78 43.46 44.02
35.42 29.51 33.44 37.48 33.53 30.49 32.85 29.66 27.10 25.41 21.39 14.05 14.93 22.55 31.50 32.60 34.41 34.74 36.39 38.59 40.47 41.45 42.03 41.55 44.14 43.67 44.86 44.76 44.62 45.63 46.74 47.11 50.28 47.61 46.03 45.91 45.62 45.72 45.45 45.70 45.35 44.12 42.95 42.58
36.28 31.71 27.52 31.18 34.78 36.76 34.55 31.38 28.36 17.45 14.94 15.97 23.05 22.69 35.57 33.08 34.72 36.36 39.58 40.88 43.50 42.61 43.54 43.09 41.25 42.16 43.25 44.01 46.13 47.89 48.35 49.56 46.12 45.16 44.28 43.89 43.81 44.45 43.45 44.16 43.30 42.46 41.61 41.62
35.76 30.31 22.65 25.84 31.12 36.28 30.46 32.58 32.50 28.20 24.25 16.43 16.38 22.61 35.64 35.21 39.42 40.22 39.63 42.54 42.87 41.88 42.08 42.90 43.16 43.71 44.15 47.71 47.16 46.79 44.57 42.09 42.13 42.84 42.53 42.02 42.11 42.04 41.81 40.51 40.81 40.97 40.62 39.46
40.08 31.24 23.50 20.84 25.08 29.58 24.39 30.61 31.85 30.19 20.52 22.07 22.32 26.90 33.80 36.16 38.47 41.30 43.00 43.74 44.34 42.36 44.30 45.54 44.56 45.26 46.51 44.05 41.66 38.72 38.06 38.88 39.08 41.21 40.26 39.74 40.44 40.06 40.32 40.06 39.78 39.46 39.09 37.98
36.65 26.07 28.18 30.18 32.31 32.25 31.29 29.76 30.22 27.47 30.05 22.83 27.24 28.34 33.41 37.37 39.28 41.86 45.08 43.57 44.08 44.54 45.40 45.67 45.67 46.01 44.26 39.08 36.36 36.69 37.37 38.42 39.69 39.48 38.68 37.90 38.96 40.20 38.98 38.72 38.19 37.96 37.08 35.82
36.57 25.25 30.83 25.52 31.36 32.13 29.63 32.26 31.73 31.42 31.40 31.07 31.59 30.94 38.98 41.39 44.59 43.91 41.82 41.60 42.02 41.77 42.59 45.00 43.53 41.16 38.15 33.72 35.28 37.41 38.51 39.52 40.19 39.62 38.35 38.78 38.44 37.36 37.55 36.85 36.12 34.88 34.54 34.30
33.60 29.18 28.68 22.86 30.48 30.15 25.21 30.99 32.21 32.14 33.20 34.61 30.66 35.86 41.59 42.80 43.44 40.57 37.38 38.53 38.33 36.82 42.29 39.42 35.41 35.26 35.35 34.07 36.12 35.70 36.73 38.15 37.36 37.08 36.97 37.15 36.34 34.82 34.63 34.73 34.26 33.55 32.83 32.94
32.83 32.35 30.51 24.19 27.21 21.87 31.62 37.21 36.89 34.01 35.72 37.77 39.66 42.22 43.66 43.62 40.66 37.45 36.39 35.42 35.06 34.91 34.85 34.75 34.37 34.60 35.79 36.80 36.58 36.78 36.39 35.60 35.12 34.63 34.88 35.53 35.05 34.49 34.52 33.94 32.64 32.44 32.50 32.30
37.07 32.72 30.91 27.44 24.45 27.83 34.58 37.71 36.55 35.37 35.77 41.13 41.72 43.22 43.51 43.48 40.24 37.24 37.85 35.55 34.06 33.96 34.35 34.51 35.37 35.56 35.61 35.32 35.62 34.72 34.17 34.27 34.08 33.84 34.20 34.48 34.27 33.29 33.00 32.01 31.49 31.31 31.12 31.15
38.90 38.16 31.48 29.67 20.93 21.24 32.91 37.52 40.85 40.43 32.63 41.46 43.35 42.44 41.78 40.64 39.25 39.59 37.13 35.48 34.02 34.66 35.00 34.60 35.29 35.44 35.13 35.04 35.16 33.98 33.39 33.32 32.75 33.48 33.54 33.60 33.16 32.21 31.51 32.12 32.52 32.59 32.22 31.15
34.09 34.66 31.37 28.83 27.06 27.70 35.19 37.19 41.38 29.44 31.81 40.88 41.77 41.51 39.72 38.53 39.88 38.19 37.32 35.24 35.85 36.42 36.25 36.52 35.82 34.65 35.16 36.02 36.04 34.61 33.99 32.25 32.59 33.96 33.02 32.91 33.79 33.84 33.49 32.59 31.99 31.21 30.17 28.51
30.56 29.93 30.20 30.03 27.39 22.36 37.90 39.46 35.97 38.63 40.75 41.17 40.76 42.53 38.94 37.95 37.80 37.61 37.20 35.86 35.68 35.57 35.50 35.67 34.61 34.12 36.69 36.55 35.33 32.76 31.56 32.50 33.27 34.04 34.04 33.91 33.79 34.76 33.38 31.35 29.84 27.97 26.62 23.40
30.49 31.21 28.69 30.66 29.92 36.83 37.82 38.88 42.76 41.04 39.58 38.92 38.71 40.04 39.36 36.61 36.87 36.84 36.27 36.72 35.96 34.72 34.77 36.05 35.24 35.13 34.88 36.55 34.92 32.18 32.72 33.91 33.32 33.18 31.93 31.46 31.21 30.26 28.84 26.48 24.72 23.59 23.93 23.56
34.25 37.80 34.26 34.74 38.72 37.68 39.57 39.94 40.23 38.76 37.83 37.83 37.94 40.12 39.72 36.86 36.10 35.17 34.96 36.12 36.20 35.91 36.06 36.44 35.25 32.98 31.59 33.07 34.29 33.29 33.29 32.42 31.48 30.44 29.73 28.16 25.93 25.36 25.33 25.62 25.31 23.83 22.42 21.45
36.39 37.90 36.40 35.09 39.52 40.24 39.06 39.66 38.86 38.21 37.03 37.76 37.84 40.72 40.26 38.05 36.01 35.22 34.58 34.50 33.87 33.65 33.33 32.54 30.28 29.47 28.84 30.32 30.43 31.17 31.48 32.60 31.52 28.10 25.24 25.46 25.97 24.29 23.17 23.74 22.94 22.28 22.03 23.40
36.82 35.99 34.82 34.79 41.39 42.27 41.70 39.39 39.15 37.53 36.25 37.00 38.59 39.65 41.27 40.21 37.27 36.36 35.35 35.36 34.40 33.49 33.14 31.26 30.02 29.36 29.55 30.28 30.41 30.86 31.15 30.07 26.97 24.74 24.80 24.58 23.52 22.44 22.15 21.44 21.25 30.66 30.15 30.46

GFSCGP_sfc_wetblb_057.txt.gz
Wetbulb
47.76 41.42 39.17 41.71 42.43 38.85 36.45 34.16 32.13 34.54 39.02 35.62 34.76 34.78 38.36 40.58 39.34 39.19 41.17 42.90 43.91 44.65 47.46 46.74 47.54 48.38 48.35 47.86 48.60 51.06 58.78 63.23 65.22 65.12 65.12 65.07 64.65 65.01 63.79 64.50 63.15 61.37 60.47 59.00
42.41 38.37 42.57 43.96 43.89 40.33 37.99 34.03 32.26 35.93 37.81 35.10 33.95 33.42 38.08 40.46 40.81 41.43 42.77 43.23 43.69 43.15 43.49 44.45 45.94 46.51 47.15 47.73 47.10 47.75 52.90 61.94 63.64 65.13 65.31 65.00 65.19 64.89 64.64 64.10 62.22 61.31 60.39 59.18
38.68 39.93 43.29 40.76 38.85 37.25 34.68 32.18 32.03 32.13 35.00 33.46 32.10 31.14 34.49 37.92 39.68 40.66 41.92 43.35 43.89 43.88 44.44 45.05 43.07 45.05 45.79 46.28 47.11 48.21 48.10 52.56 62.19 64.66 64.23 60.51 59.70 59.57 60.05 59.88 61.82 60.54 59.84 58.93
38.62 41.22 40.02 37.82 36.27 36.60 31.70 35.79 35.75 33.54 30.60 25.75 32.08 22.81 30.04 34.07 35.18 37.10 37.80 38.52 39.86 41.64 43.71 43.61 43.32 42.94 44.01 45.30 45.80 47.07 48.63 49.35 55.82 62.61 63.11 62.55 61.45 60.86 61.87 62.64 62.80 59.73 57.63 57.19
36.86 36.63 37.81 36.41 36.29 37.36 33.41 37.28 34.41 32.54 28.33 24.70 26.58 24.97 28.80 31.52 33.37 35.88 35.57 36.89 38.05 38.91 39.75 41.94 42.38 43.52 44.19 44.38 43.99 44.79 46.20 47.91 50.39 56.45 62.67 62.50 60.93 60.78 58.62 55.33 57.72 52.85 53.10 56.49
36.92 42.12 39.04 37.08 38.84 38.84 37.84 33.73 31.95 29.74 26.18 16.80 24.50 25.12 25.79 29.49 31.86 34.15 36.43 37.03 37.51 37.91 39.02 40.60 42.50 42.86 42.92 43.68 44.13 44.16 45.72 47.19 48.47 51.94 58.91 61.79 61.46 55.10 53.93 52.57 54.56 52.26 51.48 51.90
35.49 35.44 38.47 39.68 34.94 37.11 33.76 28.84 18.13 15.41 14.14 17.02 27.43 25.21 27.46 33.35 35.75 36.08 35.78 35.50 38.17 39.49 40.78 41.08 40.83 42.80 43.34 44.09 44.45 45.02 45.00 45.72 46.95 48.67 53.03 57.46 58.79 55.12 55.88 54.96 55.67 51.51 50.68 48.88
27.63 27.88 34.65 37.66 35.03 32.70 30.62 28.67 19.72 13.05 14.40 19.53 26.71 22.97 28.42 34.90 35.96 36.29 37.18 36.47 39.50 39.81 39.14 41.10 41.51 42.49 42.69 43.26 44.14 44.44 44.90 45.19 45.50 45.29 48.39 53.37 56.54 56.55 54.70 53.53 53.96 53.19 51.58 49.53
25.41 25.33 36.45 37.64 37.99 36.36 31.64 23.80 29.89 21.80 19.99 15.96 21.86 25.35 30.47 34.18 34.09 35.92 37.36 39.18 38.86 40.88 41.60 40.44 42.18 43.37 43.62 44.01 44.25 43.88 44.51 45.30 45.77 45.64 46.76 51.73 53.53 52.47 52.06 50.64 50.35 49.15 46.99 47.04
30.89 25.43 36.46 36.84 39.42 37.89 32.97 34.31 23.82 18.42 11.27 13.44 19.74 21.09 24.16 29.25 31.66 34.75 35.63 36.42 38.75 41.52 42.63 42.25 40.98 41.85 43.77 44.59 44.89 44.08 44.62 45.30 46.10 45.76 48.80 50.26 51.53 51.08 48.45 47.86 45.86 44.83 45.36 45.56
33.92 29.50 33.52 36.80 33.98 31.51 31.12 27.51 26.55 25.25 21.66 15.59 15.84 22.12 29.43 30.18 32.88 33.94 35.63 37.10 38.87 40.49 41.40 42.23 42.13 42.20 41.34 42.59 42.83 43.10 43.77 45.83 47.17 48.46 46.55 46.18 45.55 44.83 45.32 45.36 44.87 44.17 44.04 43.72
35.27 30.85 29.73 31.86 34.18 35.95 33.76 30.65 27.61 18.27 16.29 16.45 21.28 21.17 33.50 34.12 34.95 35.15 37.24 39.10 42.04 42.45 42.30 42.12 42.09 43.46 42.86 43.07 45.54 46.28 46.80 47.65 47.53 44.32 43.51 42.85 43.10 43.43 43.38 42.83 43.02 42.79 43.49 42.73
35.13 27.78 18.66 27.60 32.47 35.49 30.34 31.93 29.03 26.45 22.06 14.02 15.26 21.56 33.89 32.42 34.51 37.37 40.99 43.33 45.52 45.22 44.80 43.97 45.09 46.14 44.44 43.95 42.33 40.04 38.33 39.69 41.72 41.97 41.69 41.43 41.65 42.20 44.60 44.19 43.10 43.56 41.52 40.53
39.07 29.68 23.37 20.23 24.76 29.13 22.93 29.96 29.76 29.81 20.76 20.69 21.48 24.53 31.33 34.84 35.55 39.48 41.43 42.80 42.18 44.58 43.87 43.39 43.95 45.11 45.86 40.13 38.99 38.06 37.63 37.64 39.59 40.61 40.82 41.01 42.59 42.94 41.99 42.69 42.63 41.16 39.41 38.20
35.16 25.86 27.54 29.39 31.49 31.54 29.82 29.50 30.01 26.84 28.14 20.96 24.92 27.14 32.06 36.21 37.31 39.86 42.35 42.11 41.66 42.21 40.25 40.68 44.27 45.20 38.97 38.38 37.83 37.28 37.97 38.13 38.80 38.67 39.61 40.56 41.00 40.69 40.38 39.67 38.89 37.83 36.54 35.26
34.57 25.42 29.12 24.97 30.80 31.32 29.31 31.51 30.89 31.03 31.44 30.72 31.55 30.67 38.54 40.11 41.22 43.49 40.89 38.86 39.21 38.30 36.35 41.33 38.54 37.07 35.41 35.34 34.32 35.54 35.55 37.05 37.85 38.03 37.52 38.20 37.89 37.23 36.11 35.43 34.68 34.82 34.51 34.47
33.95 28.40 27.23 20.38 29.17 29.32 24.91 30.02 31.16 31.33 31.58 33.27 29.31 34.66 40.12 40.55 43.16 42.24 37.89 36.91 36.39 36.19 35.52 34.18 33.98 34.82 35.33 35.05 34.28 34.09 34.85 36.28 36.07 35.43 35.17 35.21 35.47 34.97 35.12 35.05 34.83 34.39 34.07 34.60
31.34 30.32 31.09 25.35 26.40 22.63 30.12 34.42 35.53 33.33 34.52 35.78 37.29 38.94 40.58 43.11 42.73 38.09 37.14 34.74 34.46 33.94 34.32 34.27 34.79 35.33 36.08 36.64 36.01 36.04 36.26 35.76 35.45 34.79 34.84 35.47 35.46 34.58 34.41 33.76 33.05 32.95 33.08 32.58
35.55 31.80 30.24 27.40 24.79 26.67 32.51 36.22 33.56 32.65 34.82 38.06 37.63 40.47 43.65 42.96 39.49 39.50 37.80 34.44 33.86 33.56 34.23 34.59 35.32 35.22 35.54 35.47 35.81 35.37 35.04 35.22 35.01 33.91 33.76 34.50 35.08 33.99 33.53 32.46 32.17 32.24 31.96 31.92
37.25 37.85 30.58 29.44 22.92 20.42 30.00 36.64 39.73 39.59 32.51 40.67 42.37 42.77 39.60 39.68 37.80 39.14 35.69 33.69 33.86 34.82 34.91 34.49 35.08 35.23 34.59 34.70 35.17 34.30 33.90 33.99 33.56 34.14 34.09 34.21 34.09 33.42 32.36 32.06 31.84 32.02 32.39 31.99
33.91 34.60 30.88 28.24 26.39 26.56 33.58 36.47 41.10 29.75 31.99 41.82 40.38 41.07 42.14 39.95 39.61 36.98 35.38 33.89 35.03 36.01 35.33 35.76 35.81 35.09 35.64 36.38 35.50 33.55 32.86 31.47 33.14 34.33 34.16 34.04 34.16 33.13 32.81 32.02 31.98 32.01 31.85 30.48
30.74 30.02 29.91 30.90 26.94 21.87 36.13 38.49 35.07 39.17 41.31 42.13 40.52 41.37 41.48 39.08 38.22 37.32 35.30 35.21 35.37 35.27 35.13 35.75 35.25 35.11 36.08 35.84 34.39 32.59 31.34 32.65 32.58 33.07 32.90 32.83 32.99 34.88 34.10 32.28 31.31 29.22 25.76 24.38
29.69 31.40 28.55 29.74 28.86 35.17 38.43 39.34 41.94 42.46 40.59 39.71 39.41 39.95 39.08 37.24 37.04 37.18 36.62 36.15 34.40 34.59 34.75 35.62 35.24 35.13 36.12 35.68 34.45 32.16 32.69 35.05 33.91 33.30 33.20 33.19 33.17 31.59 28.03 25.02 23.25 22.21 22.88 22.04
33.60 36.51 32.65 33.17 37.66 37.55 39.30 39.27 39.32 41.16 38.50 37.07 38.31 40.83 38.56 36.92 37.68 36.46 36.72 35.97 34.85 34.96 34.59 35.80 34.73 33.44 33.36 34.69 34.31 34.09 34.46 34.35 32.64 31.09 29.54 26.03 23.94 23.52 23.37 24.08 23.34 22.07 21.05 20.72
35.18 36.40 36.11 35.84 37.01 39.71 40.56 40.40 41.72 39.76 37.23 36.71 37.69 39.96 38.57 37.41 36.60 36.01 35.59 34.28 35.07 35.42 35.08 32.20 32.11 30.30 31.48 33.54 33.12 32.60 32.53 32.56 29.52 25.33 24.72 24.33 23.70 22.10 21.84 22.69 21.09 20.80 21.09 23.38
35.44 34.67 32.98 32.21 38.57 40.12 39.92 41.78 41.11 38.03 37.03 36.95 37.87 39.42 39.03 38.85 36.89 36.43 35.58 34.82 33.78 31.28 31.23 29.92 30.43 30.05 30.16 30.61 30.41 31.16 32.23 30.30 25.67 24.15 23.75 23.09 22.22 21.94 22.62 21.99 21.59 31.25 30.63 30.92

GFSCGP_sfc_wetblb_060.txt.gz
Wetbulb
47.18 41.80 39.40 40.86 42.37 38.33 36.25 34.07 32.64 34.43 37.95 34.95 34.14 33.61 36.95 40.37 38.61 38.26 40.09 41.32 42.95 44.73 46.88 46.01 46.67 47.28 47.94 46.89 47.26 49.56 56.01 63.63 65.79 65.04 65.12 65.17 64.56 65.04 65.08 64.77 64.24 61.43 60.41 59.29
40.54 34.58 42.50 45.30 43.22 39.10 37.62 34.89 32.26 35.14 36.99 34.53 33.63 32.73 37.27 40.33 39.52 40.52 41.25 41.72 41.33 42.40 43.39 43.82 44.88 45.06 46.01 47.10 46.28 46.99 49.67 58.00 64.16 65.29 65.31 65.72 65.51 65.09 65.51 64.64 63.88 61.93 60.34 59.39
37.88 38.06 44.97 43.38 40.72 38.50 36.87 34.27 32.12 32.13 33.87 32.60 31.17 30.47 33.20 36.88 38.67 39.08 40.20 40.87 40.76 40.79 42.70 44.28 42.32 43.09 44.25 44.90 45.61 46.05 47.40 51.45 60.95 64.73 64.80 61.33 62.02 61.12 62.49 63.37 63.32 61.27 60.46 59.76
39.20 42.39 42.51 41.03 38.65 38.71 32.63 36.74 35.66 33.31 30.12 26.49 30.96 23.73 30.30 32.93 34.74 36.24 35.97 36.60 37.19 37.29 38.06 40.15 41.73 42.16 42.18 43.36 44.38 45.73 46.69 47.73 52.34 61.56 63.27 63.04 62.59 62.08 62.81 63.52 63.73 62.41 59.86 59.22
36.45 38.46 38.27 37.58 37.47 38.15 33.28 37.05 33.97 31.66 27.49 23.96 26.60 24.97 29.00 30.85 32.38 33.20 34.43 35.32 36.77 38.47 38.52 40.09 41.25 42.38 42.62 42.73 42.27 43.38 44.86 46.83 48.77 54.73 61.80 62.34 62.09 62.06 58.70 60.62 61.21 61.58 57.64 59.16
37.44 41.69 39.87 37.47 38.47 38.19 36.68 32.62 30.88 28.32 25.90 16.14 22.91 24.03 25.60 28.79 30.14 33.14 34.05 36.21 37.95 39.01 40.82 41.87 40.84 42.73 42.49 42.57 42.53 42.29 43.02 44.52 46.58 49.55 55.87 60.90 61.39 58.33 55.06 55.68 59.84 56.72 55.54 56.25
35.69 35.75 37.71 39.96 35.03 37.35 33.38 28.23 16.13 14.37 14.19 16.15 25.87 23.79 26.76 31.98 34.28 34.19 34.24 37.02 38.40 39.71 40.71 41.39 42.46 42.16 42.85 43.00 43.29 44.27 43.89 44.00 45.47 46.89 50.62 58.22 60.52 57.76 56.51 56.93 58.64 56.28 54.47 53.52
26.34 26.94 34.73 37.74 35.09 32.19 30.02 28.41 20.14 11.72 14.41 19.34 26.61 22.37 27.09 32.61 33.54 36.12 36.39 37.02 38.75 40.47 40.66 41.15 41.28 42.08 42.37 42.95 43.43 43.57 43.58 44.12 44.38 44.27 46.74 50.44 54.86 56.20 56.88 55.28 56.54 56.02 55.01 55.06
26.39 27.47 36.98 37.66 37.70 36.25 29.87 23.61 29.12 20.32 17.83 15.42 21.53 24.94 29.67 32.97 33.06 35.01 36.09 37.73 37.27 39.55 41.36 41.68 41.56 41.20 42.20 42.97 43.24 42.79 43.35 43.45 44.06 44.58 44.35 45.63 49.52 53.31 54.61 52.39 52.16 51.50 50.02 48.86
29.42 25.23 35.62 36.44 38.92 37.25 32.28 33.01 24.08 19.48 12.64 12.92 18.60 19.70 23.89 28.50 30.45 34.75 35.21 35.85 37.33 39.86 41.17 41.88 42.28 41.99 42.03 42.53 42.39 42.19 42.21 42.57 43.68 44.92 44.76 46.22 48.17 50.84 51.34 48.25 48.20 46.66 46.14 47.35
32.95 29.40 32.65 36.04 33.80 30.77 31.02 28.29 26.32 24.85 20.47 15.37 16.05 22.23 29.26 30.70 33.20 32.63 34.19 36.32 37.22 39.65 41.21 42.00 42.53 41.75 42.39 42.49 44.17 44.83 44.99 45.41 46.31 46.38 45.34 45.25 45.42 45.72 45.29 44.84 43.70 43.99 44.98 45.28
34.69 32.14 29.44 30.93 33.39 35.15 33.37 30.23 26.86 19.01 17.39 19.28 19.78 21.98 31.79 31.82 33.66 35.56 36.44 38.13 41.67 42.65 42.71 42.64 42.14 41.81 42.84 43.52 42.16 39.57 38.68 40.28 42.00 42.52 42.48 43.63 45.86 45.73 44.85 43.90 42.70 42.78 43.42 43.37
34.89 27.25 23.41 28.14 32.57 34.53 30.88 31.07 28.55 25.42 22.31 20.86 16.59 21.41 33.41 31.16 32.41 34.92 36.95 41.73 42.30 42.39 42.80 42.48 42.41 43.24 43.09 39.61 37.32 36.75 36.71 37.67 39.96 40.72 40.67 43.11 43.72 44.96 44.17 43.32 43.39 43.57 42.61 41.60
38.33 28.53 23.89 21.11 24.69 28.66 23.18 29.96 28.63 25.93 18.16 20.61 20.05 23.80 30.04 32.86 33.84 35.63 38.04 42.28 40.41 42.70 38.97 37.94 38.90 41.51 38.27 36.55 36.41 36.68 36.78 37.43 38.54 40.46 41.22 43.18 43.41 42.91 43.17 42.54 41.76 40.82 40.07 38.65
34.69 26.30 27.23 29.07 30.92 30.62 29.24 29.56 28.93 24.60 25.88 21.39 24.12 25.16 30.68 34.21 36.25 37.64 40.87 40.88 38.82 38.33 35.11 35.01 35.72 34.46 34.19 35.62 36.86 37.42 36.13 36.16 37.79 37.49 38.61 39.77 40.53 40.79 39.80 38.61 37.98 38.16 37.96 37.35
33.77 24.99 28.09 24.62 30.37 30.69 29.04 30.69 30.19 30.15 30.48 28.69 29.78 29.96 38.33 39.95 40.17 39.79 41.14 37.87 36.49 35.78 35.62 35.30 33.77 35.42 34.73 35.12 33.67 33.39 33.64 34.44 34.56 35.00 35.93 36.59 36.19 36.43 37.13 36.74 36.21 36.87 35.72 35.24
31.75 28.14 24.79 19.94 28.23 29.02 24.68 29.32 30.60 30.25 30.86 31.83 27.27 34.16 39.24 39.00 40.45 42.22 38.59 36.40 34.71 34.91 34.96 34.28 33.50 35.11 35.31 35.22 35.40 34.45 34.61 36.13 35.67 35.10 35.37 35.69 35.78 35.88 35.57 35.93 35.28 34.84 34.55 35.01
30.91 30.32 29.02 25.46 26.11 21.08 29.17 33.35 34.92 32.59 33.16 33.99 35.15 37.88 39.44 40.27 42.50 38.56 36.81 34.03 32.25 33.43 34.06 34.17 34.68 35.41 36.04 36.07 35.82 36.38 36.69 36.04 35.69 35.25 35.33 35.46 35.10 34.49 34.75 34.45 34.06 34.05 34.18 33.78
36.42 33.40 29.85 26.26 24.30 26.93 32.00 34.19 32.45 32.14 33.19 36.34 35.96 38.66 40.09 42.72 40.93 37.93 35.91 34.60 31.41 31.86 34.19 34.32 34.82 34.78 35.07 35.14 35.91 35.67 35.21 35.53 35.15 34.52 34.91 35.14 34.78 34.19 33.79 32.81 32.69 33.40 33.06 32.53
37.52 35.63 28.69 28.10 22.95 20.29 28.55 35.86 37.85 38.35 34.75 40.64 39.69 39.44 40.73 40.91 37.30 38.72 35.71 33.49 32.23 33.11 34.85 34.52 34.84 34.87 34.48 34.76 35.29 34.49 33.80 33.77 33.21 33.93 34.04 34.51 34.31 33.39 32.42 32.64 32.02 31.98 32.30 31.71
32.74 32.97 29.07 27.24 26.70 25.49 32.35 36.59 38.83 31.75 32.14 41.06 41.32 40.01 42.11 39.44 39.49 37.20 35.06 34.14 34.27 35.49 34.96 36.02 35.94 35.21 35.35 35.77 34.84 33.13 33.06 32.11 33.64 34.87 34.70 34.17 34.14 33.22 32.88 32.28 32.05 31.98 31.66 30.12
31.18 29.22 29.81 30.11 26.32 21.39 34.54 38.30 35.68 39.46 40.54 40.64 38.84 40.06 42.08 37.87 37.63 36.77 35.16 35.05 34.36 34.99 35.21 36.08 35.24 35.04 35.58 35.46 34.33 32.79 31.65 33.19 33.74 34.14 33.32 32.66 33.12 33.94 33.24 31.97 31.05 29.40 26.65 24.72
29.71 30.41 29.78 29.69 28.93 34.21 38.24 39.56 41.82 41.72 40.85 39.23 37.65 38.44 40.52 38.08 37.49 36.93 34.84 35.32 33.24 33.76 34.36 35.74 35.71 35.14 35.33 34.95 34.19 32.22 33.17 35.24 34.26 33.80 33.09 33.48 33.37 30.91 27.78 24.88 23.02 22.11 22.73 21.76
30.97 34.42 32.39 32.18 36.60 35.42 38.67 39.59 39.27 39.67 39.16 37.99 36.85 38.75 38.60 37.81 37.80 37.20 36.08 34.22 33.89 33.97 34.08 34.99 34.89 34.27 33.48 34.54 34.87 34.82 35.28 34.75 33.75 31.38 28.01 24.21 22.76 22.66 22.58 23.65 22.47 21.03 20.73 20.33
33.58 34.21 33.83 33.69 35.87 38.30 39.24 41.26 41.83 40.76 39.27 37.13 37.11 39.20 38.92 37.99 37.46 37.17 36.26 34.76 34.81 35.11 35.82 34.86 33.26 33.45 33.34 34.03 33.61 33.95 33.51 32.13 27.97 24.11 23.97 23.14 22.73 21.41 21.27 21.68 20.17 19.81 19.55 22.36
34.45 34.11 32.06 31.26 36.80 37.58 38.22 41.73 41.60 39.75 38.06 37.19 36.37 38.23 38.36 38.72 37.07 37.17 35.95 35.91 33.93 32.77 30.08 31.50 31.44 31.74 32.34 31.68 30.90 31.96 31.75 27.33 24.48 23.20 23.02 22.40 21.93 21.57 22.20 21.71 21.62 31.54 30.87 31.43

GFSCGP_sfc_wetblb_063.txt.gz
Wetbulb
45.81 41.31 38.19 40.40 41.73 39.20 38.17 35.83 34.88 37.34 40.23 38.22 37.04 36.71 39.16 41.72 41.39 41.51 42.79 43.99 45.19 46.37 48.85 49.64 50.41 51.00 51.33 51.21 51.08 52.46 55.68 64.67 67.61 66.33 64.80 64.70 64.63 65.49 65.60 66.31 66.25 64.75 63.85 62.67
40.66 37.05 41.09 44.19 43.60 39.76 38.21 35.33 34.42 36.98 38.61 38.02 35.25 35.12 39.16 41.49 41.60 42.72 43.31 43.74 43.42 44.29 45.11 46.21 47.59 48.80 48.88 50.87 51.10 51.09 52.18 57.49 65.72 66.59 65.90 65.70 65.91 65.76 66.07 66.00 65.54 65.63 64.21 62.75
37.07 37.13 43.33 43.57 41.60 37.98 36.97 35.44 33.54 34.30 36.06 35.53 33.55 33.75 35.62 39.15 39.68 40.27 40.56 40.81 41.50 41.00 40.89 42.22 43.92 46.25 47.65 47.69 49.07 50.16 51.08 53.02 60.71 66.37 66.52 65.15 65.53 64.55 65.05 64.61 64.65 64.61 64.34 62.99
38.16 42.35 40.70 39.31 37.89 38.62 35.43 38.57 36.76 34.50 33.44 30.37 33.50 28.30 33.71 35.26 35.36 36.55 38.29 39.95 40.74 41.12 42.18 42.77 44.07 44.71 45.65 46.51 47.07 48.34 49.93 50.76 54.16 63.28 65.30 64.47 63.19 62.72 63.98 64.56 65.24 64.51 63.60 63.15
36.13 39.71 39.04 34.98 35.26 39.15 35.74 38.40 35.24 33.09 30.21 30.12 30.24 29.07 32.37 34.49 32.96 35.21 37.65 39.73 41.26 42.13 42.67 43.83 44.21 45.52 45.57 46.11 46.11 46.41 47.24 49.01 50.72 55.97 63.58 64.21 63.47 64.10 64.79 64.65 64.15 64.08 62.61 62.81
38.02 42.41 41.04 38.16 40.84 40.33 37.57 33.88 31.94 29.78 28.27 22.97 26.46 27.28 29.07 32.02 33.90 36.13 38.35 40.28 41.09 42.51 43.79 44.56 45.31 45.83 46.35 47.38 47.36 48.09 47.01 46.91 48.33 50.60 56.71 63.16 63.26 63.41 62.17 62.28 62.94 63.46 62.03 61.12
35.25 36.27 38.84 40.49 35.15 38.02 35.31 31.86 22.91 20.29 21.19 21.88 27.69 25.91 29.60 33.90 36.43 37.66 38.94 40.00 40.94 42.72 44.23 44.75 44.68 45.16 46.31 46.58 47.05 47.72 47.17 47.42 47.88 48.70 50.21 55.25 62.12 63.14 61.62 62.11 61.72 62.31 58.12 57.73
29.63 28.55 35.39 38.54 36.42 33.62 32.07 32.89 24.05 17.29 18.56 21.43 27.47 24.47 29.75 34.46 35.47 38.76 40.00 39.60 40.44 42.70 44.06 44.81 45.01 44.52 45.37 46.53 47.03 46.45 45.96 46.26 47.15 47.81 48.25 50.30 53.94 59.75 60.86 60.76 60.69 61.38 60.42 59.45
27.32 29.19 37.61 38.04 38.12 37.05 32.07 28.50 30.13 21.25 20.55 19.98 24.63 27.90 32.99 35.45 36.52 37.83 38.22 39.53 40.38 42.39 43.65 44.27 45.14 45.55 45.08 45.88 46.34 46.34 46.67 46.84 46.91 47.28 48.36 48.79 48.88 51.50 56.14 58.59 58.51 59.71 58.89 56.68
31.29 28.81 36.21 36.44 39.05 37.11 33.99 33.26 26.15 22.62 15.67 18.33 21.68 22.78 26.98 31.41 34.65 37.12 37.54 38.42 39.92 42.30 43.75 44.42 44.94 44.74 45.01 45.74 46.55 47.00 46.19 46.80 47.90 48.83 49.22 49.52 50.03 50.81 52.29 54.44 54.92 54.67 53.47 52.70
33.27 30.54 32.61 36.42 33.81 30.86 31.71 28.95 27.08 26.26 23.27 19.33 19.04 24.70 30.64 33.44 35.54 35.72 37.20 38.70 40.71 43.48 43.96 44.18 44.27 44.96 45.47 45.93 43.94 42.55 42.52 44.14 45.48 46.16 46.62 47.14 47.39 48.22 49.35 50.16 49.90 50.33 49.75 49.79
34.63 32.05 29.38 31.34 34.42 36.00 33.96 30.67 27.55 21.45 20.54 21.58 21.44 24.91 33.98 33.70 35.36 35.58 37.08 39.02 43.43 43.53 43.49 42.15 42.44 44.02 44.72 42.04 40.75 40.27 40.74 42.13 43.51 44.40 45.12 45.97 47.51 47.85 47.68 46.99 46.43 47.09 47.06 47.04
34.83 27.83 25.37 28.25 32.00 34.61 32.01 31.87 29.59 27.30 25.74 21.78 20.27 25.30 33.83 34.56 35.00 36.27 37.07 39.37 42.43 42.35 39.38 39.76 41.81 42.73 40.39 39.16 39.24 39.43 39.62 40.02 42.11 43.59 44.63 45.74 46.37 46.39 45.57 44.91 45.01 44.96 44.07 43.73
37.61 29.18 26.01 23.18 26.89 30.40 25.61 30.24 29.43 27.43 23.83 23.28 22.43 25.76 31.88 34.56 35.19 37.48 38.41 41.55 41.40 38.97 37.43 37.25 37.46 37.24 37.57 37.60 37.84 38.44 38.05 38.87 40.28 41.93 42.52 42.76 43.09 42.47 42.07 42.09 41.76 41.21 40.78 39.36
34.80 27.28 28.21 29.76 31.74 31.19 29.99 30.36 28.70 24.98 26.69 24.86 26.87 26.11 31.23 34.08 35.42 37.72 39.66 41.17 40.01 37.71 36.47 36.42 35.70 35.87 36.12 36.17 35.38 35.71 36.06 36.37 37.61 37.56 37.79 38.12 39.27 38.76 37.90 37.26 37.42 37.60 37.00 36.67
33.98 27.42 28.99 26.12 30.93 30.84 29.51 31.02 30.89 30.12 30.52 28.79 29.10 29.71 37.87 39.54 40.72 40.11 40.76 39.43 37.76 36.66 36.31 36.01 35.21 35.55 35.44 35.43 34.65 34.97 35.64 35.83 36.67 36.46 36.22 37.07 37.05 36.83 36.66 36.79 36.35 36.57 37.11 37.56
31.63 28.76 25.86 22.18 29.03 29.49 25.48 29.63 30.54 30.92 31.54 32.59 28.47 33.80 38.88 38.51 39.92 41.89 39.59 37.88 36.09 34.30 35.44 34.93 35.19 35.20 35.15 35.12 36.09 35.65 36.04 36.97 36.48 35.95 35.85 36.11 36.22 35.59 35.79 36.07 36.09 35.37 34.94 36.22
30.66 30.05 28.92 25.03 26.64 21.58 29.64 33.83 34.72 32.62 33.05 34.06 34.83 37.48 39.27 39.80 41.78 38.61 37.68 35.99 34.00 33.64 33.73 34.44 35.23 35.49 35.60 36.22 36.37 36.80 36.79 36.30 36.18 35.49 35.26 35.61 35.31 34.87 35.21 34.49 33.41 32.70 33.56 33.72
36.72 34.10 29.50 25.36 24.31 26.54 32.82 33.69 32.18 32.23 34.09 36.05 35.74 38.07 39.67 41.16 41.97 38.99 36.09 35.05 33.05 33.15 33.91 34.79 35.18 35.15 35.56 36.01 36.53 36.09 35.70 35.76 35.16 34.60 34.77 35.07 35.05 34.38 34.11 33.01 33.09 33.72 32.80 32.19
37.30 35.08 28.67 25.06 20.60 20.44 29.15 37.56 37.91 37.80 34.55 41.44 39.05 40.02 39.91 42.05 38.92 40.50 35.48 34.01 33.37 34.13 35.12 34.88 35.17 35.28 35.17 35.38 35.86 35.01 34.35 34.23 33.46 33.94 34.21 34.79 34.85 34.02 32.87 33.01 32.22 31.88 32.07 31.80
32.21 32.68 27.69 26.32 22.38 26.54 32.95 37.02 37.62 31.27 34.51 41.37 41.89 41.48 41.72 40.13 40.45 36.98 35.02 34.68 35.38 35.38 35.49 36.32 36.18 35.13 35.24 35.58 35.12 33.62 33.70 32.81 34.22 35.26 34.91 34.28 34.23 33.60 33.51 32.57 32.37 32.02 30.73 29.78
29.99 28.80 28.98 29.84 23.78 20.83 34.61 37.52 35.87 40.42 39.83 40.89 39.88 40.89 41.86 39.93 37.29 35.55 35.26 34.63 34.72 34.79 35.61 36.08 35.19 34.98 35.13 35.30 34.36 33.35 31.97 33.96 34.29 34.13 33.49 33.09 33.34 34.55 33.91 31.91 30.17 28.72 27.60 26.23
29.34 29.85 29.68 29.29 28.78 35.27 38.20 38.02 41.57 40.89 38.99 38.74 39.32 39.18 41.14 38.72 37.66 35.99 34.39 34.29 33.50 34.04 35.12 36.06 35.45 34.77 34.99 34.65 34.58 33.55 33.82 35.68 35.15 34.54 33.90 32.85 30.98 29.23 28.09 26.52 25.84 25.53 25.72 25.08
30.86 33.80 32.22 32.24 36.61 34.80 38.58 39.73 39.73 40.92 40.62 38.64 38.19 38.63 39.45 38.91 38.34 36.87 35.65 33.88 33.97 34.32 34.18 35.03 35.06 33.99 33.50 34.95 35.30 35.23 35.29 35.36 33.99 31.14 26.86 26.06 25.57 24.96 25.28 25.98 25.46 24.59 24.14 23.95
32.87 33.57 32.95 32.40 35.07 37.38 38.93 39.93 41.86 42.52 40.78 39.27 38.22 38.98 39.74 38.45 37.62 37.14 35.28 34.38 34.51 34.77 35.14 35.57 34.91 34.04 32.56 34.75 34.87 35.45 34.71 32.30 27.85 26.25 26.03 25.39 24.72 23.80 23.90 24.43 24.75 24.81 24.21 25.72
33.71 33.06 31.35 30.81 36.36 36.81 37.69 40.01 42.23 41.55 40.71 39.79 37.31 37.71 39.02 39.12 38.29 38.04 36.19 35.47 35.58 35.54 34.51 33.32 34.43 33.99 34.03 33.89 33.30 32.98 31.74 28.66 26.49 25.06 24.88 24.78 24.76 25.34 25.85 25.94 26.06 32.07 31.66 31.50

GFSCGP_sfc_wetblb_066.txt.gz
Wetbulb
46.35 41.15 37.92 41.17 44.33 43.61 42.20 40.18 38.18 41.33 43.46 44.02 43.34 43.41 45.14 47.85 48.57 48.43 49.20 49.88 50.63 51.59 53.55 54.08 55.02 55.96 56.43 57.09 57.57 58.14 58.44 62.50 66.90 68.00 66.04 65.71 65.34 66.16 66.50 67.73 69.31 68.62 67.76 66.85
41.55 37.09 41.56 44.72 44.62 42.40 41.46 39.60 38.70 39.61 43.71 42.12 40.98 41.10 44.46 46.21 46.88 47.68 48.26 49.28 49.99 50.12 50.65 51.17 51.29 52.53 53.82 55.04 56.66 57.30 57.75 58.67 61.89 66.58 67.74 67.99 67.37 67.25 67.06 67.01 66.75 67.92 67.76 67.27
38.30 39.42 44.09 42.06 42.15 39.99 40.78 39.25 38.90 38.16 39.17 40.61 39.65 39.76 42.38 42.37 42.80 43.83 44.51 46.13 46.74 46.96 47.04 48.30 49.42 49.91 51.69 52.76 54.12 55.38 56.45 56.97 58.46 62.58 65.87 67.12 67.29 67.49 66.33 66.02 66.11 66.44 66.54 67.67
38.96 41.67 41.45 39.70 39.95 41.13 35.98 42.06 41.31 38.28 38.14 35.12 38.66 34.78 38.23 39.21 40.10 43.05 45.40 46.78 47.49 47.92 48.99 49.45 50.03 50.16 50.17 51.04 51.99 52.58 53.64 54.80 56.05 58.90 62.47 64.62 63.92 63.58 64.91 66.23 67.03 67.38 66.31 65.34
35.07 37.53 36.68 34.17 39.42 41.67 37.60 41.73 40.25 39.16 36.94 36.15 35.59 35.03 36.70 39.64 38.65 41.70 44.83 46.64 47.81 48.65 49.10 49.63 50.22 50.80 51.79 52.41 52.38 51.96 51.55 52.62 54.33 55.41 59.22 63.22 63.57 63.91 65.39 66.14 66.18 66.65 66.21 64.99
38.37 43.36 40.53 39.24 40.55 40.74 39.35 36.28 37.09 37.46 36.39 30.93 34.58 33.57 34.33 36.55 39.02 41.45 44.21 46.27 47.63 49.07 50.10 50.39 51.15 52.52 53.03 53.85 53.52 53.39 52.80 51.52 52.21 53.97 55.79 59.60 61.70 63.17 63.79 64.66 64.87 65.66 65.75 64.21
35.63 36.02 39.66 40.77 35.28 38.45 37.62 36.83 29.83 29.36 29.03 29.54 31.85 31.22 35.56 38.83 40.27 43.46 44.06 45.93 47.60 49.55 50.61 50.73 50.71 51.05 52.15 52.98 53.41 52.86 52.73 52.01 52.53 52.72 53.38 54.73 58.52 61.94 62.83 63.35 63.67 64.09 63.17 62.75
32.28 29.22 35.67 38.22 37.05 35.40 36.72 36.07 32.13 24.60 26.29 29.21 31.26 29.47 35.01 38.91 41.48 44.01 44.05 44.82 46.81 48.92 50.10 50.40 50.78 51.26 51.30 52.18 52.71 53.48 53.39 52.72 52.41 52.69 52.68 53.83 55.32 56.84 60.81 62.88 63.12 63.39 63.57 63.27
31.84 31.65 37.87 39.37 39.35 39.44 35.60 34.72 35.36 29.29 28.05 29.62 32.91 33.67 37.39 39.50 40.27 42.08 43.01 44.34 46.49 48.17 49.23 49.55 50.60 51.04 50.58 51.22 52.03 51.94 51.49 52.34 53.12 53.70 53.96 53.84 54.18 53.88 55.21 58.67 61.42 61.92 62.50 62.03
36.17 31.12 36.96 37.63 40.89 39.27 38.22 38.18 31.69 32.58 25.11 24.71 28.71 30.72 33.56 36.01 38.94 41.39 42.87 44.09 45.80 48.06 48.67 48.77 48.99 49.83 50.83 51.31 50.79 50.26 50.07 50.32 51.10 52.06 52.93 53.21 54.14 54.68 55.40 56.21 56.53 57.82 58.90 59.08
38.76 36.31 33.58 37.63 35.55 34.35 34.65 34.45 32.65 33.83 30.60 28.61 27.12 31.17 40.23 39.66 41.59 41.01 42.14 43.37 45.79 47.50 47.84 47.61 48.30 49.01 49.79 49.01 48.16 47.81 47.80 48.36 49.32 50.37 50.90 50.74 51.45 52.29 53.08 53.42 53.59 53.74 54.17 54.12
38.83 36.85 31.87 32.36 37.24 38.92 37.46 35.38 34.76 31.98 27.32 29.28 30.07 31.38 39.72 42.62 41.55 40.65 41.90 43.57 46.47 47.23 45.66 46.92 48.11 48.66 47.08 46.29 46.13 45.89 46.16 46.59 47.70 49.15 50.52 50.41 51.59 52.12 51.98 51.67 51.38 51.63 51.30 51.69
39.60 34.65 28.46 29.26 34.21 37.02 34.80 35.66 34.22 33.06 32.74 28.74 29.56 30.93 38.86 40.58 40.26 42.40 41.98 43.98 45.77 45.20 44.59 45.67 45.82 44.81 44.57 44.35 44.27 44.34 44.42 45.07 46.54 47.95 48.90 48.80 48.60 49.06 48.64 48.43 48.40 47.30 47.09 45.95
41.48 34.53 32.39 29.35 31.14 35.02 32.30 33.62 34.00 33.96 30.80 30.31 31.95 32.91 36.92 39.51 40.49 43.08 44.32 44.89 45.83 44.39 42.57 43.72 43.67 43.48 43.17 42.28 41.96 42.04 42.29 43.23 44.05 44.68 45.22 44.26 43.35 43.93 43.78 43.17 42.21 40.47 40.36 39.61
39.80 32.47 32.60 33.09 34.08 33.97 33.20 33.19 32.55 30.76 33.37 32.59 33.11 33.39 38.23 39.88 41.52 43.67 45.21 45.08 44.00 42.09 41.83 41.22 40.38 41.56 41.81 41.20 41.09 41.29 41.00 41.46 42.44 42.26 42.22 41.41 40.95 40.62 39.56 38.68 38.43 38.85 38.40 37.70
38.78 33.28 33.40 30.39 33.25 33.47 31.78 33.79 34.12 33.44 34.46 33.57 34.07 34.27 42.00 43.84 43.73 43.02 44.75 42.97 41.39 39.39 39.62 39.69 38.63 39.22 40.52 40.18 39.89 40.11 40.10 40.38 41.38 40.75 40.20 40.40 39.40 38.81 37.89 37.87 37.79 37.97 38.30 38.31
36.25 34.63 32.35 28.61 31.70 32.09 29.76 33.02 33.81 34.22 35.62 35.84 32.26 38.24 42.17 41.41 41.73 42.44 43.46 41.43 39.45 38.20 39.57 38.44 38.19 38.12 39.00 39.77 40.01 39.48 39.89 40.37 39.42 38.15 38.79 38.57 38.74 38.02 37.52 37.12 36.95 35.09 34.81 35.26
35.57 34.86 34.04 30.37 31.08 24.58 33.33 37.70 37.73 35.68 36.75 38.05 38.58 39.90 41.05 41.62 42.74 42.01 41.24 41.02 37.94 37.00 38.33 38.46 38.00 37.75 38.88 40.15 40.15 40.26 39.92 39.42 38.49 37.69 37.84 37.32 37.20 36.18 35.85 35.42 34.45 33.33 33.65 32.99
39.98 36.88 32.00 29.18 28.67 31.52 35.31 35.81 35.61 35.48 37.84 40.49 39.08 40.28 41.39 42.50 42.78 42.16 39.90 38.35 36.71 37.22 38.61 38.41 38.29 37.69 38.04 38.59 39.14 38.56 38.19 38.33 37.63 36.28 36.09 36.46 36.24 35.55 35.40 34.35 33.68 34.32 33.75 32.82
38.21 38.40 34.30 30.86 24.91 24.12 34.19 39.82 42.18 41.15 35.44 42.99 40.86 41.50 41.62 43.19 41.13 44.59 38.71 35.56 35.69 37.59 38.71 37.33 37.07 37.50 37.61 37.57 38.32 37.65 36.39 35.67 34.91 35.35 35.54 35.99 35.36 35.37 33.79 34.49 33.57 32.70 33.67 32.88
33.66 34.03 30.83 30.76 28.91 32.13 37.51 39.09 41.03 33.31 37.11 44.03 43.63 43.51 43.30 42.10 42.80 40.68 36.63 36.22 38.13 38.35 37.17 37.33 37.32 37.15 37.24 37.01 36.36 35.19 34.77 34.00 35.51 36.14 36.33 35.80 35.82 34.78 33.72 32.86 32.80 33.09 33.26 32.78
32.51 31.27 30.60 31.49 27.90 25.94 39.91 40.16 37.10 42.40 44.04 43.19 43.41 44.27 44.16 43.62 38.25 37.25 36.89 37.21 37.35 37.39 37.41 37.04 36.46 36.16 36.89 37.13 36.00 34.59 33.71 35.15 35.25 35.26 34.46 34.49 34.94 35.00 34.55 32.88 32.67 32.19 31.37 30.56
32.36 36.05 33.99 34.72 34.78 39.58 41.59 42.79 44.91 44.58 42.35 42.86 43.35 44.05 44.11 41.66 38.53 37.41 36.77 37.54 36.59 36.93 36.64 36.66 36.38 35.93 35.94 35.74 36.46 33.96 35.17 36.22 36.18 35.54 34.81 34.77 34.91 33.66 32.90 32.00 31.06 30.73 30.95 30.29
37.93 39.11 36.78 36.35 39.97 40.35 42.55 44.58 44.25 44.37 43.90 43.33 43.48 43.25 43.41 42.38 41.45 38.05 37.25 36.36 35.73 36.31 36.45 36.21 35.65 34.74 33.84 35.96 36.57 36.12 36.37 36.91 36.41 34.27 33.74 32.62 31.62 31.17 31.24 31.35 31.73 31.10 30.45 29.92
39.39 38.84 38.15 37.74 40.68 42.47 43.13 44.42 45.20 44.69 44.40 42.95 42.83 42.93 43.47 43.55 41.06 38.97 37.02 36.97 36.88 36.54 36.41 36.35 36.00 34.65 34.77 36.12 36.18 36.57 37.09 37.60 34.90 32.57 31.80 31.37 30.59 30.23 29.99 30.40 31.05 30.52 30.25 30.40
38.96 38.56 36.54 36.07 41.91 41.94 43.01 44.62 43.59 43.13 44.01 43.87 42.80 42.19 43.45 43.57 42.08 40.13 37.06 37.80 37.48 37.17 37.20 36.85 36.86 35.15 35.45 36.82 36.96 37.01 35.77 35.62 32.78 31.05 30.29 30.03 29.92 30.81 31.50 31.63 31.55 32.60 32.20 31.62

GFSCGP_sfc_wetblb_069.txt.gz
Wetbulb
46.28 41.25 35.94 40.57 42.43 43.46 42.38 40.78 40.01 42.99 45.49 43.98 43.19 43.62 45.47 47.93 48.58 48.50 49.80 50.71 51.35 51.96 54.01 55.14 56.00 56.90 57.56 58.18 58.55 59.59 59.92 61.16 65.56 67.48 67.60 66.84 66.04 67.49 69.02 70.18 69.91 69.36 68.62 67.90
41.49 37.57 42.25 44.10 43.45 41.86 41.71 39.87 40.06 43.03 44.84 42.87 43.30 42.43 46.14 47.58 47.63 48.42 49.04 49.70 50.31 51.28 52.37 53.63 54.22 54.82 55.32 56.22 57.41 58.00 58.81 59.56 60.70 64.75 68.57 67.12 66.51 66.16 67.02 67.93 68.59 69.39 69.36 68.78
38.56 39.47 43.93 41.92 41.10 39.48 40.64 39.40 40.29 39.74 42.56 42.80 41.39 39.81 42.56 46.17 47.94 48.47 48.03 48.89 50.10 49.89 49.96 50.71 51.43 52.29 53.49 54.00 55.42 56.71 58.14 58.89 59.68 61.08 63.97 68.07 67.95 68.65 67.25 66.45 66.48 66.38 68.33 69.26
40.44 43.08 41.65 40.42 38.96 40.61 37.34 43.88 42.81 40.83 38.08 33.03 40.84 33.08 40.74 44.09 42.62 43.54 45.85 47.66 48.57 49.14 49.82 50.30 50.87 51.15 51.73 52.90 54.29 54.72 55.77 56.92 58.23 59.51 59.68 62.16 64.65 64.36 66.06 66.76 67.01 66.38 66.90 66.82
35.76 40.05 40.42 39.44 38.33 40.69 39.02 43.90 43.01 41.38 38.92 38.31 36.63 34.15 39.32 41.35 39.64 42.50 45.91 47.61 48.78 49.72 50.21 50.44 51.10 52.19 53.11 53.93 53.94 53.74 53.42 53.97 55.22 56.27 57.55 59.36 61.68 64.39 65.31 65.36 65.21 66.69 67.84 66.94
39.30 43.17 40.71 39.56 40.78 41.58 41.87 41.58 40.58 40.18 38.37 31.86 37.64 35.95 34.48 37.89 40.87 43.10 45.97 47.55 48.91 49.91 50.86 51.33 52.56 53.74 54.13 55.17 54.87 54.93 53.95 52.90 53.55 54.81 55.58 56.78 59.41 62.04 63.07 63.47 63.83 64.82 66.09 67.23
35.65 36.16 39.07 40.11 35.12 39.22 39.28 36.59 30.64 29.58 28.97 30.57 37.29 33.98 37.65 40.31 43.59 44.50 45.32 47.33 49.31 50.82 51.40 51.66 51.76 52.03 53.00 53.79 54.68 54.90 54.51 53.20 53.82 53.95 53.96 54.98 56.99 59.93 61.57 62.37 63.04 63.18 64.10 64.46
32.57 29.29 33.91 38.43 37.32 34.68 36.64 36.12 33.58 26.78 28.34 31.39 34.13 31.14 36.97 42.06 44.09 46.07 47.10 47.74 49.53 50.39 51.47 51.57 52.19 52.66 52.59 53.18 53.93 54.28 54.01 54.11 54.45 54.17 54.12 54.55 55.36 55.89 57.28 60.27 62.18 62.83 63.09 63.95
32.59 31.63 37.88 38.96 39.60 39.98 35.68 33.87 37.78 31.84 33.35 31.99 33.14 36.35 39.27 40.33 41.79 44.18 44.89 46.41 48.27 49.68 50.40 50.89 51.65 52.39 52.43 52.82 52.85 52.22 52.21 52.83 53.42 53.83 54.78 55.22 55.11 54.80 54.77 56.65 58.93 60.62 61.82 62.23
37.54 31.23 36.66 38.34 40.62 40.53 38.87 39.58 32.50 34.53 25.94 26.25 31.81 33.94 34.68 36.23 39.03 42.53 43.81 45.68 47.47 49.18 49.98 50.18 50.53 50.81 51.94 51.95 51.46 51.36 51.11 51.04 51.91 52.74 53.27 53.35 54.03 54.50 55.15 56.06 56.29 56.92 57.85 58.51
41.14 37.25 34.41 38.35 36.72 35.29 36.24 35.28 34.85 34.90 32.58 29.93 27.70 32.22 41.61 39.39 41.59 42.65 44.12 45.18 46.91 48.28 48.92 49.09 49.84 50.92 50.45 50.02 49.54 49.39 49.38 49.64 50.18 51.29 52.17 52.30 52.69 53.16 53.88 53.98 54.06 54.06 54.47 54.70
41.24 38.08 31.90 34.20 38.91 40.50 39.56 37.93 38.23 32.59 29.87 31.67 31.53 31.29 42.94 43.35 43.52 43.23 43.82 44.95 47.64 48.43 47.47 48.54 49.53 49.02 48.32 47.94 48.00 47.76 47.77 48.04 49.00 50.42 51.60 51.31 51.74 52.19 51.82 51.49 51.42 51.78 51.44 52.06
41.30 36.39 29.58 30.56 35.64 38.51 35.80 37.94 37.90 35.50 35.16 30.94 30.29 30.94 43.16 44.12 42.60 43.11 43.23 45.53 47.22 47.79 46.81 47.42 47.43 46.89 46.38 46.11 45.64 45.57 45.62 46.13 47.23 48.60 48.95 47.85 47.83 47.61 46.86 46.24 45.93 46.39 46.12 45.13
43.21 37.19 34.02 30.95 32.47 36.72 34.08 35.46 36.11 33.32 31.87 32.75 33.60 33.84 37.60 40.95 41.19 43.18 45.36 46.29 47.51 46.96 45.77 46.17 45.96 45.60 45.13 44.31 44.09 44.05 44.03 44.84 45.41 45.96 45.56 44.41 44.03 43.80 43.14 42.62 42.19 41.55 41.05 39.88
41.53 33.58 34.62 35.33 35.90 35.80 34.81 34.42 34.91 31.41 34.38 33.99 34.97 35.83 38.51 41.17 42.43 44.23 46.47 47.05 47.22 45.73 44.72 44.47 44.42 44.49 44.28 43.56 43.51 43.49 43.06 43.46 44.25 43.95 43.45 42.33 42.14 41.45 40.88 39.99 39.71 39.31 39.22 39.13
40.89 34.77 35.20 31.93 35.17 35.11 32.90 35.39 35.94 35.06 35.52 35.76 36.25 35.61 42.68 44.24 45.59 44.89 46.29 46.60 44.98 43.87 42.72 42.46 42.07 42.48 42.83 42.92 42.48 42.46 42.24 42.20 42.84 42.14 41.60 41.65 41.37 40.79 39.69 39.57 39.52 39.43 39.19 39.33
38.43 36.31 33.72 30.52 33.48 33.67 30.84 34.55 35.49 36.17 37.34 37.40 32.92 38.56 43.37 42.35 43.32 43.90 45.05 44.72 43.75 41.77 42.14 41.75 41.71 41.51 41.51 42.10 42.41 41.63 41.81 42.00 40.97 40.46 40.32 40.34 39.89 38.66 38.22 38.11 37.52 36.34 35.82 36.14
37.43 36.38 35.79 31.69 32.34 25.62 34.58 39.48 39.35 37.37 38.22 39.59 39.87 41.24 42.49 43.19 44.66 45.00 44.88 44.99 42.53 40.81 40.59 41.06 41.42 40.81 41.22 42.25 42.29 42.06 41.76 40.78 39.88 39.38 38.86 39.28 38.43 36.88 36.45 35.57 34.63 34.25 34.43 33.90
41.51 38.13 33.53 30.10 30.13 33.84 35.84 37.01 36.72 36.24 37.28 40.93 39.73 41.64 43.52 44.42 43.52 43.54 44.36 43.63 41.40 39.54 41.01 41.59 41.74 40.95 40.42 40.74 41.08 40.09 39.75 39.56 38.90 37.27 36.87 37.59 36.61 35.51 35.05 34.36 34.15 34.63 33.66 32.96
39.19 39.84 34.82 31.78 26.88 25.16 36.44 40.95 43.29 42.60 35.39 43.32 42.77 42.87 43.02 43.82 40.60 44.27 41.86 39.23 37.49 40.23 41.16 40.00 39.33 39.14 39.00 39.18 39.58 38.47 37.76 37.44 36.28 36.15 36.26 36.28 35.72 34.44 34.11 34.28 33.28 33.27 34.11 33.60
33.79 35.04 31.25 31.37 29.64 33.20 39.71 40.54 42.37 33.39 36.14 43.68 43.88 44.28 43.51 43.10 43.82 43.06 39.38 37.36 40.01 40.75 39.33 38.82 38.06 37.93 37.90 38.32 38.40 36.53 35.96 34.41 36.07 36.61 36.15 35.56 35.74 34.02 34.33 33.54 33.74 34.38 34.24 34.22
33.37 31.96 30.90 31.98 28.97 26.73 42.89 41.35 36.77 42.46 45.36 45.20 45.13 45.51 45.18 44.61 41.01 39.29 38.23 38.15 39.48 38.87 38.30 38.34 37.10 37.18 37.93 37.93 36.71 34.89 34.09 35.41 35.64 36.15 35.37 35.07 35.71 35.72 35.56 34.73 34.25 33.21 32.59 31.64
32.64 36.71 34.96 35.45 34.86 41.81 43.59 44.14 45.17 45.42 44.41 44.66 44.72 45.57 44.77 44.14 39.86 39.22 38.10 38.88 39.55 39.40 38.39 37.90 36.70 37.10 36.48 36.22 36.00 34.67 35.12 36.11 36.32 35.98 35.87 36.18 36.31 34.98 34.29 33.11 32.42 31.90 32.13 31.24
39.49 41.58 37.24 37.25 41.11 41.82 43.50 45.48 46.58 45.64 45.19 44.82 45.34 44.66 44.49 44.14 43.19 40.45 39.45 38.66 38.76 38.83 37.92 38.42 37.51 35.20 34.36 35.53 36.17 36.43 36.75 37.38 37.51 36.65 36.09 34.16 32.55 32.43 32.57 32.65 32.85 31.86 31.03 30.08
39.90 40.82 39.17 39.04 41.96 43.43 44.63 45.73 46.55 44.98 45.64 44.07 44.41 44.79 44.67 45.14 43.86 41.06 39.61 38.96 38.94 38.39 38.22 37.48 36.44 35.14 34.55 35.71 36.07 37.54 38.08 38.12 36.92 34.63 32.68 32.31 32.05 31.82 30.91 31.16 31.69 30.68 30.35 30.66
41.01 39.33 37.81 37.27 42.60 42.89 44.01 46.31 45.46 44.48 44.12 44.56 43.98 44.65 44.76 45.30 45.19 42.92 40.06 39.56 39.80 38.66 38.10 36.75 37.23 35.68 35.27 36.89 36.99 37.75 38.88 38.50 34.65 32.17 31.66 31.26 30.76 31.61 31.73 30.92 30.33 32.77 32.15 31.63

GFSCGP_sfc_wetblb_072.txt.gz
Wetbulb
44.44 39.86 36.90 39.33 41.01 41.45 40.83 38.77 37.16 40.15 43.95 42.73 41.68 41.62 43.80 45.83 45.28 45.28 46.37 46.21 47.03 48.64 49.96 50.95 51.54 50.88 52.06 54.09 54.93 55.45 56.37 58.89 64.61 67.49 65.32 65.27 66.30 65.46 65.94 66.49 66.48 65.77 64.74 63.99
39.18 36.26 40.52 43.02 42.88 41.18 40.79 38.40 38.02 41.48 43.87 41.36 41.08 40.78 44.32 45.74 44.93 46.04 46.75 46.44 46.41 46.80 48.20 49.45 50.38 48.95 50.99 51.71 52.78 53.46 54.18 55.68 56.67 60.52 66.73 65.48 65.42 65.43 66.50 64.88 66.26 66.85 65.56 64.39
35.93 38.25 41.93 42.50 40.35 38.69 38.49 36.16 37.49 38.37 41.21 38.80 37.05 36.51 41.01 44.64 45.85 46.17 47.56 46.90 46.29 46.02 46.13 46.95 47.52 48.34 48.86 48.86 49.87 52.06 53.60 54.17 55.19 56.35 59.59 65.10 64.53 63.68 63.17 64.32 65.91 65.91 65.62 65.72
38.46 43.29 41.41 40.36 39.40 39.95 35.34 41.32 40.86 40.68 36.06 29.33 37.62 27.25 37.61 42.12 42.97 44.83 42.67 43.19 43.95 43.94 45.39 47.03 48.16 48.10 48.52 48.92 49.46 49.76 50.45 51.13 52.73 54.32 54.35 57.70 63.52 62.29 63.87 64.21 64.80 64.73 65.51 65.65
35.94 39.08 39.30 37.21 38.36 41.97 37.58 42.50 41.53 40.13 35.11 33.47 33.12 27.55 35.74 40.67 39.35 39.76 40.40 42.99 44.64 45.47 45.96 47.14 48.02 49.80 50.27 50.48 49.70 49.98 49.63 49.82 50.57 51.39 51.93 52.01 52.35 56.96 61.61 62.06 62.91 63.16 63.60 64.31
39.18 42.89 40.94 40.35 41.53 41.07 41.25 38.41 39.93 38.95 35.35 28.46 32.39 29.99 30.10 34.95 38.46 39.49 42.27 44.34 45.54 45.79 46.57 48.12 49.48 51.19 51.08 51.59 51.05 50.65 50.12 49.61 49.48 49.52 50.20 50.26 50.47 52.11 56.18 58.67 58.45 59.26 60.68 63.48
35.66 36.03 39.59 40.78 37.65 39.66 37.08 34.11 29.38 27.75 27.22 23.40 35.39 30.79 33.04 38.74 41.72 42.32 42.43 43.62 45.75 47.08 46.94 47.32 47.71 48.29 49.38 49.71 50.89 51.74 51.38 50.03 50.15 49.84 49.43 49.42 50.10 51.50 53.59 56.25 57.77 58.77 59.07 60.29
30.67 27.23 35.58 38.91 37.48 34.79 34.43 36.33 31.33 23.27 21.97 24.40 32.77 25.93 30.81 39.28 43.12 44.65 45.13 45.75 46.86 46.82 47.47 47.75 48.35 48.36 48.44 49.49 49.43 48.94 49.25 49.82 50.49 50.68 50.74 49.84 49.28 49.70 50.51 51.76 54.33 57.10 57.96 58.86
29.23 29.26 37.17 38.42 39.88 39.74 35.62 33.26 36.65 29.52 29.60 23.77 27.00 30.08 34.35 36.57 40.72 42.12 42.78 44.37 45.40 46.72 47.14 47.04 47.66 48.25 48.54 48.53 48.00 47.54 47.71 48.65 49.24 49.58 49.67 49.59 50.33 50.37 50.77 51.22 51.44 53.17 55.83 57.45
36.02 29.81 36.68 37.83 40.49 39.56 38.06 39.63 30.07 31.84 24.07 22.64 25.03 27.14 27.95 32.19 37.14 40.60 41.04 42.28 45.25 46.66 46.95 46.48 46.62 47.35 47.76 47.12 46.76 46.53 46.83 46.95 47.70 48.59 48.88 49.53 49.38 50.05 50.49 50.96 50.47 50.90 51.43 52.21
39.55 35.91 34.56 37.61 36.03 35.06 34.93 33.63 33.62 33.10 29.56 24.14 19.87 24.37 35.24 35.15 38.17 39.10 41.04 43.31 44.70 46.03 45.50 45.90 46.87 47.18 46.32 45.41 44.92 44.62 44.89 45.60 46.23 47.47 48.38 48.13 48.52 49.22 49.34 48.55 48.35 48.76 49.17 49.20
40.13 35.12 31.13 34.00 38.00 39.91 37.86 36.97 35.41 25.39 24.12 27.45 25.70 23.82 38.55 37.64 39.21 40.91 41.60 43.25 45.10 46.07 45.22 46.16 46.20 45.27 44.38 43.70 43.20 42.48 43.17 43.73 44.71 46.18 46.00 45.15 45.43 44.48 43.19 42.44 43.47 44.45 43.54 43.19
39.08 32.78 27.08 29.36 33.68 36.81 33.39 36.19 36.63 33.28 33.24 28.97 23.13 24.36 39.12 38.04 38.06 39.86 40.35 42.12 44.67 45.46 44.78 45.35 44.32 43.64 42.65 41.88 41.40 41.25 41.28 41.54 42.95 43.91 42.83 41.93 41.36 40.68 39.39 39.15 39.37 39.21 38.38 37.58
41.57 34.52 28.74 23.27 29.29 33.90 28.30 33.29 34.36 31.62 27.03 28.57 27.79 30.33 35.53 37.31 37.83 38.95 40.73 42.47 44.23 44.48 44.40 43.84 42.65 41.92 41.03 40.92 40.61 40.01 39.94 40.75 41.81 42.12 40.72 39.48 38.46 38.16 37.92 38.07 37.72 37.80 37.29 36.60
38.67 28.84 30.39 33.35 34.74 34.89 33.99 32.69 32.84 25.91 30.48 24.13 30.70 32.57 35.44 38.40 38.37 39.44 42.68 43.63 44.41 43.59 42.88 42.72 41.98 41.09 40.52 39.84 39.49 39.54 39.43 39.95 40.72 40.25 39.33 38.56 38.74 38.30 37.71 37.59 37.89 37.65 37.37 37.40
38.44 29.31 31.62 27.45 34.22 34.07 30.50 34.33 34.28 33.20 33.07 32.56 33.59 33.15 38.98 40.61 41.02 41.71 41.16 43.86 43.86 42.98 42.12 41.19 40.97 40.19 39.19 38.54 38.69 39.48 38.82 38.89 39.25 38.69 38.47 39.07 38.41 38.05 38.03 38.30 37.52 37.72 37.74 37.87
35.93 32.16 28.61 24.09 31.61 31.67 26.30 32.29 33.62 34.26 35.03 34.70 29.64 34.89 39.58 39.44 41.30 40.85 41.60 43.25 42.87 41.69 41.96 41.04 39.62 39.41 39.25 39.00 39.42 37.91 37.90 38.49 37.87 37.49 37.96 37.87 37.65 36.93 36.45 36.58 35.81 35.19 33.71 34.21
34.54 33.34 32.12 25.44 27.87 21.08 31.63 36.88 38.19 35.71 37.14 37.39 37.64 38.41 40.14 39.63 40.16 40.21 41.47 42.01 41.00 40.14 41.35 40.73 40.58 38.37 38.55 39.92 39.38 38.64 38.55 37.56 37.32 36.43 37.07 38.07 36.78 36.01 35.37 34.88 34.14 33.63 33.91 32.99
37.97 34.47 29.75 24.80 25.25 30.38 33.15 35.27 34.84 33.84 34.16 38.54 37.29 38.71 40.08 41.80 40.12 39.40 42.42 41.04 39.54 39.36 39.70 40.51 38.83 38.13 38.11 40.05 39.93 37.59 37.58 37.03 36.08 35.44 36.62 36.62 36.14 35.29 34.64 33.95 33.62 33.77 32.66 31.72
37.50 36.30 30.43 29.93 23.61 23.19 34.78 38.71 40.62 40.90 34.35 39.55 39.58 39.74 40.41 41.22 36.82 39.16 38.26 37.08 37.91 39.80 39.00 37.17 36.80 39.05 38.61 38.71 39.00 37.98 37.44 36.60 35.80 36.00 35.95 35.45 35.31 35.07 33.46 33.77 32.24 32.79 33.84 33.04
32.27 33.05 27.92 28.28 25.73 29.96 38.78 40.27 40.57 32.61 34.97 42.22 41.41 41.59 41.49 39.90 40.38 39.29 37.40 37.05 38.65 39.30 37.02 36.71 36.21 37.70 37.54 38.40 38.21 36.27 35.52 34.28 35.83 36.31 35.27 34.69 34.80 34.43 33.99 32.88 32.31 31.34 29.08 27.03
31.38 29.81 29.34 30.67 26.52 22.71 40.15 38.29 34.40 40.75 43.03 43.51 43.31 42.82 42.77 40.56 39.61 38.42 37.83 37.68 38.92 36.61 36.44 36.48 36.60 36.88 37.87 38.03 36.64 35.04 33.42 35.17 35.62 35.75 35.02 34.68 34.71 34.96 33.90 31.00 29.03 29.32 28.22 26.14
29.22 32.74 31.00 30.83 30.63 38.83 41.33 40.97 41.95 42.17 41.88 41.59 42.18 42.44 42.54 41.42 39.81 38.66 37.62 38.35 38.34 36.74 35.94 36.19 36.41 36.35 36.56 36.19 36.30 34.03 34.44 36.01 35.93 35.48 35.19 34.95 34.04 33.77 33.01 28.00 26.63 25.74 25.80 24.44
35.06 37.65 33.19 33.97 37.16 38.04 40.42 42.31 42.81 42.56 41.91 42.06 42.93 41.80 42.72 41.45 40.50 39.35 38.63 38.38 38.32 36.93 35.53 35.76 34.77 34.57 33.81 35.27 35.66 35.86 36.17 36.55 36.13 35.60 35.30 32.28 27.51 27.06 26.95 27.81 27.20 25.73 24.70 23.87
35.62 36.68 35.17 34.76 37.55 38.63 39.99 41.52 42.77 42.28 42.60 41.76 42.99 42.72 42.42 42.93 41.96 40.14 38.95 38.51 38.15 36.48 35.94 35.61 34.54 34.94 33.92 35.37 35.78 36.68 36.87 37.33 36.43 32.95 28.35 27.22 27.43 26.14 24.93 27.08 25.45 24.49 25.77 26.73
36.89 35.39 33.03 32.31 37.94 38.24 39.81 41.82 43.09 41.48 41.02 40.79 40.96 41.75 42.77 43.28 42.70 40.33 38.74 39.08 38.62 36.42 35.71 35.14 36.17 35.16 34.49 35.50 35.96 37.05 37.98 37.49 31.32 27.40 26.20 25.49 24.83 25.04 26.02 26.07 26.32 32.74 31.58 31.94

GFSCGP_sfc_wetblb_075.txt.gz
Wetbulb
42.33 38.63 36.60 37.90 39.36 38.67 37.31 36.09 34.72 38.12 41.86 40.06 38.83 40.11 42.99 45.04 44.42 43.69 44.27 45.34 45.66 47.43 48.82 49.48 49.93 50.01 49.82 50.43 53.05 55.06 60.01 66.78 66.71 65.19 63.75 63.79 64.44 64.61 65.05 65.72 65.01 63.57 63.15 62.96
35.91 35.27 40.03 42.69 41.03 40.48 38.58 35.57 34.30 37.62 42.29 41.46 38.66 39.22 42.79 44.99 43.58 44.42 45.30 45.54 46.07 44.45 45.55 46.56 48.00 47.38 49.04 49.20 49.76 51.07 52.68 54.35 62.89 66.82 66.26 64.04 63.80 64.24 64.87 64.77 65.54 66.36 65.43 63.06
33.05 37.00 42.86 41.51 39.66 37.97 37.86 34.29 34.31 35.86 38.72 40.12 37.04 34.17 38.63 43.65 45.17 44.45 46.70 46.84 46.19 44.94 45.01 44.78 46.20 46.90 47.59 48.04 48.02 49.19 49.31 50.34 51.96 54.79 64.76 63.79 64.19 62.77 62.64 63.00 64.37 64.78 65.04 65.02
33.35 39.12 40.32 39.24 37.66 39.11 35.67 40.11 40.29 39.35 35.20 30.02 34.83 25.03 32.91 39.46 43.03 42.99 44.36 44.52 43.84 44.06 45.30 45.66 46.37 46.92 48.17 48.38 48.40 48.92 48.91 48.90 50.08 50.24 52.86 62.46 62.05 62.12 61.85 62.36 63.70 63.89 63.99 63.44
32.61 37.72 37.54 38.21 37.99 40.30 35.84 41.70 40.36 39.81 37.01 30.76 31.52 26.41 29.91 37.06 39.16 42.38 41.32 41.03 42.40 43.71 45.27 46.17 46.90 48.86 49.75 49.51 48.88 48.83 48.18 48.37 48.60 48.66 49.21 49.69 51.90 55.86 60.47 62.64 62.70 63.16 62.65 63.28
38.55 42.96 40.94 39.80 41.26 40.83 40.57 38.57 38.89 38.25 36.10 28.64 29.69 27.80 26.33 32.33 38.92 39.36 40.39 40.71 43.18 44.28 45.62 47.31 48.48 50.06 50.06 50.28 49.79 49.72 48.40 48.62 48.76 48.19 47.78 48.41 47.91 48.31 50.27 54.75 59.18 60.95 61.00 61.63
36.14 35.78 39.90 42.28 37.48 39.78 38.67 34.26 28.98 27.25 27.86 22.12 31.78 27.83 30.38 34.96 38.51 40.53 40.70 41.67 43.02 43.84 45.21 46.48 47.00 47.79 48.56 48.86 48.79 49.72 49.48 49.12 49.55 49.60 49.13 47.62 47.05 47.27 48.95 51.13 54.66 56.83 57.69 57.91
29.96 27.76 36.37 39.49 37.60 35.70 35.36 34.72 30.04 24.20 20.25 23.29 31.41 25.48 31.34 35.60 39.63 42.90 44.11 44.06 44.62 44.27 45.13 46.69 47.32 47.25 47.73 47.96 47.14 47.22 47.98 48.24 48.89 48.74 48.56 48.97 48.89 48.14 48.84 49.18 50.81 53.62 55.64 57.02
28.32 29.92 37.49 39.96 40.59 39.59 35.89 32.67 36.40 28.80 26.74 22.89 26.18 27.80 34.10 36.67 38.27 41.05 43.22 44.90 43.64 44.80 45.58 46.25 46.67 46.87 46.79 46.31 45.89 45.77 46.27 46.76 47.41 48.16 48.40 48.40 48.70 49.04 49.31 49.78 50.46 50.66 51.90 54.48
32.74 28.98 36.97 38.22 40.68 39.85 38.30 38.91 30.72 28.81 22.93 20.27 23.27 23.57 26.56 30.93 35.48 39.09 40.76 42.85 44.16 44.93 45.00 45.00 45.82 45.85 45.32 45.10 44.56 44.92 45.56 45.81 46.40 47.61 47.98 48.16 48.12 48.85 48.61 48.11 47.94 48.46 48.80 49.52
36.69 31.63 34.08 37.17 35.64 33.76 35.41 34.42 34.32 32.69 30.24 23.12 17.82 23.39 32.51 34.43 37.61 37.53 39.17 42.28 44.72 45.04 44.24 44.42 45.06 44.67 44.14 43.31 42.66 42.74 43.63 44.63 44.97 46.28 45.10 44.18 43.42 42.97 42.87 42.87 43.65 43.55 42.92 43.30
39.33 35.10 30.47 33.53 39.18 39.75 38.67 36.36 34.50 25.15 24.48 26.65 22.68 25.46 35.75 34.74 37.28 38.64 39.57 42.49 44.42 44.15 44.25 45.14 44.07 43.13 42.00 40.90 40.47 40.29 41.28 42.16 43.29 43.33 42.21 41.46 40.79 39.83 38.74 38.02 38.04 38.32 37.26 37.81
38.17 30.78 25.81 28.68 33.56 36.02 32.58 36.38 36.79 32.73 31.03 25.50 23.35 24.54 36.80 37.31 37.20 39.21 39.40 42.13 43.69 43.56 44.36 43.76 42.55 41.45 40.55 40.01 39.79 39.76 40.05 40.98 41.74 41.12 39.57 38.69 37.95 37.58 36.58 36.70 37.20 37.13 36.30 35.92
40.71 33.02 25.60 22.72 27.35 30.99 26.82 32.71 32.33 27.35 21.62 25.54 25.06 28.48 34.53 36.84 36.78 37.55 39.36 41.35 43.19 43.16 43.84 42.54 40.94 40.04 39.41 39.49 39.23 38.97 39.33 40.41 40.81 39.98 38.47 37.44 36.74 36.64 36.48 36.66 36.55 36.42 36.02 35.65
36.68 27.33 29.14 31.74 33.86 33.91 32.07 31.80 31.11 24.20 29.57 24.43 30.25 30.72 34.83 36.93 36.83 37.27 39.00 40.66 42.57 42.43 42.48 41.93 40.43 39.13 38.66 38.50 38.38 38.53 38.89 39.60 39.78 38.87 38.08 37.31 37.31 37.22 36.95 36.56 36.71 37.26 37.02 37.42
36.59 27.23 29.43 24.91 32.69 32.47 29.54 33.01 32.93 32.10 32.34 31.30 32.08 31.91 37.72 40.35 39.50 39.04 39.55 41.40 42.22 41.55 41.66 41.42 40.71 39.26 37.95 37.61 37.97 38.57 38.04 38.20 38.86 38.09 37.41 37.69 37.27 38.27 37.59 37.14 36.87 36.50 36.42 36.50
33.63 29.64 25.59 21.34 30.49 29.98 24.93 30.50 32.11 32.33 33.13 32.83 28.56 34.00 37.70 38.12 39.96 40.45 40.54 42.36 42.56 41.60 40.48 40.36 39.34 38.46 38.34 37.82 38.21 36.83 36.87 37.50 36.99 36.77 36.81 36.80 37.33 36.53 36.06 36.23 35.12 34.77 34.15 34.43
32.79 31.45 29.81 23.23 25.93 19.39 29.91 35.22 36.91 34.54 35.33 35.42 35.82 36.93 39.18 39.70 39.82 40.46 41.80 42.30 41.81 40.59 39.99 39.67 39.73 39.34 39.50 38.23 37.73 37.38 37.44 36.60 36.48 35.95 36.48 37.14 36.63 35.68 35.57 34.34 33.85 33.49 33.31 32.52
35.98 32.38 27.84 23.55 22.60 27.41 31.58 33.71 33.57 32.69 32.53 37.33 36.07 37.62 39.00 40.50 39.94 38.91 40.53 40.14 40.25 38.85 39.46 39.51 40.21 38.23 37.69 38.09 39.24 38.12 35.52 35.20 35.29 34.84 36.08 36.47 36.18 35.04 34.92 33.56 33.23 32.97 32.63 32.07
36.00 33.82 28.35 27.97 20.81 21.95 32.68 35.62 38.36 38.46 32.87 38.19 38.11 37.93 38.21 40.00 34.96 38.48 36.70 36.66 37.48 38.31 38.97 38.24 36.94 37.35 37.07 38.28 38.90 37.30 35.62 35.79 35.34 35.24 35.60 35.99 35.89 34.90 33.67 33.34 32.77 32.89 33.02 31.67
29.71 29.17 24.30 25.16 22.55 28.23 36.51 38.56 39.32 32.42 32.03 39.65 40.21 40.11 40.44 38.81 39.30 39.17 36.21 35.71 37.46 37.70 37.47 36.39 36.24 36.08 37.83 38.71 38.15 36.06 35.74 34.63 35.87 35.72 35.21 35.38 35.39 34.42 33.99 33.17 33.06 30.72 24.82 24.81
28.49 29.71 29.25 29.83 27.01 21.53 37.99 37.73 34.71 38.90 41.97 43.06 42.61 41.13 41.04 39.73 37.36 36.61 36.70 37.09 37.85 36.63 35.96 35.62 35.27 36.64 38.02 38.25 36.99 35.21 34.02 35.56 35.50 35.21 34.38 34.14 34.56 34.92 33.53 30.78 27.94 28.13 26.71 24.59
28.11 31.13 29.21 29.66 29.09 36.41 39.89 39.03 40.73 42.52 41.03 40.73 41.31 41.27 42.57 40.45 38.90 38.22 37.21 37.86 37.32 36.65 35.19 35.56 35.19 36.30 36.78 36.93 36.83 34.36 34.71 35.99 35.53 34.94 34.26 34.63 35.02 32.44 31.30 28.13 26.86 25.54 24.34 22.92
33.21 36.09 32.02 32.81 35.20 35.93 39.58 40.61 41.30 41.48 41.01 41.37 41.61 41.89 42.46 41.83 39.96 38.51 38.22 38.05 37.52 36.58 34.64 35.01 34.37 32.76 33.18 35.08 35.98 35.91 36.11 36.51 35.92 35.03 34.68 32.42 30.89 30.12 28.77 26.41 25.29 23.54 22.42 21.70
34.55 35.19 33.80 33.06 35.74 36.27 38.42 40.96 41.57 41.71 41.89 41.05 41.30 41.36 41.44 41.70 40.29 38.48 38.02 37.57 38.19 36.49 35.04 34.74 33.60 32.85 33.92 34.61 35.56 36.31 36.73 36.69 35.80 35.33 33.25 28.76 26.09 24.72 24.54 25.35 22.15 22.60 24.31 24.20
35.51 34.63 32.71 31.86 37.54 38.10 37.93 40.15 41.19 40.75 40.12 39.59 39.40 40.21 42.83 42.63 42.20 39.82 37.78 38.18 38.03 36.72 35.73 34.07 33.91 33.76 34.43 35.18 35.59 36.50 37.19 37.08 34.57 31.09 25.87 25.01 24.28 22.77 24.79 25.15 25.33 32.16 31.80 32.81

GFSCGP_sfc_wetblb_078.txt.gz
Wetbulb
41.01 37.13 34.73 37.75 39.40 38.80 36.53 35.29 36.27 36.15 40.70 39.41 38.16 39.07 42.60 45.42 43.70 43.48 44.35 44.74 45.59 46.95 47.77 48.57 48.70 49.11 48.74 52.88 60.97 63.39 64.53 65.51 64.72 64.03 63.20 62.85 63.30 64.08 64.72 63.74 63.05 61.83 61.80 61.75
35.39 32.81 39.25 41.96 40.90 39.39 37.95 34.89 32.80 36.46 41.24 39.42 38.84 39.09 41.85 44.09 43.43 42.72 44.19 45.05 45.78 44.99 44.10 45.35 47.01 45.94 47.68 47.94 49.63 52.66 55.09 61.60 65.19 64.52 64.01 64.13 63.54 63.27 64.16 64.73 64.73 64.47 62.51 61.51
31.22 34.63 41.30 41.12 38.68 37.35 36.19 34.02 33.14 33.37 37.16 37.76 36.40 36.17 38.80 41.99 44.12 44.16 45.17 45.63 46.19 44.77 44.32 42.76 45.11 46.00 46.14 46.50 46.85 48.55 49.22 50.15 53.05 61.55 64.37 63.10 63.03 62.39 62.30 62.68 63.26 64.48 64.47 64.00
32.10 37.11 37.79 37.06 37.17 38.55 33.92 39.77 39.10 38.13 33.04 28.90 35.81 27.37 33.70 40.46 41.17 43.44 43.00 43.49 43.55 43.62 43.18 44.05 45.30 45.81 46.78 47.05 47.29 47.80 48.24 48.36 49.14 49.88 56.98 62.60 63.36 62.27 61.62 61.66 62.41 62.62 62.97 63.39
29.78 33.65 35.65 35.27 37.73 39.72 36.03 41.35 39.38 38.32 34.70 32.61 30.74 28.40 30.41 34.56 37.34 41.14 44.85 44.92 43.20 42.50 43.92 44.63 45.88 47.97 48.35 48.58 48.08 47.42 46.87 46.90 47.06 47.53 48.82 54.56 57.63 59.02 59.31 60.73 61.21 61.53 61.67 62.60
34.66 41.96 40.48 39.13 40.95 40.77 41.20 39.46 39.26 38.97 36.97 29.11 29.93 29.63 27.03 31.14 36.08 39.46 43.88 43.59 41.72 42.19 44.21 45.74 47.29 48.89 48.89 48.92 48.60 47.48 48.66 48.82 48.44 46.59 46.22 47.14 47.40 47.90 48.69 50.57 56.24 59.72 60.96 61.31
33.57 37.21 40.37 42.40 36.94 40.26 37.65 34.71 26.89 26.64 27.81 22.71 30.24 28.88 32.35 33.15 37.13 38.98 41.08 40.15 42.11 43.26 44.26 45.75 47.40 47.82 48.00 47.52 47.35 48.58 48.41 48.04 48.45 47.99 48.06 46.37 45.84 46.04 47.66 49.56 52.32 55.38 56.83 57.58
29.82 27.43 36.70 39.98 38.36 36.55 35.72 31.29 21.83 17.70 21.13 22.52 30.16 25.70 30.90 34.20 36.69 39.10 40.69 42.22 42.63 42.93 43.49 45.01 46.23 47.07 47.30 46.73 46.30 47.27 47.14 47.13 48.00 48.04 47.86 48.00 48.48 48.68 49.00 48.55 50.87 53.14 55.51 56.66
28.31 29.76 38.37 40.23 40.40 38.35 35.84 33.25 35.56 25.14 24.20 19.06 25.29 28.63 33.55 35.31 35.43 38.42 40.03 41.81 41.67 43.41 44.46 44.99 45.12 45.99 45.72 44.99 44.89 45.72 45.92 46.24 47.28 47.58 47.61 47.58 47.78 48.21 47.96 47.98 48.86 49.46 50.78 53.16
33.14 29.28 36.80 39.00 40.87 39.41 38.22 38.44 31.12 31.28 23.89 19.06 22.29 23.45 27.54 31.11 34.53 38.29 39.57 40.20 42.40 44.81 44.40 44.45 44.73 44.24 43.99 44.05 43.92 44.33 44.93 44.84 45.83 46.37 45.88 45.57 45.42 45.51 45.42 45.78 45.51 45.64 46.10 48.70
35.40 31.86 33.52 36.63 35.08 34.71 35.85 34.43 34.38 31.62 26.61 19.80 17.06 23.15 31.76 33.60 37.14 38.40 39.41 41.75 42.77 43.68 44.02 43.90 43.82 43.00 42.52 41.84 41.75 42.54 43.32 43.90 44.16 43.07 41.46 39.97 39.26 39.02 38.85 39.10 39.34 39.20 39.57 41.63
37.26 34.27 29.33 32.40 37.60 40.23 37.80 35.06 33.34 21.87 25.45 20.91 20.16 24.16 34.07 34.05 37.40 39.35 39.62 42.59 43.07 43.48 43.99 44.02 42.85 41.79 40.79 40.04 39.95 40.10 41.13 42.10 41.85 41.11 39.68 38.76 38.56 37.82 37.07 36.65 36.65 36.95 36.30 36.81
37.92 31.34 27.01 29.61 33.83 37.40 35.01 37.31 37.24 31.85 25.87 19.71 19.30 24.31 35.90 35.30 36.43 39.35 39.69 42.05 42.37 42.54 43.62 43.06 41.72 40.73 39.74 38.99 38.94 39.25 40.19 40.46 39.88 39.16 38.02 37.36 36.72 36.17 35.62 35.71 36.25 36.53 35.98 35.88
40.70 31.88 25.86 23.25 26.78 30.56 27.65 32.81 35.18 28.58 19.04 23.05 23.29 27.44 33.18 34.97 36.82 37.60 39.56 42.42 41.62 42.48 43.45 42.04 40.55 39.82 39.00 38.72 38.49 38.43 38.90 39.89 39.18 38.34 37.35 36.42 36.11 36.02 36.01 36.24 36.40 36.36 35.96 35.66
35.72 27.19 29.18 31.03 33.46 32.24 30.50 30.81 30.40 25.89 28.27 24.78 28.58 29.88 34.46 37.16 36.74 38.65 39.34 41.56 41.77 41.60 42.64 41.73 40.12 38.72 38.18 37.81 37.44 37.90 38.40 38.85 38.65 37.86 37.11 36.56 36.85 36.75 36.48 36.58 36.55 36.53 36.83 36.57
35.24 28.17 28.08 24.52 31.35 31.00 29.03 32.05 31.61 30.75 31.34 30.57 30.99 30.96 38.76 39.27 38.43 37.26 36.95 39.34 41.38 41.49 41.70 41.57 40.69 38.82 37.33 36.60 37.02 37.58 37.69 38.13 38.36 37.52 36.88 37.37 38.18 37.76 37.19 36.77 36.45 36.58 36.60 36.98
32.59 29.03 25.32 20.86 28.95 29.12 24.37 29.65 31.21 31.24 32.55 32.98 28.54 33.30 35.69 37.69 38.49 38.49 38.46 40.03 41.57 41.60 41.38 40.99 40.38 39.32 37.70 37.30 37.50 36.56 36.62 37.45 37.03 36.52 36.43 36.93 37.46 36.55 36.16 35.81 35.36 34.72 34.42 35.31
31.28 29.93 28.04 22.31 24.94 19.29 28.34 33.93 35.28 33.57 34.46 34.85 34.93 35.97 37.38 38.57 39.41 39.49 40.42 40.94 41.40 41.44 40.44 40.03 38.66 37.92 38.39 38.76 37.87 36.87 36.94 36.41 36.36 35.50 35.86 37.23 36.60 35.84 35.04 34.77 33.91 33.40 33.53 33.53
34.59 31.03 27.11 23.32 22.11 25.75 29.61 32.89 32.76 31.80 31.52 36.08 35.14 36.40 37.86 38.86 39.10 38.12 40.54 40.76 42.17 41.49 40.23 39.45 39.39 39.01 38.73 37.07 37.02 36.69 36.76 36.31 35.46 34.97 36.37 36.70 36.21 35.08 34.42 33.38 32.77 33.28 32.77 32.65
33.92 32.40 27.80 23.62 20.19 20.91 29.59 34.52 36.80 37.51 29.87 36.94 36.95 36.65 38.07 38.71 33.08 36.24 37.47 37.26 37.92 38.49 38.96 38.90 38.93 38.54 37.49 36.75 37.17 36.04 35.57 35.15 34.46 35.55 36.24 36.13 35.95 35.14 33.68 33.39 32.90 32.49 29.64 26.87
27.55 30.10 25.37 24.53 20.93 26.61 33.05 37.14 38.78 29.66 29.53 37.90 37.19 37.11 38.36 37.51 37.83 39.04 36.63 35.73 37.07 37.58 37.04 37.17 37.54 36.30 36.89 37.88 37.91 36.43 35.99 34.73 36.09 36.21 36.03 35.86 35.53 34.66 33.82 33.25 33.19 31.14 24.22 25.44
27.34 25.69 26.03 26.09 24.50 19.37 37.21 35.93 35.37 37.52 41.75 41.61 40.33 40.20 40.08 39.16 37.19 36.30 36.25 36.10 36.68 36.20 37.13 36.04 35.16 35.58 37.18 38.58 37.46 35.81 34.84 35.86 35.65 35.35 35.16 34.73 34.48 34.72 34.06 32.96 27.31 27.44 26.19 24.65
28.75 30.28 28.13 28.98 27.91 35.10 38.06 37.84 39.93 43.11 40.95 40.61 42.13 41.49 41.94 39.11 37.89 37.11 36.26 37.36 37.19 36.69 36.02 35.87 34.51 34.98 36.67 37.58 37.16 35.24 35.30 35.68 35.28 34.51 34.03 34.52 34.85 33.56 32.79 27.94 26.71 25.43 23.91 22.73
31.47 34.03 32.20 32.14 33.45 35.56 38.48 39.40 40.84 40.80 40.86 40.71 41.43 41.74 43.17 41.48 40.42 38.52 37.77 37.65 36.96 36.73 35.66 35.12 34.44 33.41 32.88 35.35 36.71 36.37 36.10 35.99 35.41 33.89 33.99 34.42 32.83 31.40 28.26 28.02 26.37 23.48 22.11 20.86
32.63 34.16 32.47 31.95 34.26 35.53 36.91 39.27 40.88 40.80 41.14 41.20 41.45 40.97 40.82 41.33 41.13 38.68 37.99 37.24 37.05 36.70 35.94 34.96 33.87 32.80 32.17 33.30 34.25 36.57 36.68 36.51 35.33 34.85 33.91 32.44 30.22 29.05 26.11 24.22 22.46 20.90 21.48 23.33
34.24 33.45 32.17 31.43 36.27 36.15 37.08 39.50 41.09 40.40 39.58 39.36 39.25 39.01 41.29 42.32 41.92 40.20 38.22 37.44 37.06 35.95 34.98 34.87 33.68 32.86 32.64 33.62 35.36 36.28 37.05 36.69 35.71 34.42 31.52 29.28 25.14 22.55 24.02 22.69 23.86 30.95 31.79 32.92

GFSCGP_sfc_wetblb_081.txt.gz
Wetbulb
40.64 37.21 34.33 36.86 39.82 37.02 36.58 34.44 33.32 35.51 39.45 39.33 37.14 37.26 42.23 44.32 44.70 44.86 46.13 48.86 46.49 46.80 48.91 48.75 48.14 49.63 54.04 58.10 61.73 63.44 63.91 64.45 64.32 63.55 62.61 62.09 62.63 63.66 63.60 61.60 61.68 61.05 62.16 61.90
34.60 32.79 37.72 40.59 41.00 38.56 37.57 34.25 32.54 35.88 39.62 38.28 37.11 37.65 41.99 44.03 43.99 44.49 44.74 45.61 45.01 44.82 46.04 45.12 45.32 45.92 49.13 48.74 55.30 60.39 62.77 63.89 64.04 63.71 63.36 63.31 62.85 63.22 64.00 64.01 63.08 62.16 61.07 60.79
30.81 33.77 39.15 39.99 38.89 36.98 35.31 34.38 32.97 33.16 36.01 36.31 34.78 34.45 38.96 43.02 43.04 43.94 44.55 45.07 44.55 44.64 43.39 42.59 43.53 43.57 44.74 46.19 46.98 50.40 52.93 55.47 62.17 63.27 63.61 62.51 62.64 61.99 61.83 62.50 63.12 63.81 63.00 62.09
31.57 36.73 37.38 36.44 37.10 38.95 34.08 38.19 37.32 36.74 31.72 27.39 35.41 25.51 32.50 40.66 41.60 42.29 44.41 43.53 43.44 42.74 42.35 42.78 44.29 45.19 46.04 45.78 46.55 47.20 47.65 48.07 48.97 52.54 61.57 62.25 62.79 61.10 61.29 61.41 61.97 62.39 62.79 63.27
30.54 32.71 35.73 33.92 37.60 39.98 37.10 41.34 38.74 37.75 32.71 27.79 27.78 27.51 30.30 33.54 36.58 41.14 43.31 45.04 43.49 43.46 42.76 43.47 44.56 46.77 47.00 47.17 46.71 46.21 45.87 46.14 46.11 46.77 49.04 57.78 59.94 60.62 60.00 60.31 60.75 61.07 61.53 62.30
33.41 38.52 39.28 38.42 40.20 40.83 41.66 39.52 38.75 37.86 33.99 26.82 28.54 29.07 27.86 30.76 34.97 36.93 41.94 43.11 43.61 42.68 43.24 44.42 46.28 47.82 47.51 47.39 46.91 47.93 48.51 48.10 47.80 46.05 45.48 47.17 52.90 53.71 52.76 52.19 55.09 57.52 59.44 60.28
32.68 35.57 39.68 41.40 34.73 40.77 39.33 34.45 27.58 26.82 27.24 23.83 28.69 28.36 32.79 34.10 35.36 37.13 38.73 40.64 41.08 40.92 42.31 44.27 46.29 46.98 46.82 46.10 46.96 48.21 47.82 47.10 47.66 48.05 47.69 46.52 45.51 45.56 46.52 47.38 49.11 51.75 54.74 56.36
28.37 26.89 35.78 38.67 37.24 36.62 34.44 31.86 21.60 17.60 22.70 23.62 28.48 25.15 30.69 35.19 37.37 37.81 38.21 40.47 40.28 40.94 43.09 45.07 45.97 46.23 45.82 45.73 46.26 46.55 46.29 46.57 47.05 47.23 47.38 47.72 48.38 48.58 48.57 48.82 50.78 52.05 54.13 55.94
29.15 29.90 38.35 39.49 40.67 39.61 35.85 28.64 33.30 24.22 22.35 17.73 24.42 27.91 32.91 33.56 35.60 35.76 36.70 39.17 40.07 41.35 42.93 44.59 45.28 45.61 44.41 44.12 44.56 44.71 44.99 45.66 46.58 46.65 46.79 46.35 46.86 47.19 47.21 47.46 48.32 48.97 49.96 52.75
32.41 29.95 37.29 38.66 40.98 39.38 35.89 37.89 28.59 31.16 13.97 17.28 21.21 22.28 26.83 30.72 34.09 35.24 36.74 37.88 39.58 42.08 43.04 43.60 44.46 43.50 43.31 43.23 43.42 44.12 44.30 44.54 44.39 43.69 44.07 42.71 42.38 43.38 43.64 43.84 43.34 43.94 45.70 48.28
35.59 32.79 33.45 37.40 35.71 34.28 35.36 34.04 33.06 29.65 25.69 19.12 17.05 22.82 30.02 31.46 34.72 35.66 37.14 39.43 41.10 42.45 42.94 43.44 43.21 42.35 41.73 41.40 42.02 42.42 43.49 43.68 41.83 40.78 39.36 38.16 37.60 37.83 37.65 37.42 37.50 38.10 39.27 41.00
37.12 34.02 29.56 32.65 37.36 38.99 36.27 34.41 33.46 21.47 25.70 25.07 16.93 23.01 32.39 32.16 34.42 38.00 38.70 41.40 41.90 42.65 42.65 42.75 41.89 41.04 39.69 39.77 39.93 40.44 41.62 41.41 40.48 39.50 37.99 37.13 36.95 36.37 35.57 35.27 35.57 36.19 35.89 36.45
37.36 31.20 27.61 28.79 33.60 36.84 34.43 36.00 36.45 31.28 25.28 18.69 18.63 23.97 34.73 32.98 35.11 38.68 39.88 41.36 42.06 41.95 42.41 41.45 40.55 40.72 39.20 38.43 38.62 39.40 40.23 39.38 38.79 38.32 37.31 36.44 35.77 35.56 34.89 34.99 35.56 35.83 35.72 35.94
40.06 31.54 26.25 23.11 26.27 33.26 31.92 33.73 35.13 33.29 26.88 23.13 21.77 27.62 31.77 32.98 35.06 37.85 41.42 42.47 41.37 42.39 42.87 40.98 40.11 39.64 39.11 38.41 38.23 38.29 39.15 39.00 38.03 37.63 36.84 35.87 35.44 35.36 35.48 36.09 36.19 36.18 35.95 35.69
34.98 27.75 28.18 29.88 32.32 31.67 30.69 30.68 33.20 31.45 31.14 25.14 27.79 27.84 33.25 34.19 35.40 37.26 40.34 41.99 41.39 41.57 41.91 40.96 39.49 38.71 38.11 37.75 37.45 38.01 39.00 38.42 37.93 37.08 36.52 35.96 36.10 36.19 35.85 35.75 35.92 36.17 36.08 35.79
34.44 26.49 28.15 25.26 31.43 31.18 29.66 31.31 33.12 33.58 32.88 30.59 30.18 30.10 35.87 37.73 36.86 37.13 38.02 40.45 41.01 41.70 42.62 41.35 40.00 38.27 37.45 37.10 36.59 37.68 38.14 37.77 37.86 36.78 36.34 37.03 37.46 37.56 36.31 36.76 36.82 36.89 37.02 37.08
31.93 28.74 24.72 19.34 28.70 28.42 23.51 28.97 30.60 31.72 31.55 32.99 28.83 34.06 35.38 35.27 37.75 37.46 37.15 40.22 41.57 41.52 41.47 42.11 41.04 39.60 37.58 37.40 37.55 36.70 37.29 37.77 36.77 36.22 36.12 36.81 37.66 36.81 36.22 36.08 35.73 35.17 35.34 36.22
30.48 28.67 28.01 22.34 23.88 17.37 26.50 32.76 34.05 33.23 33.42 33.71 34.08 35.40 36.94 36.52 38.52 38.34 38.09 39.73 40.32 41.59 41.11 40.85 39.94 38.52 38.14 37.68 37.26 36.34 36.88 36.67 36.25 35.36 35.57 36.71 36.76 35.71 35.46 34.72 34.25 33.87 34.34 34.30
33.24 30.23 26.58 22.96 20.95 24.74 27.52 31.67 31.72 30.91 30.88 35.90 35.13 35.92 36.98 37.48 38.03 37.47 41.14 41.15 40.92 42.06 41.95 40.82 39.32 38.35 37.51 37.74 37.43 36.93 36.06 35.76 35.64 34.81 35.36 36.56 36.46 35.16 34.51 33.37 33.20 33.50 33.42 32.76
32.39 31.37 27.10 22.59 19.17 19.39 27.78 34.04 35.86 35.72 27.31 36.29 36.26 36.06 37.08 36.90 32.53 35.55 39.60 38.57 39.22 39.40 39.27 38.66 37.96 37.59 36.90 36.68 37.68 35.98 35.36 35.57 35.50 35.67 35.82 36.49 36.11 34.93 33.70 33.30 32.90 32.52 32.56 31.14
28.41 29.90 27.95 24.77 20.28 25.50 31.35 36.21 36.81 25.86 27.63 36.86 36.21 36.20 37.39 36.61 36.39 37.92 36.85 36.66 36.78 37.55 37.65 37.18 37.02 37.12 37.66 37.28 35.83 34.52 35.18 35.29 36.17 36.77 36.38 36.04 35.80 34.61 34.11 33.28 32.96 29.60 26.81 25.68
26.96 24.12 24.32 26.90 25.98 18.81 35.25 35.11 31.77 35.44 39.75 39.52 37.44 37.39 38.41 38.57 37.43 36.22 36.22 36.15 37.00 36.58 36.97 36.45 36.15 36.46 36.57 36.83 36.33 35.86 35.15 36.08 36.05 36.01 35.62 35.03 34.91 34.75 34.22 32.65 30.91 27.16 26.22 24.71
27.02 29.42 27.70 27.61 27.01 33.62 35.85 36.31 37.78 42.69 41.35 39.82 42.01 40.60 40.48 38.29 38.01 37.06 36.24 36.19 36.79 37.20 36.72 36.70 36.53 35.65 35.82 36.50 37.47 35.86 35.83 35.89 35.36 35.18 34.57 34.43 34.45 33.99 33.67 30.07 26.95 25.26 24.70 23.46
30.19 33.55 31.83 31.83 33.08 33.71 36.27 38.37 39.52 40.06 40.57 39.74 40.60 41.60 43.10 41.56 40.38 39.43 37.97 37.09 37.12 36.17 35.52 35.74 35.27 33.24 32.85 34.62 36.58 36.65 36.28 36.00 35.10 34.25 34.27 34.48 32.99 32.52 31.28 29.24 27.26 24.30 22.39 21.17
32.37 33.13 31.96 31.63 34.24 34.86 36.26 38.54 39.90 39.93 40.73 40.43 41.06 40.43 40.65 41.92 41.93 40.47 38.50 37.40 37.10 35.66 36.01 35.24 34.77 32.86 32.86 33.35 35.18 36.61 36.49 36.18 34.84 34.26 33.89 33.74 32.95 32.41 29.44 26.60 24.31 21.95 21.85 23.50
34.58 33.60 31.62 31.04 36.14 35.93 35.75 37.94 40.63 40.18 39.54 39.46 39.37 39.22 40.21 40.82 41.49 40.84 38.83 37.95 36.63 35.47 35.30 35.10 33.99 33.45 33.00 33.44 34.01 35.73 36.91 36.55 35.35 34.09 33.56 33.07 32.01 28.94 26.22 22.94 21.30 30.10 29.61 31.80

GFSCGP_sfc_wetblb_084.txt.gz
Wetbulb
35.31 35.18 31.21 35.88 39.22 35.09 34.47 34.25 33.42 36.64 39.64 39.67 35.61 37.50 39.06 42.55 46.26 46.83 48.24 49.05 49.04 48.68 49.32 50.22 49.63 52.53 59.38 60.96 62.09 63.31 63.95 64.54 64.58 63.09 61.98 61.97 63.24 62.74 61.71 61.07 62.35 62.39 63.64 62.41
32.51 30.70 36.61 40.40 39.31 38.31 34.91 34.45 33.22 35.99 38.67 37.66 36.34 36.60 40.35 41.08 42.36 45.81 47.66 48.55 49.39 50.07 47.45 47.17 47.94 46.89 49.67 56.44 59.20 60.82 62.38 63.14 64.34 63.89 62.88 62.86 62.30 62.79 63.41 63.09 61.55 61.62 61.00 61.25
28.85 34.12 40.12 37.72 37.27 36.86 34.17 33.71 32.34 32.68 36.27 35.54 34.38 33.56 37.21 40.33 41.47 41.93 44.83 48.93 50.10 50.43 49.56 45.43 45.04 46.13 45.52 47.95 50.86 56.68 60.54 62.38 62.95 63.32 63.02 62.15 62.07 61.40 61.27 62.01 62.56 62.25 61.45 60.79
32.05 38.19 37.13 35.37 34.10 37.51 32.58 37.79 37.24 34.59 32.33 29.75 33.07 26.33 30.92 37.93 39.86 40.46 42.55 42.88 46.12 47.98 44.10 43.45 43.22 43.98 44.12 44.91 46.39 47.99 48.86 50.65 53.00 61.25 62.00 61.31 61.49 61.04 61.24 61.13 61.76 62.17 62.67 62.16
29.19 33.54 34.52 32.91 34.69 39.35 35.74 39.89 37.65 35.09 31.10 28.31 26.99 27.02 29.78 32.57 35.61 41.19 43.21 43.47 44.44 45.18 44.18 43.62 43.36 44.78 45.46 46.05 45.43 45.11 45.94 46.25 46.11 47.24 51.43 59.25 60.40 60.70 60.24 60.29 60.45 60.57 61.27 62.16
32.94 37.84 37.58 35.90 36.79 41.04 41.27 38.59 37.84 35.89 31.58 22.88 27.46 27.94 26.40 29.69 34.02 35.21 39.86 43.09 44.91 45.16 44.19 43.66 44.44 46.03 45.74 45.04 45.66 47.10 47.80 47.53 47.44 45.99 45.31 46.14 51.30 55.81 56.29 56.15 56.59 57.84 58.82 59.92
32.17 34.52 39.21 39.95 33.93 40.53 39.95 32.74 28.40 27.06 26.66 22.51 27.57 26.75 31.28 32.37 34.85 36.52 37.79 40.32 42.65 43.98 43.30 43.49 45.14 45.33 44.84 45.03 45.80 46.99 47.28 46.84 47.55 47.60 47.36 46.45 44.86 44.66 46.50 48.00 48.78 49.81 52.66 55.43
25.60 26.09 35.52 39.26 35.62 35.64 36.72 31.51 21.12 16.18 20.36 22.20 28.32 24.63 30.32 35.20 37.29 38.36 38.79 39.31 39.97 40.77 42.35 43.95 45.67 45.41 44.53 45.28 45.25 45.50 46.17 46.15 46.87 47.17 46.91 47.14 47.82 47.82 47.54 47.80 49.49 51.20 52.90 55.01
27.38 29.44 37.59 38.39 40.25 39.44 35.26 31.13 31.06 22.83 20.11 19.31 24.25 26.41 32.81 33.07 34.51 35.22 36.00 37.14 37.82 38.85 41.75 44.31 45.22 44.86 43.89 44.32 44.46 44.67 45.26 45.27 45.66 45.82 46.10 45.62 45.83 46.16 45.87 45.94 46.95 47.58 48.35 52.86
32.71 29.44 36.34 36.52 40.59 39.43 36.28 36.93 26.84 27.43 14.91 16.84 20.67 19.83 26.14 30.72 32.80 33.74 35.41 35.83 37.65 39.88 41.92 43.11 44.20 43.27 42.76 42.90 43.02 43.69 44.26 43.68 42.77 42.79 42.38 41.38 41.33 41.97 41.80 41.51 41.25 42.83 44.51 46.28
35.46 32.38 33.49 35.16 34.02 33.99 35.23 30.84 32.45 29.25 23.92 18.16 16.60 23.02 29.14 30.50 32.37 32.64 35.01 36.69 38.36 40.71 41.62 42.24 42.05 41.60 41.28 41.51 41.95 42.56 43.48 41.91 40.38 39.39 38.21 37.54 36.89 37.03 37.07 36.86 36.80 37.70 38.47 39.56
36.79 34.07 29.47 32.61 37.34 38.89 35.59 33.29 32.03 22.77 23.14 23.49 17.21 23.54 32.26 31.07 32.02 33.55 36.33 38.88 40.05 41.63 41.99 41.75 40.49 39.78 39.64 39.87 40.66 40.98 41.28 40.45 39.17 38.28 37.44 36.68 36.12 35.73 35.28 35.21 35.42 36.06 35.74 36.39
36.76 30.87 27.43 29.38 32.39 36.13 33.65 34.03 33.06 28.52 25.95 24.85 19.01 24.11 34.04 32.41 33.92 35.25 37.30 39.15 40.42 41.16 41.31 40.27 39.33 38.70 38.34 38.33 39.34 40.19 39.83 38.48 38.22 38.00 36.88 36.07 35.51 34.99 34.32 34.70 35.21 35.60 35.80 36.11
40.47 31.86 27.39 23.82 26.27 31.85 30.88 32.44 33.19 27.23 18.83 23.57 22.05 26.08 32.27 33.64 34.22 35.45 37.83 39.58 39.61 40.62 41.51 39.69 38.71 38.29 37.63 37.83 38.71 39.66 38.87 38.07 37.58 37.15 36.24 35.56 35.06 35.13 34.86 35.09 35.40 35.45 35.27 34.86
35.54 27.75 27.92 29.20 31.17 31.62 30.24 30.54 31.69 27.73 29.31 24.69 25.39 27.87 32.82 34.23 33.87 35.19 39.43 40.65 40.53 40.42 40.72 40.24 39.23 38.09 37.35 37.04 37.68 39.04 38.53 37.57 37.23 36.63 36.07 35.29 35.60 35.31 35.29 35.46 35.43 35.46 35.50 35.04
33.80 28.65 28.64 25.36 30.71 30.20 29.27 30.62 32.22 32.56 32.32 30.09 30.40 29.10 34.38 35.66 33.42 35.31 38.20 40.36 40.89 41.39 41.88 40.94 40.13 38.21 36.84 36.40 36.37 38.04 37.93 37.81 37.57 36.24 35.68 36.13 35.92 36.05 35.84 36.47 36.62 36.24 35.85 35.54
31.39 28.09 25.25 20.32 28.24 27.97 23.83 28.60 30.92 32.27 32.63 33.45 28.50 34.34 36.05 33.87 35.97 36.74 37.39 40.53 41.93 41.45 42.17 42.05 41.03 39.43 37.56 36.72 36.73 37.03 37.33 37.27 36.72 36.40 36.37 36.72 37.52 37.04 36.58 36.48 36.28 35.99 36.13 36.48
29.71 28.22 27.68 23.47 24.20 17.71 27.33 31.98 33.28 32.61 33.07 34.24 33.64 33.87 35.52 35.64 36.28 37.63 38.03 39.86 40.80 41.76 41.91 42.20 41.57 39.39 38.27 37.12 36.86 36.80 37.53 36.57 35.89 35.32 35.54 36.36 36.77 35.93 35.67 35.36 34.76 34.76 35.37 35.05
32.61 29.68 26.35 22.11 20.86 24.77 28.14 30.68 31.03 30.22 30.16 34.99 34.27 36.22 35.76 36.14 35.17 36.68 38.84 39.24 40.18 40.55 41.85 42.15 41.86 39.72 37.81 37.78 37.10 35.99 35.68 35.96 35.64 34.70 35.49 35.90 36.71 35.50 35.01 33.88 33.74 34.22 33.94 32.98
31.36 30.49 26.77 23.06 18.66 18.43 26.34 33.38 34.91 34.09 27.07 35.04 35.43 35.83 35.36 36.52 31.36 34.95 38.69 39.47 40.04 40.87 41.33 39.80 38.70 37.81 37.13 36.11 36.51 35.80 35.23 35.79 34.09 35.19 36.46 36.64 36.32 35.31 34.03 33.79 33.20 32.68 33.16 31.77
27.66 30.71 24.62 27.19 22.21 24.94 30.19 33.11 35.67 26.04 27.09 36.95 35.07 35.12 35.92 35.28 35.43 36.65 36.52 37.12 37.46 37.85 37.61 37.85 37.72 37.48 37.01 36.84 36.52 35.92 35.58 34.74 35.88 36.93 36.83 36.46 35.97 34.97 34.25 33.45 33.01 32.03 30.88 28.29
26.07 23.36 23.75 28.35 26.16 18.89 32.48 33.85 30.52 34.48 40.24 40.10 36.32 35.01 36.62 36.81 36.46 35.93 35.84 36.11 36.75 36.24 37.01 36.97 36.22 35.76 36.08 36.15 35.67 34.37 33.73 35.92 36.66 36.50 35.95 35.47 35.01 35.25 34.38 33.00 30.98 30.25 27.48 25.71
26.50 28.33 26.75 27.32 26.97 32.56 34.02 36.05 37.33 41.26 41.34 39.97 41.40 38.28 39.19 37.72 36.42 36.25 35.88 35.47 36.04 36.38 36.30 36.82 36.11 35.57 35.50 35.61 35.31 33.76 34.57 36.34 35.95 35.72 35.03 34.86 34.81 34.36 33.44 31.34 29.26 26.82 26.02 24.93
30.35 32.50 30.22 30.48 32.15 32.70 34.39 36.58 38.19 38.74 40.97 39.08 40.12 41.25 41.68 40.09 39.32 39.08 38.08 36.18 36.80 36.19 34.93 35.40 35.10 35.55 35.26 34.84 35.81 35.90 36.17 36.20 35.57 34.91 34.64 34.37 33.41 33.03 31.98 31.29 29.15 26.10 24.68 23.52
32.64 32.78 31.25 30.84 33.24 33.87 35.48 37.01 38.59 38.72 40.72 39.96 40.21 40.16 40.37 41.33 41.80 40.83 40.22 38.88 37.26 36.01 35.11 34.97 35.48 34.55 34.85 33.62 34.03 35.10 36.52 36.11 34.93 34.72 34.38 33.64 32.98 32.55 30.88 28.89 27.10 24.83 24.03 25.29
33.48 33.37 31.30 30.40 35.29 34.84 34.96 36.75 39.42 39.58 38.92 38.54 38.90 38.75 39.61 39.93 40.02 40.66 39.59 38.87 37.72 36.20 35.45 34.50 35.49 35.06 33.63 33.28 34.89 36.41 36.46 36.13 35.13 33.86 33.45 33.30 32.78 31.37 30.84 27.23 24.35 31.50 30.27 31.49

GFSCGP_sfc_wetblb_087.txt.gz
Wetbulb
35.52 32.52 32.32 35.28 36.31 36.81 36.75 35.36 35.32 37.72 40.98 41.17 39.73 39.50 41.89 45.87 47.33 46.88 48.81 50.51 50.95 52.13 54.18 52.42 52.60 54.99 61.87 63.43 64.01 65.18 65.71 65.45 64.80 64.73 64.80 65.07 65.35 65.80 65.41 65.48 66.13 66.10 66.83 66.15
31.78 29.29 36.88 38.68 38.75 38.29 36.55 34.63 34.79 37.92 40.55 41.26 39.04 39.01 41.84 43.18 46.51 47.49 48.53 49.13 50.56 51.78 52.94 51.24 52.03 50.30 51.43 60.64 62.34 63.53 64.64 65.59 66.04 65.39 64.78 65.02 65.21 65.60 66.97 65.98 64.72 64.92 64.85 65.39
28.08 32.76 38.74 38.06 36.12 34.27 34.96 34.34 33.62 34.82 38.38 38.38 38.00 37.00 39.26 42.17 43.67 45.55 47.58 50.23 50.94 52.18 52.12 52.33 50.08 50.73 50.06 51.29 57.07 61.81 63.25 64.44 65.58 65.69 64.93 64.27 64.10 64.04 64.47 65.39 65.42 64.05 63.32 63.40
32.15 37.37 36.84 34.82 35.40 35.61 31.48 38.19 37.25 36.24 35.43 31.55 36.62 29.06 34.09 39.86 40.78 42.53 46.02 45.96 49.32 51.04 50.87 47.75 47.51 48.79 49.72 49.30 50.10 52.56 58.94 62.86 64.06 64.87 64.88 64.59 64.50 63.40 64.26 65.08 65.40 65.55 64.40 63.34
30.40 34.85 35.85 33.34 34.43 35.34 35.62 39.14 37.75 35.19 32.72 31.83 32.27 31.56 33.53 35.40 38.66 41.53 42.99 43.77 45.69 48.37 49.19 49.20 47.95 47.89 48.45 48.87 49.13 49.28 49.46 50.23 51.31 58.06 63.31 64.31 63.87 64.01 63.76 63.90 63.84 64.09 64.68 65.09
32.65 37.56 37.32 36.18 36.81 36.51 36.52 38.40 37.49 36.35 32.40 26.63 29.60 31.15 30.62 32.96 36.34 41.06 45.01 45.15 46.61 47.27 48.04 48.17 47.11 48.04 48.30 48.39 48.02 49.19 49.63 49.37 49.18 49.72 50.51 55.54 59.62 60.80 61.13 61.63 61.46 62.18 62.53 63.39
32.83 33.43 39.40 38.46 34.31 36.07 34.13 34.90 28.20 26.06 25.81 22.89 29.13 29.28 33.34 35.88 37.59 39.02 40.89 43.36 45.08 46.99 48.42 47.98 46.29 46.96 48.01 47.49 48.68 49.45 49.91 49.11 49.88 49.86 49.83 49.39 49.20 49.64 51.94 53.02 54.15 54.29 55.75 58.31
24.44 23.53 34.54 38.27 33.96 33.00 36.12 32.58 24.95 18.95 21.46 23.90 29.70 27.17 32.78 37.93 39.49 40.02 40.76 41.08 42.01 44.11 45.21 45.74 46.62 47.97 47.44 47.78 48.45 48.67 48.75 48.76 49.53 49.81 49.55 49.99 50.48 50.46 50.57 51.17 52.43 53.81 55.29 56.25
27.43 29.21 36.88 38.62 38.04 36.31 35.57 28.55 32.15 24.30 23.17 24.66 27.47 29.76 35.00 36.40 36.93 37.59 37.94 39.09 39.75 40.64 42.61 44.52 46.75 47.29 46.96 47.10 47.43 48.24 48.00 47.97 48.45 48.67 48.75 48.16 48.66 48.97 48.99 49.26 50.63 50.99 51.94 53.72
33.27 27.97 35.59 37.35 39.82 39.28 36.69 37.19 28.89 26.38 18.26 20.18 23.94 25.32 30.14 33.89 35.50 36.47 37.46 38.73 39.62 40.77 41.90 44.76 46.08 45.55 46.15 46.52 46.56 47.23 47.62 46.81 46.65 46.23 45.68 44.47 44.41 44.59 44.47 44.88 45.02 46.13 47.13 48.28
35.71 33.19 32.37 35.52 33.18 34.27 35.10 34.09 31.38 30.12 26.88 22.11 20.94 26.26 32.90 34.27 34.98 34.41 34.93 37.69 39.36 41.00 42.89 44.36 44.29 44.20 44.42 44.88 45.30 45.73 45.35 44.63 43.56 43.02 42.27 41.96 41.19 40.96 41.16 41.19 41.25 42.06 42.34 43.11
35.74 34.34 29.55 31.29 37.27 39.46 37.08 33.68 32.04 25.37 25.25 21.10 22.08 27.52 35.29 34.82 34.81 34.53 35.72 39.24 40.43 42.27 43.47 43.85 43.14 42.60 42.71 42.94 43.73 44.40 43.46 42.95 42.15 41.17 40.67 40.06 39.81 39.83 39.81 39.40 39.46 40.22 40.49 40.58
36.56 31.98 27.85 29.52 32.55 36.91 34.64 34.72 31.80 29.30 28.27 25.26 23.77 26.87 35.05 34.80 36.61 37.72 38.71 40.06 41.40 42.18 42.56 42.11 41.63 41.87 42.15 41.99 42.41 42.80 42.21 41.23 40.56 40.24 39.63 39.16 38.82 38.82 38.30 38.57 38.78 39.30 39.33 39.22
40.70 32.61 27.89 22.45 26.49 31.35 30.71 32.73 31.90 28.68 24.27 25.61 25.41 29.20 34.82 36.10 36.24 36.79 39.56 40.65 41.41 42.28 42.34 41.42 40.87 40.98 41.04 40.88 41.42 41.78 41.01 40.82 40.11 39.49 38.85 38.15 38.15 38.13 38.06 38.21 38.19 38.26 38.36 38.17
37.30 30.26 29.41 30.51 31.73 32.57 31.86 31.79 31.51 25.68 28.60 25.88 28.49 28.90 34.89 35.45 36.12 36.06 38.59 40.66 40.67 41.42 41.78 41.65 40.93 40.41 39.95 39.79 40.34 41.11 40.53 39.87 39.80 39.00 38.35 37.57 37.63 37.82 37.76 37.64 37.50 37.54 37.76 37.46
34.96 29.99 29.68 27.07 31.53 31.42 30.33 31.58 31.83 32.07 31.93 30.80 30.59 30.17 35.26 36.92 37.03 36.96 38.67 40.51 40.75 41.68 42.63 42.07 41.57 40.48 39.51 39.35 39.36 40.21 39.87 39.27 39.41 38.56 37.66 37.49 37.38 37.68 37.57 37.84 37.70 37.44 37.37 37.58
32.32 30.35 27.14 22.32 29.02 28.86 23.90 28.57 30.67 32.22 32.50 33.19 29.55 34.61 36.49 36.12 36.81 37.95 37.61 40.63 41.85 42.47 43.03 42.87 42.52 41.76 40.50 39.59 39.61 39.44 39.43 39.21 38.63 38.07 37.47 37.58 38.02 37.65 37.80 38.03 37.82 37.38 37.35 38.02
30.36 28.94 29.04 25.02 25.30 17.84 27.15 32.01 33.22 32.65 33.35 34.99 35.12 35.38 37.15 37.83 38.13 38.46 38.90 40.33 41.96 43.00 43.05 43.82 43.57 42.39 41.57 40.19 39.02 39.21 39.07 38.42 38.06 37.53 37.42 38.06 38.10 37.48 36.99 36.55 36.09 36.29 36.69 36.38
33.14 30.38 27.02 24.45 22.59 25.81 28.86 31.28 31.03 30.28 30.99 34.90 35.47 37.25 36.38 37.57 37.21 37.67 39.26 39.81 42.46 43.29 43.74 44.22 44.83 43.44 40.93 39.95 39.40 38.87 37.89 37.79 37.28 36.78 36.96 37.49 37.49 36.78 35.98 35.11 34.90 35.45 34.87 33.93
31.18 30.98 27.97 25.08 20.87 19.58 27.10 34.39 35.44 34.90 28.52 35.53 35.81 35.65 34.93 36.64 32.70 35.67 38.95 39.56 40.62 41.76 42.39 42.63 42.21 40.65 40.36 39.14 38.53 37.89 37.10 37.00 36.58 36.97 37.33 37.81 37.67 36.57 35.27 34.83 34.26 33.46 34.54 32.92
26.95 30.56 26.08 26.27 23.86 25.79 30.65 32.81 35.93 27.06 28.84 37.21 36.84 35.96 35.24 35.37 36.50 37.32 37.98 38.26 39.19 39.49 39.97 39.88 39.36 39.33 38.92 37.98 38.13 37.26 36.88 36.42 37.54 37.34 37.82 37.52 37.03 36.08 35.20 34.23 33.76 33.19 32.33 31.15
25.83 23.85 24.21 27.46 24.41 18.95 32.83 34.40 31.07 35.13 40.44 41.27 39.61 36.44 36.77 37.81 37.84 37.16 37.24 37.41 37.95 38.24 38.20 38.15 38.03 37.87 37.74 38.18 37.93 36.55 35.86 36.85 37.21 37.60 37.15 36.50 35.98 35.93 34.99 33.77 32.84 32.00 30.19 28.82
25.87 28.06 26.24 27.43 27.00 32.77 33.60 36.47 37.50 39.83 41.37 41.28 42.14 39.52 39.27 38.57 37.92 37.55 37.12 37.15 37.34 37.63 37.31 37.40 37.26 36.71 36.88 37.20 37.54 35.95 36.16 36.77 36.88 36.70 36.05 35.66 35.51 35.16 34.34 32.70 31.18 29.90 28.72 28.18
29.05 31.12 29.33 29.77 31.45 32.44 34.39 35.46 37.13 39.23 41.47 40.99 40.86 41.18 41.11 39.87 39.21 38.55 38.20 38.27 37.27 37.48 36.97 36.98 36.50 35.84 35.62 36.39 36.49 36.83 36.23 36.92 36.59 35.96 35.46 35.28 34.26 33.70 32.91 32.40 31.16 29.74 28.49 27.29
32.28 32.16 30.82 30.23 32.81 34.27 35.33 36.05 38.38 39.91 41.53 40.82 40.60 40.51 40.57 41.61 41.31 41.14 40.39 39.34 38.40 37.35 36.52 36.54 36.22 36.40 36.77 36.52 36.37 36.88 36.94 36.98 35.99 35.77 35.05 34.40 33.97 33.73 31.52 31.57 30.65 29.69 29.43 29.53
32.38 32.14 30.49 30.25 34.19 34.20 34.62 37.92 39.34 39.57 39.65 39.40 39.40 38.99 39.19 39.59 39.55 40.40 39.83 39.61 38.89 37.53 36.68 35.57 35.79 36.58 36.32 35.82 35.61 36.16 36.88 36.76 35.94 34.90 34.30 33.54 33.21 32.22 31.55 30.29 29.27 33.29 32.29 33.14

GFSCGP_sfc_wetblb_090.txt.gz
Wetbulb
36.65 35.52 32.41 36.78 37.59 36.87 39.45 37.94 37.23 41.37 45.45 44.30 43.39 43.76 46.51 48.97 50.20 50.69 51.66 52.95 54.22 55.81 58.68 58.83 57.68 56.33 65.35 67.14 68.06 68.45 68.30 68.55 68.85 67.91 66.69 67.02 67.62 68.59 68.83 69.48 69.95 70.15 70.08 69.52
33.36 32.01 37.69 39.96 38.30 37.71 37.67 37.22 37.62 40.64 44.16 43.87 43.24 42.74 46.44 48.50 48.89 50.27 51.01 51.86 53.34 55.01 57.31 57.59 57.41 55.36 59.38 65.06 66.92 67.65 67.74 68.06 67.94 68.45 67.67 67.64 67.84 67.88 69.29 69.44 68.68 69.47 69.37 69.52
31.18 35.41 39.20 38.07 36.99 34.22 37.22 36.88 38.14 38.10 41.91 43.22 42.55 40.03 42.80 46.88 48.97 50.28 51.73 53.04 53.75 55.12 55.70 56.65 56.59 55.58 55.22 55.96 63.03 64.82 65.96 66.19 67.36 67.57 66.74 66.70 66.74 65.71 66.22 67.30 67.64 67.86 67.73 67.58
32.93 37.85 37.06 36.91 34.83 35.05 33.67 40.71 40.39 39.54 37.92 32.81 41.91 32.22 40.98 44.67 45.69 47.90 49.95 51.95 53.39 55.18 56.68 57.07 55.98 54.64 54.52 54.54 56.01 58.97 63.49 65.76 66.16 67.07 66.02 65.48 65.20 64.73 65.77 67.05 68.17 68.47 67.02 66.32
31.30 35.79 36.04 34.63 35.62 36.69 35.79 41.20 39.88 39.95 37.97 37.33 37.15 34.64 39.78 42.32 43.14 46.05 48.82 50.98 52.63 54.49 55.15 55.74 54.54 55.14 54.34 54.71 53.95 55.62 57.97 63.44 65.42 66.53 66.27 66.52 65.88 66.84 67.22 66.23 65.95 67.01 67.60 67.94
34.08 38.93 38.62 38.23 38.68 38.75 37.81 38.54 39.31 39.56 37.53 29.69 36.17 35.68 36.61 39.18 42.18 45.74 49.00 50.74 51.80 52.90 54.02 55.32 55.91 53.70 53.05 54.40 54.11 53.23 53.87 54.53 55.83 60.70 64.04 65.52 65.56 65.53 64.69 64.93 64.92 66.37 67.06 67.23
32.76 34.13 39.25 40.27 35.27 36.88 34.35 35.02 28.98 27.53 28.43 27.97 35.25 34.61 38.07 42.51 43.70 45.67 47.42 49.82 52.01 53.05 53.40 54.04 54.70 52.37 52.32 52.32 53.16 52.97 53.35 51.80 53.09 53.20 52.62 54.29 58.45 60.15 60.91 61.50 61.44 61.74 61.86 62.46
27.91 25.38 35.74 38.55 36.09 33.66 33.44 34.45 30.47 22.42 24.89 28.77 34.01 30.89 36.15 44.39 46.66 47.83 47.04 47.55 48.51 51.81 53.23 53.72 54.27 54.26 52.28 51.48 52.56 52.36 53.24 53.09 53.20 53.21 53.56 53.72 53.34 52.86 53.00 53.66 54.37 56.19 57.53 59.17
29.99 28.97 38.27 38.19 36.79 37.22 35.35 33.45 36.57 31.33 30.74 29.46 32.87 36.10 41.10 43.40 43.70 44.08 45.03 46.23 46.95 48.31 49.95 52.04 53.70 53.03 52.93 52.69 52.80 52.82 53.03 53.25 53.50 53.74 53.83 53.72 53.95 53.85 53.68 54.05 55.54 55.79 55.81 56.04
34.87 28.88 35.49 37.33 38.75 36.71 34.16 38.73 32.61 34.09 25.42 24.54 29.48 31.90 34.89 39.06 41.18 42.25 43.29 45.09 47.29 47.76 48.17 48.96 50.97 51.91 52.30 52.05 51.64 52.56 52.84 52.70 52.66 52.79 52.82 52.08 51.80 51.62 51.46 52.60 52.09 52.24 52.80 53.04
35.03 34.01 32.76 36.02 33.89 33.68 34.75 35.20 35.16 35.77 33.02 29.13 26.51 31.87 39.66 39.21 41.20 41.26 42.45 43.39 44.87 46.63 47.45 48.46 50.00 51.10 51.35 50.81 50.66 50.81 51.15 51.12 50.74 50.61 50.38 50.13 49.20 48.79 49.20 49.21 48.94 48.87 49.44 49.80
36.19 34.55 29.64 33.15 38.31 40.61 37.49 37.29 36.63 33.14 28.63 29.23 31.23 32.72 39.84 41.47 41.88 42.54 44.22 44.55 45.59 46.29 47.68 48.82 49.26 49.59 49.76 49.93 49.91 49.20 48.78 48.84 48.60 48.08 48.34 47.57 47.60 47.86 48.01 47.15 46.34 47.05 47.00 46.99
38.77 34.85 29.28 30.87 34.69 37.39 34.21 36.81 36.37 35.39 34.94 30.37 30.92 33.20 40.60 40.35 41.41 43.76 44.25 45.63 45.47 46.43 47.58 48.28 48.60 49.06 49.42 49.55 49.65 49.19 48.56 47.52 46.32 46.22 46.61 46.13 45.74 46.22 45.83 45.69 45.38 45.44 45.67 45.67
41.96 35.42 31.31 29.26 31.63 35.59 32.67 36.10 36.84 35.16 32.69 31.88 33.28 35.01 39.24 40.10 41.86 43.46 43.74 45.73 46.33 46.99 47.34 47.99 48.33 48.65 48.93 48.71 48.70 48.28 47.85 47.29 46.08 45.55 45.29 44.86 44.68 44.95 44.53 44.34 44.12 44.05 44.42 44.54
39.25 33.27 33.37 34.23 34.97 35.46 34.82 35.15 34.79 32.98 35.27 33.22 35.00 34.12 39.92 42.84 42.71 43.68 43.90 45.09 45.73 46.14 46.95 47.39 47.93 48.23 48.17 47.54 47.72 47.76 47.06 46.31 45.99 44.72 44.17 43.29 42.91 42.76 42.73 42.53 42.56 42.74 43.11 42.82
38.92 33.03 33.38 30.86 34.60 34.94 33.35 35.29 36.21 36.12 36.63 35.54 34.73 34.65 41.02 43.24 44.71 43.24 44.54 44.57 44.85 45.99 46.86 47.78 47.86 48.25 47.89 47.77 47.27 46.96 46.32 45.49 45.15 44.39 43.28 42.73 42.30 41.99 42.01 42.18 41.68 41.65 41.68 41.87
35.39 34.86 32.60 29.03 32.26 32.48 29.49 32.87 34.95 35.56 36.73 37.17 33.04 38.56 41.93 40.96 41.10 42.91 44.93 44.39 45.60 46.53 47.62 47.61 48.07 48.19 48.30 47.90 47.56 46.27 46.12 45.45 44.35 43.84 42.87 42.00 42.04 41.71 41.79 41.71 41.42 40.83 40.87 41.30
34.52 33.46 33.41 29.82 30.73 22.90 31.76 37.10 36.89 35.88 36.91 38.85 39.02 39.89 41.95 42.61 44.46 44.85 45.32 44.92 46.30 47.79 48.10 49.04 49.51 49.43 49.06 48.40 46.77 46.78 45.86 44.39 43.68 43.08 42.45 42.33 42.15 41.64 41.02 40.35 39.46 38.77 38.85 38.85
37.49 35.47 31.40 28.75 28.18 30.76 33.72 36.03 35.49 34.47 34.79 39.23 39.10 40.80 41.99 42.99 43.11 43.61 45.41 44.95 46.03 48.82 50.23 50.68 51.30 50.75 49.79 47.97 46.82 45.13 44.00 43.52 42.85 42.35 41.86 41.79 41.86 40.87 40.09 38.53 37.86 37.51 36.74 35.81
35.69 36.82 34.13 30.64 25.15 23.07 33.50 38.11 39.93 39.28 33.71 40.76 40.66 40.80 40.46 40.48 36.94 41.64 43.32 44.21 43.96 46.52 49.03 49.66 50.24 49.57 48.70 47.88 46.50 44.34 43.19 42.59 41.81 42.15 42.08 42.18 41.27 39.99 39.27 38.36 36.64 34.92 36.36 34.88
32.80 33.92 31.14 30.22 28.01 30.79 36.63 38.58 40.05 31.35 34.47 41.87 42.14 40.91 39.59 39.45 41.83 41.95 42.70 42.90 43.55 44.12 44.12 45.28 46.50 46.89 47.16 46.19 44.49 43.33 43.02 41.59 42.19 41.97 41.52 41.02 40.35 39.36 38.51 36.41 35.26 34.68 34.38 33.63
31.47 30.12 30.07 31.22 27.53 24.09 37.82 39.18 34.96 39.89 42.96 43.82 43.27 40.88 40.92 42.19 42.09 41.68 41.42 41.66 42.20 42.48 42.67 43.06 43.96 43.66 43.56 43.80 43.35 42.36 41.20 41.95 41.58 41.28 40.40 40.07 39.63 38.46 36.67 35.02 34.33 33.96 32.65 31.70
31.21 34.86 33.72 33.80 33.52 38.65 39.66 41.55 43.20 43.07 43.29 44.51 44.57 42.39 42.65 42.40 42.22 42.00 42.03 41.95 41.76 41.90 42.03 42.31 42.76 41.97 42.05 42.30 42.40 40.61 41.76 40.97 40.54 40.03 39.66 39.27 38.30 37.00 36.01 34.41 33.17 31.59 31.25 30.40
36.44 36.82 35.68 34.67 37.38 38.85 40.59 41.85 41.88 43.75 44.80 44.21 45.33 45.13 44.49 43.34 43.30 42.96 43.14 42.84 42.54 42.36 42.04 41.66 41.55 40.89 40.64 41.27 41.53 42.78 41.18 40.61 40.09 39.50 39.06 38.13 36.28 35.52 34.90 34.08 33.03 31.75 30.28 30.02
37.90 37.25 35.85 36.50 38.80 41.01 40.99 41.75 42.67 44.16 44.01 43.88 44.44 44.36 44.44 45.02 43.67 43.94 42.73 42.00 41.26 40.70 40.36 40.30 41.52 41.65 41.37 40.93 40.34 39.99 40.98 40.65 39.48 39.38 38.30 36.67 35.74 35.79 33.73 33.18 32.52 32.23 32.43 32.80
38.67 37.19 36.56 35.54 39.05 39.13 40.45 42.54 43.04 43.15 43.21 43.25 43.22 42.20 42.33 43.53 42.83 43.60 42.76 42.70 42.43 41.86 40.76 40.04 39.10 40.21 40.67 39.28 38.89 38.91 39.27 39.62 39.77 38.34 37.28 36.19 35.00 34.71 33.10 32.13 31.27 35.42 35.41 35.28

GFSCGP_sfc_wetblb_093.txt.gz
Wetbulb
37.54 34.24 32.75 35.87 37.15 39.27 37.73 37.70 37.48 40.38 45.60 44.04 43.58 43.71 46.90 49.86 50.93 51.00 51.82 52.95 54.04 55.67 58.56 59.74 59.55 64.27 65.99 67.05 67.54 68.08 68.48 69.49 69.12 69.00 68.94 68.23 67.32 68.63 69.26 70.19 70.25 70.13 69.59 69.29
33.99 31.18 37.63 39.38 39.55 37.68 36.24 36.73 37.43 40.86 45.50 44.10 43.15 42.96 46.82 48.75 49.59 51.03 51.38 52.12 53.17 54.78 56.76 58.75 58.87 60.28 65.28 66.14 67.03 67.52 67.46 68.37 69.43 69.06 69.00 69.09 68.91 69.56 69.85 69.95 69.61 69.98 69.85 69.71
31.30 35.24 39.80 38.14 36.91 34.71 35.68 36.68 37.88 38.10 42.47 44.43 42.12 40.63 43.59 47.61 49.56 50.90 51.68 52.72 53.43 53.68 55.32 57.25 57.87 57.89 63.72 65.21 66.17 66.68 66.59 67.47 68.39 68.86 68.34 67.75 67.78 67.43 67.60 68.49 68.93 68.68 68.16 69.09
34.11 37.65 37.70 36.91 35.05 36.00 33.71 41.52 40.41 39.49 38.07 32.96 42.14 32.57 40.73 44.27 45.81 48.08 50.16 51.21 52.38 53.89 55.75 57.95 57.59 57.41 57.48 58.19 62.51 66.39 66.73 65.94 66.94 67.49 67.06 65.99 65.33 64.81 66.20 67.42 68.37 68.47 68.09 67.38
32.96 34.92 35.88 35.23 36.28 38.09 35.83 40.42 39.89 40.08 37.46 36.97 37.60 34.24 39.34 43.83 42.80 45.94 48.76 50.38 52.09 54.09 55.95 56.94 57.66 57.59 57.53 57.70 57.47 59.85 62.82 65.50 66.42 66.93 66.77 65.66 64.82 66.98 66.34 66.47 65.91 66.94 68.36 66.76
35.03 39.51 39.29 37.83 39.75 39.40 38.32 39.27 38.71 39.51 37.21 30.22 36.56 35.42 36.24 40.63 43.26 46.33 48.69 50.24 51.77 53.46 55.92 57.61 57.01 57.26 56.80 57.85 57.06 57.48 58.02 60.21 63.14 65.55 65.07 65.18 63.92 64.06 64.85 64.25 64.42 66.30 67.14 67.60
34.01 35.50 39.34 40.58 34.72 36.77 35.57 35.58 29.64 27.10 27.42 27.58 37.60 35.17 38.62 43.28 45.02 46.98 48.38 50.13 51.91 53.53 54.82 55.85 56.72 55.26 55.41 55.74 55.98 54.59 55.63 54.93 56.16 59.99 61.78 64.45 65.30 65.78 64.94 64.39 64.40 64.15 65.06 64.62
29.45 26.67 35.72 39.53 36.69 34.48 33.76 34.44 30.13 23.48 25.34 29.18 35.85 31.49 37.74 44.84 46.86 47.60 48.55 49.90 51.95 52.82 53.88 54.59 55.85 56.85 55.47 54.86 52.75 53.00 52.75 52.72 54.40 54.39 55.86 55.30 55.10 54.75 56.41 56.16 55.55 57.79 58.61 59.95
30.36 29.73 38.28 38.20 38.26 37.98 34.42 31.98 38.45 32.91 34.85 31.24 33.33 36.83 41.88 44.23 44.46 45.69 46.91 47.87 48.55 50.55 52.70 54.08 55.11 55.90 56.30 53.62 53.78 53.38 53.87 54.13 54.23 54.62 54.99 54.49 54.72 54.68 54.30 54.69 55.79 56.20 56.49 57.03
35.04 28.53 36.14 37.06 38.52 37.50 34.33 36.58 32.01 34.88 25.40 24.42 30.97 33.03 34.85 39.27 42.25 44.65 45.44 46.81 48.39 49.98 50.44 51.54 53.76 55.32 55.49 55.12 54.41 54.43 53.06 53.92 54.49 54.52 54.56 54.12 53.90 53.47 54.14 54.57 54.01 54.21 54.64 54.94
35.94 33.81 32.26 35.09 33.52 33.01 33.93 34.18 36.54 36.72 34.33 28.82 26.66 31.85 41.50 40.90 42.37 42.92 44.19 45.52 47.19 49.12 49.76 50.53 51.22 53.54 54.44 54.23 53.76 53.51 53.39 52.63 52.16 52.28 52.18 51.85 51.29 51.30 51.59 51.24 50.95 51.00 51.36 51.62
36.66 34.93 30.24 33.20 38.62 40.68 38.72 36.40 37.85 32.71 30.71 33.07 32.33 32.34 43.04 43.14 43.65 44.67 45.69 46.52 47.67 48.42 49.61 50.32 51.14 52.11 52.37 51.88 52.26 52.22 51.96 51.33 50.97 50.53 51.09 50.09 49.73 50.21 49.96 49.00 48.54 48.86 48.97 49.15
38.43 34.94 29.40 30.42 34.98 37.83 34.61 37.25 38.96 37.39 37.04 32.90 30.61 32.41 42.85 43.11 43.52 45.15 45.18 47.16 47.77 48.35 49.08 49.90 50.47 50.49 50.70 51.21 51.42 51.23 51.21 50.22 49.69 49.56 49.36 48.86 48.71 48.82 48.40 47.86 47.34 47.39 47.35 47.34
41.83 36.17 31.89 29.63 32.41 36.49 32.83 36.05 38.42 35.21 34.24 33.70 34.43 35.75 39.31 41.00 42.40 44.73 45.38 46.86 47.98 48.41 48.59 49.30 49.60 50.25 50.92 51.22 51.13 50.73 50.31 49.68 48.73 48.75 48.32 47.39 47.14 47.05 46.86 46.23 46.00 45.76 46.04 46.05
39.32 34.15 35.19 35.75 37.08 37.12 36.20 36.62 36.92 33.79 36.40 34.99 35.90 36.33 40.53 43.05 43.74 44.50 46.07 46.30 47.07 47.77 48.17 48.76 49.30 49.97 50.35 50.24 50.40 50.44 49.51 48.92 48.49 47.52 47.01 46.11 45.59 45.16 44.99 44.47 44.34 44.45 44.56 44.47
40.62 34.00 35.14 33.04 36.46 36.36 34.38 36.85 37.71 36.99 37.33 37.12 37.21 36.60 43.74 45.05 45.45 44.97 45.58 45.52 45.68 47.22 48.27 49.01 49.58 50.02 49.83 49.88 49.86 49.48 48.54 48.02 47.92 46.94 46.09 45.28 44.55 44.07 43.95 43.72 43.43 43.20 43.12 43.35
37.45 36.26 33.98 30.37 34.24 34.39 30.75 35.41 36.67 37.38 38.72 38.39 34.04 39.06 43.43 42.87 43.53 44.00 45.15 45.61 45.91 47.34 48.61 49.13 49.70 50.06 50.30 50.33 50.21 48.75 48.29 47.87 46.91 46.29 45.54 44.66 44.50 43.91 43.72 43.43 42.81 42.09 42.18 42.43
37.07 35.81 35.07 31.34 32.08 24.54 33.92 38.97 39.07 37.92 38.67 39.85 39.55 40.88 42.39 42.92 45.05 45.98 46.76 45.93 46.44 47.91 48.97 49.98 50.46 50.69 51.25 51.21 50.03 49.64 48.59 46.91 46.15 45.56 44.81 44.56 44.21 43.68 43.35 42.69 41.98 41.02 41.02 40.52
40.25 37.45 33.28 30.04 29.62 31.72 34.66 37.24 36.86 36.06 36.20 40.88 40.08 41.83 42.91 43.98 44.43 43.50 46.77 46.87 46.35 47.78 50.63 51.17 52.12 52.19 51.97 50.77 49.85 48.70 47.25 46.28 45.40 45.01 44.33 44.30 44.19 43.37 42.49 41.20 39.98 39.65 38.36 37.05
38.46 39.38 35.05 32.13 26.68 24.12 34.63 38.81 41.70 41.04 33.34 42.45 42.65 42.08 41.88 42.34 37.87 41.40 44.70 45.38 45.82 46.90 50.65 51.60 52.46 52.53 51.91 50.98 49.68 47.57 46.23 45.48 44.43 44.65 44.52 44.42 43.79 42.97 41.55 40.88 39.16 36.42 37.79 35.77
33.69 34.64 31.68 31.88 29.83 32.20 38.16 40.49 41.84 31.61 34.96 43.75 44.02 42.71 41.75 40.77 42.34 43.88 44.83 44.62 45.48 46.00 46.21 47.49 50.39 50.60 50.89 50.90 48.87 46.36 46.22 45.10 45.61 45.01 44.31 43.60 42.89 41.91 41.52 39.85 37.66 36.11 35.53 34.72
32.20 31.20 31.02 32.39 28.79 25.88 40.51 40.54 36.03 40.83 44.73 45.29 45.40 43.14 42.59 44.00 44.23 43.98 43.99 43.97 44.59 44.60 44.88 45.65 46.34 46.34 46.98 47.35 46.41 45.48 44.64 45.09 44.35 43.68 42.51 41.95 41.60 40.84 39.40 37.43 36.24 35.34 34.08 33.10
32.07 36.07 33.19 34.21 33.79 40.02 41.40 41.19 43.98 44.76 43.79 45.64 45.99 44.30 44.18 43.93 44.02 44.20 44.11 44.19 43.84 44.16 43.96 44.86 45.26 44.45 44.64 45.10 45.64 44.64 44.45 43.59 42.57 41.94 41.35 41.02 40.67 39.53 38.28 36.54 34.76 33.34 32.82 31.72
38.41 39.81 36.43 36.03 39.15 40.64 42.21 43.73 43.98 44.01 45.58 45.41 46.46 46.06 45.96 44.39 44.95 44.70 45.14 44.51 44.38 44.09 43.77 43.89 43.61 43.30 42.84 43.60 43.73 45.07 44.33 43.38 42.25 41.24 41.06 40.65 39.15 37.68 36.94 35.64 34.44 33.01 31.62 30.71
39.00 38.96 37.79 37.79 40.30 41.91 42.92 43.92 43.99 45.27 45.85 45.25 45.97 45.89 46.32 44.50 43.09 45.25 43.42 43.65 42.87 41.80 42.74 42.84 43.03 43.42 43.46 43.08 42.70 43.03 42.30 42.05 40.81 41.25 40.97 39.54 38.29 37.13 35.74 34.59 33.92 33.44 33.34 32.81
40.80 38.15 36.39 34.60 39.73 39.81 41.35 43.24 44.82 44.48 44.57 45.15 44.65 43.65 44.15 45.06 44.21 44.94 43.90 44.14 43.92 43.27 42.89 42.35 41.89 41.47 41.87 41.26 40.64 40.44 40.51 40.40 39.75 39.03 39.65 38.67 36.95 36.72 35.12 33.54 32.89 36.84 35.85 36.46

GFSCGP_sfc_wetblb_096.txt.gz
Wetbulb
37.07 32.80 30.40 33.19 35.06 37.50 36.21 34.92 34.43 38.28 42.71 40.78 40.52 41.34 44.27 46.96 48.32 46.99 47.98 49.19 49.70 51.51 54.00 56.11 57.63 62.20 64.16 64.58 65.64 66.89 67.20 67.51 68.27 67.99 66.11 65.64 65.07 66.62 67.48 67.52 67.36 67.37 67.37 66.57
32.19 27.48 34.44 37.62 36.61 37.18 35.33 35.52 34.58 39.42 42.60 41.32 40.89 40.70 44.56 45.31 46.56 46.74 48.16 48.33 48.97 49.92 52.50 53.81 56.12 59.63 62.48 63.13 64.08 65.89 66.93 67.18 67.67 67.43 67.67 66.39 65.74 65.76 65.74 66.86 67.19 67.74 67.74 67.46
29.93 33.24 37.87 36.63 35.36 34.50 34.08 33.38 35.78 35.42 40.72 42.51 40.22 38.10 41.73 45.02 46.28 47.05 48.86 49.04 49.48 49.69 50.38 52.24 53.92 56.07 61.07 62.17 63.37 64.66 65.84 66.62 67.53 67.55 66.43 65.66 65.39 65.28 65.00 65.76 65.91 66.63 67.12 66.81
31.71 36.68 36.06 35.93 35.18 36.35 31.39 38.17 36.67 38.15 35.97 32.34 39.98 28.47 37.99 41.40 43.85 45.59 45.41 46.39 46.44 48.18 50.12 52.14 53.62 54.32 59.28 61.84 63.28 63.87 63.69 64.95 66.36 66.42 65.40 63.54 62.94 61.98 62.98 64.11 65.31 65.84 66.17 65.80
30.74 34.16 34.53 34.41 36.01 37.74 34.25 38.67 38.60 38.13 36.02 35.02 35.50 31.10 34.94 41.97 40.17 43.07 45.36 46.21 47.46 48.28 49.43 51.31 52.52 54.01 53.84 54.97 56.20 61.42 63.67 63.77 64.81 64.82 64.21 63.52 62.80 62.57 62.56 63.55 64.32 64.84 65.76 65.77
33.22 39.26 39.09 37.58 39.25 38.80 39.02 38.24 38.57 37.77 35.34 27.64 32.99 31.46 30.73 35.82 40.27 41.90 45.53 46.76 47.97 48.14 49.59 52.12 54.07 54.38 52.89 52.92 53.07 53.41 59.39 61.98 63.41 63.66 62.38 61.08 61.65 61.38 62.16 62.32 62.32 63.56 64.74 65.24
34.95 35.72 39.27 39.96 35.01 37.47 36.07 34.22 27.87 26.57 26.26 26.28 34.80 31.48 32.58 39.69 43.46 44.16 45.17 46.11 47.79 47.79 49.56 51.20 52.25 51.55 51.60 51.69 52.43 53.15 53.53 54.22 58.71 61.16 62.43 62.08 60.29 60.74 60.12 61.24 60.95 59.93 59.59 60.65
27.28 23.75 34.97 38.64 36.53 33.55 33.40 33.52 28.03 18.86 20.07 23.84 34.30 29.61 32.48 40.17 42.84 44.11 44.68 45.27 47.29 47.76 49.11 50.96 51.66 51.17 51.03 51.90 51.54 50.87 51.67 50.69 52.91 54.03 55.41 56.46 59.08 58.26 57.02 57.25 57.60 58.44 59.00 58.71
28.64 28.27 37.53 38.74 39.02 37.73 33.47 31.13 35.71 29.95 30.00 25.37 28.33 30.06 36.34 40.30 40.68 41.33 41.58 44.47 43.53 44.73 47.94 50.11 50.98 51.39 51.06 50.34 49.93 49.63 50.02 50.86 51.28 51.79 50.82 51.30 51.53 51.33 51.60 52.03 53.25 53.31 53.95 54.59
33.19 27.10 35.34 36.70 38.45 37.49 34.58 35.64 30.68 31.58 23.23 23.53 26.16 26.72 31.18 36.20 37.60 40.62 40.25 41.39 42.24 43.66 44.80 46.42 49.20 50.31 51.47 49.98 50.06 50.34 50.42 50.27 51.71 52.18 51.18 51.72 51.16 51.48 51.67 51.42 51.25 51.15 51.81 52.56
36.09 32.65 32.00 35.14 32.50 30.95 32.01 30.67 34.28 34.20 30.52 22.74 20.91 25.33 35.43 36.45 39.77 39.81 40.51 42.03 43.58 44.15 45.73 45.90 46.80 48.84 49.87 49.38 49.25 48.84 49.47 50.04 50.35 50.90 50.99 49.91 49.50 48.68 48.05 47.56 47.17 47.18 47.31 48.01
36.62 34.67 27.38 29.80 36.93 39.33 37.22 33.44 34.70 29.85 28.58 29.55 28.65 25.73 39.06 39.39 40.94 41.98 42.77 43.76 42.85 44.85 45.37 45.82 45.72 47.36 47.68 47.82 48.31 48.01 48.16 47.88 47.66 48.15 48.66 48.35 47.97 47.80 46.15 45.32 45.01 45.96 45.46 45.75
37.43 33.67 28.13 29.39 34.07 37.41 32.77 35.70 37.31 36.50 33.49 30.12 28.32 26.85 39.96 38.73 39.88 41.12 41.04 42.84 44.04 44.28 44.59 45.26 45.60 46.25 46.43 46.84 47.18 47.12 46.91 45.89 45.98 45.96 45.65 45.91 46.51 46.05 45.28 44.68 45.04 45.26 45.06 44.79
41.29 35.38 31.15 28.01 30.53 33.46 29.25 33.83 36.90 33.88 30.00 30.38 31.14 30.84 35.44 37.75 39.10 40.76 41.14 42.81 43.76 44.46 45.37 44.76 44.58 45.11 45.74 46.61 46.56 46.30 45.37 45.19 45.16 44.95 44.28 43.64 43.59 43.80 42.68 42.62 42.88 42.65 43.03 42.75
38.77 32.95 33.89 34.79 36.18 36.03 34.15 34.20 35.66 31.62 34.19 29.61 33.21 33.85 37.26 37.92 37.31 39.50 41.07 42.92 44.27 44.52 44.72 44.75 44.54 44.52 45.20 45.66 45.92 45.73 44.99 44.52 44.52 43.91 43.08 42.20 41.83 41.85 41.65 41.58 41.48 41.59 41.62 41.62
38.30 33.07 34.18 29.52 36.13 35.58 32.64 36.73 36.52 35.91 35.88 34.84 34.65 33.42 39.16 40.28 41.21 40.57 39.36 42.80 43.16 44.57 45.30 45.56 45.99 45.33 44.68 44.83 45.15 45.30 44.42 44.14 44.31 43.30 42.11 42.05 41.36 41.19 40.81 40.71 40.34 40.30 40.22 40.58
36.29 35.31 30.81 28.93 32.62 32.83 28.62 33.73 35.23 35.61 36.43 36.30 32.19 36.30 39.22 39.32 40.97 40.21 40.82 41.97 42.90 44.02 45.29 45.79 45.52 45.38 45.47 45.40 45.60 44.12 43.81 43.90 43.30 42.67 42.09 41.84 41.63 41.18 40.70 40.57 39.94 39.34 38.90 39.23
33.70 33.82 31.73 25.52 26.62 19.95 30.00 36.10 37.22 36.74 37.76 37.82 37.78 38.42 39.42 39.71 40.77 41.10 41.98 41.28 41.64 44.24 45.58 46.34 46.16 46.12 46.18 46.26 45.50 45.02 44.18 42.88 42.87 41.99 41.56 41.87 41.62 41.05 40.67 40.00 38.94 37.65 37.83 38.97
37.11 33.72 29.39 25.94 24.78 27.89 31.31 34.36 34.04 33.02 34.01 39.24 37.67 39.53 40.49 40.83 40.08 39.50 43.00 42.53 41.54 42.24 45.07 47.00 47.16 46.85 46.73 45.86 45.28 44.31 42.91 42.29 42.29 41.59 41.14 41.66 41.56 40.56 39.81 37.75 37.55 39.01 37.84 36.07
36.62 35.84 30.67 27.13 23.39 21.23 30.67 35.86 39.41 38.03 29.65 40.18 40.87 39.61 38.11 38.65 32.75 35.64 41.19 41.90 42.32 43.34 44.30 45.73 47.32 47.83 46.82 45.53 44.77 43.30 41.99 41.30 41.07 41.79 41.55 41.59 41.30 40.24 38.57 37.50 38.21 35.54 37.23 35.13
30.28 30.46 26.51 27.64 24.84 27.89 35.12 37.71 38.88 26.38 32.62 41.55 41.14 38.72 38.56 36.69 37.56 39.67 41.32 41.59 42.24 42.28 42.34 44.38 46.07 46.29 46.48 45.84 44.22 42.43 41.94 40.81 42.00 42.58 41.77 41.03 40.50 39.31 38.03 36.61 36.70 35.58 35.14 34.86
29.35 26.81 27.04 28.63 24.73 21.69 38.44 37.33 33.71 38.66 41.45 42.49 41.67 38.92 39.37 40.98 41.42 41.42 41.67 41.51 41.89 41.05 42.12 43.55 42.53 42.02 42.79 43.59 43.22 41.70 40.77 41.51 41.60 41.16 40.60 39.65 38.76 39.11 38.15 37.16 35.62 35.31 34.55 33.70
28.92 31.35 29.27 30.48 30.61 36.72 37.36 36.91 39.11 40.58 39.47 41.70 42.38 41.06 41.48 41.66 41.07 41.51 40.86 40.78 40.74 40.69 40.61 41.49 41.15 40.70 40.96 41.93 42.17 40.73 40.38 40.92 40.49 39.58 38.78 38.23 38.49 38.40 38.05 36.49 35.21 33.91 33.64 32.82
34.25 36.01 31.44 32.76 35.72 36.66 38.91 40.21 40.27 40.16 41.63 42.53 43.48 42.97 43.17 41.49 42.02 41.89 42.04 41.21 40.66 40.43 39.69 40.58 40.36 39.70 38.92 40.10 41.00 41.51 41.24 40.80 39.78 38.48 38.05 37.82 36.78 37.55 36.86 35.62 35.06 33.62 32.59 31.88
34.42 35.45 34.17 33.55 37.08 37.20 38.92 39.51 41.09 42.26 43.33 43.08 43.50 43.12 43.71 42.83 42.39 43.13 42.26 42.21 40.55 40.37 39.87 39.54 38.93 38.86 38.84 39.18 39.14 39.19 40.06 40.18 38.67 38.54 39.26 38.46 37.92 37.36 35.56 34.93 34.19 33.67 33.82 33.42
36.97 33.98 31.73 34.09 36.55 35.08 35.96 38.96 41.97 41.27 41.60 42.44 41.93 40.99 41.94 42.65 41.85 41.97 40.51 40.43 40.32 39.61 40.22 39.54 39.03 38.73 39.17 38.78 38.52 39.36 40.05 40.09 39.29 38.65 38.28 37.58 36.40 36.10 35.17 33.81 33.15 37.09 36.57 36.83

GFSCGP_sfc_wetblb_099.txt.gz
Wetbulb
35.00 30.16 25.56 33.29 33.73 34.26 35.06 33.43 32.73 35.57 41.75 41.63 41.00 41.27 43.07 47.18 48.26 47.76 48.47 50.52 47.28 50.68 53.10 54.73 58.99 61.54 64.30 65.51 65.45 66.46 66.46 66.70 66.93 66.43 65.41 65.10 65.78 66.63 66.79 66.85 66.98 66.64 66.27 64.60
28.75 26.08 32.70 36.88 36.15 34.36 34.65 33.36 32.49 36.70 40.87 39.79 39.33 39.67 43.64 44.73 45.43 47.69 47.93 48.29 47.02 47.69 49.83 52.54 57.14 60.35 62.59 63.14 65.31 64.74 66.04 66.78 67.19 67.36 66.06 65.65 64.68 64.90 65.85 67.05 66.87 67.05 66.57 65.63
26.10 31.54 35.96 35.19 34.47 32.15 33.39 33.73 32.99 33.73 38.84 39.88 38.26 36.98 40.38 44.68 44.66 46.44 47.55 47.99 47.73 48.31 49.04 52.55 54.58 58.42 60.67 61.26 62.40 65.16 66.01 66.35 66.40 66.60 64.99 64.51 64.23 64.19 64.62 64.43 65.47 65.22 66.19 66.39
29.39 35.63 34.14 34.34 33.42 34.84 31.97 37.77 36.37 37.39 35.26 30.64 38.82 28.28 36.92 40.97 42.60 44.25 44.17 44.88 46.34 46.73 48.70 51.98 54.91 56.44 59.33 60.66 62.07 63.91 64.77 65.48 66.25 65.34 65.18 63.30 62.47 61.84 63.55 64.53 64.96 65.25 65.40 65.69
28.90 32.07 32.88 34.30 35.14 36.88 34.43 38.52 38.07 36.83 34.13 32.43 34.94 31.89 34.05 40.09 39.52 41.47 44.06 43.89 45.31 45.90 47.08 49.33 51.50 56.98 59.22 60.39 60.03 61.23 62.39 64.17 64.95 64.97 63.61 62.24 61.43 61.03 62.26 62.50 63.25 63.97 64.49 65.14
32.23 37.21 37.88 37.05 38.78 39.06 38.88 38.36 38.14 37.28 35.38 25.14 32.34 31.20 28.65 36.30 39.83 39.21 41.54 43.81 45.76 46.72 47.32 49.00 52.75 53.79 53.11 53.73 53.88 57.35 60.41 61.85 62.80 62.65 61.68 60.65 58.69 59.19 60.08 60.87 61.39 61.94 63.52 64.01
33.22 34.90 39.31 39.83 34.74 37.22 35.91 33.77 27.48 25.93 26.46 22.35 33.96 30.57 31.62 37.19 41.78 42.83 42.76 43.02 44.84 46.08 47.54 48.45 50.10 49.41 49.87 50.58 51.54 53.64 56.82 58.42 59.93 59.12 58.31 58.60 58.58 58.66 59.35 60.15 60.18 59.02 58.93 59.50
20.11 25.02 35.17 38.62 35.43 31.20 33.57 32.79 24.56 21.49 22.17 21.98 33.24 27.16 31.70 38.52 39.62 44.17 43.66 43.89 45.53 45.86 45.43 48.64 50.62 50.24 50.33 49.89 50.17 51.30 53.05 53.41 56.49 58.53 58.46 58.42 58.48 58.05 57.79 57.92 57.05 57.45 57.73 58.29
23.72 27.81 38.27 38.16 38.79 37.25 33.76 30.14 35.72 29.79 28.40 22.46 27.36 29.64 34.64 37.50 38.52 40.10 41.06 42.06 42.60 44.57 45.58 48.23 49.86 50.75 49.36 49.56 50.08 49.10 49.98 50.30 51.86 52.41 50.23 50.82 51.82 52.50 51.36 51.60 52.54 53.04 54.02 54.56
31.15 27.05 34.62 36.84 38.18 36.48 34.88 35.79 29.85 29.19 21.62 20.84 22.39 23.90 27.08 32.14 35.72 39.52 40.24 41.39 42.35 43.44 45.30 47.42 50.75 50.12 49.42 49.81 48.80 48.44 48.80 48.73 49.35 49.80 49.84 49.99 49.97 50.41 50.55 51.18 51.05 51.31 51.96 52.33
34.19 29.65 31.07 33.71 31.92 28.96 30.12 28.75 33.34 33.38 27.24 22.10 18.53 23.02 33.99 33.64 36.11 36.77 37.56 40.87 42.39 42.81 43.84 44.63 46.22 47.81 48.53 47.80 47.36 47.11 48.05 48.41 48.62 48.64 48.48 48.63 49.69 49.00 48.64 47.86 47.98 48.28 47.69 48.65
35.15 32.54 25.69 28.27 36.97 37.60 33.83 31.61 35.25 25.03 26.35 24.47 20.69 23.85 37.03 37.24 38.47 40.12 40.53 42.20 42.25 43.85 43.53 43.75 45.62 46.29 46.73 46.46 46.39 46.90 47.35 47.75 47.66 47.44 47.39 47.39 48.34 48.26 46.98 46.54 45.99 46.14 44.97 45.32
35.86 33.13 24.68 27.75 33.86 36.76 33.98 35.00 36.76 35.79 30.95 25.79 25.10 25.57 38.32 37.34 37.84 40.29 40.40 40.66 42.27 43.36 43.42 42.85 44.66 45.43 45.50 45.44 45.63 46.10 46.12 45.54 45.50 45.48 45.04 44.90 45.31 43.84 43.33 43.74 44.22 45.03 44.69 44.25
40.42 34.35 29.21 22.79 26.11 31.31 28.26 32.79 34.91 30.02 24.78 30.46 30.56 30.01 33.29 35.59 36.14 37.18 39.58 41.67 42.45 42.88 43.98 43.36 43.48 43.98 44.66 45.18 45.28 44.74 44.12 44.45 44.27 44.06 43.51 42.86 42.32 41.62 41.41 41.63 42.28 42.29 41.94 42.36
38.52 32.11 32.96 33.47 34.65 34.64 32.61 32.44 34.65 31.13 33.25 30.06 32.76 32.91 35.26 35.52 36.08 36.63 39.04 42.01 42.80 43.60 43.41 43.49 43.41 43.20 43.95 44.28 44.03 43.60 43.32 43.41 43.36 42.68 41.97 41.04 40.85 40.61 40.48 40.39 40.47 40.58 40.55 41.24
36.05 30.68 32.32 26.89 34.40 34.63 32.08 34.67 34.92 35.02 34.92 33.82 34.58 32.43 36.40 37.13 39.05 40.36 38.90 41.57 42.76 43.69 44.21 44.29 44.16 43.45 43.21 43.33 43.20 43.41 42.78 42.87 42.94 41.80 40.90 40.82 40.49 40.19 39.79 39.67 39.50 39.33 39.34 39.53
35.34 34.06 29.01 24.07 30.93 32.17 27.90 32.93 34.98 35.19 35.99 35.99 30.75 34.56 37.65 38.48 40.25 40.45 40.21 41.20 42.07 43.98 44.47 44.61 44.04 43.89 43.87 43.77 43.77 42.58 42.35 42.63 42.07 41.22 40.83 40.58 40.36 40.02 39.55 39.42 39.03 38.42 37.77 37.82
32.43 30.60 29.00 23.69 26.03 20.86 29.60 34.69 36.42 35.95 36.26 36.74 35.89 36.60 38.22 38.09 39.61 39.77 40.78 40.71 40.59 41.52 44.86 44.99 44.52 44.04 44.32 44.39 43.65 42.91 42.60 41.99 41.63 40.64 40.50 40.58 40.40 39.87 39.47 38.70 37.66 36.52 36.27 36.25
35.46 31.55 27.38 23.63 21.80 26.73 30.07 33.63 33.35 32.33 33.05 37.97 36.40 38.18 38.47 39.38 38.16 37.53 40.99 41.09 39.75 40.11 43.62 45.48 46.00 45.17 44.50 44.13 43.77 42.95 41.62 41.37 41.06 40.14 40.04 40.49 40.48 39.54 38.82 37.14 36.04 36.76 38.04 36.85
34.78 33.33 28.67 25.27 21.31 20.42 29.30 34.16 37.16 36.34 28.81 38.64 39.37 37.39 37.15 37.41 32.66 35.24 39.73 40.59 40.79 41.44 42.08 43.14 45.71 46.15 44.58 43.76 43.33 42.46 40.68 40.31 40.28 40.37 40.41 40.62 40.31 39.36 37.70 36.50 35.84 35.88 37.61 35.91
27.73 28.09 24.69 25.42 23.71 26.82 33.33 35.40 37.19 25.92 30.59 41.75 39.23 37.22 37.52 35.97 36.69 38.86 40.36 40.85 40.95 40.89 41.93 43.11 44.27 44.15 44.59 43.96 43.03 41.37 40.48 39.89 41.07 41.50 40.86 40.32 39.74 38.72 37.30 35.46 35.30 36.68 35.65 35.09
27.02 23.80 24.30 25.16 24.17 20.64 37.32 36.77 32.10 36.14 38.93 41.69 39.19 37.37 38.98 39.43 39.88 39.96 40.15 39.73 40.03 39.81 41.17 42.37 41.23 40.89 41.83 42.77 42.38 40.97 39.97 40.80 41.14 40.62 39.81 39.03 38.12 38.52 37.19 35.47 36.18 35.72 35.35 34.52
26.49 29.73 28.85 28.69 28.62 35.31 36.36 35.25 38.30 39.26 38.27 40.58 39.81 39.56 40.35 39.97 39.18 39.87 39.29 39.50 39.54 39.38 39.39 40.30 39.88 39.68 39.92 40.89 41.44 39.71 39.51 40.21 39.67 38.97 38.09 37.42 37.31 36.85 36.36 36.31 35.31 34.52 34.59 33.80
34.92 34.11 29.84 31.31 34.87 35.21 37.57 39.10 39.93 41.11 40.87 41.63 42.27 42.05 42.00 40.49 41.53 40.43 40.06 39.32 39.24 39.11 38.73 39.25 38.98 38.32 38.06 39.13 39.82 40.45 39.91 39.96 39.06 37.58 36.99 36.68 35.86 36.68 37.04 36.38 35.61 34.59 33.55 33.01
32.53 35.45 32.13 32.62 33.95 35.00 37.19 38.27 39.77 40.55 41.74 41.74 41.81 42.55 42.56 43.07 42.39 41.72 40.87 40.88 40.25 39.17 39.20 38.52 37.76 37.62 37.69 38.26 37.91 39.21 39.56 39.29 38.00 37.49 37.90 38.55 38.28 38.37 36.02 35.42 35.09 34.51 34.72 34.25
32.31 31.40 30.78 30.19 34.77 35.06 36.08 38.36 41.24 40.62 40.79 41.41 41.24 39.77 40.93 41.49 40.80 40.36 38.92 39.25 39.07 38.55 38.85 38.71 38.47 37.60 37.53 37.49 37.10 37.61 38.14 38.07 38.05 37.75 38.35 38.06 37.25 36.55 35.35 34.40 34.08 37.67 37.50 37.41

GFSCGP_sfc_wetblb_102.txt.gz
Wetbulb
33.48 25.64 23.60 32.16 33.84 33.90 33.24 32.91 32.29 35.17 42.15 41.71 40.16 40.55 44.95 48.41 48.65 47.67 48.88 49.05 49.79 50.15 54.45 55.61 59.05 62.42 63.95 64.43 65.14 66.00 66.37 66.41 67.14 66.54 65.32 65.05 64.33 65.37 65.60 65.70 64.50 64.36 64.18 63.20
26.65 23.76 33.39 34.88 35.54 33.90 34.08 31.48 32.11 36.40 40.54 41.04 39.92 39.34 42.84 46.85 46.65 47.35 47.96 48.26 49.50 50.49 50.58 52.45 57.15 60.24 63.07 64.22 65.05 64.45 65.48 66.49 67.06 66.89 66.10 65.24 64.54 64.75 65.97 66.70 66.44 66.06 65.58 64.84
24.56 29.68 35.37 33.99 34.32 31.93 33.21 31.61 32.57 33.27 38.67 39.52 38.63 36.87 40.22 43.65 46.57 47.61 48.39 48.79 49.77 49.17 49.60 49.92 54.86 58.59 61.04 62.13 63.69 64.63 65.37 66.08 66.68 66.38 64.83 64.16 64.44 64.01 63.91 64.70 65.79 66.08 66.33 65.91
27.26 34.23 33.86 33.08 33.44 33.86 29.27 36.45 35.41 34.72 33.89 30.48 38.24 27.83 35.67 39.42 41.76 43.69 45.99 47.82 48.58 48.84 48.04 50.20 53.23 57.16 59.14 61.47 62.44 63.82 64.66 65.32 65.73 65.31 65.28 64.18 64.04 62.37 63.70 64.29 63.95 64.75 65.75 65.60
24.14 30.94 32.41 32.66 33.51 35.74 33.59 39.32 36.19 35.59 32.95 32.26 34.65 30.19 32.54 38.46 38.55 41.74 44.24 45.38 47.07 46.07 46.23 49.60 52.73 57.92 59.90 59.48 61.31 62.15 63.09 63.72 63.86 64.46 64.01 62.86 61.34 61.94 62.40 63.07 63.13 63.35 64.26 64.72
31.93 36.70 35.99 37.11 38.54 38.20 38.84 37.89 37.78 37.08 33.96 24.43 32.17 31.43 29.82 35.71 38.49 42.01 43.47 44.27 45.93 45.68 45.31 47.99 51.69 55.55 57.08 56.86 57.81 59.72 61.03 62.15 63.06 62.78 61.35 61.42 60.22 59.51 60.18 59.92 60.56 62.08 62.77 63.50
31.08 33.29 38.99 39.76 34.91 36.26 35.83 33.96 26.88 25.87 25.81 20.77 33.30 32.49 32.90 36.81 41.72 43.82 43.66 43.48 45.43 46.35 45.23 47.21 49.25 52.84 53.71 54.17 55.33 58.29 59.85 59.92 60.02 60.49 60.37 59.42 59.29 59.43 59.66 60.09 60.02 59.35 59.20 59.24
25.80 24.83 35.22 38.01 34.31 28.94 33.11 32.22 26.84 21.51 19.08 24.84 34.13 27.91 31.84 37.87 40.59 44.25 45.15 44.39 45.31 44.74 45.11 47.22 48.90 51.18 52.59 52.83 52.64 55.73 57.66 58.74 57.99 57.66 57.57 57.15 57.30 57.66 57.74 58.40 58.48 58.09 57.19 57.09
24.76 28.56 37.68 38.24 38.28 36.23 32.79 29.72 35.28 26.98 25.75 22.49 27.42 30.19 34.63 37.32 37.68 39.22 41.87 42.28 42.29 43.59 44.27 47.30 48.67 50.51 49.52 49.49 51.36 54.09 55.32 55.46 56.70 56.87 56.31 55.96 55.73 55.39 54.18 53.05 53.63 53.72 54.09 55.16
31.08 26.30 34.59 36.09 37.41 35.83 33.89 35.88 26.15 26.63 21.46 17.96 22.68 23.43 27.19 31.80 34.30 36.51 38.42 39.93 40.81 42.42 43.09 45.63 48.76 49.94 49.17 49.24 49.37 49.12 51.70 52.84 53.74 53.59 53.31 53.21 53.02 52.07 50.94 51.21 51.04 51.11 51.25 52.09
32.98 28.38 29.14 33.15 29.28 29.60 31.57 30.57 31.64 32.72 24.99 19.10 17.24 22.05 31.26 32.31 34.57 36.33 36.16 38.48 39.19 40.19 42.00 44.91 47.31 47.88 48.46 48.00 47.98 47.57 47.89 48.40 49.21 49.27 48.96 49.47 49.10 49.38 49.62 49.48 49.18 49.11 49.58 49.90
34.68 29.78 23.76 26.11 36.29 36.44 32.82 30.35 32.46 21.06 23.53 20.98 17.53 23.43 34.26 33.82 36.17 37.95 38.23 40.28 40.89 41.26 41.19 42.73 45.78 46.33 46.63 46.87 46.30 46.77 46.61 47.06 47.11 46.90 47.05 46.83 46.90 46.74 46.39 45.99 46.18 45.62 44.80 44.91
35.15 31.14 23.57 23.48 32.75 34.97 31.47 33.36 34.15 31.95 26.89 22.66 16.52 23.19 36.53 34.93 36.38 38.72 38.89 39.23 41.01 41.96 41.66 43.23 44.40 45.36 45.31 45.38 45.86 46.50 46.39 46.14 45.88 45.88 45.22 44.63 44.33 44.08 43.09 43.19 44.04 44.12 43.02 43.10
40.37 33.87 26.15 18.82 25.54 30.09 27.50 31.69 34.03 27.40 20.49 24.94 22.93 28.22 31.85 34.35 36.69 37.98 38.91 40.05 40.11 41.61 42.02 42.69 43.56 43.80 44.46 45.27 45.42 45.30 44.78 44.99 44.42 44.23 43.65 42.91 42.36 41.80 41.42 41.37 41.50 41.73 41.51 41.23
38.17 30.75 32.93 33.45 33.51 32.61 30.78 30.69 33.28 25.82 31.93 30.37 31.68 32.11 33.00 33.76 33.97 36.94 37.82 40.59 41.05 41.73 42.05 42.51 43.28 43.73 44.19 44.66 44.48 44.05 43.67 43.28 43.16 42.65 42.17 41.29 40.72 40.50 40.25 40.06 39.98 40.02 40.03 39.92
34.71 29.51 30.22 26.40 32.78 33.70 30.77 33.28 33.81 34.05 33.76 34.39 34.99 33.33 37.23 37.11 37.37 37.85 37.11 40.52 41.62 42.21 42.53 42.86 43.55 43.21 43.02 43.29 43.52 43.33 42.53 42.43 42.45 41.52 40.74 40.36 39.94 39.66 39.24 38.98 38.94 38.84 38.68 38.81
35.04 30.77 28.08 23.23 29.90 30.28 25.02 32.87 33.23 34.24 34.58 34.54 31.13 34.40 37.40 37.60 38.98 38.49 38.53 39.54 41.19 42.88 43.51 43.67 43.31 43.78 44.03 43.83 43.75 42.38 42.13 41.80 41.28 40.74 40.10 39.95 39.72 39.34 38.90 38.82 38.48 37.68 37.00 37.17
31.41 29.49 28.22 22.26 25.08 18.91 29.16 34.61 37.06 35.78 35.43 35.69 35.12 36.22 38.52 38.74 38.74 39.77 40.39 39.85 39.19 40.51 43.48 44.22 43.97 43.90 44.33 44.12 43.16 42.46 42.03 41.36 41.00 40.22 39.85 39.79 39.57 39.10 38.63 37.96 37.02 35.93 35.55 35.33
34.20 30.54 26.59 22.68 21.14 25.18 30.68 34.11 33.11 31.80 32.89 37.49 36.29 36.84 37.41 38.90 37.96 38.05 40.91 40.72 40.16 41.11 43.06 43.62 45.14 44.67 44.28 43.68 42.96 42.17 41.11 40.92 40.42 39.72 39.49 39.64 39.68 38.78 37.91 36.65 35.49 35.35 35.20 34.58
33.00 31.99 27.42 24.52 20.44 19.96 28.72 34.09 37.08 35.57 29.73 38.14 38.29 36.00 35.74 36.30 31.72 35.44 39.36 40.00 40.01 40.82 42.25 43.20 45.28 45.51 44.63 43.67 42.80 41.70 40.55 39.97 39.54 39.83 39.86 39.89 39.58 38.68 37.22 36.10 35.08 33.31 35.20 36.80
26.78 26.98 24.00 24.76 24.26 25.77 32.07 34.63 36.30 24.63 29.25 41.35 38.75 36.27 36.88 35.16 35.99 38.17 40.04 40.38 40.08 40.44 41.84 42.29 43.67 43.82 43.87 43.69 43.33 41.78 40.68 40.07 40.98 40.92 40.46 39.80 39.32 38.30 37.38 35.14 36.12 34.03 35.29 35.57
26.10 23.04 23.68 24.30 22.21 20.00 35.64 35.53 31.27 34.81 37.52 40.30 38.26 37.13 38.10 38.30 38.77 39.02 39.14 38.80 39.24 39.16 40.21 41.39 40.47 40.41 41.47 42.34 42.34 40.87 40.29 41.04 41.06 40.82 39.92 39.16 38.37 38.32 36.57 34.61 34.85 34.21 35.81 35.20
25.86 28.57 27.42 27.70 27.61 33.31 35.37 35.02 37.76 38.77 37.33 39.51 38.38 38.35 39.73 39.08 38.58 39.02 38.46 38.32 38.16 38.20 38.64 39.54 39.52 39.97 39.62 40.66 41.49 40.32 40.25 40.51 39.97 39.28 38.35 37.45 36.83 36.42 36.78 36.37 34.00 35.11 35.21 34.51
32.40 33.00 28.97 30.37 33.26 33.41 36.03 37.51 39.14 40.03 40.20 41.10 41.68 40.90 40.47 39.00 41.13 39.86 39.17 38.54 38.11 38.11 37.75 38.19 38.20 37.58 37.52 38.49 39.36 40.33 40.12 39.54 38.66 37.39 36.51 35.92 35.27 34.90 35.91 36.77 35.99 35.12 34.24 33.81
31.03 33.03 30.88 30.73 31.98 33.55 35.02 36.32 39.07 40.03 41.04 40.84 41.39 42.08 42.10 42.36 41.55 41.35 39.79 39.03 39.08 39.01 38.48 37.87 37.49 37.75 37.46 37.67 37.68 39.36 39.39 38.73 37.59 36.85 36.37 37.32 37.87 38.72 36.74 36.11 35.85 35.23 35.54 34.97
30.49 29.84 29.69 29.29 33.82 33.67 35.37 37.89 38.96 39.51 39.24 40.33 40.07 39.50 40.64 42.29 40.17 39.41 38.25 38.03 37.45 36.59 36.92 36.81 37.10 37.00 36.77 36.63 36.66 37.24 37.51 37.33 36.67 37.41 37.25 37.95 37.31 37.66 36.22 35.10 34.90 38.30 38.21 38.15

GFSCGP_sfc_wetblb_105.txt.gz
Wetbulb
32.52 24.79 21.95 28.81 34.17 33.70 32.53 32.07 30.00 34.86 41.91 40.27 38.43 38.58 40.55 44.15 44.48 48.06 47.48 46.41 47.33 48.64 50.75 53.52 61.13 63.71 64.20 64.49 65.98 67.03 66.31 66.96 66.96 66.09 65.24 64.28 63.43 62.84 63.18 62.42 62.16 61.60 61.55 61.59
25.40 21.95 32.06 34.42 35.51 33.80 32.55 31.70 30.64 35.67 40.10 40.90 39.15 38.12 42.13 43.41 43.98 47.71 47.70 46.94 46.97 48.11 49.35 50.20 55.97 60.99 64.33 64.39 64.80 65.21 65.95 65.89 66.41 66.62 66.26 64.98 64.83 64.37 64.40 64.46 64.40 63.49 63.04 62.36
23.78 28.47 34.32 32.93 33.63 31.68 31.97 31.55 31.51 33.45 39.08 40.02 39.46 37.28 40.29 43.97 45.88 47.33 48.32 48.83 48.18 48.03 48.02 48.18 51.52 58.12 60.98 62.22 63.19 64.86 65.07 66.07 66.59 66.12 64.65 64.36 64.05 63.60 63.70 63.82 64.42 64.48 64.70 64.43
26.52 33.07 33.28 32.28 33.44 32.80 28.90 35.67 35.50 34.82 34.81 30.86 38.19 28.59 36.91 40.23 42.52 44.76 46.43 47.29 47.33 47.79 48.53 47.72 50.37 55.69 58.93 61.36 63.41 64.27 64.32 65.55 65.16 65.00 64.45 63.73 63.81 62.83 63.74 63.78 64.09 64.36 65.53 65.16
22.66 30.47 31.67 32.11 33.07 35.12 33.16 37.98 35.01 34.53 34.49 33.99 33.99 29.43 32.35 39.20 38.80 41.47 43.71 46.51 48.75 49.32 48.80 48.86 49.24 55.79 58.49 60.04 61.29 62.22 63.27 63.39 63.22 64.38 63.95 62.74 61.61 62.42 62.38 62.84 63.15 63.32 63.89 64.33
29.52 36.23 34.91 35.72 37.55 37.53 36.91 36.83 35.53 36.07 34.21 23.59 31.78 30.21 29.68 34.63 37.77 39.75 43.24 46.25 48.59 49.42 50.02 49.21 48.88 54.01 56.39 57.01 58.64 60.08 61.22 62.11 62.64 63.08 62.51 61.92 60.74 60.17 60.31 60.58 61.32 61.20 62.64 63.35
30.80 32.39 36.47 39.46 34.26 35.74 33.89 32.52 26.21 24.10 24.02 21.29 33.40 30.95 31.77 37.34 40.30 41.64 42.40 44.50 48.08 49.53 46.61 46.46 49.44 53.29 55.15 56.50 57.11 58.07 59.43 60.01 61.69 60.92 60.73 60.60 59.96 59.90 59.92 59.67 59.56 59.43 59.68 60.29
25.57 24.44 35.25 37.90 33.87 31.06 32.28 32.50 19.60 18.19 19.44 24.34 33.50 27.29 32.35 37.36 40.15 42.63 44.47 45.86 46.25 46.59 46.18 46.37 48.64 51.74 54.20 55.25 55.79 57.39 58.00 59.59 60.84 59.87 59.05 58.49 58.95 59.42 59.41 59.50 58.97 58.73 58.39 57.53
25.02 25.43 37.44 36.76 36.93 35.95 32.12 29.21 35.10 24.06 23.62 23.12 27.71 30.01 34.27 36.51 37.71 38.13 41.60 43.09 43.16 43.70 43.83 45.33 47.53 50.32 52.80 52.98 53.60 55.95 56.93 58.83 58.29 57.42 56.88 56.84 56.60 56.97 56.37 55.92 55.81 55.53 55.02 55.81
29.27 23.11 33.85 36.08 36.50 35.36 34.45 35.96 29.50 22.09 14.31 19.63 23.25 22.86 26.25 31.52 34.25 37.77 39.11 40.41 42.22 43.30 43.73 44.42 47.75 49.53 51.18 52.49 51.75 53.08 54.50 55.33 55.54 55.15 55.21 55.31 54.98 54.34 53.09 52.65 52.72 52.40 51.98 52.83
31.40 25.64 26.62 32.15 29.23 26.89 30.08 27.02 32.17 31.69 23.56 19.21 18.84 22.74 31.25 32.27 34.04 36.42 37.56 39.65 40.26 41.66 42.48 43.51 47.51 48.19 48.26 48.42 48.93 49.55 51.44 52.21 53.09 52.91 51.13 51.75 51.19 50.63 50.12 50.39 49.74 49.58 49.27 49.95
32.49 26.69 19.32 25.22 33.59 36.14 32.23 29.63 31.11 22.67 22.57 22.98 16.93 24.48 34.58 33.70 36.50 38.11 38.69 40.20 40.65 41.17 41.35 42.89 46.75 47.09 46.71 46.87 46.49 46.94 47.56 49.19 49.45 49.09 49.32 48.75 48.09 47.88 46.96 46.34 45.76 46.27 45.74 46.66
35.34 28.58 15.62 20.23 29.57 34.12 30.71 32.62 32.85 29.91 25.61 26.29 15.57 23.22 35.82 35.54 36.44 38.30 38.90 39.34 40.42 40.56 41.78 42.79 44.28 44.91 45.95 45.99 45.55 45.80 46.01 45.97 45.81 46.27 46.27 45.43 44.77 44.20 43.38 43.37 43.53 43.61 43.24 43.10
40.61 34.38 24.49 17.25 25.01 28.66 27.02 30.48 31.65 23.51 18.93 26.81 22.21 25.61 30.94 33.85 35.37 36.32 38.03 39.08 39.46 39.88 41.38 42.26 42.01 42.50 43.54 44.56 45.11 44.89 44.65 45.17 44.76 44.52 43.99 43.26 42.74 42.08 41.62 41.55 41.83 42.03 42.08 42.23
37.71 30.64 33.99 33.75 33.38 31.29 30.08 29.99 30.81 23.45 27.16 22.11 29.71 29.57 30.99 32.89 33.95 35.50 36.45 39.53 40.65 40.97 41.14 42.45 42.28 42.03 42.81 43.87 44.03 44.01 43.64 43.83 43.69 43.24 42.73 41.72 41.08 40.59 40.16 39.98 39.88 40.00 40.01 39.69
36.38 29.54 29.10 25.49 31.68 31.95 29.86 31.11 31.39 32.80 32.68 32.77 32.44 30.21 35.28 36.02 35.57 36.65 36.81 39.94 40.77 41.40 41.20 41.70 42.12 42.10 42.26 42.66 43.18 43.38 42.62 42.60 42.92 42.12 41.34 40.85 40.08 39.60 39.22 38.86 38.63 38.64 38.29 38.23
34.19 28.34 25.06 21.63 27.59 29.65 24.26 29.82 30.61 32.94 33.15 33.98 30.54 34.39 36.37 36.89 37.14 36.43 36.94 37.89 37.99 39.36 41.61 41.51 42.10 43.30 43.66 43.35 43.36 42.57 42.21 41.85 41.69 41.20 40.30 39.75 39.47 39.03 38.57 38.31 37.98 37.09 36.58 36.67
30.15 27.86 27.34 22.46 23.91 18.33 28.60 33.99 35.21 33.86 34.43 34.37 34.15 35.14 36.80 36.41 36.99 37.93 38.36 37.67 38.09 38.65 41.36 42.40 42.64 42.56 43.45 44.22 43.41 42.71 42.29 41.71 41.25 40.29 39.67 39.50 39.19 38.54 37.89 37.48 36.57 35.39 35.07 34.85
32.29 29.15 25.88 22.34 20.76 23.87 28.85 33.51 34.02 32.98 32.12 36.96 35.33 35.84 36.15 37.12 37.00 35.81 39.38 39.37 38.87 39.77 41.03 41.94 43.21 43.63 43.68 43.68 43.28 42.28 41.26 40.89 40.59 39.81 39.40 39.45 39.29 38.26 37.28 36.16 34.97 34.65 34.56 33.89
32.36 30.58 26.40 23.76 19.69 19.67 27.64 32.59 35.16 35.17 29.25 37.93 37.51 35.65 35.85 36.19 31.60 34.49 38.59 39.18 39.09 40.16 41.42 42.12 43.10 44.43 43.97 43.03 42.67 41.79 40.65 40.27 39.73 39.69 39.74 39.55 39.22 38.25 36.78 35.82 34.59 33.58 34.38 34.42
25.67 26.17 23.27 23.86 20.99 24.58 30.33 34.42 36.19 24.76 27.30 39.48 38.16 35.89 36.37 34.79 35.52 37.67 39.11 38.90 39.07 39.70 40.78 41.77 42.79 43.02 43.01 43.18 42.64 41.36 40.36 40.02 40.84 40.77 40.18 39.48 38.84 38.08 36.94 34.92 35.37 35.27 32.63 33.49
25.25 22.34 23.07 23.79 21.60 18.48 33.38 34.52 29.67 33.12 37.49 39.39 37.60 36.67 37.14 36.93 37.76 38.22 38.23 37.86 37.97 38.10 39.20 39.98 39.97 40.09 41.08 42.57 42.51 40.90 40.37 40.96 41.17 40.62 39.73 38.96 38.26 38.15 36.63 34.67 35.16 33.01 35.31 35.75
25.21 27.42 26.25 26.09 26.07 32.40 34.49 34.25 36.40 38.27 36.48 38.48 37.35 37.55 38.65 37.99 37.07 37.43 37.35 37.52 37.37 37.33 37.74 38.55 38.91 39.05 39.22 40.32 41.40 40.47 39.95 40.28 39.67 39.12 38.39 37.77 36.84 36.34 35.21 34.00 34.86 35.74 35.68 35.23
29.42 31.54 27.71 29.55 31.06 31.31 33.75 35.49 37.50 38.14 38.04 38.98 39.83 39.65 39.64 37.68 40.34 37.76 37.93 37.55 37.07 37.26 37.03 37.54 37.45 37.71 37.74 38.82 40.42 40.18 39.82 40.02 38.98 37.96 37.11 36.30 35.78 35.22 34.92 36.14 36.20 35.66 35.05 34.51
29.26 30.92 29.57 29.15 30.07 31.03 33.71 35.34 36.19 38.65 39.86 40.25 40.53 41.01 41.43 41.58 41.26 41.06 38.92 37.84 37.46 37.49 38.18 37.74 37.57 37.63 36.58 36.62 36.83 38.11 38.98 39.13 37.91 37.18 36.62 36.19 36.08 36.63 35.39 36.56 36.57 34.96 36.03 35.54
29.82 29.68 29.07 30.70 32.76 32.95 34.53 35.83 38.12 37.61 37.63 38.32 39.16 39.10 41.61 43.22 41.35 39.42 37.90 37.44 36.66 35.27 35.34 35.86 36.31 36.18 36.08 35.26 35.02 35.68 36.69 37.03 36.49 36.35 36.69 36.65 37.20 35.48 35.59 35.43 35.23 38.95 38.80 38.75

GFSCGP_sfc_wetblb_108.txt.gz
Wetbulb
31.33 24.72 19.80 25.68 30.91 33.28 31.72 29.22 29.37 34.49 40.25 38.24 38.22 37.64 40.11 43.47 41.01 43.07 47.34 46.83 48.38 50.85 52.53 55.76 62.04 63.58 64.08 65.97 66.57 67.63 67.40 67.48 66.55 65.91 64.72 63.90 63.33 61.29 60.68 60.44 60.69 60.38 60.81 60.96
25.17 21.60 29.74 33.60 33.12 33.32 31.94 29.51 31.26 35.50 39.25 39.46 38.38 37.18 41.31 41.19 41.73 43.31 46.36 46.40 47.49 49.80 51.00 51.87 59.41 62.71 63.33 63.63 65.47 65.77 66.85 66.80 66.60 66.20 65.83 64.70 64.34 63.19 63.42 62.74 61.75 61.27 61.03 61.16
23.81 27.40 32.86 32.53 31.08 31.22 31.50 30.47 31.95 33.24 39.09 40.68 38.58 36.66 39.19 42.24 44.44 45.56 46.60 47.83 47.87 48.81 49.26 49.91 55.25 60.29 62.26 63.05 63.73 64.87 65.44 65.93 66.04 65.74 64.74 63.95 63.53 63.23 62.64 62.60 62.23 62.92 62.86 61.69
25.95 31.27 31.94 32.39 30.28 33.20 26.25 34.75 36.37 36.23 33.58 31.00 36.71 28.35 37.25 40.37 41.43 43.82 45.87 46.72 46.45 47.29 47.96 47.84 49.64 56.06 60.48 62.51 63.62 64.95 65.11 65.77 66.19 66.04 65.35 63.84 63.24 62.13 62.73 63.21 63.75 63.96 64.03 63.36
21.85 29.15 30.69 31.20 33.28 35.07 32.70 37.15 35.59 35.49 32.39 34.55 33.10 28.67 33.66 40.03 38.52 40.98 43.22 45.49 47.62 47.70 47.66 47.21 47.60 52.88 57.95 61.13 62.68 62.99 63.68 64.51 65.18 65.46 65.00 63.07 63.39 64.25 63.98 63.30 63.48 63.82 64.13 64.54
28.60 35.58 33.80 33.58 37.13 36.02 36.14 36.31 35.50 34.92 31.83 23.80 31.77 29.32 29.20 35.95 38.30 40.33 42.20 45.73 46.50 47.87 48.28 47.48 46.24 48.44 55.87 58.34 60.64 62.48 63.62 63.36 63.87 64.38 63.89 63.52 62.79 62.53 62.44 62.28 62.98 63.40 62.57 62.93
30.71 31.70 35.31 36.87 34.02 35.00 32.52 27.51 22.70 19.48 19.29 22.96 31.84 28.92 30.23 38.07 40.65 42.16 42.48 44.32 47.07 48.80 49.09 47.07 44.43 49.94 54.81 56.95 57.96 59.80 61.05 61.26 62.44 63.19 62.57 62.22 61.64 61.84 61.68 61.47 61.88 61.43 61.35 61.60
24.66 24.15 34.78 37.69 34.24 31.18 31.80 27.63 20.48 18.37 21.03 25.17 33.16 26.98 31.00 35.81 41.04 43.55 44.83 44.94 46.97 48.07 49.34 46.07 45.10 47.86 52.28 55.43 56.39 58.18 58.82 59.75 61.29 60.94 60.50 60.90 60.53 60.03 59.77 59.84 60.32 59.96 59.30 59.24
25.60 25.95 36.92 36.73 36.77 35.80 32.44 28.99 34.09 25.27 22.64 19.95 25.18 27.88 33.31 36.34 36.40 36.68 40.46 43.65 44.38 46.75 45.40 45.48 45.93 48.07 52.07 54.29 55.94 57.31 57.33 59.45 59.79 59.88 57.75 58.14 57.64 57.85 58.07 57.62 57.42 56.56 56.18 56.79
28.82 17.02 32.05 36.05 36.28 36.28 34.68 36.34 25.48 24.57 17.93 20.68 23.54 23.33 25.47 31.11 33.36 35.61 37.58 41.24 42.63 42.96 44.65 45.36 46.22 47.52 51.49 53.88 53.67 54.80 56.29 58.30 57.47 55.39 55.66 55.50 55.51 55.55 54.96 54.77 54.14 53.73 53.08 53.70
29.43 24.79 25.52 30.76 30.27 29.29 31.87 30.19 30.65 29.17 24.83 20.54 19.31 23.30 31.41 31.90 33.39 35.18 37.07 39.09 39.94 41.29 42.91 43.82 45.33 47.44 48.65 49.93 50.84 51.93 53.12 53.90 53.99 53.03 52.63 53.06 52.10 51.51 51.54 51.15 50.27 49.73 49.57 50.00
31.02 26.05 21.51 28.73 32.90 36.32 32.33 30.02 31.64 21.61 22.88 21.52 19.52 24.61 34.23 33.51 36.42 37.98 38.10 40.01 40.31 40.52 42.77 43.10 43.42 46.96 46.95 47.93 48.58 49.78 49.68 51.30 50.47 50.03 50.44 49.49 48.96 48.87 48.19 47.04 46.66 47.22 46.09 46.33
34.86 25.48 11.96 19.07 26.14 31.88 30.43 32.74 33.35 28.36 26.35 26.13 20.38 24.78 35.21 34.72 36.22 37.86 38.20 39.04 40.37 41.35 42.88 43.13 44.05 45.12 46.13 46.29 45.73 46.20 46.65 47.65 47.63 48.48 47.17 46.77 46.48 45.73 44.77 44.37 44.24 44.13 43.75 43.53
39.47 33.30 23.61 18.93 25.72 28.22 25.20 30.35 31.23 22.51 20.42 25.03 23.20 26.55 31.25 32.72 34.15 35.31 37.70 38.98 40.18 40.82 42.03 42.80 43.03 43.51 44.76 45.03 44.85 44.84 44.21 44.74 44.82 45.11 44.82 43.96 43.81 43.17 42.58 42.28 42.14 42.08 42.20 41.48
36.13 28.79 32.48 33.15 33.47 31.19 30.29 29.81 30.89 22.61 25.98 20.77 27.74 28.40 30.35 32.45 33.41 34.51 36.69 39.76 40.53 41.03 41.35 41.92 42.10 42.16 42.73 43.48 44.41 44.59 44.04 44.06 43.85 43.19 42.78 41.65 40.89 40.49 40.22 40.06 39.87 39.85 39.74 39.40
36.27 27.81 28.46 25.69 30.10 31.71 29.69 30.88 30.35 31.31 30.79 31.43 29.90 29.98 34.22 35.75 35.64 35.83 35.34 37.19 37.92 39.94 41.10 41.80 43.02 42.04 41.41 42.22 43.94 43.85 43.13 43.18 43.65 42.19 40.84 40.21 39.71 39.41 38.98 38.80 38.61 38.25 38.02 38.18
33.61 26.85 23.75 20.73 26.39 28.31 23.23 27.93 30.72 32.92 32.09 32.60 30.21 32.65 35.62 35.18 36.66 36.14 36.63 37.17 36.48 37.70 40.49 41.76 41.66 42.57 42.48 42.80 43.11 42.31 41.80 42.31 41.84 41.00 39.98 39.57 39.10 38.61 38.38 37.99 37.69 37.03 36.52 36.74
29.40 26.76 26.85 21.24 22.63 17.37 26.65 33.07 33.46 32.77 33.49 33.90 34.35 35.90 37.06 37.45 37.83 37.58 37.90 37.29 37.51 38.17 39.05 40.34 41.10 41.55 42.32 42.87 42.46 41.73 41.43 40.97 40.59 39.50 39.00 39.03 38.81 37.87 37.54 37.28 36.30 34.97 35.59 35.25
31.04 27.85 25.39 21.54 19.76 22.52 28.28 32.03 34.87 33.15 31.57 35.78 33.56 34.78 35.69 36.76 36.45 36.42 39.12 38.50 37.71 38.18 39.54 41.18 42.39 42.73 42.48 42.55 42.02 41.19 40.16 39.84 39.83 38.86 38.77 39.04 38.86 37.53 36.86 36.17 35.40 35.37 34.83 33.78
31.22 29.17 25.21 23.32 18.68 18.64 25.66 31.34 33.86 36.16 29.07 36.84 36.09 34.62 34.05 35.32 30.46 32.84 37.96 39.21 38.78 39.09 39.99 40.71 41.49 43.15 42.92 42.20 41.56 40.74 39.63 39.45 39.02 39.13 39.27 39.20 38.93 37.90 37.40 36.02 35.29 33.84 34.61 34.63
24.58 25.24 22.44 23.33 20.16 23.47 28.94 33.43 35.07 23.35 25.03 38.16 36.98 34.82 35.99 33.92 34.94 36.69 37.81 37.98 38.41 39.02 39.43 40.37 40.88 40.59 41.61 42.10 41.82 40.96 39.99 39.25 40.11 40.28 39.61 38.97 38.77 38.10 37.42 35.21 35.52 35.75 33.36 33.46
24.42 21.91 22.37 23.20 20.49 17.90 32.31 32.64 27.44 31.83 35.60 37.67 36.63 35.75 36.17 35.92 37.22 37.52 37.53 37.03 37.34 37.34 38.25 38.99 38.45 38.41 39.62 41.15 41.63 40.01 39.72 40.81 40.79 40.27 39.60 38.77 37.89 38.11 36.47 34.87 35.83 33.13 33.27 33.48
24.22 26.30 25.20 25.62 25.66 31.60 32.99 33.11 35.09 36.61 35.40 36.26 35.88 36.29 37.59 37.28 36.42 36.61 36.53 37.04 36.99 36.81 36.64 37.32 37.68 37.24 38.19 40.23 41.57 40.25 39.04 40.18 39.89 39.64 39.08 38.42 38.04 37.50 36.31 35.25 34.96 33.84 34.24 35.09
26.94 29.15 26.61 28.56 29.67 30.19 32.05 33.70 35.20 36.53 36.19 37.30 38.31 38.33 38.14 36.66 38.53 37.04 37.18 36.21 36.21 36.69 36.40 36.81 36.39 37.15 37.17 39.20 40.25 40.23 40.21 40.21 39.63 38.66 37.60 36.87 36.13 35.25 34.36 35.04 34.88 34.86 35.42 35.26
28.60 29.14 28.07 27.51 28.36 29.68 32.20 33.38 34.47 36.87 37.77 38.06 38.82 39.22 38.47 39.36 41.02 40.35 38.65 37.49 36.36 36.10 36.17 36.86 36.32 36.94 36.05 35.99 36.43 37.22 38.75 39.77 38.97 38.34 37.60 36.73 36.69 36.87 35.19 35.10 35.06 34.60 36.27 34.74
28.72 28.64 28.17 27.60 31.83 32.17 32.65 35.13 35.24 35.35 36.01 36.75 37.32 38.07 40.42 42.74 42.05 39.87 37.15 36.64 35.20 33.95 33.85 34.62 34.72 34.71 35.19 33.78 33.17 34.19 35.40 36.26 36.68 36.72 36.69 36.62 36.42 35.92 35.61 34.54 35.96 39.27 38.88 39.21

GFSCGP_sfc_wetblb_111.txt.gz
Wetbulb
32.48 28.97 24.68 26.95 29.06 30.23 29.57 28.66 27.35 30.80 35.33 35.69 34.72 34.97 39.73 43.19 42.49 39.86 40.84 43.04 46.09 50.23 52.50 56.96 63.60 64.36 64.62 66.72 67.51 67.46 67.21 67.38 66.86 65.98 64.96 64.29 63.83 64.62 64.72 64.44 63.92 64.53 65.33 65.70
27.37 24.66 30.18 31.91 32.33 31.17 29.50 29.33 28.80 32.88 36.41 36.28 35.72 35.41 40.29 40.80 40.13 40.77 42.29 44.22 45.65 48.89 51.06 55.29 62.28 63.13 63.79 64.96 67.10 67.04 66.84 66.93 66.78 66.83 66.26 66.11 65.65 64.70 64.73 64.12 63.19 63.22 63.49 63.79
25.83 28.40 32.40 31.56 31.16 29.77 29.42 29.51 29.69 31.60 37.01 38.63 36.70 34.98 38.83 40.92 42.17 43.32 45.01 46.46 47.15 48.84 50.10 51.97 60.03 62.41 62.77 63.11 65.32 66.75 66.76 66.83 66.74 66.58 65.98 65.63 65.40 65.14 64.40 63.85 63.72 63.01 62.74 62.99
27.02 31.12 30.80 31.97 30.89 31.33 28.00 35.12 34.89 34.97 33.96 29.83 36.81 28.45 36.44 39.40 39.54 42.20 44.58 45.54 46.99 49.15 49.91 50.38 56.03 60.54 61.91 62.19 64.39 64.99 64.89 64.46 65.80 65.66 64.90 64.17 63.76 63.17 64.73 64.34 64.19 63.84 63.50 63.09
24.14 27.98 29.96 28.09 33.40 35.17 32.30 33.97 35.29 36.35 34.71 32.87 33.46 30.42 34.55 39.46 37.27 40.63 44.15 45.99 47.37 49.26 49.75 49.76 52.43 57.00 59.54 63.07 63.53 64.68 64.39 63.82 64.09 64.98 64.73 62.95 61.70 63.24 63.68 64.01 63.82 63.52 63.83 64.29
29.30 34.27 33.57 32.49 36.14 35.01 36.17 35.73 35.19 35.44 32.88 26.76 31.73 30.28 31.13 35.88 38.07 40.84 43.47 45.81 47.84 48.37 49.89 50.00 50.16 51.12 57.26 61.12 62.66 63.13 62.84 63.06 64.46 64.15 64.22 61.98 61.04 62.40 64.39 64.04 63.78 63.49 64.43 64.20
30.71 32.11 35.05 36.47 33.29 34.95 34.22 28.27 21.92 23.37 23.09 24.19 32.74 30.53 31.73 37.80 41.01 42.71 43.06 45.15 47.00 48.49 49.53 48.13 49.35 51.88 57.01 59.31 61.44 61.96 62.85 62.68 63.46 62.62 62.25 63.71 62.20 63.08 63.00 62.79 63.07 63.29 62.93 63.22
20.43 21.56 34.32 37.46 34.80 31.32 31.89 28.65 23.97 17.90 20.63 25.57 32.90 27.20 30.01 36.34 38.40 43.63 44.93 45.86 47.41 48.71 49.15 48.17 47.96 50.78 55.27 58.13 59.79 60.73 61.82 61.60 63.06 63.53 62.90 62.51 62.96 62.57 63.13 63.01 63.09 63.20 62.68 62.77
25.61 21.89 36.28 36.32 35.70 33.85 32.42 27.91 34.33 25.99 25.64 25.03 26.81 29.73 34.60 37.66 37.14 38.00 40.69 45.01 45.86 46.62 45.94 47.36 47.96 50.20 53.45 56.51 58.74 60.33 60.82 61.06 61.97 62.43 62.14 62.28 62.81 61.95 60.95 61.76 61.38 60.59 60.79 61.17
30.39 21.52 30.85 34.88 35.93 36.63 33.73 36.57 26.98 26.60 19.28 21.18 24.12 25.08 27.00 31.96 33.66 36.46 39.28 41.49 45.22 44.93 45.94 47.22 46.72 49.23 52.49 55.27 56.83 58.24 59.60 59.68 59.81 59.77 59.75 59.26 59.21 59.69 59.34 59.57 57.99 57.32 57.75 59.08
31.50 25.46 27.19 31.27 31.76 31.21 31.36 31.28 31.50 29.31 25.30 23.03 21.35 25.76 33.79 32.33 33.91 35.86 38.04 39.62 42.69 43.07 43.50 46.16 45.90 48.86 51.14 53.32 55.22 56.26 57.43 57.21 56.64 56.75 56.90 57.27 56.65 56.48 56.62 55.85 54.45 53.80 54.71 54.92
32.52 26.49 23.25 28.15 33.27 37.21 33.56 30.97 31.30 24.15 24.68 22.18 24.84 26.75 35.18 34.69 36.86 38.34 38.60 40.61 41.19 42.93 44.51 45.31 45.91 47.31 49.00 51.35 53.32 54.56 55.30 55.13 54.75 54.48 54.59 54.15 53.81 53.81 52.81 51.78 51.59 51.87 51.10 51.46
36.74 27.42 17.31 22.84 29.19 32.75 30.13 32.47 32.69 28.44 28.29 25.04 21.88 26.76 36.12 35.43 36.60 38.12 39.33 40.41 41.15 42.66 43.63 44.34 45.75 46.45 47.49 48.91 50.20 50.45 51.99 51.97 51.46 52.02 51.59 50.86 50.68 50.43 49.44 49.23 48.98 48.55 48.29 47.86
39.00 33.30 24.62 24.77 27.68 30.34 28.16 31.14 31.49 24.82 25.97 26.10 25.51 28.51 32.13 34.16 35.30 37.11 38.57 40.45 41.47 41.93 43.10 43.65 43.99 44.94 45.87 46.52 46.86 47.16 47.93 48.72 49.04 49.18 49.18 48.37 48.32 48.06 47.09 46.19 45.93 45.79 45.75 44.92
34.77 28.87 31.79 32.47 33.43 32.73 30.94 31.11 31.80 27.78 28.81 24.82 29.16 29.14 32.24 34.30 35.02 35.83 36.81 38.65 40.02 41.25 42.05 43.23 43.46 44.16 44.68 45.22 45.64 45.57 45.72 46.55 47.13 46.76 46.65 45.39 44.83 44.29 43.91 43.43 43.20 43.17 43.22 42.79
34.04 25.70 28.50 25.76 31.50 30.84 28.79 30.94 31.90 32.61 32.29 31.40 31.47 31.28 36.25 36.84 37.60 37.56 37.02 37.31 37.82 39.48 41.02 41.97 42.99 43.62 43.95 44.79 45.10 44.97 44.92 44.97 45.74 44.87 43.17 42.50 42.26 42.26 41.83 41.59 41.32 41.38 41.19 41.19
31.15 27.25 24.62 21.25 26.78 29.20 23.70 28.25 31.67 33.01 32.93 32.74 29.88 33.51 36.49 35.95 36.64 36.50 37.05 37.80 37.71 38.66 39.61 40.49 41.66 42.54 44.20 44.35 44.63 44.29 44.42 44.86 44.27 43.01 42.11 41.81 41.76 41.15 40.83 40.57 40.48 40.09 39.93 39.84
28.88 27.18 27.23 21.79 23.21 17.69 27.05 33.79 33.55 34.01 33.99 34.09 34.47 35.79 36.36 36.81 37.11 37.78 38.21 37.77 37.92 38.34 39.05 40.31 41.77 42.69 43.40 44.41 43.80 43.27 43.47 43.26 43.44 42.32 41.45 41.27 41.11 40.29 40.09 40.06 39.34 38.71 38.92 38.39
30.79 27.50 25.46 21.97 19.98 23.66 28.74 31.70 34.87 33.90 32.96 36.88 35.14 35.26 36.22 37.22 37.18 36.80 38.91 39.12 38.21 38.42 39.94 41.05 42.08 42.59 43.56 43.92 43.22 42.52 41.94 41.90 41.53 40.86 40.80 40.94 40.72 39.43 39.26 38.40 38.11 38.24 37.88 36.91
31.49 28.34 25.86 23.90 19.05 19.00 27.17 31.65 34.49 35.37 29.57 37.22 36.35 35.52 35.89 35.87 31.13 33.89 37.97 38.40 38.31 39.10 39.81 40.47 41.42 43.05 43.85 43.25 42.75 42.06 41.25 41.28 40.82 40.56 40.69 40.64 40.38 39.71 39.04 38.53 37.54 36.29 37.89 37.32
24.46 25.21 22.48 24.23 20.83 24.12 29.47 32.32 34.76 24.28 27.27 38.94 37.06 35.97 35.91 34.29 35.35 37.35 38.17 38.02 38.29 38.68 38.98 40.46 40.49 40.57 41.68 43.09 42.94 41.74 41.15 41.36 41.66 41.28 40.90 40.32 40.22 39.94 39.05 37.55 37.51 37.10 36.69 36.62
24.19 21.75 22.62 23.29 21.34 18.95 32.74 32.78 28.71 31.58 35.25 38.63 37.86 36.82 37.07 37.18 37.60 37.60 37.88 37.59 37.69 37.58 38.14 39.15 38.98 38.99 40.64 42.49 42.71 41.47 41.44 41.77 41.65 41.10 40.51 40.01 39.76 39.39 37.95 37.35 37.84 36.71 36.64 36.49
23.88 25.93 24.82 25.59 25.84 30.98 33.47 33.68 35.84 37.02 35.75 37.32 37.84 37.97 38.29 38.01 37.53 37.86 37.54 37.49 37.32 37.15 37.35 37.96 38.36 38.57 39.84 41.13 42.26 41.01 39.98 41.25 40.92 40.51 40.02 39.58 38.97 38.77 37.76 37.57 36.64 35.96 35.96 36.18
26.61 28.94 26.54 28.63 29.89 30.27 32.73 34.46 36.02 37.14 37.20 37.79 38.78 38.99 39.02 37.58 38.52 39.26 37.89 36.95 36.92 37.11 36.95 37.51 37.26 37.02 36.90 37.99 39.08 39.72 40.29 40.96 40.70 39.98 39.36 38.89 38.69 38.19 37.68 37.60 37.34 37.04 36.51 36.70
28.39 29.53 27.10 27.00 28.40 30.08 32.44 34.00 34.92 36.76 37.33 37.43 38.55 39.52 39.87 40.09 40.74 40.40 38.98 38.10 36.93 36.30 36.45 36.87 36.72 36.77 35.95 36.39 36.09 36.53 37.39 39.98 39.45 39.29 38.58 38.17 38.05 38.71 37.29 36.99 37.28 37.30 37.95 37.65
28.20 28.32 27.67 27.25 31.55 31.69 32.12 35.58 35.53 35.79 35.75 36.70 37.51 37.66 39.94 42.65 42.05 40.20 38.11 37.31 35.88 34.48 34.42 34.99 34.83 34.75 34.45 34.29 33.73 34.43 35.20 36.47 37.17 37.78 37.94 37.98 37.78 37.49 36.74 36.61 37.10 39.44 39.41 39.75

GFSCGP_sfc_wetblb_114.txt.gz
Wetbulb
36.94 32.94 29.62 32.17 33.75 32.89 30.46 28.68 28.12 32.54 36.80 35.42 35.39 37.75 40.71 44.44 45.69 46.19 47.37 47.27 47.21 48.59 51.24 53.39 55.53 58.10 62.12 63.85 65.85 66.83 67.27 67.66 67.48 66.78 65.99 66.03 65.81 66.57 67.40 68.65 68.71 67.91 67.63 67.56
33.26 29.40 34.12 34.60 33.98 32.01 31.18 28.34 28.63 32.60 37.45 36.71 36.42 36.62 40.56 43.15 44.65 46.08 46.24 46.12 46.80 48.32 50.28 51.61 54.72 60.84 60.06 64.15 65.12 66.84 67.10 66.67 67.07 67.68 67.04 66.68 66.26 66.76 66.88 67.44 67.42 67.74 67.87 68.07
29.81 32.07 34.92 32.96 32.04 30.62 30.84 29.27 29.23 30.05 35.27 37.87 37.14 33.77 37.50 41.66 43.47 44.36 46.17 47.82 46.69 47.72 49.32 50.96 53.32 61.16 61.26 62.34 64.28 65.66 66.32 66.61 66.97 67.47 67.27 66.79 67.00 66.44 65.61 66.27 66.09 66.11 66.56 66.72
31.67 34.64 31.93 31.78 31.06 32.05 28.60 34.00 34.50 34.01 30.80 29.08 37.78 26.87 34.53 37.63 39.28 42.58 45.70 47.20 47.73 48.91 50.37 51.22 53.34 60.40 61.33 62.40 64.80 65.42 66.24 66.32 66.77 68.19 66.46 65.57 64.79 64.12 64.91 66.08 66.58 65.52 64.97 65.03
30.54 30.70 31.04 29.99 30.92 34.26 32.97 35.17 33.68 35.06 32.31 32.97 32.74 32.35 33.04 38.62 37.74 40.86 44.92 47.21 48.64 49.63 49.14 50.94 53.80 60.77 62.05 62.45 61.31 64.25 64.64 65.12 65.53 67.27 65.93 64.97 65.66 66.57 66.90 66.64 65.73 65.35 64.80 65.24
33.46 37.34 34.46 33.38 35.47 35.44 36.63 35.19 35.43 34.35 33.05 28.78 32.80 33.33 32.80 36.64 38.81 42.29 44.88 46.20 47.93 49.64 49.88 51.90 57.32 61.08 60.96 61.06 61.12 62.57 63.42 63.16 64.19 64.09 64.33 63.94 63.16 63.01 63.48 64.73 64.72 64.60 64.40 64.31
32.62 34.26 36.28 36.51 32.69 36.81 34.90 32.97 27.94 26.01 27.11 26.29 34.65 31.47 31.39 37.94 41.42 42.99 44.07 45.61 47.93 48.46 50.13 50.44 53.25 58.53 61.21 60.70 60.81 62.11 61.94 61.52 61.87 62.59 63.28 62.47 62.04 61.91 62.49 63.90 63.82 64.25 64.16 64.38
27.27 26.97 34.35 37.33 34.69 31.90 32.02 32.58 27.80 21.24 23.92 27.29 33.99 27.96 30.27 39.44 41.36 43.20 46.85 45.84 47.13 48.09 49.06 49.29 54.26 57.15 59.90 61.42 61.90 61.56 61.36 61.04 61.56 61.81 62.12 62.50 61.91 61.66 62.04 62.18 62.79 62.32 62.90 63.72
27.87 28.56 35.46 36.38 35.57 35.24 33.24 31.72 35.20 29.81 29.76 28.26 29.49 32.70 38.63 40.45 40.65 42.11 44.96 44.42 45.61 47.84 46.90 48.60 52.69 56.08 59.93 60.65 61.11 61.56 60.93 61.22 61.46 61.70 61.54 61.16 62.54 58.95 61.52 61.75 62.81 62.52 62.86 62.78
33.10 27.06 32.90 35.57 37.08 37.81 35.95 36.41 31.42 32.83 24.47 23.26 26.65 29.47 29.23 35.07 36.46 39.67 42.64 42.80 45.85 47.41 47.13 49.59 51.87 53.99 56.67 60.28 60.27 61.02 62.07 61.27 61.98 61.63 61.31 61.00 60.13 59.16 60.75 61.04 61.74 61.43 60.97 61.66
34.80 30.69 32.84 35.64 33.63 32.41 33.91 32.43 33.62 33.04 30.06 27.13 24.94 28.13 35.01 36.03 38.29 39.16 41.54 44.62 45.44 46.00 45.95 48.35 49.12 52.94 55.72 58.64 59.94 59.93 60.29 60.55 60.23 61.46 61.87 61.46 61.05 60.80 61.05 60.77 60.16 59.95 60.25 60.59
36.50 32.31 29.60 30.71 36.08 38.23 36.39 34.28 33.90 31.10 27.96 29.08 30.73 28.09 39.02 40.03 41.03 41.80 41.34 43.86 45.61 45.81 46.00 48.22 49.14 50.77 54.14 56.76 58.36 57.51 58.18 58.22 59.51 59.46 59.39 59.56 58.82 58.81 58.77 57.61 57.66 58.16 57.96 58.04
38.36 32.88 28.26 28.70 32.56 36.38 34.01 36.11 35.03 32.75 33.99 27.75 28.71 29.02 40.60 42.21 41.71 43.39 42.96 44.17 43.89 44.89 45.68 48.20 48.42 50.19 51.11 53.43 54.87 55.31 56.18 56.73 57.96 58.00 56.80 56.23 56.60 56.61 55.50 54.87 55.17 55.30 55.16 54.52
40.48 34.46 30.67 26.96 29.86 33.75 31.93 35.14 35.22 32.85 32.27 30.88 30.98 32.80 37.09 38.27 39.56 40.14 42.23 43.89 44.38 44.40 45.28 46.02 46.91 47.25 49.49 51.15 51.33 53.43 52.98 54.68 55.65 56.22 55.42 54.46 54.25 54.53 54.53 53.56 52.76 53.03 53.05 51.95
38.72 31.69 33.34 34.74 35.05 34.59 34.50 34.85 35.11 32.26 32.94 32.09 33.19 33.43 36.18 38.35 40.01 41.06 42.22 43.50 43.13 42.80 44.40 45.31 46.25 47.27 48.53 49.25 49.22 50.89 51.47 52.23 53.46 53.97 53.64 52.76 52.21 51.89 51.67 51.32 51.10 50.10 50.07 49.03
38.05 32.62 33.34 31.20 34.36 35.55 33.45 34.94 36.55 35.83 35.85 35.76 36.44 34.52 40.10 41.77 43.41 42.45 42.33 42.33 41.50 41.85 43.42 43.97 45.83 48.04 48.11 48.28 49.06 49.01 49.49 50.41 52.01 51.60 50.37 49.53 48.26 48.37 48.31 47.57 47.89 48.08 47.14 46.59
35.27 34.07 31.74 27.85 31.88 32.96 30.37 32.68 35.02 36.02 36.49 37.25 34.07 36.85 41.33 40.36 40.07 40.28 41.43 41.89 41.37 41.95 42.94 42.72 45.47 46.33 47.76 48.51 49.21 48.75 48.76 49.28 49.03 48.02 47.52 47.23 47.23 46.37 46.33 45.98 45.81 45.03 44.95 45.27
34.40 33.29 33.25 30.07 30.60 23.44 32.48 38.26 37.04 37.03 37.57 38.83 38.60 38.89 39.83 40.44 41.12 42.21 42.83 41.87 42.19 42.37 43.18 44.67 44.98 46.64 47.66 48.71 48.61 48.46 48.56 48.40 47.53 46.71 46.12 46.00 46.08 45.26 44.98 44.89 44.41 43.87 44.00 43.34
36.69 34.01 31.15 29.34 27.65 29.95 32.83 35.36 36.01 35.71 35.74 39.73 38.39 39.56 40.30 41.00 41.69 41.86 42.64 42.71 42.32 42.81 43.77 44.96 46.18 46.98 47.65 48.31 48.32 48.23 47.73 47.31 46.90 46.17 45.86 45.69 45.46 44.34 44.32 43.44 43.34 43.56 42.80 41.27
35.04 34.87 33.55 30.86 25.06 23.34 32.38 36.38 39.29 39.62 32.48 40.80 40.39 40.08 40.30 40.83 37.84 40.30 42.33 42.44 42.69 43.39 44.06 44.25 45.52 47.22 48.08 47.27 47.68 47.25 47.01 47.34 46.86 46.05 45.88 45.75 45.40 44.64 44.18 43.82 42.86 42.84 43.31 40.87
31.67 32.51 30.27 30.67 28.08 30.36 35.48 37.51 39.12 29.72 33.27 41.69 41.40 41.20 41.32 40.17 41.24 41.74 42.59 42.38 42.84 42.86 43.21 44.53 45.19 44.89 45.93 47.15 47.44 46.42 46.16 45.94 45.84 45.83 45.68 45.33 45.24 44.81 44.58 43.33 42.45 41.92 41.63 40.77
30.53 30.17 30.31 30.48 28.35 24.88 37.60 37.53 33.67 38.41 41.16 42.58 41.99 41.71 41.32 41.97 41.64 41.69 42.10 41.79 41.74 41.67 42.19 43.16 43.77 43.47 44.80 46.42 46.91 45.86 44.87 44.97 45.15 45.11 44.54 44.42 44.61 43.40 43.10 42.77 41.17 42.41 42.38 42.08
30.27 33.29 32.86 32.32 32.34 36.26 38.98 39.34 40.89 41.35 42.24 42.41 43.00 42.53 42.72 41.89 41.46 41.75 41.75 41.59 41.45 41.12 41.22 42.09 42.81 42.60 41.76 41.93 43.80 43.75 43.39 44.80 44.76 44.64 44.38 44.17 43.78 43.38 43.22 42.93 41.57 41.79 42.07 42.19
34.44 35.07 34.34 33.86 35.12 37.24 38.59 40.33 41.55 42.33 42.48 42.86 43.67 43.33 43.24 42.38 42.58 41.31 40.53 41.23 41.33 41.03 40.68 41.54 41.68 40.84 38.62 38.30 37.81 38.24 39.80 42.59 43.55 42.31 42.64 43.01 43.03 42.88 42.65 42.36 42.42 42.50 41.39 41.30
36.06 35.50 34.15 33.28 35.34 37.06 38.44 39.85 41.20 41.00 41.58 41.76 42.78 43.80 43.23 43.27 43.01 42.89 41.64 40.56 39.87 40.38 40.54 40.73 40.31 39.81 38.71 39.37 38.90 37.84 37.78 39.74 39.85 39.98 39.64 39.37 39.34 40.10 39.64 39.85 40.95 41.32 42.58 41.93
35.80 36.00 34.54 34.73 39.11 39.14 39.58 40.67 40.52 40.25 39.76 40.56 41.63 42.04 43.26 44.39 44.00 43.26 40.78 40.00 39.65 38.90 39.15 39.35 39.34 39.25 38.17 37.76 37.38 37.75 38.60 39.33 39.46 39.46 38.73 38.76 38.91 38.86 37.85 37.75 38.02 39.90 40.02 40.05

GFSCGP_sfc_wetblb_117.txt.gz
Wetbulb
38.44 33.71 29.19 32.59 34.69 34.17 32.23 29.90 28.35 32.48 36.51 34.79 33.79 34.73 38.92 43.30 44.92 44.73 45.84 47.72 48.59 50.93 52.28 53.73 55.59 59.39 60.51 61.62 61.37 64.25 65.99 66.27 66.72 65.56 65.09 65.47 64.85 64.71 64.44 64.67 64.46 64.81 64.89 64.99
33.88 29.05 35.68 36.91 35.61 32.84 31.39 28.61 28.40 33.03 36.21 34.55 34.84 35.07 39.73 42.52 44.06 45.75 46.40 47.27 48.77 50.15 51.10 52.71 54.36 57.71 58.06 60.95 60.75 61.51 65.48 66.33 66.48 65.72 65.95 66.75 67.58 67.47 67.12 66.27 65.26 64.58 65.01 65.30
30.44 34.10 36.90 34.55 32.55 30.29 30.28 28.48 29.04 29.00 33.71 36.37 34.83 34.12 36.16 41.84 44.47 45.85 47.23 48.57 49.76 49.73 50.38 51.80 53.50 56.24 58.77 57.24 61.12 61.40 63.19 65.85 66.35 66.50 66.96 67.10 66.99 67.31 66.66 66.80 67.32 67.05 67.50 67.68
33.64 37.05 33.95 32.60 30.61 31.95 27.94 34.30 32.93 31.24 29.80 26.85 36.33 27.50 35.16 39.13 40.51 43.36 45.44 47.01 48.53 49.71 51.02 51.93 52.83 54.81 58.41 58.36 59.20 62.93 62.81 65.13 66.40 67.06 65.77 65.18 64.20 63.65 65.13 65.76 66.24 66.15 67.18 67.74
32.13 33.14 32.89 31.53 32.80 35.26 31.01 35.10 34.11 34.28 31.37 30.84 32.43 28.35 33.67 39.60 37.03 39.78 43.53 46.81 48.93 50.62 51.14 50.98 52.74 55.39 60.25 60.59 60.97 62.77 63.44 64.81 66.18 66.09 66.14 65.72 64.66 64.74 65.09 66.14 65.21 65.48 66.01 66.35
34.37 39.38 36.65 35.55 36.97 36.68 37.21 34.63 34.21 32.86 31.85 26.88 32.28 29.51 30.99 34.01 37.52 40.79 44.18 46.66 48.12 49.71 51.21 51.64 53.69 56.17 60.76 60.93 61.31 62.35 61.80 63.40 65.26 65.74 65.22 65.14 65.40 65.55 64.43 64.92 64.61 64.51 64.79 64.89
34.37 35.07 38.23 37.12 33.77 38.02 35.50 32.48 28.16 25.96 25.14 26.66 33.96 30.45 32.44 36.18 38.65 42.67 43.18 44.55 47.66 49.24 50.02 51.53 53.23 57.99 60.14 60.56 60.37 59.85 60.97 62.07 62.84 63.83 64.07 62.87 62.69 63.63 65.37 65.12 65.15 63.97 63.33 63.59
28.01 27.87 34.89 38.02 34.97 32.03 31.85 33.02 27.93 21.87 24.55 27.58 35.12 28.83 31.88 39.32 42.43 44.09 43.98 45.26 47.75 47.71 47.79 49.19 54.35 58.63 60.37 59.76 59.85 59.87 59.80 59.96 61.18 60.85 61.62 61.96 61.84 62.56 62.86 62.96 64.37 64.05 63.82 64.50
28.67 29.63 37.13 37.10 36.82 35.72 33.96 32.55 35.91 29.61 30.82 28.35 30.87 33.57 37.42 40.35 42.34 41.56 41.99 44.64 45.85 46.13 46.25 48.57 53.33 58.74 59.47 59.26 59.26 59.93 60.48 60.15 60.66 60.93 60.50 61.50 60.73 61.53 61.06 61.65 62.51 61.94 62.69 63.56
32.65 27.43 35.63 36.73 38.24 38.53 36.62 37.85 31.02 33.23 25.14 23.75 28.50 28.70 27.96 35.02 37.97 40.12 40.85 43.92 45.30 46.09 46.68 47.65 53.54 59.13 60.29 60.44 60.86 61.60 61.42 60.60 60.67 61.12 61.09 60.73 61.03 61.34 61.74 61.28 60.87 61.48 62.03 62.41
34.73 32.29 33.88 37.05 34.15 32.89 34.85 32.87 33.63 33.85 30.52 26.52 25.03 27.05 36.74 37.10 38.62 40.79 41.66 44.51 44.97 45.10 46.07 47.16 52.30 58.87 59.65 60.30 60.57 60.85 61.25 60.67 60.59 60.88 60.55 60.53 60.56 60.46 60.58 60.19 60.96 61.03 61.00 61.87
37.35 33.99 30.80 32.04 37.91 38.93 37.08 35.25 34.55 31.74 29.16 32.13 30.08 28.07 40.64 41.30 41.18 42.08 42.48 44.37 45.20 45.65 46.08 48.30 51.45 56.88 57.89 58.02 58.41 58.33 59.29 59.93 60.53 60.94 60.59 60.47 59.79 59.66 59.58 60.10 60.80 61.12 60.87 61.28
38.75 33.56 29.38 31.84 35.60 38.72 35.27 37.49 36.51 35.57 36.58 30.77 27.50 29.61 41.26 41.49 41.46 42.51 42.52 43.73 44.42 45.14 46.19 46.94 48.40 51.48 53.36 55.17 55.24 56.12 57.44 58.27 58.89 59.97 60.14 59.00 58.69 59.37 58.54 57.69 58.20 58.82 58.69 58.29
40.81 34.23 31.79 27.87 30.64 34.21 33.04 35.97 36.85 35.12 32.15 31.00 31.33 32.29 37.22 39.35 39.77 41.77 42.79 43.78 44.57 44.71 45.56 46.48 48.02 48.55 49.72 51.57 53.98 53.68 54.59 56.37 57.28 57.31 56.99 57.01 57.17 56.57 56.11 56.14 56.22 55.75 56.07 55.90
39.71 31.68 34.13 35.73 36.42 36.75 35.49 35.60 36.71 34.08 35.88 31.77 33.12 33.48 37.02 39.86 40.79 41.30 42.92 43.48 42.81 43.27 44.32 45.78 46.86 48.09 49.40 50.33 52.05 52.44 52.59 53.89 55.48 55.51 55.08 54.77 54.97 54.49 53.57 53.02 53.69 53.63 54.10 53.14
40.32 33.68 34.81 32.22 36.44 36.84 33.62 36.17 37.01 36.97 37.25 36.41 36.57 35.27 41.49 42.52 43.15 41.82 41.82 42.02 41.54 42.32 44.05 45.44 46.53 48.15 48.59 48.92 49.16 50.77 51.65 52.13 53.76 53.53 52.10 52.12 52.24 51.76 51.24 50.58 50.02 50.04 48.92 48.09
37.60 36.01 33.59 29.68 34.37 34.22 30.98 33.76 35.52 37.06 38.59 38.30 33.67 37.72 42.24 40.37 40.66 41.04 42.21 42.68 42.04 43.01 43.89 44.88 45.88 47.55 48.41 49.13 49.66 48.81 49.75 51.46 50.90 49.98 49.53 49.50 50.16 49.23 49.08 49.10 48.87 48.91 47.78 47.17
36.69 35.44 34.97 31.60 32.85 24.97 33.79 39.95 39.66 38.03 38.57 39.98 39.21 39.93 41.04 41.13 42.48 42.87 43.45 42.84 42.51 43.49 44.17 45.40 46.31 47.48 48.61 49.79 49.31 49.55 49.43 48.97 49.07 48.70 48.72 49.43 48.92 47.92 47.61 47.36 46.23 45.63 45.62 45.40
39.13 36.50 33.18 30.51 29.39 31.46 34.01 37.18 37.38 36.17 35.68 40.16 39.53 40.91 41.52 42.23 44.49 41.49 43.64 44.09 43.65 44.69 45.26 45.84 47.32 48.37 48.89 48.71 49.51 49.34 48.76 48.45 47.74 46.97 46.86 47.51 46.79 45.75 45.80 44.80 44.68 44.76 44.37 43.88
37.58 37.81 35.02 32.37 26.89 24.92 34.17 38.36 41.28 41.29 31.66 41.29 41.71 41.01 41.27 43.18 37.91 38.63 43.27 43.77 43.85 45.05 45.12 45.86 47.38 48.48 48.63 48.59 49.56 48.85 48.18 48.37 47.01 47.04 46.66 47.04 46.94 46.18 45.43 45.94 44.59 44.41 43.51 42.18
33.36 34.32 32.15 32.20 29.62 31.67 37.54 39.70 41.32 30.40 33.74 42.24 42.83 42.49 42.29 39.79 41.24 42.86 44.36 43.64 44.34 44.17 44.44 46.39 46.29 45.74 46.95 48.49 49.25 47.69 47.38 45.54 46.39 46.90 46.41 46.17 46.25 45.79 45.59 44.56 43.64 43.68 42.31 41.84
32.20 31.67 31.52 32.34 29.67 26.48 39.97 39.45 35.07 40.37 44.02 43.69 43.41 43.54 42.72 43.10 43.28 43.90 43.76 43.17 43.16 42.95 43.28 44.99 44.21 43.37 44.01 45.81 47.62 45.20 44.22 46.24 46.59 46.43 45.75 45.45 45.73 44.55 44.35 43.34 42.78 42.84 42.00 41.51
31.87 35.07 33.84 33.77 33.09 38.80 41.04 41.16 42.93 43.72 43.81 43.69 44.19 44.11 44.27 43.48 43.23 43.93 43.29 43.33 42.96 42.97 43.07 43.84 43.42 41.79 41.07 40.72 40.99 39.90 40.52 43.40 45.20 45.84 45.52 45.06 44.85 44.16 44.36 43.39 42.43 42.35 42.82 42.62
36.49 37.93 36.31 35.34 37.08 39.44 41.09 42.66 43.79 44.56 44.13 44.81 45.32 44.86 44.82 43.69 44.18 43.35 43.11 43.07 42.80 42.56 42.28 43.29 42.94 41.63 40.30 39.98 39.31 38.41 38.91 42.52 42.01 41.22 41.27 41.76 43.41 43.77 43.80 43.63 43.68 43.16 42.63 42.44
37.97 37.93 36.83 36.12 38.05 39.45 40.71 42.51 43.56 43.27 43.87 43.88 44.78 45.38 44.53 44.79 44.27 44.32 43.30 42.52 41.95 41.92 41.96 42.22 41.62 40.75 39.94 40.60 40.16 40.57 40.88 41.24 40.21 40.01 39.85 39.64 39.56 39.94 39.30 39.32 40.42 41.02 42.25 42.05
38.66 37.89 35.49 35.81 40.89 41.09 41.65 42.76 43.79 42.63 42.03 42.65 43.44 43.49 44.77 45.35 44.95 44.96 43.54 42.87 41.90 41.02 41.22 40.85 40.92 40.50 39.62 39.57 38.85 39.06 39.77 40.27 40.41 40.27 39.98 39.47 39.60 39.16 38.20 37.82 38.27 40.66 40.79 41.05